<?xml version="1.0" encoding="UTF-8" standalone="no" ?>
<gpx xmlns="http://www.topografix.com/GPX/1/1" xmlns:xsi="http://www.w3.org/2001/XMLSchema-instance" xsi:schemaLocation="http://www.topografix.com/GPX/1/1 http://www.topografix.com/GPX/1/1/gpx.xsd" version="1.1" creator="VisuGPX - https://www.visugpx.com">
  <metadata>
    <name>2021-09 Munster-Thann</name>
  </metadata>
  <trk>
    <name><![CDATA[2021-09-28 J2-Munster Thann par Petit et Grand Ballon]]></name>
    <extensions>
      <line xmlns="http://www.topografix.com/GPX/gpx_style/0/2">
        <color>0000FF</color>
        <opacity>0.59</opacity>
        <width>6</width>
      </line>
    </extensions>
    <trkseg>
      <trkpt lat="47.92427" lon="7.04187">
        <ele>1214.3</ele>
        <time>2021-09-28T06:44:51.000Z</time>
      </trkpt>
      <trkpt lat="47.92417" lon="7.04184">
        <ele>1214.8</ele>
        <time>2021-09-28T06:45:40.000Z</time>
      </trkpt>
      <trkpt lat="47.92407" lon="7.04182">
        <ele>1215.2</ele>
        <time>2021-09-28T06:45:48.000Z</time>
      </trkpt>
      <trkpt lat="47.92397" lon="7.04185">
        <ele>1215.5</ele>
        <time>2021-09-28T06:45:55.000Z</time>
      </trkpt>
      <trkpt lat="47.92387" lon="7.04184">
        <ele>1215.9</ele>
        <time>2021-09-28T06:46:02.000Z</time>
      </trkpt>
      <trkpt lat="47.92378" lon="7.04182">
        <ele>1216.3</ele>
        <time>2021-09-28T06:46:11.000Z</time>
      </trkpt>
      <trkpt lat="47.92368" lon="7.04179">
        <ele>1216.8</ele>
        <time>2021-09-28T06:46:19.000Z</time>
      </trkpt>
      <trkpt lat="47.92359" lon="7.04176">
        <ele>1217.3</ele>
        <time>2021-09-28T06:46:26.000Z</time>
      </trkpt>
      <trkpt lat="47.92349" lon="7.04176">
        <ele>1217.7</ele>
        <time>2021-09-28T06:46:33.000Z</time>
      </trkpt>
      <trkpt lat="47.9234" lon="7.04172">
        <ele>1218.4</ele>
        <time>2021-09-28T06:46:41.000Z</time>
      </trkpt>
      <trkpt lat="47.92331" lon="7.0417">
        <ele>1218.7</ele>
        <time>2021-09-28T06:46:48.000Z</time>
      </trkpt>
      <trkpt lat="47.92322" lon="7.04165">
        <ele>1218.6</ele>
        <time>2021-09-28T06:46:55.000Z</time>
      </trkpt>
      <trkpt lat="47.92314" lon="7.0416">
        <ele>1218.4</ele>
        <time>2021-09-28T06:47:02.000Z</time>
      </trkpt>
      <trkpt lat="47.92304" lon="7.04154">
        <ele>1218.3</ele>
        <time>2021-09-28T06:47:10.000Z</time>
      </trkpt>
      <trkpt lat="47.923" lon="7.04142">
        <ele>1218.4</ele>
        <time>2021-09-28T06:47:21.000Z</time>
      </trkpt>
      <trkpt lat="47.92291" lon="7.04137">
        <ele>1218.4</ele>
        <time>2021-09-28T06:47:35.000Z</time>
      </trkpt>
      <trkpt lat="47.92282" lon="7.0413">
        <ele>1218.4</ele>
        <time>2021-09-28T06:47:42.000Z</time>
      </trkpt>
      <trkpt lat="47.92273" lon="7.04125">
        <ele>1218.4</ele>
        <time>2021-09-28T06:47:50.000Z</time>
      </trkpt>
      <trkpt lat="47.92263" lon="7.0412">
        <ele>1218.5</ele>
        <time>2021-09-28T06:47:57.000Z</time>
      </trkpt>
      <trkpt lat="47.92254" lon="7.04115">
        <ele>1218.5</ele>
        <time>2021-09-28T06:48:04.000Z</time>
      </trkpt>
      <trkpt lat="47.92246" lon="7.04111">
        <ele>1218.5</ele>
        <time>2021-09-28T06:48:10.000Z</time>
      </trkpt>
      <trkpt lat="47.92237" lon="7.04106">
        <ele>1218.5</ele>
        <time>2021-09-28T06:48:18.000Z</time>
      </trkpt>
      <trkpt lat="47.92228" lon="7.04103">
        <ele>1218.5</ele>
        <time>2021-09-28T06:48:25.000Z</time>
      </trkpt>
      <trkpt lat="47.92219" lon="7.04099">
        <ele>1218.4</ele>
        <time>2021-09-28T06:48:32.000Z</time>
      </trkpt>
      <trkpt lat="47.9221" lon="7.04093">
        <ele>1218.5</ele>
        <time>2021-09-28T06:48:39.000Z</time>
      </trkpt>
      <trkpt lat="47.92201" lon="7.0409">
        <ele>1218.4</ele>
        <time>2021-09-28T06:48:46.000Z</time>
      </trkpt>
      <trkpt lat="47.92191" lon="7.04088">
        <ele>1218.3</ele>
        <time>2021-09-28T06:48:55.000Z</time>
      </trkpt>
      <trkpt lat="47.92183" lon="7.04083">
        <ele>1218.4</ele>
        <time>2021-09-28T06:49:02.000Z</time>
      </trkpt>
      <trkpt lat="47.92174" lon="7.04087">
        <ele>1218</ele>
        <time>2021-09-28T06:49:09.000Z</time>
      </trkpt>
      <trkpt lat="47.92165" lon="7.04091">
        <ele>1217.4</ele>
        <time>2021-09-28T06:49:18.000Z</time>
      </trkpt>
      <trkpt lat="47.92156" lon="7.04094">
        <ele>1216.9</ele>
        <time>2021-09-28T06:49:27.000Z</time>
      </trkpt>
      <trkpt lat="47.92147" lon="7.041">
        <ele>1216.4</ele>
        <time>2021-09-28T06:50:37.000Z</time>
      </trkpt>
      <trkpt lat="47.92138" lon="7.04105">
        <ele>1216.1</ele>
        <time>2021-09-28T06:50:44.000Z</time>
      </trkpt>
      <trkpt lat="47.92129" lon="7.0411">
        <ele>1215.9</ele>
        <time>2021-09-28T06:50:51.000Z</time>
      </trkpt>
      <trkpt lat="47.9212" lon="7.04117">
        <ele>1215.9</ele>
        <time>2021-09-28T06:51:00.000Z</time>
      </trkpt>
      <trkpt lat="47.92113" lon="7.04124">
        <ele>1216.1</ele>
        <time>2021-09-28T06:51:28.000Z</time>
      </trkpt>
      <trkpt lat="47.92104" lon="7.04131">
        <ele>1216.6</ele>
        <time>2021-09-28T06:51:36.000Z</time>
      </trkpt>
      <trkpt lat="47.92094" lon="7.04134">
        <ele>1217</ele>
        <time>2021-09-28T06:51:43.000Z</time>
      </trkpt>
      <trkpt lat="47.92086" lon="7.04143">
        <ele>1217.8</ele>
        <time>2021-09-28T06:51:51.000Z</time>
      </trkpt>
      <trkpt lat="47.92079" lon="7.0415">
        <ele>1218.5</ele>
        <time>2021-09-28T06:51:57.000Z</time>
      </trkpt>
      <trkpt lat="47.92069" lon="7.04151">
        <ele>1218.5</ele>
        <time>2021-09-28T06:52:06.000Z</time>
      </trkpt>
      <trkpt lat="47.92061" lon="7.04158">
        <ele>1219.2</ele>
        <time>2021-09-28T06:52:13.000Z</time>
      </trkpt>
      <trkpt lat="47.92052" lon="7.04164">
        <ele>1220</ele>
        <time>2021-09-28T06:52:20.000Z</time>
      </trkpt>
      <trkpt lat="47.92045" lon="7.04172">
        <ele>1220.7</ele>
        <time>2021-09-28T06:52:29.000Z</time>
      </trkpt>
      <trkpt lat="47.92038" lon="7.04181">
        <ele>1221.2</ele>
        <time>2021-09-28T06:52:40.000Z</time>
      </trkpt>
      <trkpt lat="47.92033" lon="7.04192">
        <ele>1222.1</ele>
        <time>2021-09-28T06:52:57.000Z</time>
      </trkpt>
      <trkpt lat="47.92026" lon="7.04202">
        <ele>1223.2</ele>
        <time>2021-09-28T06:53:10.000Z</time>
      </trkpt>
      <trkpt lat="47.92017" lon="7.04209">
        <ele>1224.5</ele>
        <time>2021-09-28T06:53:32.000Z</time>
      </trkpt>
      <trkpt lat="47.92009" lon="7.04217">
        <ele>1226.1</ele>
        <time>2021-09-28T06:53:40.000Z</time>
      </trkpt>
      <trkpt lat="47.92001" lon="7.04221">
        <ele>1227.5</ele>
        <time>2021-09-28T06:53:47.000Z</time>
      </trkpt>
      <trkpt lat="47.9199" lon="7.04226">
        <ele>1227.3</ele>
        <time>2021-09-28T06:53:56.000Z</time>
      </trkpt>
      <trkpt lat="47.91981" lon="7.04231">
        <ele>1227.3</ele>
        <time>2021-09-28T06:54:03.000Z</time>
      </trkpt>
      <trkpt lat="47.91973" lon="7.04235">
        <ele>1227.3</ele>
        <time>2021-09-28T06:54:10.000Z</time>
      </trkpt>
      <trkpt lat="47.91963" lon="7.0424">
        <ele>1227.3</ele>
        <time>2021-09-28T06:54:18.000Z</time>
      </trkpt>
      <trkpt lat="47.91954" lon="7.04241">
        <ele>1226.8</ele>
        <time>2021-09-28T06:54:27.000Z</time>
      </trkpt>
      <trkpt lat="47.91944" lon="7.04244">
        <ele>1226.6</ele>
        <time>2021-09-28T06:54:34.000Z</time>
      </trkpt>
      <trkpt lat="47.91935" lon="7.04247">
        <ele>1226.7</ele>
        <time>2021-09-28T06:54:41.000Z</time>
      </trkpt>
      <trkpt lat="47.91927" lon="7.04256">
        <ele>1226.6</ele>
        <time>2021-09-28T06:54:50.000Z</time>
      </trkpt>
      <trkpt lat="47.91919" lon="7.04264">
        <ele>1226.3</ele>
        <time>2021-09-28T06:54:57.000Z</time>
      </trkpt>
      <trkpt lat="47.91911" lon="7.04271">
        <ele>1225.7</ele>
        <time>2021-09-28T06:55:06.000Z</time>
      </trkpt>
      <trkpt lat="47.91902" lon="7.04277">
        <ele>1225.1</ele>
        <time>2021-09-28T06:55:15.000Z</time>
      </trkpt>
      <trkpt lat="47.91894" lon="7.04283">
        <ele>1224.7</ele>
        <time>2021-09-28T06:55:24.000Z</time>
      </trkpt>
      <trkpt lat="47.91886" lon="7.0429">
        <ele>1224.4</ele>
        <time>2021-09-28T06:55:31.000Z</time>
      </trkpt>
      <trkpt lat="47.91878" lon="7.04297">
        <ele>1224.2</ele>
        <time>2021-09-28T06:55:38.000Z</time>
      </trkpt>
      <trkpt lat="47.91869" lon="7.04304">
        <ele>1224.3</ele>
        <time>2021-09-28T06:55:45.000Z</time>
      </trkpt>
      <trkpt lat="47.91862" lon="7.04313">
        <ele>1224.7</ele>
        <time>2021-09-28T06:55:53.000Z</time>
      </trkpt>
      <trkpt lat="47.91854" lon="7.04321">
        <ele>1225.1</ele>
        <time>2021-09-28T06:56:01.000Z</time>
      </trkpt>
      <trkpt lat="47.91847" lon="7.0433">
        <ele>1225.8</ele>
        <time>2021-09-28T06:56:08.000Z</time>
      </trkpt>
      <trkpt lat="47.91839" lon="7.04338">
        <ele>1226</ele>
        <time>2021-09-28T06:56:15.000Z</time>
      </trkpt>
      <trkpt lat="47.91832" lon="7.04347">
        <ele>1225.7</ele>
        <time>2021-09-28T06:56:22.000Z</time>
      </trkpt>
      <trkpt lat="47.91824" lon="7.04356">
        <ele>1224.9</ele>
        <time>2021-09-28T06:56:30.000Z</time>
      </trkpt>
      <trkpt lat="47.91816" lon="7.04366">
        <ele>1224.5</ele>
        <time>2021-09-28T06:56:38.000Z</time>
      </trkpt>
      <trkpt lat="47.91808" lon="7.04374">
        <ele>1224.3</ele>
        <time>2021-09-28T06:56:46.000Z</time>
      </trkpt>
      <trkpt lat="47.918" lon="7.04383">
        <ele>1224.6</ele>
        <time>2021-09-28T06:56:55.000Z</time>
      </trkpt>
      <trkpt lat="47.91793" lon="7.04392">
        <ele>1225.1</ele>
        <time>2021-09-28T06:57:05.000Z</time>
      </trkpt>
      <trkpt lat="47.91786" lon="7.04401">
        <ele>1225.9</ele>
        <time>2021-09-28T06:57:13.000Z</time>
      </trkpt>
      <trkpt lat="47.91779" lon="7.04411">
        <ele>1227</ele>
        <time>2021-09-28T06:57:20.000Z</time>
      </trkpt>
      <trkpt lat="47.91772" lon="7.04421">
        <ele>1228.1</ele>
        <time>2021-09-28T06:57:31.000Z</time>
      </trkpt>
      <trkpt lat="47.91763" lon="7.04427">
        <ele>1228.9</ele>
        <time>2021-09-28T06:57:39.000Z</time>
      </trkpt>
      <trkpt lat="47.91754" lon="7.04435">
        <ele>1229.8</ele>
        <time>2021-09-28T06:58:06.000Z</time>
      </trkpt>
      <trkpt lat="47.91746" lon="7.04441">
        <ele>1229.8</ele>
        <time>2021-09-28T06:58:13.000Z</time>
      </trkpt>
      <trkpt lat="47.91738" lon="7.04447">
        <ele>1229.1</ele>
        <time>2021-09-28T06:58:20.000Z</time>
      </trkpt>
      <trkpt lat="47.91729" lon="7.04455">
        <ele>1228.4</ele>
        <time>2021-09-28T06:58:27.000Z</time>
      </trkpt>
      <trkpt lat="47.9172" lon="7.04461">
        <ele>1227.8</ele>
        <time>2021-09-28T06:58:34.000Z</time>
      </trkpt>
      <trkpt lat="47.91711" lon="7.04467">
        <ele>1227.2</ele>
        <time>2021-09-28T06:58:42.000Z</time>
      </trkpt>
      <trkpt lat="47.91703" lon="7.04474">
        <ele>1227.1</ele>
        <time>2021-09-28T06:59:51.000Z</time>
      </trkpt>
      <trkpt lat="47.91695" lon="7.04482">
        <ele>1227.1</ele>
        <time>2021-09-28T06:59:57.000Z</time>
      </trkpt>
      <trkpt lat="47.91686" lon="7.04488">
        <ele>1227.1</ele>
        <time>2021-09-28T07:00:05.000Z</time>
      </trkpt>
      <trkpt lat="47.91678" lon="7.04495">
        <ele>1227.2</ele>
        <time>2021-09-28T07:00:14.000Z</time>
      </trkpt>
      <trkpt lat="47.91668" lon="7.04504">
        <ele>1226.9</ele>
        <time>2021-09-28T07:00:23.000Z</time>
      </trkpt>
      <trkpt lat="47.9166" lon="7.0451">
        <ele>1225.6</ele>
        <time>2021-09-28T07:00:32.000Z</time>
      </trkpt>
      <trkpt lat="47.91652" lon="7.04516">
        <ele>1224.4</ele>
        <time>2021-09-28T07:00:50.000Z</time>
      </trkpt>
      <trkpt lat="47.91642" lon="7.0452">
        <ele>1223.1</ele>
        <time>2021-09-28T07:00:59.000Z</time>
      </trkpt>
      <trkpt lat="47.91634" lon="7.04524">
        <ele>1222</ele>
        <time>2021-09-28T07:01:07.000Z</time>
      </trkpt>
      <trkpt lat="47.91624" lon="7.04527">
        <ele>1220.8</ele>
        <time>2021-09-28T07:01:17.000Z</time>
      </trkpt>
      <trkpt lat="47.91615" lon="7.04532">
        <ele>1219.9</ele>
        <time>2021-09-28T07:01:25.000Z</time>
      </trkpt>
      <trkpt lat="47.91605" lon="7.0453">
        <ele>1218.8</ele>
        <time>2021-09-28T07:01:30.000Z</time>
      </trkpt>
      <trkpt lat="47.91596" lon="7.04532">
        <ele>1217.8</ele>
        <time>2021-09-28T07:01:37.000Z</time>
      </trkpt>
      <trkpt lat="47.91587" lon="7.04538">
        <ele>1217.2</ele>
        <time>2021-09-28T07:01:45.000Z</time>
      </trkpt>
      <trkpt lat="47.91578" lon="7.04543">
        <ele>1216.3</ele>
        <time>2021-09-28T07:01:52.000Z</time>
      </trkpt>
      <trkpt lat="47.91568" lon="7.04548">
        <ele>1215</ele>
        <time>2021-09-28T07:02:00.000Z</time>
      </trkpt>
      <trkpt lat="47.91559" lon="7.04552">
        <ele>1213.8</ele>
        <time>2021-09-28T07:02:08.000Z</time>
      </trkpt>
      <trkpt lat="47.91549" lon="7.04552">
        <ele>1212.3</ele>
        <time>2021-09-28T07:02:46.000Z</time>
      </trkpt>
      <trkpt lat="47.91541" lon="7.04559">
        <ele>1211.4</ele>
        <time>2021-09-28T07:02:53.000Z</time>
      </trkpt>
      <trkpt lat="47.91532" lon="7.04564">
        <ele>1210.4</ele>
        <time>2021-09-28T07:03:01.000Z</time>
      </trkpt>
      <trkpt lat="47.91523" lon="7.04563">
        <ele>1209</ele>
        <time>2021-09-28T07:03:11.000Z</time>
      </trkpt>
      <trkpt lat="47.91514" lon="7.04572">
        <ele>1208.3</ele>
        <time>2021-09-28T07:03:16.000Z</time>
      </trkpt>
      <trkpt lat="47.91505" lon="7.04573">
        <ele>1207</ele>
        <time>2021-09-28T07:03:23.000Z</time>
      </trkpt>
      <trkpt lat="47.91495" lon="7.04576">
        <ele>1206.2</ele>
        <time>2021-09-28T07:03:29.000Z</time>
      </trkpt>
      <trkpt lat="47.91485" lon="7.04579">
        <ele>1205.8</ele>
        <time>2021-09-28T07:03:37.000Z</time>
      </trkpt>
      <trkpt lat="47.91475" lon="7.04581">
        <ele>1205.3</ele>
        <time>2021-09-28T07:03:44.000Z</time>
      </trkpt>
      <trkpt lat="47.91466" lon="7.04587">
        <ele>1204.8</ele>
        <time>2021-09-28T07:03:52.000Z</time>
      </trkpt>
      <trkpt lat="47.91457" lon="7.04589">
        <ele>1204.2</ele>
        <time>2021-09-28T07:03:58.000Z</time>
      </trkpt>
      <trkpt lat="47.91448" lon="7.04594">
        <ele>1203.6</ele>
        <time>2021-09-28T07:04:06.000Z</time>
      </trkpt>
      <trkpt lat="47.91439" lon="7.04599">
        <ele>1203</ele>
        <time>2021-09-28T07:04:14.000Z</time>
      </trkpt>
      <trkpt lat="47.9143" lon="7.04602">
        <ele>1202.6</ele>
        <time>2021-09-28T07:04:20.000Z</time>
      </trkpt>
      <trkpt lat="47.91421" lon="7.04606">
        <ele>1202.2</ele>
        <time>2021-09-28T07:04:26.000Z</time>
      </trkpt>
      <trkpt lat="47.91412" lon="7.04615">
        <ele>1201.1</ele>
        <time>2021-09-28T07:04:34.000Z</time>
      </trkpt>
      <trkpt lat="47.91405" lon="7.04623">
        <ele>1199.8</ele>
        <time>2021-09-28T07:04:41.000Z</time>
      </trkpt>
      <trkpt lat="47.91397" lon="7.04631">
        <ele>1198.7</ele>
        <time>2021-09-28T07:04:48.000Z</time>
      </trkpt>
      <trkpt lat="47.91391" lon="7.04643">
        <ele>1198.2</ele>
        <time>2021-09-28T07:04:55.000Z</time>
      </trkpt>
      <trkpt lat="47.91384" lon="7.04654">
        <ele>1197.8</ele>
        <time>2021-09-28T07:05:02.000Z</time>
      </trkpt>
      <trkpt lat="47.91377" lon="7.04662">
        <ele>1197.3</ele>
        <time>2021-09-28T07:05:10.000Z</time>
      </trkpt>
      <trkpt lat="47.91369" lon="7.04668">
        <ele>1196.7</ele>
        <time>2021-09-28T07:05:16.000Z</time>
      </trkpt>
      <trkpt lat="47.91362" lon="7.04678">
        <ele>1195</ele>
        <time>2021-09-28T07:05:24.000Z</time>
      </trkpt>
      <trkpt lat="47.91355" lon="7.04688">
        <ele>1193.6</ele>
        <time>2021-09-28T07:05:31.000Z</time>
      </trkpt>
      <trkpt lat="47.91348" lon="7.04698">
        <ele>1192.4</ele>
        <time>2021-09-28T07:05:38.000Z</time>
      </trkpt>
      <trkpt lat="47.9134" lon="7.04707">
        <ele>1191.4</ele>
        <time>2021-09-28T07:05:46.000Z</time>
      </trkpt>
      <trkpt lat="47.91331" lon="7.04706">
        <ele>1190.3</ele>
        <time>2021-09-28T07:05:54.000Z</time>
      </trkpt>
      <trkpt lat="47.9132" lon="7.04704">
        <ele>1187.3</ele>
        <time>2021-09-28T07:06:02.000Z</time>
      </trkpt>
      <trkpt lat="47.91311" lon="7.04702">
        <ele>1184.6</ele>
        <time>2021-09-28T07:06:10.000Z</time>
      </trkpt>
      <trkpt lat="47.91302" lon="7.04702">
        <ele>1181.8</ele>
        <time>2021-09-28T07:06:18.000Z</time>
      </trkpt>
      <trkpt lat="47.91292" lon="7.04702">
        <ele>1178.8</ele>
        <time>2021-09-28T07:06:26.000Z</time>
      </trkpt>
      <trkpt lat="47.91282" lon="7.04703">
        <ele>1175.9</ele>
        <time>2021-09-28T07:06:37.000Z</time>
      </trkpt>
      <trkpt lat="47.91286" lon="7.04716">
        <ele>1177.6</ele>
        <time>2021-09-28T07:07:26.000Z</time>
      </trkpt>
      <trkpt lat="47.91285" lon="7.0473">
        <ele>1178</ele>
        <time>2021-09-28T07:07:36.000Z</time>
      </trkpt>
      <trkpt lat="47.9128" lon="7.04744">
        <ele>1177.8</ele>
        <time>2021-09-28T07:07:45.000Z</time>
      </trkpt>
      <trkpt lat="47.91276" lon="7.04756">
        <ele>1177.2</ele>
        <time>2021-09-28T07:07:53.000Z</time>
      </trkpt>
      <trkpt lat="47.91271" lon="7.04767">
        <ele>1176</ele>
        <time>2021-09-28T07:08:02.000Z</time>
      </trkpt>
      <trkpt lat="47.91267" lon="7.04779">
        <ele>1175.3</ele>
        <time>2021-09-28T07:08:09.000Z</time>
      </trkpt>
      <trkpt lat="47.91263" lon="7.04793">
        <ele>1174.7</ele>
        <time>2021-09-28T07:08:17.000Z</time>
      </trkpt>
      <trkpt lat="47.9126" lon="7.04806">
        <ele>1174.3</ele>
        <time>2021-09-28T07:08:24.000Z</time>
      </trkpt>
      <trkpt lat="47.91256" lon="7.04819">
        <ele>1174.1</ele>
        <time>2021-09-28T07:08:32.000Z</time>
      </trkpt>
      <trkpt lat="47.91253" lon="7.04832">
        <ele>1174.1</ele>
        <time>2021-09-28T07:08:39.000Z</time>
      </trkpt>
      <trkpt lat="47.91244" lon="7.04839">
        <ele>1172.4</ele>
        <time>2021-09-28T07:08:47.000Z</time>
      </trkpt>
      <trkpt lat="47.91237" lon="7.04847">
        <ele>1170.7</ele>
        <time>2021-09-28T07:08:52.000Z</time>
      </trkpt>
      <trkpt lat="47.9123" lon="7.04858">
        <ele>1169.6</ele>
        <time>2021-09-28T07:08:59.000Z</time>
      </trkpt>
      <trkpt lat="47.91223" lon="7.04867">
        <ele>1168.6</ele>
        <time>2021-09-28T07:09:05.000Z</time>
      </trkpt>
      <trkpt lat="47.91217" lon="7.04879">
        <ele>1168.3</ele>
        <time>2021-09-28T07:09:13.000Z</time>
      </trkpt>
      <trkpt lat="47.91211" lon="7.04889">
        <ele>1168</ele>
        <time>2021-09-28T07:09:21.000Z</time>
      </trkpt>
      <trkpt lat="47.91205" lon="7.04901">
        <ele>1168.3</ele>
        <time>2021-09-28T07:09:27.000Z</time>
      </trkpt>
      <trkpt lat="47.91198" lon="7.04911">
        <ele>1168.6</ele>
        <time>2021-09-28T07:09:40.000Z</time>
      </trkpt>
      <trkpt lat="47.91191" lon="7.04921">
        <ele>1169</ele>
        <time>2021-09-28T07:09:47.000Z</time>
      </trkpt>
      <trkpt lat="47.91184" lon="7.0493">
        <ele>1169.1</ele>
        <time>2021-09-28T07:09:54.000Z</time>
      </trkpt>
      <trkpt lat="47.91176" lon="7.04939">
        <ele>1169.7</ele>
        <time>2021-09-28T07:10:02.000Z</time>
      </trkpt>
      <trkpt lat="47.91171" lon="7.0495">
        <ele>1170.6</ele>
        <time>2021-09-28T07:10:09.000Z</time>
      </trkpt>
      <trkpt lat="47.91163" lon="7.04957">
        <ele>1171.4</ele>
        <time>2021-09-28T07:10:16.000Z</time>
      </trkpt>
      <trkpt lat="47.91156" lon="7.04967">
        <ele>1172.8</ele>
        <time>2021-09-28T07:10:26.000Z</time>
      </trkpt>
      <trkpt lat="47.91148" lon="7.04975">
        <ele>1174.1</ele>
        <time>2021-09-28T07:10:34.000Z</time>
      </trkpt>
      <trkpt lat="47.91141" lon="7.04984">
        <ele>1175.7</ele>
        <time>2021-09-28T07:10:41.000Z</time>
      </trkpt>
      <trkpt lat="47.91132" lon="7.04991">
        <ele>1177.5</ele>
        <time>2021-09-28T07:10:52.000Z</time>
      </trkpt>
      <trkpt lat="47.91126" lon="7.05003">
        <ele>1179.5</ele>
        <time>2021-09-28T07:11:03.000Z</time>
      </trkpt>
      <trkpt lat="47.91119" lon="7.05011">
        <ele>1180.3</ele>
        <time>2021-09-28T07:11:11.000Z</time>
      </trkpt>
      <trkpt lat="47.91112" lon="7.05021">
        <ele>1181</ele>
        <time>2021-09-28T07:11:21.000Z</time>
      </trkpt>
      <trkpt lat="47.91108" lon="7.05033">
        <ele>1181.6</ele>
        <time>2021-09-28T07:11:31.000Z</time>
      </trkpt>
      <trkpt lat="47.91099" lon="7.0504">
        <ele>1182.4</ele>
        <time>2021-09-28T07:11:39.000Z</time>
      </trkpt>
      <trkpt lat="47.91091" lon="7.0505">
        <ele>1183.1</ele>
        <time>2021-09-28T07:11:47.000Z</time>
      </trkpt>
      <trkpt lat="47.91084" lon="7.05058">
        <ele>1183.7</ele>
        <time>2021-09-28T07:11:56.000Z</time>
      </trkpt>
      <trkpt lat="47.91078" lon="7.0507">
        <ele>1183.5</ele>
        <time>2021-09-28T07:12:05.000Z</time>
      </trkpt>
      <trkpt lat="47.91071" lon="7.05079">
        <ele>1183.2</ele>
        <time>2021-09-28T07:12:26.000Z</time>
      </trkpt>
      <trkpt lat="47.9107" lon="7.05093">
        <ele>1182.6</ele>
        <time>2021-09-28T07:12:33.000Z</time>
      </trkpt>
      <trkpt lat="47.9107" lon="7.05108">
        <ele>1181.7</ele>
        <time>2021-09-28T07:12:41.000Z</time>
      </trkpt>
      <trkpt lat="47.91069" lon="7.05121">
        <ele>1180.9</ele>
        <time>2021-09-28T07:12:48.000Z</time>
      </trkpt>
      <trkpt lat="47.91068" lon="7.05135">
        <ele>1180</ele>
        <time>2021-09-28T07:12:55.000Z</time>
      </trkpt>
      <trkpt lat="47.91069" lon="7.05149">
        <ele>1179.2</ele>
        <time>2021-09-28T07:13:01.000Z</time>
      </trkpt>
      <trkpt lat="47.91067" lon="7.05164">
        <ele>1178.2</ele>
        <time>2021-09-28T07:13:09.000Z</time>
      </trkpt>
      <trkpt lat="47.91066" lon="7.05177">
        <ele>1178.2</ele>
        <time>2021-09-28T07:13:16.000Z</time>
      </trkpt>
      <trkpt lat="47.91064" lon="7.05192">
        <ele>1178.5</ele>
        <time>2021-09-28T07:13:23.000Z</time>
      </trkpt>
      <trkpt lat="47.91064" lon="7.05208">
        <ele>1179</ele>
        <time>2021-09-28T07:13:30.000Z</time>
      </trkpt>
      <trkpt lat="47.91064" lon="7.05222">
        <ele>1179.4</ele>
        <time>2021-09-28T07:13:38.000Z</time>
      </trkpt>
      <trkpt lat="47.91065" lon="7.05236">
        <ele>1179.8</ele>
        <time>2021-09-28T07:13:45.000Z</time>
      </trkpt>
      <trkpt lat="47.91066" lon="7.05249">
        <ele>1180.3</ele>
        <time>2021-09-28T07:13:53.000Z</time>
      </trkpt>
      <trkpt lat="47.91067" lon="7.05265">
        <ele>1182.2</ele>
        <time>2021-09-28T07:14:01.000Z</time>
      </trkpt>
      <trkpt lat="47.91066" lon="7.05278">
        <ele>1183.9</ele>
        <time>2021-09-28T07:14:10.000Z</time>
      </trkpt>
      <trkpt lat="47.9107" lon="7.05291">
        <ele>1186.2</ele>
        <time>2021-09-28T07:14:22.000Z</time>
      </trkpt>
      <trkpt lat="47.9107" lon="7.05306">
        <ele>1187.9</ele>
        <time>2021-09-28T07:14:34.000Z</time>
      </trkpt>
      <trkpt lat="47.9107" lon="7.0532">
        <ele>1189.8</ele>
        <time>2021-09-28T07:14:46.000Z</time>
      </trkpt>
      <trkpt lat="47.91068" lon="7.05333">
        <ele>1191.3</ele>
        <time>2021-09-28T07:14:58.000Z</time>
      </trkpt>
      <trkpt lat="47.91068" lon="7.05347">
        <ele>1192.9</ele>
        <time>2021-09-28T07:15:08.000Z</time>
      </trkpt>
      <trkpt lat="47.91068" lon="7.05361">
        <ele>1194.5</ele>
        <time>2021-09-28T07:15:17.000Z</time>
      </trkpt>
      <trkpt lat="47.91069" lon="7.05375">
        <ele>1196.3</ele>
        <time>2021-09-28T07:15:27.000Z</time>
      </trkpt>
      <trkpt lat="47.91072" lon="7.05388">
        <ele>1198.5</ele>
        <time>2021-09-28T07:15:39.000Z</time>
      </trkpt>
      <trkpt lat="47.91071" lon="7.05403">
        <ele>1200.2</ele>
        <time>2021-09-28T07:15:48.000Z</time>
      </trkpt>
      <trkpt lat="47.91073" lon="7.05416">
        <ele>1202.4</ele>
        <time>2021-09-28T07:15:58.000Z</time>
      </trkpt>
      <trkpt lat="47.91074" lon="7.0543">
        <ele>1202.5</ele>
        <time>2021-09-28T07:16:07.000Z</time>
      </trkpt>
      <trkpt lat="47.91075" lon="7.05445">
        <ele>1202.8</ele>
        <time>2021-09-28T07:16:16.000Z</time>
      </trkpt>
      <trkpt lat="47.91075" lon="7.05458">
        <ele>1202.7</ele>
        <time>2021-09-28T07:16:27.000Z</time>
      </trkpt>
      <trkpt lat="47.91077" lon="7.05473">
        <ele>1202.9</ele>
        <time>2021-09-28T07:16:34.000Z</time>
      </trkpt>
      <trkpt lat="47.91079" lon="7.05486">
        <ele>1203.3</ele>
        <time>2021-09-28T07:16:43.000Z</time>
      </trkpt>
      <trkpt lat="47.91077" lon="7.055">
        <ele>1202.8</ele>
        <time>2021-09-28T07:16:51.000Z</time>
      </trkpt>
      <trkpt lat="47.91082" lon="7.05513">
        <ele>1204.4</ele>
        <time>2021-09-28T07:17:00.000Z</time>
      </trkpt>
      <trkpt lat="47.91082" lon="7.05529">
        <ele>1205</ele>
        <time>2021-09-28T07:17:06.000Z</time>
      </trkpt>
      <trkpt lat="47.91081" lon="7.05545">
        <ele>1205.5</ele>
        <time>2021-09-28T07:17:14.000Z</time>
      </trkpt>
      <trkpt lat="47.91082" lon="7.05559">
        <ele>1206.4</ele>
        <time>2021-09-28T07:17:21.000Z</time>
      </trkpt>
      <trkpt lat="47.91082" lon="7.05572">
        <ele>1207</ele>
        <time>2021-09-28T07:17:28.000Z</time>
      </trkpt>
      <trkpt lat="47.91081" lon="7.05587">
        <ele>1207.3</ele>
        <time>2021-09-28T07:17:35.000Z</time>
      </trkpt>
      <trkpt lat="47.91079" lon="7.056">
        <ele>1207.5</ele>
        <time>2021-09-28T07:17:45.000Z</time>
      </trkpt>
      <trkpt lat="47.9108" lon="7.05613">
        <ele>1208.2</ele>
        <time>2021-09-28T07:17:56.000Z</time>
      </trkpt>
      <trkpt lat="47.91078" lon="7.05627">
        <ele>1208</ele>
        <time>2021-09-28T07:18:04.000Z</time>
      </trkpt>
      <trkpt lat="47.91079" lon="7.05642">
        <ele>1209.1</ele>
        <time>2021-09-28T07:18:11.000Z</time>
      </trkpt>
      <trkpt lat="47.91078" lon="7.05657">
        <ele>1209</ele>
        <time>2021-09-28T07:18:18.000Z</time>
      </trkpt>
      <trkpt lat="47.91079" lon="7.05672">
        <ele>1209.3</ele>
        <time>2021-09-28T07:18:26.000Z</time>
      </trkpt>
      <trkpt lat="47.91079" lon="7.05687">
        <ele>1208.2</ele>
        <time>2021-09-28T07:18:33.000Z</time>
      </trkpt>
      <trkpt lat="47.91076" lon="7.05701">
        <ele>1205.3</ele>
        <time>2021-09-28T07:18:40.000Z</time>
      </trkpt>
      <trkpt lat="47.91078" lon="7.05714">
        <ele>1205.3</ele>
        <time>2021-09-28T07:18:49.000Z</time>
      </trkpt>
      <trkpt lat="47.91081" lon="7.05728">
        <ele>1205.4</ele>
        <time>2021-09-28T07:18:58.000Z</time>
      </trkpt>
      <trkpt lat="47.91082" lon="7.05742">
        <ele>1204.7</ele>
        <time>2021-09-28T07:19:05.000Z</time>
      </trkpt>
      <trkpt lat="47.91085" lon="7.05755">
        <ele>1204.9</ele>
        <time>2021-09-28T07:19:14.000Z</time>
      </trkpt>
      <trkpt lat="47.91088" lon="7.05769">
        <ele>1204.1</ele>
        <time>2021-09-28T07:19:23.000Z</time>
      </trkpt>
      <trkpt lat="47.91094" lon="7.05781">
        <ele>1203.9</ele>
        <time>2021-09-28T07:19:31.000Z</time>
      </trkpt>
      <trkpt lat="47.91096" lon="7.05796">
        <ele>1202.7</ele>
        <time>2021-09-28T07:19:40.000Z</time>
      </trkpt>
      <trkpt lat="47.91096" lon="7.0581">
        <ele>1201.3</ele>
        <time>2021-09-28T07:19:48.000Z</time>
      </trkpt>
      <trkpt lat="47.91095" lon="7.05825">
        <ele>1199.7</ele>
        <time>2021-09-28T07:19:55.000Z</time>
      </trkpt>
      <trkpt lat="47.91095" lon="7.05839">
        <ele>1198.5</ele>
        <time>2021-09-28T07:20:02.000Z</time>
      </trkpt>
      <trkpt lat="47.91098" lon="7.05853">
        <ele>1197.6</ele>
        <time>2021-09-28T07:20:11.000Z</time>
      </trkpt>
      <trkpt lat="47.91104" lon="7.05862">
        <ele>1197.4</ele>
        <time>2021-09-28T07:20:18.000Z</time>
      </trkpt>
      <trkpt lat="47.9111" lon="7.05874">
        <ele>1196.7</ele>
        <time>2021-09-28T07:20:26.000Z</time>
      </trkpt>
      <trkpt lat="47.91117" lon="7.05885">
        <ele>1196.1</ele>
        <time>2021-09-28T07:20:34.000Z</time>
      </trkpt>
      <trkpt lat="47.91122" lon="7.05896">
        <ele>1195.3</ele>
        <time>2021-09-28T07:20:42.000Z</time>
      </trkpt>
      <trkpt lat="47.91127" lon="7.0591">
        <ele>1194.3</ele>
        <time>2021-09-28T07:20:50.000Z</time>
      </trkpt>
      <trkpt lat="47.91133" lon="7.05921">
        <ele>1193.7</ele>
        <time>2021-09-28T07:20:58.000Z</time>
      </trkpt>
      <trkpt lat="47.91137" lon="7.05933">
        <ele>1193.7</ele>
        <time>2021-09-28T07:21:03.000Z</time>
      </trkpt>
      <trkpt lat="47.91143" lon="7.05944">
        <ele>1194</ele>
        <time>2021-09-28T07:21:10.000Z</time>
      </trkpt>
      <trkpt lat="47.91151" lon="7.05953">
        <ele>1194.7</ele>
        <time>2021-09-28T07:21:18.000Z</time>
      </trkpt>
      <trkpt lat="47.91154" lon="7.05966">
        <ele>1195.2</ele>
        <time>2021-09-28T07:21:26.000Z</time>
      </trkpt>
      <trkpt lat="47.91154" lon="7.05981">
        <ele>1195.4</ele>
        <time>2021-09-28T07:21:34.000Z</time>
      </trkpt>
      <trkpt lat="47.91156" lon="7.05994">
        <ele>1195.9</ele>
        <time>2021-09-28T07:21:40.000Z</time>
      </trkpt>
      <trkpt lat="47.91154" lon="7.06007">
        <ele>1196.2</ele>
        <time>2021-09-28T07:21:49.000Z</time>
      </trkpt>
      <trkpt lat="47.91152" lon="7.06021">
        <ele>1196.5</ele>
        <time>2021-09-28T07:22:06.000Z</time>
      </trkpt>
      <trkpt lat="47.91153" lon="7.06035">
        <ele>1197.5</ele>
        <time>2021-09-28T07:22:13.000Z</time>
      </trkpt>
      <trkpt lat="47.91155" lon="7.06048">
        <ele>1199</ele>
        <time>2021-09-28T07:22:21.000Z</time>
      </trkpt>
      <trkpt lat="47.91155" lon="7.06062">
        <ele>1199.7</ele>
        <time>2021-09-28T07:22:32.000Z</time>
      </trkpt>
      <trkpt lat="47.91152" lon="7.06076">
        <ele>1199.7</ele>
        <time>2021-09-28T07:22:40.000Z</time>
      </trkpt>
      <trkpt lat="47.91149" lon="7.06089">
        <ele>1199.7</ele>
        <time>2021-09-28T07:22:48.000Z</time>
      </trkpt>
      <trkpt lat="47.91147" lon="7.06103">
        <ele>1200.1</ele>
        <time>2021-09-28T07:22:56.000Z</time>
      </trkpt>
      <trkpt lat="47.91145" lon="7.06117">
        <ele>1200.4</ele>
        <time>2021-09-28T07:23:04.000Z</time>
      </trkpt>
      <trkpt lat="47.91142" lon="7.06131">
        <ele>1200.4</ele>
        <time>2021-09-28T07:23:11.000Z</time>
      </trkpt>
      <trkpt lat="47.91138" lon="7.06146">
        <ele>1200</ele>
        <time>2021-09-28T07:23:18.000Z</time>
      </trkpt>
      <trkpt lat="47.91135" lon="7.06159">
        <ele>1199.6</ele>
        <time>2021-09-28T07:23:29.000Z</time>
      </trkpt>
      <trkpt lat="47.9113" lon="7.06173">
        <ele>1198.6</ele>
        <time>2021-09-28T07:23:37.000Z</time>
      </trkpt>
      <trkpt lat="47.91127" lon="7.06187">
        <ele>1197.8</ele>
        <time>2021-09-28T07:23:44.000Z</time>
      </trkpt>
      <trkpt lat="47.91124" lon="7.06199">
        <ele>1196.8</ele>
        <time>2021-09-28T07:23:51.000Z</time>
      </trkpt>
      <trkpt lat="47.91119" lon="7.06212">
        <ele>1195.4</ele>
        <time>2021-09-28T07:23:58.000Z</time>
      </trkpt>
      <trkpt lat="47.91115" lon="7.06224">
        <ele>1194.4</ele>
        <time>2021-09-28T07:24:06.000Z</time>
      </trkpt>
      <trkpt lat="47.91114" lon="7.06239">
        <ele>1194.4</ele>
        <time>2021-09-28T07:24:15.000Z</time>
      </trkpt>
      <trkpt lat="47.91116" lon="7.06252">
        <ele>1195.3</ele>
        <time>2021-09-28T07:24:24.000Z</time>
      </trkpt>
      <trkpt lat="47.91116" lon="7.06266">
        <ele>1196.4</ele>
        <time>2021-09-28T07:24:33.000Z</time>
      </trkpt>
      <trkpt lat="47.91114" lon="7.0628">
        <ele>1196.7</ele>
        <time>2021-09-28T07:24:41.000Z</time>
      </trkpt>
      <trkpt lat="47.91113" lon="7.06295">
        <ele>1197.3</ele>
        <time>2021-09-28T07:24:47.000Z</time>
      </trkpt>
      <trkpt lat="47.91116" lon="7.06308">
        <ele>1199.1</ele>
        <time>2021-09-28T07:24:56.000Z</time>
      </trkpt>
      <trkpt lat="47.91114" lon="7.06321">
        <ele>1199.4</ele>
        <time>2021-09-28T07:25:04.000Z</time>
      </trkpt>
      <trkpt lat="47.91112" lon="7.06336">
        <ele>1199.4</ele>
        <time>2021-09-28T07:25:12.000Z</time>
      </trkpt>
      <trkpt lat="47.91109" lon="7.06349">
        <ele>1199.6</ele>
        <time>2021-09-28T07:25:19.000Z</time>
      </trkpt>
      <trkpt lat="47.91105" lon="7.06363">
        <ele>1199.6</ele>
        <time>2021-09-28T07:25:28.000Z</time>
      </trkpt>
      <trkpt lat="47.91101" lon="7.06377">
        <ele>1199.7</ele>
        <time>2021-09-28T07:25:36.000Z</time>
      </trkpt>
      <trkpt lat="47.91096" lon="7.06389">
        <ele>1199.7</ele>
        <time>2021-09-28T07:25:44.000Z</time>
      </trkpt>
      <trkpt lat="47.91091" lon="7.064">
        <ele>1199.6</ele>
        <time>2021-09-28T07:25:51.000Z</time>
      </trkpt>
      <trkpt lat="47.91085" lon="7.06413">
        <ele>1200</ele>
        <time>2021-09-28T07:25:58.000Z</time>
      </trkpt>
      <trkpt lat="47.91079" lon="7.06424">
        <ele>1199.3</ele>
        <time>2021-09-28T07:26:05.000Z</time>
      </trkpt>
      <trkpt lat="47.91073" lon="7.06436">
        <ele>1198.5</ele>
        <time>2021-09-28T07:26:13.000Z</time>
      </trkpt>
      <trkpt lat="47.9107" lon="7.06449">
        <ele>1199</ele>
        <time>2021-09-28T07:26:19.000Z</time>
      </trkpt>
      <trkpt lat="47.91066" lon="7.06462">
        <ele>1199</ele>
        <time>2021-09-28T07:26:28.000Z</time>
      </trkpt>
      <trkpt lat="47.91059" lon="7.06472">
        <ele>1198.2</ele>
        <time>2021-09-28T07:26:36.000Z</time>
      </trkpt>
      <trkpt lat="47.91053" lon="7.06482">
        <ele>1197.4</ele>
        <time>2021-09-28T07:26:43.000Z</time>
      </trkpt>
      <trkpt lat="47.91049" lon="7.06495">
        <ele>1197.7</ele>
        <time>2021-09-28T07:26:48.000Z</time>
      </trkpt>
      <trkpt lat="47.91043" lon="7.06507">
        <ele>1197.4</ele>
        <time>2021-09-28T07:26:56.000Z</time>
      </trkpt>
      <trkpt lat="47.91039" lon="7.06518">
        <ele>1197.1</ele>
        <time>2021-09-28T07:27:02.000Z</time>
      </trkpt>
      <trkpt lat="47.91033" lon="7.06529">
        <ele>1196.4</ele>
        <time>2021-09-28T07:27:12.000Z</time>
      </trkpt>
      <trkpt lat="47.91026" lon="7.0654">
        <ele>1195.8</ele>
        <time>2021-09-28T07:27:21.000Z</time>
      </trkpt>
      <trkpt lat="47.91019" lon="7.0655">
        <ele>1195.1</ele>
        <time>2021-09-28T07:27:28.000Z</time>
      </trkpt>
      <trkpt lat="47.91012" lon="7.06561">
        <ele>1194.7</ele>
        <time>2021-09-28T07:27:36.000Z</time>
      </trkpt>
      <trkpt lat="47.91006" lon="7.06572">
        <ele>1194.7</ele>
        <time>2021-09-28T07:27:44.000Z</time>
      </trkpt>
      <trkpt lat="47.91001" lon="7.06584">
        <ele>1195.3</ele>
        <time>2021-09-28T07:27:51.000Z</time>
      </trkpt>
      <trkpt lat="47.90995" lon="7.06597">
        <ele>1194.8</ele>
        <time>2021-09-28T07:27:58.000Z</time>
      </trkpt>
      <trkpt lat="47.90989" lon="7.06607">
        <ele>1194.3</ele>
        <time>2021-09-28T07:28:05.000Z</time>
      </trkpt>
      <trkpt lat="47.90983" lon="7.06619">
        <ele>1194</ele>
        <time>2021-09-28T07:28:13.000Z</time>
      </trkpt>
      <trkpt lat="47.90975" lon="7.06628">
        <ele>1193.4</ele>
        <time>2021-09-28T07:28:21.000Z</time>
      </trkpt>
      <trkpt lat="47.90966" lon="7.06637">
        <ele>1192.7</ele>
        <time>2021-09-28T07:28:29.000Z</time>
      </trkpt>
      <trkpt lat="47.90958" lon="7.06646">
        <ele>1192.4</ele>
        <time>2021-09-28T07:28:36.000Z</time>
      </trkpt>
      <trkpt lat="47.90952" lon="7.06656">
        <ele>1192.6</ele>
        <time>2021-09-28T07:28:45.000Z</time>
      </trkpt>
      <trkpt lat="47.90945" lon="7.06665">
        <ele>1192.5</ele>
        <time>2021-09-28T07:28:56.000Z</time>
      </trkpt>
      <trkpt lat="47.90934" lon="7.06668">
        <ele>1191.3</ele>
        <time>2021-09-28T07:29:07.000Z</time>
      </trkpt>
      <trkpt lat="47.90926" lon="7.06675">
        <ele>1190.2</ele>
        <time>2021-09-28T07:29:15.000Z</time>
      </trkpt>
      <trkpt lat="47.90917" lon="7.06686">
        <ele>1189.3</ele>
        <time>2021-09-28T07:29:22.000Z</time>
      </trkpt>
      <trkpt lat="47.90911" lon="7.06695">
        <ele>1188.9</ele>
        <time>2021-09-28T07:29:27.000Z</time>
      </trkpt>
      <trkpt lat="47.90901" lon="7.06697">
        <ele>1188.1</ele>
        <time>2021-09-28T07:29:34.000Z</time>
      </trkpt>
      <trkpt lat="47.90892" lon="7.06702">
        <ele>1187.6</ele>
        <time>2021-09-28T07:29:41.000Z</time>
      </trkpt>
      <trkpt lat="47.90883" lon="7.06706">
        <ele>1187.1</ele>
        <time>2021-09-28T07:29:48.000Z</time>
      </trkpt>
      <trkpt lat="47.90876" lon="7.06714">
        <ele>1187.1</ele>
        <time>2021-09-28T07:29:56.000Z</time>
      </trkpt>
      <trkpt lat="47.90869" lon="7.06723">
        <ele>1187.2</ele>
        <time>2021-09-28T07:30:03.000Z</time>
      </trkpt>
      <trkpt lat="47.90863" lon="7.06735">
        <ele>1187.7</ele>
        <time>2021-09-28T07:30:10.000Z</time>
      </trkpt>
      <trkpt lat="47.90855" lon="7.06746">
        <ele>1188.2</ele>
        <time>2021-09-28T07:30:18.000Z</time>
      </trkpt>
      <trkpt lat="47.90848" lon="7.06756">
        <ele>1188.4</ele>
        <time>2021-09-28T07:30:26.000Z</time>
      </trkpt>
      <trkpt lat="47.90842" lon="7.06766">
        <ele>1188.3</ele>
        <time>2021-09-28T07:30:35.000Z</time>
      </trkpt>
      <trkpt lat="47.90837" lon="7.06777">
        <ele>1188.4</ele>
        <time>2021-09-28T07:30:45.000Z</time>
      </trkpt>
      <trkpt lat="47.90832" lon="7.06788">
        <ele>1188.6</ele>
        <time>2021-09-28T07:30:52.000Z</time>
      </trkpt>
      <trkpt lat="47.90826" lon="7.06801">
        <ele>1189.4</ele>
        <time>2021-09-28T07:31:03.000Z</time>
      </trkpt>
      <trkpt lat="47.90819" lon="7.06812">
        <ele>1190.3</ele>
        <time>2021-09-28T07:31:10.000Z</time>
      </trkpt>
      <trkpt lat="47.90812" lon="7.06823">
        <ele>1191.5</ele>
        <time>2021-09-28T07:31:18.000Z</time>
      </trkpt>
      <trkpt lat="47.90805" lon="7.06832">
        <ele>1192.7</ele>
        <time>2021-09-28T07:31:25.000Z</time>
      </trkpt>
      <trkpt lat="47.90799" lon="7.06845">
        <ele>1193.5</ele>
        <time>2021-09-28T07:31:33.000Z</time>
      </trkpt>
      <trkpt lat="47.90794" lon="7.06858">
        <ele>1194.1</ele>
        <time>2021-09-28T07:31:40.000Z</time>
      </trkpt>
      <trkpt lat="47.9079" lon="7.0687">
        <ele>1194.8</ele>
        <time>2021-09-28T07:31:48.000Z</time>
      </trkpt>
      <trkpt lat="47.90787" lon="7.06884">
        <ele>1195.1</ele>
        <time>2021-09-28T07:31:56.000Z</time>
      </trkpt>
      <trkpt lat="47.90784" lon="7.06896">
        <ele>1195.5</ele>
        <time>2021-09-28T07:32:03.000Z</time>
      </trkpt>
      <trkpt lat="47.90781" lon="7.06909">
        <ele>1196</ele>
        <time>2021-09-28T07:32:10.000Z</time>
      </trkpt>
      <trkpt lat="47.90777" lon="7.06921">
        <ele>1196.3</ele>
        <time>2021-09-28T07:32:17.000Z</time>
      </trkpt>
      <trkpt lat="47.90774" lon="7.06935">
        <ele>1196.3</ele>
        <time>2021-09-28T07:32:24.000Z</time>
      </trkpt>
      <trkpt lat="47.90772" lon="7.06949">
        <ele>1196.1</ele>
        <time>2021-09-28T07:32:32.000Z</time>
      </trkpt>
      <trkpt lat="47.9077" lon="7.06963">
        <ele>1195.9</ele>
        <time>2021-09-28T07:32:40.000Z</time>
      </trkpt>
      <trkpt lat="47.90767" lon="7.06978">
        <ele>1195.8</ele>
        <time>2021-09-28T07:32:48.000Z</time>
      </trkpt>
      <trkpt lat="47.90766" lon="7.06992">
        <ele>1195.6</ele>
        <time>2021-09-28T07:32:55.000Z</time>
      </trkpt>
      <trkpt lat="47.90763" lon="7.07005">
        <ele>1195.6</ele>
        <time>2021-09-28T07:33:02.000Z</time>
      </trkpt>
      <trkpt lat="47.9076" lon="7.07018">
        <ele>1195.7</ele>
        <time>2021-09-28T07:33:10.000Z</time>
      </trkpt>
      <trkpt lat="47.90758" lon="7.07032">
        <ele>1195.8</ele>
        <time>2021-09-28T07:33:17.000Z</time>
      </trkpt>
      <trkpt lat="47.90755" lon="7.07045">
        <ele>1196</ele>
        <time>2021-09-28T07:33:25.000Z</time>
      </trkpt>
      <trkpt lat="47.9075" lon="7.07058">
        <ele>1196.3</ele>
        <time>2021-09-28T07:33:32.000Z</time>
      </trkpt>
      <trkpt lat="47.90748" lon="7.07071">
        <ele>1196.7</ele>
        <time>2021-09-28T07:33:38.000Z</time>
      </trkpt>
      <trkpt lat="47.90742" lon="7.07082">
        <ele>1197.8</ele>
        <time>2021-09-28T07:33:46.000Z</time>
      </trkpt>
      <trkpt lat="47.90734" lon="7.07088">
        <ele>1199.8</ele>
        <time>2021-09-28T07:34:10.000Z</time>
      </trkpt>
      <trkpt lat="47.90733" lon="7.07074">
        <ele>1200</ele>
        <time>2021-09-28T07:34:33.000Z</time>
      </trkpt>
      <trkpt lat="47.90735" lon="7.0706">
        <ele>1199.6</ele>
        <time>2021-09-28T07:34:43.000Z</time>
      </trkpt>
      <trkpt lat="47.90735" lon="7.07046">
        <ele>1199.5</ele>
        <time>2021-09-28T07:34:52.000Z</time>
      </trkpt>
      <trkpt lat="47.90733" lon="7.0703">
        <ele>1200.1</ele>
        <time>2021-09-28T07:35:02.000Z</time>
      </trkpt>
      <trkpt lat="47.90732" lon="7.07015">
        <ele>1200.2</ele>
        <time>2021-09-28T07:35:11.000Z</time>
      </trkpt>
      <trkpt lat="47.90729" lon="7.07003">
        <ele>1200.8</ele>
        <time>2021-09-28T07:35:19.000Z</time>
      </trkpt>
      <trkpt lat="47.90724" lon="7.06991">
        <ele>1202</ele>
        <time>2021-09-28T07:35:28.000Z</time>
      </trkpt>
      <trkpt lat="47.90716" lon="7.06984">
        <ele>1203.6</ele>
        <time>2021-09-28T07:35:41.000Z</time>
      </trkpt>
      <trkpt lat="47.90706" lon="7.0698">
        <ele>1205.3</ele>
        <time>2021-09-28T07:35:55.000Z</time>
      </trkpt>
      <trkpt lat="47.907" lon="7.0697">
        <ele>1206.7</ele>
        <time>2021-09-28T07:36:06.000Z</time>
      </trkpt>
      <trkpt lat="47.90692" lon="7.06963">
        <ele>1208.2</ele>
        <time>2021-09-28T07:36:16.000Z</time>
      </trkpt>
      <trkpt lat="47.90684" lon="7.06956">
        <ele>1209.7</ele>
        <time>2021-09-28T07:36:26.000Z</time>
      </trkpt>
      <trkpt lat="47.90675" lon="7.06951">
        <ele>1211.2</ele>
        <time>2021-09-28T07:36:37.000Z</time>
      </trkpt>
      <trkpt lat="47.90671" lon="7.06964">
        <ele>1211.8</ele>
        <time>2021-09-28T07:36:46.000Z</time>
      </trkpt>
      <trkpt lat="47.90662" lon="7.06971">
        <ele>1213.4</ele>
        <time>2021-09-28T07:36:56.000Z</time>
      </trkpt>
      <trkpt lat="47.90653" lon="7.06977">
        <ele>1215.2</ele>
        <time>2021-09-28T07:37:08.000Z</time>
      </trkpt>
      <trkpt lat="47.90644" lon="7.06981">
        <ele>1217.1</ele>
        <time>2021-09-28T07:37:18.000Z</time>
      </trkpt>
      <trkpt lat="47.90636" lon="7.06987">
        <ele>1219.2</ele>
        <time>2021-09-28T07:37:30.000Z</time>
      </trkpt>
      <trkpt lat="47.90627" lon="7.0699">
        <ele>1221.3</ele>
        <time>2021-09-28T07:37:39.000Z</time>
      </trkpt>
      <trkpt lat="47.90618" lon="7.06994">
        <ele>1223.5</ele>
        <time>2021-09-28T07:37:50.000Z</time>
      </trkpt>
      <trkpt lat="47.90609" lon="7.06998">
        <ele>1225.7</ele>
        <time>2021-09-28T07:37:59.000Z</time>
      </trkpt>
      <trkpt lat="47.906" lon="7.07">
        <ele>1228.1</ele>
        <time>2021-09-28T07:38:08.000Z</time>
      </trkpt>
      <trkpt lat="47.9059" lon="7.07002">
        <ele>1230.6</ele>
        <time>2021-09-28T07:38:18.000Z</time>
      </trkpt>
      <trkpt lat="47.90581" lon="7.07005">
        <ele>1232.7</ele>
        <time>2021-09-28T07:38:28.000Z</time>
      </trkpt>
      <trkpt lat="47.90571" lon="7.07008">
        <ele>1234</ele>
        <time>2021-09-28T07:38:40.000Z</time>
      </trkpt>
      <trkpt lat="47.90562" lon="7.07013">
        <ele>1235.5</ele>
        <time>2021-09-28T07:38:54.000Z</time>
      </trkpt>
      <trkpt lat="47.90553" lon="7.07015">
        <ele>1236.8</ele>
        <time>2021-09-28T07:39:08.000Z</time>
      </trkpt>
      <trkpt lat="47.90544" lon="7.07022">
        <ele>1238.5</ele>
        <time>2021-09-28T07:39:29.000Z</time>
      </trkpt>
      <trkpt lat="47.90538" lon="7.07032">
        <ele>1240.4</ele>
        <time>2021-09-28T07:39:47.000Z</time>
      </trkpt>
      <trkpt lat="47.90528" lon="7.07034">
        <ele>1241.9</ele>
        <time>2021-09-28T07:40:04.000Z</time>
      </trkpt>
      <trkpt lat="47.9052" lon="7.0704">
        <ele>1243.7</ele>
        <time>2021-09-28T07:40:18.000Z</time>
      </trkpt>
      <trkpt lat="47.90512" lon="7.07049">
        <ele>1245.9</ele>
        <time>2021-09-28T07:40:30.000Z</time>
      </trkpt>
      <trkpt lat="47.90508" lon="7.07062">
        <ele>1248</ele>
        <time>2021-09-28T07:40:44.000Z</time>
      </trkpt>
      <trkpt lat="47.90509" lon="7.07076">
        <ele>1249.6</ele>
        <time>2021-09-28T07:40:56.000Z</time>
      </trkpt>
      <trkpt lat="47.90508" lon="7.07089">
        <ele>1251.6</ele>
        <time>2021-09-28T07:41:11.000Z</time>
      </trkpt>
      <trkpt lat="47.90504" lon="7.07102">
        <ele>1254.1</ele>
        <time>2021-09-28T07:41:25.000Z</time>
      </trkpt>
      <trkpt lat="47.90503" lon="7.07117">
        <ele>1256.3</ele>
        <time>2021-09-28T07:41:34.000Z</time>
      </trkpt>
      <trkpt lat="47.90502" lon="7.07131">
        <ele>1258.5</ele>
        <time>2021-09-28T07:41:44.000Z</time>
      </trkpt>
      <trkpt lat="47.90506" lon="7.07144">
        <ele>1259.9</ele>
        <time>2021-09-28T07:41:56.000Z</time>
      </trkpt>
      <trkpt lat="47.90504" lon="7.07159">
        <ele>1262.2</ele>
        <time>2021-09-28T07:42:08.000Z</time>
      </trkpt>
      <trkpt lat="47.90501" lon="7.07172">
        <ele>1264.4</ele>
        <time>2021-09-28T07:42:16.000Z</time>
      </trkpt>
      <trkpt lat="47.90501" lon="7.07186">
        <ele>1266</ele>
        <time>2021-09-28T07:42:27.000Z</time>
      </trkpt>
      <trkpt lat="47.90499" lon="7.072">
        <ele>1267.5</ele>
        <time>2021-09-28T07:42:39.000Z</time>
      </trkpt>
      <trkpt lat="47.90496" lon="7.07213">
        <ele>1268.1</ele>
        <time>2021-09-28T07:42:49.000Z</time>
      </trkpt>
      <trkpt lat="47.90491" lon="7.07225">
        <ele>1268.3</ele>
        <time>2021-09-28T07:43:03.000Z</time>
      </trkpt>
      <trkpt lat="47.90491" lon="7.07239">
        <ele>1269.8</ele>
        <time>2021-09-28T07:43:14.000Z</time>
      </trkpt>
      <trkpt lat="47.90491" lon="7.07252">
        <ele>1271</ele>
        <time>2021-09-28T07:43:22.000Z</time>
      </trkpt>
      <trkpt lat="47.90487" lon="7.07266">
        <ele>1271.2</ele>
        <time>2021-09-28T07:43:32.000Z</time>
      </trkpt>
      <trkpt lat="47.9048" lon="7.07274">
        <ele>1270.2</ele>
        <time>2021-09-28T07:43:42.000Z</time>
      </trkpt>
      <trkpt lat="47.90474" lon="7.07286">
        <ele>1270</ele>
        <time>2021-09-28T07:43:48.000Z</time>
      </trkpt>
      <trkpt lat="47.90469" lon="7.07297">
        <ele>1270</ele>
        <time>2021-09-28T07:43:56.000Z</time>
      </trkpt>
      <trkpt lat="47.90463" lon="7.07307">
        <ele>1269.8</ele>
        <time>2021-09-28T07:44:06.000Z</time>
      </trkpt>
      <trkpt lat="47.90459" lon="7.0732">
        <ele>1270.3</ele>
        <time>2021-09-28T07:44:15.000Z</time>
      </trkpt>
      <trkpt lat="47.90457" lon="7.07334">
        <ele>1271.3</ele>
        <time>2021-09-28T07:44:24.000Z</time>
      </trkpt>
      <trkpt lat="47.90456" lon="7.07349">
        <ele>1272.2</ele>
        <time>2021-09-28T07:44:35.000Z</time>
      </trkpt>
      <trkpt lat="47.90454" lon="7.07364">
        <ele>1273.1</ele>
        <time>2021-09-28T07:44:45.000Z</time>
      </trkpt>
      <trkpt lat="47.90453" lon="7.07379">
        <ele>1274.1</ele>
        <time>2021-09-28T07:44:51.000Z</time>
      </trkpt>
      <trkpt lat="47.90449" lon="7.07393">
        <ele>1274.8</ele>
        <time>2021-09-28T07:45:03.000Z</time>
      </trkpt>
      <trkpt lat="47.9045" lon="7.07406">
        <ele>1276</ele>
        <time>2021-09-28T07:45:11.000Z</time>
      </trkpt>
      <trkpt lat="47.90448" lon="7.0742">
        <ele>1276.8</ele>
        <time>2021-09-28T07:45:22.000Z</time>
      </trkpt>
      <trkpt lat="47.90444" lon="7.07434">
        <ele>1277.5</ele>
        <time>2021-09-28T07:45:30.000Z</time>
      </trkpt>
      <trkpt lat="47.90443" lon="7.07447">
        <ele>1278.4</ele>
        <time>2021-09-28T07:45:37.000Z</time>
      </trkpt>
      <trkpt lat="47.90439" lon="7.07461">
        <ele>1279.1</ele>
        <time>2021-09-28T07:45:44.000Z</time>
      </trkpt>
      <trkpt lat="47.90439" lon="7.07475">
        <ele>1280</ele>
        <time>2021-09-28T07:45:56.000Z</time>
      </trkpt>
      <trkpt lat="47.90437" lon="7.07489">
        <ele>1281</ele>
        <time>2021-09-28T07:46:06.000Z</time>
      </trkpt>
      <trkpt lat="47.90436" lon="7.07504">
        <ele>1282</ele>
        <time>2021-09-28T07:46:15.000Z</time>
      </trkpt>
      <trkpt lat="47.90434" lon="7.07517">
        <ele>1283.1</ele>
        <time>2021-09-28T07:46:22.000Z</time>
      </trkpt>
      <trkpt lat="47.90429" lon="7.0753">
        <ele>1284</ele>
        <time>2021-09-28T07:46:33.000Z</time>
      </trkpt>
      <trkpt lat="47.90427" lon="7.07544">
        <ele>1285.2</ele>
        <time>2021-09-28T07:46:45.000Z</time>
      </trkpt>
      <trkpt lat="47.90423" lon="7.07557">
        <ele>1286.1</ele>
        <time>2021-09-28T07:46:52.000Z</time>
      </trkpt>
      <trkpt lat="47.90422" lon="7.07572">
        <ele>1287.4</ele>
        <time>2021-09-28T07:47:00.000Z</time>
      </trkpt>
      <trkpt lat="47.90421" lon="7.07585">
        <ele>1288.8</ele>
        <time>2021-09-28T07:47:08.000Z</time>
      </trkpt>
      <trkpt lat="47.90421" lon="7.07599">
        <ele>1291.4</ele>
        <time>2021-09-28T07:47:18.000Z</time>
      </trkpt>
      <trkpt lat="47.90414" lon="7.07608">
        <ele>1292.2</ele>
        <time>2021-09-28T07:47:29.000Z</time>
      </trkpt>
      <trkpt lat="47.90411" lon="7.07622">
        <ele>1294.2</ele>
        <time>2021-09-28T07:47:40.000Z</time>
      </trkpt>
      <trkpt lat="47.90406" lon="7.07639">
        <ele>1296.3</ele>
        <time>2021-09-28T07:48:03.000Z</time>
      </trkpt>
      <trkpt lat="47.90402" lon="7.07651">
        <ele>1297.8</ele>
        <time>2021-09-28T07:48:21.000Z</time>
      </trkpt>
      <trkpt lat="47.90396" lon="7.07662">
        <ele>1298.8</ele>
        <time>2021-09-28T07:48:35.000Z</time>
      </trkpt>
      <trkpt lat="47.9039" lon="7.07673">
        <ele>1299.7</ele>
        <time>2021-09-28T07:48:49.000Z</time>
      </trkpt>
      <trkpt lat="47.90381" lon="7.07673">
        <ele>1298.1</ele>
        <time>2021-09-28T07:48:58.000Z</time>
      </trkpt>
      <trkpt lat="47.90376" lon="7.07686">
        <ele>1299.7</ele>
        <time>2021-09-28T07:49:07.000Z</time>
      </trkpt>
      <trkpt lat="47.90369" lon="7.07697">
        <ele>1300.9</ele>
        <time>2021-09-28T07:49:20.000Z</time>
      </trkpt>
      <trkpt lat="47.90363" lon="7.07707">
        <ele>1302.1</ele>
        <time>2021-09-28T07:49:41.000Z</time>
      </trkpt>
      <trkpt lat="47.90357" lon="7.07719">
        <ele>1303.9</ele>
        <time>2021-09-28T07:49:51.000Z</time>
      </trkpt>
      <trkpt lat="47.9035" lon="7.07729">
        <ele>1305.2</ele>
        <time>2021-09-28T07:50:00.000Z</time>
      </trkpt>
      <trkpt lat="47.90346" lon="7.07741">
        <ele>1307.5</ele>
        <time>2021-09-28T07:50:12.000Z</time>
      </trkpt>
      <trkpt lat="47.90339" lon="7.07752">
        <ele>1309.2</ele>
        <time>2021-09-28T07:50:25.000Z</time>
      </trkpt>
      <trkpt lat="47.90335" lon="7.07765">
        <ele>1311.1</ele>
        <time>2021-09-28T07:50:40.000Z</time>
      </trkpt>
      <trkpt lat="47.90328" lon="7.07773">
        <ele>1311.9</ele>
        <time>2021-09-28T07:50:52.000Z</time>
      </trkpt>
      <trkpt lat="47.90323" lon="7.07785">
        <ele>1313.6</ele>
        <time>2021-09-28T07:51:02.000Z</time>
      </trkpt>
      <trkpt lat="47.90318" lon="7.07797">
        <ele>1315.5</ele>
        <time>2021-09-28T07:51:14.000Z</time>
      </trkpt>
      <trkpt lat="47.90316" lon="7.07811">
        <ele>1318.1</ele>
        <time>2021-09-28T07:51:24.000Z</time>
      </trkpt>
      <trkpt lat="47.9031" lon="7.07822">
        <ele>1320</ele>
        <time>2021-09-28T07:51:39.000Z</time>
      </trkpt>
      <trkpt lat="47.90306" lon="7.07834">
        <ele>1322.1</ele>
        <time>2021-09-28T07:51:55.000Z</time>
      </trkpt>
      <trkpt lat="47.903" lon="7.07847">
        <ele>1323.4</ele>
        <time>2021-09-28T07:52:11.000Z</time>
      </trkpt>
      <trkpt lat="47.90307" lon="7.07856">
        <ele>1324.9</ele>
        <time>2021-09-28T07:52:36.000Z</time>
      </trkpt>
      <trkpt lat="47.90316" lon="7.07855">
        <ele>1325.2</ele>
        <time>2021-09-28T07:52:51.000Z</time>
      </trkpt>
      <trkpt lat="47.90323" lon="7.07864">
        <ele>1326.5</ele>
        <time>2021-09-28T07:53:04.000Z</time>
      </trkpt>
      <trkpt lat="47.90324" lon="7.07878">
        <ele>1328</ele>
        <time>2021-09-28T07:53:19.000Z</time>
      </trkpt>
      <trkpt lat="47.90324" lon="7.07892">
        <ele>1329.5</ele>
        <time>2021-09-28T07:53:32.000Z</time>
      </trkpt>
      <trkpt lat="47.90327" lon="7.07906">
        <ele>1331</ele>
        <time>2021-09-28T07:53:41.000Z</time>
      </trkpt>
      <trkpt lat="47.90334" lon="7.07916">
        <ele>1331.9</ele>
        <time>2021-09-28T07:53:50.000Z</time>
      </trkpt>
      <trkpt lat="47.90329" lon="7.07928">
        <ele>1333</ele>
        <time>2021-09-28T07:54:18.000Z</time>
      </trkpt>
      <trkpt lat="47.90337" lon="7.0794">
        <ele>1334.1</ele>
        <time>2021-09-28T07:54:26.000Z</time>
      </trkpt>
      <trkpt lat="47.90345" lon="7.07954">
        <ele>1335.2</ele>
        <time>2021-09-28T07:54:36.000Z</time>
      </trkpt>
      <trkpt lat="47.90368" lon="7.0797">
        <ele>1336</ele>
        <time>2021-09-28T07:54:42.000Z</time>
      </trkpt>
      <trkpt lat="47.90417" lon="7.08048">
        <ele>1336.7</ele>
        <time>2021-09-28T07:54:47.000Z</time>
      </trkpt>
      <trkpt lat="47.9039" lon="7.08066">
        <ele>1337.9</ele>
        <time>2021-09-28T07:54:52.000Z</time>
      </trkpt>
      <trkpt lat="47.90372" lon="7.0806">
        <ele>1338.2</ele>
        <time>2021-09-28T07:54:57.000Z</time>
      </trkpt>
      <trkpt lat="47.90368" lon="7.08045">
        <ele>1338</ele>
        <time>2021-09-28T07:55:02.000Z</time>
      </trkpt>
      <trkpt lat="47.90364" lon="7.08027">
        <ele>1337.9</ele>
        <time>2021-09-28T07:55:07.000Z</time>
      </trkpt>
      <trkpt lat="47.90364" lon="7.08006">
        <ele>1337.6</ele>
        <time>2021-09-28T07:55:12.000Z</time>
      </trkpt>
      <trkpt lat="47.90372" lon="7.08014">
        <ele>1337.4</ele>
        <time>2021-09-28T07:55:25.000Z</time>
      </trkpt>
      <trkpt lat="47.90378" lon="7.08026">
        <ele>1337.4</ele>
        <time>2021-09-28T07:55:33.000Z</time>
      </trkpt>
      <trkpt lat="47.90385" lon="7.08036">
        <ele>1337.3</ele>
        <time>2021-09-28T07:55:41.000Z</time>
      </trkpt>
      <trkpt lat="47.90391" lon="7.08048">
        <ele>1337.4</ele>
        <time>2021-09-28T07:55:49.000Z</time>
      </trkpt>
      <trkpt lat="47.90396" lon="7.08061">
        <ele>1337.6</ele>
        <time>2021-09-28T07:55:57.000Z</time>
      </trkpt>
      <trkpt lat="47.90398" lon="7.08075">
        <ele>1338</ele>
        <time>2021-09-28T07:56:06.000Z</time>
      </trkpt>
      <trkpt lat="47.90391" lon="7.08063">
        <ele>1337.8</ele>
        <time>2021-09-28T07:56:16.000Z</time>
      </trkpt>
      <trkpt lat="47.90395" lon="7.08075">
        <ele>1338</ele>
        <time>2021-09-28T07:56:22.000Z</time>
      </trkpt>
      <trkpt lat="47.90408" lon="7.08093">
        <ele>1338.6</ele>
        <time>2021-09-28T07:56:27.000Z</time>
      </trkpt>
      <trkpt lat="47.90414" lon="7.08105">
        <ele>1339.4</ele>
        <time>2021-09-28T07:56:34.000Z</time>
      </trkpt>
      <trkpt lat="47.90418" lon="7.08117">
        <ele>1340.4</ele>
        <time>2021-09-28T07:56:41.000Z</time>
      </trkpt>
      <trkpt lat="47.90422" lon="7.0813">
        <ele>1341.3</ele>
        <time>2021-09-28T07:56:50.000Z</time>
      </trkpt>
      <trkpt lat="47.90429" lon="7.0814">
        <ele>1342</ele>
        <time>2021-09-28T07:57:04.000Z</time>
      </trkpt>
      <trkpt lat="47.90438" lon="7.08141">
        <ele>1342.1</ele>
        <time>2021-09-28T07:57:18.000Z</time>
      </trkpt>
      <trkpt lat="47.90446" lon="7.08147">
        <ele>1342.6</ele>
        <time>2021-09-28T07:57:27.000Z</time>
      </trkpt>
      <trkpt lat="47.90451" lon="7.08159">
        <ele>1343.7</ele>
        <time>2021-09-28T07:57:37.000Z</time>
      </trkpt>
      <trkpt lat="47.90457" lon="7.0817">
        <ele>1344.5</ele>
        <time>2021-09-28T07:57:51.000Z</time>
      </trkpt>
      <trkpt lat="47.90465" lon="7.08177">
        <ele>1344.6</ele>
        <time>2021-09-28T07:58:07.000Z</time>
      </trkpt>
      <trkpt lat="47.90469" lon="7.0819">
        <ele>1344.8</ele>
        <time>2021-09-28T07:58:24.000Z</time>
      </trkpt>
      <trkpt lat="47.90469" lon="7.08204">
        <ele>1345</ele>
        <time>2021-09-28T07:58:37.000Z</time>
      </trkpt>
      <trkpt lat="47.90477" lon="7.08212">
        <ele>1345.5</ele>
        <time>2021-09-28T07:58:53.000Z</time>
      </trkpt>
      <trkpt lat="47.90486" lon="7.08205">
        <ele>1345.7</ele>
        <time>2021-09-28T07:59:05.000Z</time>
      </trkpt>
      <trkpt lat="47.90494" lon="7.0821">
        <ele>1346.3</ele>
        <time>2021-09-28T08:01:58.000Z</time>
      </trkpt>
      <trkpt lat="47.90501" lon="7.08219">
        <ele>1346.5</ele>
        <time>2021-09-28T08:02:16.000Z</time>
      </trkpt>
      <trkpt lat="47.90505" lon="7.08232">
        <ele>1345.4</ele>
        <time>2021-09-28T08:02:23.000Z</time>
      </trkpt>
      <trkpt lat="47.90505" lon="7.08246">
        <ele>1345.9</ele>
        <time>2021-09-28T08:02:30.000Z</time>
      </trkpt>
      <trkpt lat="47.90505" lon="7.0826">
        <ele>1345</ele>
        <time>2021-09-28T08:02:41.000Z</time>
      </trkpt>
      <trkpt lat="47.90505" lon="7.08275">
        <ele>1343.9</ele>
        <time>2021-09-28T08:02:54.000Z</time>
      </trkpt>
      <trkpt lat="47.90507" lon="7.08289">
        <ele>1341.9</ele>
        <time>2021-09-28T08:03:02.000Z</time>
      </trkpt>
      <trkpt lat="47.90511" lon="7.08301">
        <ele>1339.9</ele>
        <time>2021-09-28T08:03:09.000Z</time>
      </trkpt>
      <trkpt lat="47.90516" lon="7.08313">
        <ele>1337.3</ele>
        <time>2021-09-28T08:03:17.000Z</time>
      </trkpt>
      <trkpt lat="47.90519" lon="7.08327">
        <ele>1335.7</ele>
        <time>2021-09-28T08:03:26.000Z</time>
      </trkpt>
      <trkpt lat="47.90524" lon="7.08339">
        <ele>1333.3</ele>
        <time>2021-09-28T08:03:45.000Z</time>
      </trkpt>
      <trkpt lat="47.90531" lon="7.08349">
        <ele>1330.5</ele>
        <time>2021-09-28T08:03:58.000Z</time>
      </trkpt>
      <trkpt lat="47.90537" lon="7.0836">
        <ele>1328.4</ele>
        <time>2021-09-28T08:04:11.000Z</time>
      </trkpt>
      <trkpt lat="47.9054" lon="7.08374">
        <ele>1326.5</ele>
        <time>2021-09-28T08:04:30.000Z</time>
      </trkpt>
      <trkpt lat="47.90548" lon="7.08383">
        <ele>1324.8</ele>
        <time>2021-09-28T08:04:43.000Z</time>
      </trkpt>
      <trkpt lat="47.90544" lon="7.08396">
        <ele>1324.4</ele>
        <time>2021-09-28T08:04:54.000Z</time>
      </trkpt>
      <trkpt lat="47.90541" lon="7.0841">
        <ele>1323.6</ele>
        <time>2021-09-28T08:05:09.000Z</time>
      </trkpt>
      <trkpt lat="47.90543" lon="7.08425">
        <ele>1321.4</ele>
        <time>2021-09-28T08:05:21.000Z</time>
      </trkpt>
      <trkpt lat="47.90543" lon="7.08439">
        <ele>1318.6</ele>
        <time>2021-09-28T08:05:30.000Z</time>
      </trkpt>
      <trkpt lat="47.90546" lon="7.08452">
        <ele>1316.1</ele>
        <time>2021-09-28T08:05:39.000Z</time>
      </trkpt>
      <trkpt lat="47.90551" lon="7.08464">
        <ele>1313.9</ele>
        <time>2021-09-28T08:05:46.000Z</time>
      </trkpt>
      <trkpt lat="47.90557" lon="7.08475">
        <ele>1312.1</ele>
        <time>2021-09-28T08:05:53.000Z</time>
      </trkpt>
      <trkpt lat="47.90563" lon="7.08487">
        <ele>1310.5</ele>
        <time>2021-09-28T08:06:00.000Z</time>
      </trkpt>
      <trkpt lat="47.90567" lon="7.08499">
        <ele>1308.7</ele>
        <time>2021-09-28T08:06:09.000Z</time>
      </trkpt>
      <trkpt lat="47.90565" lon="7.08513">
        <ele>1305.3</ele>
        <time>2021-09-28T08:06:23.000Z</time>
      </trkpt>
      <trkpt lat="47.90565" lon="7.08528">
        <ele>1301.7</ele>
        <time>2021-09-28T08:06:34.000Z</time>
      </trkpt>
      <trkpt lat="47.90562" lon="7.08541">
        <ele>1298.2</ele>
        <time>2021-09-28T08:06:47.000Z</time>
      </trkpt>
      <trkpt lat="47.90559" lon="7.08555">
        <ele>1294.5</ele>
        <time>2021-09-28T08:06:59.000Z</time>
      </trkpt>
      <trkpt lat="47.90561" lon="7.08569">
        <ele>1291.4</ele>
        <time>2021-09-28T08:07:16.000Z</time>
      </trkpt>
      <trkpt lat="47.90559" lon="7.08582">
        <ele>1288</ele>
        <time>2021-09-28T08:07:28.000Z</time>
      </trkpt>
      <trkpt lat="47.9056" lon="7.08596">
        <ele>1283.8</ele>
        <time>2021-09-28T08:07:38.000Z</time>
      </trkpt>
      <trkpt lat="47.90559" lon="7.0861">
        <ele>1279.2</ele>
        <time>2021-09-28T08:07:49.000Z</time>
      </trkpt>
      <trkpt lat="47.90557" lon="7.08624">
        <ele>1274.7</ele>
        <time>2021-09-28T08:08:00.000Z</time>
      </trkpt>
      <trkpt lat="47.90557" lon="7.08638">
        <ele>1270.1</ele>
        <time>2021-09-28T08:08:12.000Z</time>
      </trkpt>
      <trkpt lat="47.90557" lon="7.08652">
        <ele>1265.7</ele>
        <time>2021-09-28T08:08:23.000Z</time>
      </trkpt>
      <trkpt lat="47.9056" lon="7.08667">
        <ele>1261.2</ele>
        <time>2021-09-28T08:08:34.000Z</time>
      </trkpt>
      <trkpt lat="47.90558" lon="7.0868">
        <ele>1258.6</ele>
        <time>2021-09-28T08:08:42.000Z</time>
      </trkpt>
      <trkpt lat="47.90557" lon="7.08694">
        <ele>1256.1</ele>
        <time>2021-09-28T08:08:51.000Z</time>
      </trkpt>
      <trkpt lat="47.90557" lon="7.08709">
        <ele>1253.5</ele>
        <time>2021-09-28T08:09:00.000Z</time>
      </trkpt>
      <trkpt lat="47.90559" lon="7.08722">
        <ele>1251.1</ele>
        <time>2021-09-28T08:09:10.000Z</time>
      </trkpt>
      <trkpt lat="47.90558" lon="7.08737">
        <ele>1248.4</ele>
        <time>2021-09-28T08:09:20.000Z</time>
      </trkpt>
      <trkpt lat="47.90558" lon="7.08751">
        <ele>1246</ele>
        <time>2021-09-28T08:09:26.000Z</time>
      </trkpt>
      <trkpt lat="47.90559" lon="7.08766">
        <ele>1244.2</ele>
        <time>2021-09-28T08:09:34.000Z</time>
      </trkpt>
      <trkpt lat="47.90559" lon="7.08781">
        <ele>1242.5</ele>
        <time>2021-09-28T08:09:42.000Z</time>
      </trkpt>
      <trkpt lat="47.90559" lon="7.08795">
        <ele>1240.9</ele>
        <time>2021-09-28T08:09:49.000Z</time>
      </trkpt>
      <trkpt lat="47.9056" lon="7.08809">
        <ele>1239.2</ele>
        <time>2021-09-28T08:09:57.000Z</time>
      </trkpt>
      <trkpt lat="47.90558" lon="7.08824">
        <ele>1237.5</ele>
        <time>2021-09-28T08:10:04.000Z</time>
      </trkpt>
      <trkpt lat="47.90557" lon="7.08837">
        <ele>1236</ele>
        <time>2021-09-28T08:10:11.000Z</time>
      </trkpt>
      <trkpt lat="47.90557" lon="7.08851">
        <ele>1234.8</ele>
        <time>2021-09-28T08:10:17.000Z</time>
      </trkpt>
      <trkpt lat="47.90556" lon="7.08865">
        <ele>1233.6</ele>
        <time>2021-09-28T08:10:25.000Z</time>
      </trkpt>
      <trkpt lat="47.90554" lon="7.08878">
        <ele>1232.4</ele>
        <time>2021-09-28T08:10:36.000Z</time>
      </trkpt>
      <trkpt lat="47.90551" lon="7.08892">
        <ele>1231.3</ele>
        <time>2021-09-28T08:10:46.000Z</time>
      </trkpt>
      <trkpt lat="47.90547" lon="7.08905">
        <ele>1230.2</ele>
        <time>2021-09-28T08:10:55.000Z</time>
      </trkpt>
      <trkpt lat="47.90543" lon="7.08918">
        <ele>1229.4</ele>
        <time>2021-09-28T08:11:05.000Z</time>
      </trkpt>
      <trkpt lat="47.9054" lon="7.08932">
        <ele>1228.3</ele>
        <time>2021-09-28T08:11:14.000Z</time>
      </trkpt>
      <trkpt lat="47.90537" lon="7.08945">
        <ele>1227.2</ele>
        <time>2021-09-28T08:11:25.000Z</time>
      </trkpt>
      <trkpt lat="47.90534" lon="7.08958">
        <ele>1226.3</ele>
        <time>2021-09-28T08:11:34.000Z</time>
      </trkpt>
      <trkpt lat="47.90528" lon="7.08971">
        <ele>1225.7</ele>
        <time>2021-09-28T08:11:42.000Z</time>
      </trkpt>
      <trkpt lat="47.90522" lon="7.08982">
        <ele>1225.2</ele>
        <time>2021-09-28T08:11:49.000Z</time>
      </trkpt>
      <trkpt lat="47.90516" lon="7.08995">
        <ele>1224.9</ele>
        <time>2021-09-28T08:11:56.000Z</time>
      </trkpt>
      <trkpt lat="47.90509" lon="7.09006">
        <ele>1225.3</ele>
        <time>2021-09-28T08:12:05.000Z</time>
      </trkpt>
      <trkpt lat="47.90504" lon="7.09017">
        <ele>1226.4</ele>
        <time>2021-09-28T08:12:13.000Z</time>
      </trkpt>
      <trkpt lat="47.90498" lon="7.09029">
        <ele>1227.3</ele>
        <time>2021-09-28T08:12:41.000Z</time>
      </trkpt>
      <trkpt lat="47.90494" lon="7.09041">
        <ele>1227.5</ele>
        <time>2021-09-28T08:12:52.000Z</time>
      </trkpt>
      <trkpt lat="47.90487" lon="7.09052">
        <ele>1227.8</ele>
        <time>2021-09-28T08:12:59.000Z</time>
      </trkpt>
      <trkpt lat="47.90482" lon="7.09062">
        <ele>1228.1</ele>
        <time>2021-09-28T08:13:06.000Z</time>
      </trkpt>
      <trkpt lat="47.90474" lon="7.09071">
        <ele>1228.5</ele>
        <time>2021-09-28T08:13:14.000Z</time>
      </trkpt>
      <trkpt lat="47.90467" lon="7.09082">
        <ele>1229.1</ele>
        <time>2021-09-28T08:13:22.000Z</time>
      </trkpt>
      <trkpt lat="47.90461" lon="7.09093">
        <ele>1230.1</ele>
        <time>2021-09-28T08:13:31.000Z</time>
      </trkpt>
      <trkpt lat="47.90456" lon="7.09106">
        <ele>1231.4</ele>
        <time>2021-09-28T08:13:40.000Z</time>
      </trkpt>
      <trkpt lat="47.90452" lon="7.09118">
        <ele>1232.9</ele>
        <time>2021-09-28T08:13:50.000Z</time>
      </trkpt>
      <trkpt lat="47.90451" lon="7.09133">
        <ele>1234.6</ele>
        <time>2021-09-28T08:13:59.000Z</time>
      </trkpt>
      <trkpt lat="47.90447" lon="7.09146">
        <ele>1236.4</ele>
        <time>2021-09-28T08:14:09.000Z</time>
      </trkpt>
      <trkpt lat="47.90443" lon="7.09159">
        <ele>1238.1</ele>
        <time>2021-09-28T08:14:17.000Z</time>
      </trkpt>
      <trkpt lat="47.90451" lon="7.09166">
        <ele>1238.5</ele>
        <time>2021-09-28T08:14:27.000Z</time>
      </trkpt>
      <trkpt lat="47.90454" lon="7.09179">
        <ele>1239.3</ele>
        <time>2021-09-28T08:14:39.000Z</time>
      </trkpt>
      <trkpt lat="47.90454" lon="7.09193">
        <ele>1240.4</ele>
        <time>2021-09-28T08:14:47.000Z</time>
      </trkpt>
      <trkpt lat="47.90454" lon="7.09207">
        <ele>1241.4</ele>
        <time>2021-09-28T08:14:57.000Z</time>
      </trkpt>
      <trkpt lat="47.90456" lon="7.09221">
        <ele>1242.4</ele>
        <time>2021-09-28T08:15:07.000Z</time>
      </trkpt>
      <trkpt lat="47.90457" lon="7.09235">
        <ele>1243.5</ele>
        <time>2021-09-28T08:15:16.000Z</time>
      </trkpt>
      <trkpt lat="47.90458" lon="7.0925">
        <ele>1244.6</ele>
        <time>2021-09-28T08:15:26.000Z</time>
      </trkpt>
      <trkpt lat="47.90459" lon="7.09264">
        <ele>1246.8</ele>
        <time>2021-09-28T08:15:35.000Z</time>
      </trkpt>
      <trkpt lat="47.9046" lon="7.09278">
        <ele>1248.9</ele>
        <time>2021-09-28T08:15:46.000Z</time>
      </trkpt>
      <trkpt lat="47.90463" lon="7.09291">
        <ele>1250.7</ele>
        <time>2021-09-28T08:15:57.000Z</time>
      </trkpt>
      <trkpt lat="47.90467" lon="7.09305">
        <ele>1252.5</ele>
        <time>2021-09-28T08:16:06.000Z</time>
      </trkpt>
      <trkpt lat="47.90469" lon="7.09319">
        <ele>1254.3</ele>
        <time>2021-09-28T08:16:15.000Z</time>
      </trkpt>
      <trkpt lat="47.90472" lon="7.09331">
        <ele>1255.7</ele>
        <time>2021-09-28T08:16:24.000Z</time>
      </trkpt>
      <trkpt lat="47.90476" lon="7.09344">
        <ele>1256.9</ele>
        <time>2021-09-28T08:16:32.000Z</time>
      </trkpt>
      <trkpt lat="47.90479" lon="7.09357">
        <ele>1258.3</ele>
        <time>2021-09-28T08:16:41.000Z</time>
      </trkpt>
      <trkpt lat="47.90479" lon="7.09372">
        <ele>1260.6</ele>
        <time>2021-09-28T08:16:53.000Z</time>
      </trkpt>
      <trkpt lat="47.90483" lon="7.09384">
        <ele>1261.9</ele>
        <time>2021-09-28T08:17:01.000Z</time>
      </trkpt>
      <trkpt lat="47.90483" lon="7.09399">
        <ele>1263.9</ele>
        <time>2021-09-28T08:17:12.000Z</time>
      </trkpt>
      <trkpt lat="47.90486" lon="7.09412">
        <ele>1265.4</ele>
        <time>2021-09-28T08:17:20.000Z</time>
      </trkpt>
      <trkpt lat="47.90491" lon="7.09424">
        <ele>1266.2</ele>
        <time>2021-09-28T08:17:32.000Z</time>
      </trkpt>
      <trkpt lat="47.90494" lon="7.09438">
        <ele>1267.7</ele>
        <time>2021-09-28T08:17:41.000Z</time>
      </trkpt>
      <trkpt lat="47.90497" lon="7.09452">
        <ele>1269</ele>
        <time>2021-09-28T08:17:50.000Z</time>
      </trkpt>
      <trkpt lat="47.905" lon="7.09465">
        <ele>1270.6</ele>
        <time>2021-09-28T08:17:59.000Z</time>
      </trkpt>
      <trkpt lat="47.90504" lon="7.09478">
        <ele>1271.9</ele>
        <time>2021-09-28T08:18:08.000Z</time>
      </trkpt>
      <trkpt lat="47.9051" lon="7.0949">
        <ele>1272.7</ele>
        <time>2021-09-28T08:18:18.000Z</time>
      </trkpt>
      <trkpt lat="47.90515" lon="7.09502">
        <ele>1273.5</ele>
        <time>2021-09-28T08:18:29.000Z</time>
      </trkpt>
      <trkpt lat="47.9052" lon="7.09515">
        <ele>1274.3</ele>
        <time>2021-09-28T08:18:38.000Z</time>
      </trkpt>
      <trkpt lat="47.90523" lon="7.09528">
        <ele>1275.4</ele>
        <time>2021-09-28T08:18:49.000Z</time>
      </trkpt>
      <trkpt lat="47.90525" lon="7.09542">
        <ele>1276.6</ele>
        <time>2021-09-28T08:18:58.000Z</time>
      </trkpt>
      <trkpt lat="47.90527" lon="7.09555">
        <ele>1277.9</ele>
        <time>2021-09-28T08:19:07.000Z</time>
      </trkpt>
      <trkpt lat="47.90528" lon="7.09569">
        <ele>1279.4</ele>
        <time>2021-09-28T08:19:16.000Z</time>
      </trkpt>
      <trkpt lat="47.90527" lon="7.09585">
        <ele>1281.4</ele>
        <time>2021-09-28T08:19:25.000Z</time>
      </trkpt>
      <trkpt lat="47.90527" lon="7.096">
        <ele>1282.7</ele>
        <time>2021-09-28T08:19:37.000Z</time>
      </trkpt>
      <trkpt lat="47.90528" lon="7.09614">
        <ele>1283.5</ele>
        <time>2021-09-28T08:19:45.000Z</time>
      </trkpt>
      <trkpt lat="47.90526" lon="7.09628">
        <ele>1285.5</ele>
        <time>2021-09-28T08:19:54.000Z</time>
      </trkpt>
      <trkpt lat="47.9052" lon="7.09639">
        <ele>1288.3</ele>
        <time>2021-09-28T08:20:03.000Z</time>
      </trkpt>
      <trkpt lat="47.90517" lon="7.09652">
        <ele>1290.4</ele>
        <time>2021-09-28T08:20:11.000Z</time>
      </trkpt>
      <trkpt lat="47.90513" lon="7.09665">
        <ele>1292.9</ele>
        <time>2021-09-28T08:20:21.000Z</time>
      </trkpt>
      <trkpt lat="47.90514" lon="7.09679">
        <ele>1294</ele>
        <time>2021-09-28T08:20:30.000Z</time>
      </trkpt>
      <trkpt lat="47.90515" lon="7.09692">
        <ele>1295</ele>
        <time>2021-09-28T08:20:38.000Z</time>
      </trkpt>
      <trkpt lat="47.90518" lon="7.09706">
        <ele>1295.4</ele>
        <time>2021-09-28T08:20:48.000Z</time>
      </trkpt>
      <trkpt lat="47.90518" lon="7.09721">
        <ele>1296.9</ele>
        <time>2021-09-28T08:20:57.000Z</time>
      </trkpt>
      <trkpt lat="47.9052" lon="7.09734">
        <ele>1297.8</ele>
        <time>2021-09-28T08:21:07.000Z</time>
      </trkpt>
      <trkpt lat="47.90522" lon="7.09748">
        <ele>1298.3</ele>
        <time>2021-09-28T08:21:17.000Z</time>
      </trkpt>
      <trkpt lat="47.90526" lon="7.09762">
        <ele>1298.5</ele>
        <time>2021-09-28T08:21:24.000Z</time>
      </trkpt>
      <trkpt lat="47.90527" lon="7.09776">
        <ele>1299.5</ele>
        <time>2021-09-28T08:21:34.000Z</time>
      </trkpt>
      <trkpt lat="47.90528" lon="7.0979">
        <ele>1300.7</ele>
        <time>2021-09-28T08:21:45.000Z</time>
      </trkpt>
      <trkpt lat="47.90529" lon="7.09803">
        <ele>1301.7</ele>
        <time>2021-09-28T08:21:56.000Z</time>
      </trkpt>
      <trkpt lat="47.9053" lon="7.09817">
        <ele>1302.6</ele>
        <time>2021-09-28T08:22:04.000Z</time>
      </trkpt>
      <trkpt lat="47.90529" lon="7.09832">
        <ele>1304.5</ele>
        <time>2021-09-28T08:22:17.000Z</time>
      </trkpt>
      <trkpt lat="47.90532" lon="7.09845">
        <ele>1304.8</ele>
        <time>2021-09-28T08:22:24.000Z</time>
      </trkpt>
      <trkpt lat="47.90531" lon="7.09859">
        <ele>1305.9</ele>
        <time>2021-09-28T08:22:33.000Z</time>
      </trkpt>
      <trkpt lat="47.90531" lon="7.09873">
        <ele>1306.9</ele>
        <time>2021-09-28T08:22:41.000Z</time>
      </trkpt>
      <trkpt lat="47.90531" lon="7.09887">
        <ele>1308.2</ele>
        <time>2021-09-28T08:22:51.000Z</time>
      </trkpt>
      <trkpt lat="47.90528" lon="7.099">
        <ele>1310.4</ele>
        <time>2021-09-28T08:23:02.000Z</time>
      </trkpt>
      <trkpt lat="47.90526" lon="7.09915">
        <ele>1312.1</ele>
        <time>2021-09-28T08:23:12.000Z</time>
      </trkpt>
      <trkpt lat="47.90523" lon="7.09928">
        <ele>1313.8</ele>
        <time>2021-09-28T08:23:21.000Z</time>
      </trkpt>
      <trkpt lat="47.9052" lon="7.09941">
        <ele>1315.4</ele>
        <time>2021-09-28T08:23:32.000Z</time>
      </trkpt>
      <trkpt lat="47.90517" lon="7.09953">
        <ele>1317</ele>
        <time>2021-09-28T08:23:41.000Z</time>
      </trkpt>
      <trkpt lat="47.90518" lon="7.09967">
        <ele>1316.9</ele>
        <time>2021-09-28T08:23:50.000Z</time>
      </trkpt>
      <trkpt lat="47.90515" lon="7.09982">
        <ele>1318.1</ele>
        <time>2021-09-28T08:24:00.000Z</time>
      </trkpt>
      <trkpt lat="47.90516" lon="7.09996">
        <ele>1318.2</ele>
        <time>2021-09-28T08:24:09.000Z</time>
      </trkpt>
      <trkpt lat="47.90517" lon="7.1001">
        <ele>1318.2</ele>
        <time>2021-09-28T08:24:18.000Z</time>
      </trkpt>
      <trkpt lat="47.90514" lon="7.10023">
        <ele>1320</ele>
        <time>2021-09-28T08:24:28.000Z</time>
      </trkpt>
      <trkpt lat="47.90513" lon="7.10036">
        <ele>1320.7</ele>
        <time>2021-09-28T08:24:37.000Z</time>
      </trkpt>
      <trkpt lat="47.90514" lon="7.1005">
        <ele>1320.9</ele>
        <time>2021-09-28T08:24:45.000Z</time>
      </trkpt>
      <trkpt lat="47.90513" lon="7.10063">
        <ele>1322</ele>
        <time>2021-09-28T08:24:54.000Z</time>
      </trkpt>
      <trkpt lat="47.90512" lon="7.10078">
        <ele>1322.8</ele>
        <time>2021-09-28T08:25:03.000Z</time>
      </trkpt>
      <trkpt lat="47.90512" lon="7.10093">
        <ele>1323.4</ele>
        <time>2021-09-28T08:25:13.000Z</time>
      </trkpt>
      <trkpt lat="47.90511" lon="7.10107">
        <ele>1324.2</ele>
        <time>2021-09-28T08:25:23.000Z</time>
      </trkpt>
      <trkpt lat="47.90508" lon="7.1012">
        <ele>1325.8</ele>
        <time>2021-09-28T08:25:32.000Z</time>
      </trkpt>
      <trkpt lat="47.90506" lon="7.10134">
        <ele>1326.9</ele>
        <time>2021-09-28T08:25:42.000Z</time>
      </trkpt>
      <trkpt lat="47.90505" lon="7.10148">
        <ele>1327.9</ele>
        <time>2021-09-28T08:25:52.000Z</time>
      </trkpt>
      <trkpt lat="47.90502" lon="7.10162">
        <ele>1329.2</ele>
        <time>2021-09-28T08:26:03.000Z</time>
      </trkpt>
      <trkpt lat="47.90499" lon="7.10176">
        <ele>1330.5</ele>
        <time>2021-09-28T08:26:12.000Z</time>
      </trkpt>
      <trkpt lat="47.90494" lon="7.10188">
        <ele>1331.9</ele>
        <time>2021-09-28T08:26:23.000Z</time>
      </trkpt>
      <trkpt lat="47.9049" lon="7.102">
        <ele>1333.2</ele>
        <time>2021-09-28T08:26:33.000Z</time>
      </trkpt>
      <trkpt lat="47.90482" lon="7.10193">
        <ele>1335.6</ele>
        <time>2021-09-28T08:26:51.000Z</time>
      </trkpt>
      <trkpt lat="47.90478" lon="7.10179">
        <ele>1336.9</ele>
        <time>2021-09-28T08:27:03.000Z</time>
      </trkpt>
      <trkpt lat="47.90471" lon="7.10172">
        <ele>1339.4</ele>
        <time>2021-09-28T08:27:16.000Z</time>
      </trkpt>
      <trkpt lat="47.90462" lon="7.10176">
        <ele>1342</ele>
        <time>2021-09-28T08:27:27.000Z</time>
      </trkpt>
      <trkpt lat="47.90452" lon="7.10176">
        <ele>1344.9</ele>
        <time>2021-09-28T08:27:35.000Z</time>
      </trkpt>
      <trkpt lat="47.90445" lon="7.10186">
        <ele>1346.5</ele>
        <time>2021-09-28T08:27:45.000Z</time>
      </trkpt>
      <trkpt lat="47.90436" lon="7.1019">
        <ele>1348.9</ele>
        <time>2021-09-28T08:27:54.000Z</time>
      </trkpt>
      <trkpt lat="47.90427" lon="7.10197">
        <ele>1350.8</ele>
        <time>2021-09-28T08:28:01.000Z</time>
      </trkpt>
      <trkpt lat="47.90421" lon="7.10208">
        <ele>1351.4</ele>
        <time>2021-09-28T08:28:09.000Z</time>
      </trkpt>
      <trkpt lat="47.90418" lon="7.10221">
        <ele>1350.9</ele>
        <time>2021-09-28T08:28:17.000Z</time>
      </trkpt>
      <trkpt lat="47.90409" lon="7.10224">
        <ele>1351.8</ele>
        <time>2021-09-28T08:28:26.000Z</time>
      </trkpt>
      <trkpt lat="47.90406" lon="7.10211">
        <ele>1353.8</ele>
        <time>2021-09-28T08:28:43.000Z</time>
      </trkpt>
      <trkpt lat="47.90408" lon="7.10198">
        <ele>1355.2</ele>
        <time>2021-09-28T08:28:54.000Z</time>
      </trkpt>
      <trkpt lat="47.9041" lon="7.10184">
        <ele>1356.5</ele>
        <time>2021-09-28T08:29:05.000Z</time>
      </trkpt>
      <trkpt lat="47.90412" lon="7.10171">
        <ele>1357.9</ele>
        <time>2021-09-28T08:29:16.000Z</time>
      </trkpt>
      <trkpt lat="47.90414" lon="7.10158">
        <ele>1358.5</ele>
        <time>2021-09-28T08:29:24.000Z</time>
      </trkpt>
      <trkpt lat="47.90414" lon="7.10144">
        <ele>1359.3</ele>
        <time>2021-09-28T08:29:33.000Z</time>
      </trkpt>
      <trkpt lat="47.90416" lon="7.10131">
        <ele>1359.9</ele>
        <time>2021-09-28T08:29:44.000Z</time>
      </trkpt>
      <trkpt lat="47.90418" lon="7.10118">
        <ele>1359.9</ele>
        <time>2021-09-28T08:29:53.000Z</time>
      </trkpt>
      <trkpt lat="47.90416" lon="7.10103">
        <ele>1361.8</ele>
        <time>2021-09-28T08:30:03.000Z</time>
      </trkpt>
      <trkpt lat="47.90418" lon="7.1009">
        <ele>1362.1</ele>
        <time>2021-09-28T08:30:14.000Z</time>
      </trkpt>
      <trkpt lat="47.90412" lon="7.10079">
        <ele>1364.6</ele>
        <time>2021-09-28T08:30:24.000Z</time>
      </trkpt>
      <trkpt lat="47.90408" lon="7.10066">
        <ele>1366.4</ele>
        <time>2021-09-28T08:30:36.000Z</time>
      </trkpt>
      <trkpt lat="47.90404" lon="7.10053">
        <ele>1367.9</ele>
        <time>2021-09-28T08:30:46.000Z</time>
      </trkpt>
      <trkpt lat="47.90402" lon="7.10039">
        <ele>1368.9</ele>
        <time>2021-09-28T08:30:59.000Z</time>
      </trkpt>
      <trkpt lat="47.90398" lon="7.10025">
        <ele>1370.5</ele>
        <time>2021-09-28T08:31:09.000Z</time>
      </trkpt>
      <trkpt lat="47.90395" lon="7.10012">
        <ele>1372.3</ele>
        <time>2021-09-28T08:31:20.000Z</time>
      </trkpt>
      <trkpt lat="47.9039" lon="7.1">
        <ele>1374.4</ele>
        <time>2021-09-28T08:31:32.000Z</time>
      </trkpt>
      <trkpt lat="47.90387" lon="7.09987">
        <ele>1375.4</ele>
        <time>2021-09-28T08:31:45.000Z</time>
      </trkpt>
      <trkpt lat="47.90385" lon="7.09974">
        <ele>1375.5</ele>
        <time>2021-09-28T08:31:56.000Z</time>
      </trkpt>
      <trkpt lat="47.90382" lon="7.0996">
        <ele>1376.1</ele>
        <time>2021-09-28T08:32:07.000Z</time>
      </trkpt>
      <trkpt lat="47.90378" lon="7.09947">
        <ele>1377.1</ele>
        <time>2021-09-28T08:32:18.000Z</time>
      </trkpt>
      <trkpt lat="47.90371" lon="7.09936">
        <ele>1379</ele>
        <time>2021-09-28T08:32:29.000Z</time>
      </trkpt>
      <trkpt lat="47.90366" lon="7.09925">
        <ele>1380.5</ele>
        <time>2021-09-28T08:33:11.000Z</time>
      </trkpt>
      <trkpt lat="47.90359" lon="7.09916">
        <ele>1382.5</ele>
        <time>2021-09-28T08:33:25.000Z</time>
      </trkpt>
      <trkpt lat="47.9035" lon="7.0991">
        <ele>1384.6</ele>
        <time>2021-09-28T08:33:38.000Z</time>
      </trkpt>
      <trkpt lat="47.90342" lon="7.09903">
        <ele>1386.1</ele>
        <time>2021-09-28T08:33:48.000Z</time>
      </trkpt>
      <trkpt lat="47.90334" lon="7.09897">
        <ele>1388.2</ele>
        <time>2021-09-28T08:34:00.000Z</time>
      </trkpt>
      <trkpt lat="47.90324" lon="7.09892">
        <ele>1388.9</ele>
        <time>2021-09-28T08:34:12.000Z</time>
      </trkpt>
      <trkpt lat="47.90315" lon="7.09889">
        <ele>1390</ele>
        <time>2021-09-28T08:34:21.000Z</time>
      </trkpt>
      <trkpt lat="47.90307" lon="7.09896">
        <ele>1392.7</ele>
        <time>2021-09-28T08:34:35.000Z</time>
      </trkpt>
      <trkpt lat="47.90298" lon="7.09902">
        <ele>1395.1</ele>
        <time>2021-09-28T08:34:44.000Z</time>
      </trkpt>
      <trkpt lat="47.9029" lon="7.09909">
        <ele>1397.6</ele>
        <time>2021-09-28T08:34:53.000Z</time>
      </trkpt>
      <trkpt lat="47.90284" lon="7.09926">
        <ele>1400</ele>
        <time>2021-09-28T08:34:58.000Z</time>
      </trkpt>
      <trkpt lat="47.90275" lon="7.0992">
        <ele>1401.1</ele>
        <time>2021-09-28T08:35:11.000Z</time>
      </trkpt>
      <trkpt lat="47.90266" lon="7.0992">
        <ele>1402.5</ele>
        <time>2021-09-28T08:35:20.000Z</time>
      </trkpt>
      <trkpt lat="47.90256" lon="7.09917">
        <ele>1404.1</ele>
        <time>2021-09-28T08:35:29.000Z</time>
      </trkpt>
      <trkpt lat="47.90247" lon="7.09913">
        <ele>1404.8</ele>
        <time>2021-09-28T08:35:37.000Z</time>
      </trkpt>
      <trkpt lat="47.90238" lon="7.0991">
        <ele>1404.8</ele>
        <time>2021-09-28T08:35:44.000Z</time>
      </trkpt>
      <trkpt lat="47.9023" lon="7.09902">
        <ele>1404.5</ele>
        <time>2021-09-28T08:35:51.000Z</time>
      </trkpt>
      <trkpt lat="47.90222" lon="7.09898">
        <ele>1404.6</ele>
        <time>2021-09-28T08:36:01.000Z</time>
      </trkpt>
      <trkpt lat="47.90212" lon="7.09895">
        <ele>1405</ele>
        <time>2021-09-28T08:36:09.000Z</time>
      </trkpt>
      <trkpt lat="47.90203" lon="7.09893">
        <ele>1405.5</ele>
        <time>2021-09-28T08:36:18.000Z</time>
      </trkpt>
      <trkpt lat="47.90194" lon="7.09889">
        <ele>1406</ele>
        <time>2021-09-28T08:36:27.000Z</time>
      </trkpt>
      <trkpt lat="47.90187" lon="7.09879">
        <ele>1405.9</ele>
        <time>2021-09-28T08:36:36.000Z</time>
      </trkpt>
      <trkpt lat="47.9018" lon="7.09872">
        <ele>1406.2</ele>
        <time>2021-09-28T08:36:44.000Z</time>
      </trkpt>
      <trkpt lat="47.90172" lon="7.09866">
        <ele>1406.7</ele>
        <time>2021-09-28T08:36:51.000Z</time>
      </trkpt>
      <trkpt lat="47.90163" lon="7.0986">
        <ele>1407.2</ele>
        <time>2021-09-28T08:37:00.000Z</time>
      </trkpt>
      <trkpt lat="47.90154" lon="7.09853">
        <ele>1407.6</ele>
        <time>2021-09-28T08:37:08.000Z</time>
      </trkpt>
      <trkpt lat="47.90145" lon="7.09848">
        <ele>1408.2</ele>
        <time>2021-09-28T08:37:17.000Z</time>
      </trkpt>
      <trkpt lat="47.90135" lon="7.09844">
        <ele>1408.9</ele>
        <time>2021-09-28T08:37:27.000Z</time>
      </trkpt>
      <trkpt lat="47.90127" lon="7.09838">
        <ele>1409.4</ele>
        <time>2021-09-28T08:37:35.000Z</time>
      </trkpt>
      <trkpt lat="47.90117" lon="7.09832">
        <ele>1409.9</ele>
        <time>2021-09-28T08:37:44.000Z</time>
      </trkpt>
      <trkpt lat="47.90108" lon="7.09835">
        <ele>1411</ele>
        <time>2021-09-28T08:37:55.000Z</time>
      </trkpt>
      <trkpt lat="47.90099" lon="7.0984">
        <ele>1411.8</ele>
        <time>2021-09-28T08:38:03.000Z</time>
      </trkpt>
      <trkpt lat="47.90092" lon="7.09851">
        <ele>1412.3</ele>
        <time>2021-09-28T08:38:20.000Z</time>
      </trkpt>
      <trkpt lat="47.90085" lon="7.0986">
        <ele>1412.9</ele>
        <time>2021-09-28T08:38:30.000Z</time>
      </trkpt>
      <trkpt lat="47.90078" lon="7.0987">
        <ele>1411.8</ele>
        <time>2021-09-28T08:38:38.000Z</time>
      </trkpt>
      <trkpt lat="47.9007" lon="7.09878">
        <ele>1409.8</ele>
        <time>2021-09-28T08:38:48.000Z</time>
      </trkpt>
      <trkpt lat="47.90061" lon="7.09882">
        <ele>1407.8</ele>
        <time>2021-09-28T08:38:56.000Z</time>
      </trkpt>
      <trkpt lat="47.90051" lon="7.09886">
        <ele>1405.9</ele>
        <time>2021-09-28T08:39:04.000Z</time>
      </trkpt>
      <trkpt lat="47.90045" lon="7.09897">
        <ele>1405.1</ele>
        <time>2021-09-28T08:39:12.000Z</time>
      </trkpt>
      <trkpt lat="47.90037" lon="7.09905">
        <ele>1404</ele>
        <time>2021-09-28T08:39:21.000Z</time>
      </trkpt>
      <trkpt lat="47.90028" lon="7.09896">
        <ele>1401.6</ele>
        <time>2021-09-28T08:39:30.000Z</time>
      </trkpt>
      <trkpt lat="47.90022" lon="7.09906">
        <ele>1401.2</ele>
        <time>2021-09-28T08:39:39.000Z</time>
      </trkpt>
      <trkpt lat="47.90016" lon="7.09916">
        <ele>1400.8</ele>
        <time>2021-09-28T08:39:58.000Z</time>
      </trkpt>
      <trkpt lat="47.90015" lon="7.09931">
        <ele>1398.7</ele>
        <time>2021-09-28T08:41:21.000Z</time>
      </trkpt>
      <trkpt lat="47.90016" lon="7.09945">
        <ele>1396.8</ele>
        <time>2021-09-28T08:41:29.000Z</time>
      </trkpt>
      <trkpt lat="47.9002" lon="7.09958">
        <ele>1395.6</ele>
        <time>2021-09-28T08:41:38.000Z</time>
      </trkpt>
      <trkpt lat="47.90022" lon="7.09973">
        <ele>1393.6</ele>
        <time>2021-09-28T08:41:53.000Z</time>
      </trkpt>
      <trkpt lat="47.90014" lon="7.09978">
        <ele>1392</ele>
        <time>2021-09-28T08:42:00.000Z</time>
      </trkpt>
      <trkpt lat="47.90005" lon="7.09985">
        <ele>1390.2</ele>
        <time>2021-09-28T08:42:10.000Z</time>
      </trkpt>
      <trkpt lat="47.89996" lon="7.0999">
        <ele>1388.2</ele>
        <time>2021-09-28T08:42:17.000Z</time>
      </trkpt>
      <trkpt lat="47.89987" lon="7.0999">
        <ele>1386.1</ele>
        <time>2021-09-28T08:42:27.000Z</time>
      </trkpt>
      <trkpt lat="47.89977" lon="7.09992">
        <ele>1383.9</ele>
        <time>2021-09-28T08:42:37.000Z</time>
      </trkpt>
      <trkpt lat="47.89968" lon="7.09991">
        <ele>1382</ele>
        <time>2021-09-28T08:42:45.000Z</time>
      </trkpt>
      <trkpt lat="47.8996" lon="7.09986">
        <ele>1380.4</ele>
        <time>2021-09-28T08:42:54.000Z</time>
      </trkpt>
      <trkpt lat="47.89951" lon="7.09983">
        <ele>1378.6</ele>
        <time>2021-09-28T08:43:04.000Z</time>
      </trkpt>
      <trkpt lat="47.89945" lon="7.09973">
        <ele>1377.8</ele>
        <time>2021-09-28T08:43:13.000Z</time>
      </trkpt>
      <trkpt lat="47.89938" lon="7.09962">
        <ele>1376.8</ele>
        <time>2021-09-28T08:43:20.000Z</time>
      </trkpt>
      <trkpt lat="47.89932" lon="7.09952">
        <ele>1375.7</ele>
        <time>2021-09-28T08:43:29.000Z</time>
      </trkpt>
      <trkpt lat="47.89923" lon="7.09945">
        <ele>1373.5</ele>
        <time>2021-09-28T08:43:38.000Z</time>
      </trkpt>
      <trkpt lat="47.89916" lon="7.09936">
        <ele>1371.8</ele>
        <time>2021-09-28T08:43:45.000Z</time>
      </trkpt>
      <trkpt lat="47.89908" lon="7.09929">
        <ele>1368.3</ele>
        <time>2021-09-28T08:43:53.000Z</time>
      </trkpt>
      <trkpt lat="47.899" lon="7.0992">
        <ele>1364.7</ele>
        <time>2021-09-28T08:44:15.000Z</time>
      </trkpt>
      <trkpt lat="47.89904" lon="7.09906">
        <ele>1364.8</ele>
        <time>2021-09-28T08:44:28.000Z</time>
      </trkpt>
      <trkpt lat="47.89906" lon="7.09892">
        <ele>1363.8</ele>
        <time>2021-09-28T08:44:38.000Z</time>
      </trkpt>
      <trkpt lat="47.89911" lon="7.09879">
        <ele>1364.2</ele>
        <time>2021-09-28T08:44:47.000Z</time>
      </trkpt>
      <trkpt lat="47.89916" lon="7.09867">
        <ele>1364.9</ele>
        <time>2021-09-28T08:44:56.000Z</time>
      </trkpt>
      <trkpt lat="47.8992" lon="7.09854">
        <ele>1364.3</ele>
        <time>2021-09-28T08:45:06.000Z</time>
      </trkpt>
      <trkpt lat="47.89922" lon="7.09841">
        <ele>1363</ele>
        <time>2021-09-28T08:45:18.000Z</time>
      </trkpt>
      <trkpt lat="47.89913" lon="7.09845">
        <ele>1360.2</ele>
        <time>2021-09-28T08:45:36.000Z</time>
      </trkpt>
      <trkpt lat="47.89905" lon="7.09851">
        <ele>1357.1</ele>
        <time>2021-09-28T08:45:45.000Z</time>
      </trkpt>
      <trkpt lat="47.89895" lon="7.09856">
        <ele>1353.4</ele>
        <time>2021-09-28T08:45:52.000Z</time>
      </trkpt>
      <trkpt lat="47.89888" lon="7.09866">
        <ele>1351.3</ele>
        <time>2021-09-28T08:46:00.000Z</time>
      </trkpt>
      <trkpt lat="47.89883" lon="7.09877">
        <ele>1350.3</ele>
        <time>2021-09-28T08:46:09.000Z</time>
      </trkpt>
      <trkpt lat="47.89878" lon="7.09889">
        <ele>1349.6</ele>
        <time>2021-09-28T08:46:17.000Z</time>
      </trkpt>
      <trkpt lat="47.8987" lon="7.09895">
        <ele>1346.5</ele>
        <time>2021-09-28T08:46:28.000Z</time>
      </trkpt>
      <trkpt lat="47.89865" lon="7.09907">
        <ele>1345.8</ele>
        <time>2021-09-28T08:46:34.000Z</time>
      </trkpt>
      <trkpt lat="47.89861" lon="7.0992">
        <ele>1344.9</ele>
        <time>2021-09-28T08:46:43.000Z</time>
      </trkpt>
      <trkpt lat="47.89857" lon="7.09933">
        <ele>1343.3</ele>
        <time>2021-09-28T08:46:53.000Z</time>
      </trkpt>
      <trkpt lat="47.8985" lon="7.09943">
        <ele>1339.8</ele>
        <time>2021-09-28T08:47:03.000Z</time>
      </trkpt>
      <trkpt lat="47.89846" lon="7.09956">
        <ele>1338.4</ele>
        <time>2021-09-28T08:47:11.000Z</time>
      </trkpt>
      <trkpt lat="47.89844" lon="7.09969">
        <ele>1337.9</ele>
        <time>2021-09-28T08:47:21.000Z</time>
      </trkpt>
      <trkpt lat="47.89837" lon="7.09976">
        <ele>1334.7</ele>
        <time>2021-09-28T08:47:33.000Z</time>
      </trkpt>
      <trkpt lat="47.89836" lon="7.0999">
        <ele>1334.7</ele>
        <time>2021-09-28T08:47:42.000Z</time>
      </trkpt>
      <trkpt lat="47.89837" lon="7.10005">
        <ele>1335.3</ele>
        <time>2021-09-28T08:47:52.000Z</time>
      </trkpt>
      <trkpt lat="47.89836" lon="7.10018">
        <ele>1333.5</ele>
        <time>2021-09-28T08:48:00.000Z</time>
      </trkpt>
      <trkpt lat="47.89836" lon="7.10033">
        <ele>1332.3</ele>
        <time>2021-09-28T08:48:08.000Z</time>
      </trkpt>
      <trkpt lat="47.89838" lon="7.10051">
        <ele>1331.6</ele>
        <time>2021-09-28T08:48:35.000Z</time>
      </trkpt>
      <trkpt lat="47.89841" lon="7.10065">
        <ele>1331.3</ele>
        <time>2021-09-28T08:48:44.000Z</time>
      </trkpt>
      <trkpt lat="47.89843" lon="7.10079">
        <ele>1330.6</ele>
        <time>2021-09-28T08:48:52.000Z</time>
      </trkpt>
      <trkpt lat="47.89845" lon="7.10093">
        <ele>1330.3</ele>
        <time>2021-09-28T08:48:59.000Z</time>
      </trkpt>
      <trkpt lat="47.89845" lon="7.10109">
        <ele>1329.4</ele>
        <time>2021-09-28T08:49:17.000Z</time>
      </trkpt>
      <trkpt lat="47.89847" lon="7.10123">
        <ele>1328.9</ele>
        <time>2021-09-28T08:49:24.000Z</time>
      </trkpt>
      <trkpt lat="47.89848" lon="7.10136">
        <ele>1328.2</ele>
        <time>2021-09-28T08:49:30.000Z</time>
      </trkpt>
      <trkpt lat="47.89849" lon="7.10152">
        <ele>1327.4</ele>
        <time>2021-09-28T08:49:37.000Z</time>
      </trkpt>
      <trkpt lat="47.89854" lon="7.10163">
        <ele>1328.1</ele>
        <time>2021-09-28T08:49:45.000Z</time>
      </trkpt>
      <trkpt lat="47.89858" lon="7.10177">
        <ele>1327.1</ele>
        <time>2021-09-28T08:49:58.000Z</time>
      </trkpt>
      <trkpt lat="47.89857" lon="7.1019">
        <ele>1324.4</ele>
        <time>2021-09-28T08:50:06.000Z</time>
      </trkpt>
      <trkpt lat="47.89852" lon="7.10201">
        <ele>1321.3</ele>
        <time>2021-09-28T08:50:17.000Z</time>
      </trkpt>
      <trkpt lat="47.89843" lon="7.10207">
        <ele>1318.4</ele>
        <time>2021-09-28T08:50:24.000Z</time>
      </trkpt>
      <trkpt lat="47.89839" lon="7.1022">
        <ele>1315.4</ele>
        <time>2021-09-28T08:50:32.000Z</time>
      </trkpt>
      <trkpt lat="47.89831" lon="7.10227">
        <ele>1312.5</ele>
        <time>2021-09-28T08:50:45.000Z</time>
      </trkpt>
      <trkpt lat="47.89822" lon="7.10223">
        <ele>1310.6</ele>
        <time>2021-09-28T08:50:53.000Z</time>
      </trkpt>
      <trkpt lat="47.89813" lon="7.10217">
        <ele>1309</ele>
        <time>2021-09-28T08:51:04.000Z</time>
      </trkpt>
      <trkpt lat="47.89804" lon="7.10214">
        <ele>1306.7</ele>
        <time>2021-09-28T08:51:13.000Z</time>
      </trkpt>
      <trkpt lat="47.89794" lon="7.1021">
        <ele>1304.2</ele>
        <time>2021-09-28T08:51:20.000Z</time>
      </trkpt>
      <trkpt lat="47.89785" lon="7.10204">
        <ele>1302.3</ele>
        <time>2021-09-28T08:51:28.000Z</time>
      </trkpt>
      <trkpt lat="47.8978" lon="7.10192">
        <ele>1301.8</ele>
        <time>2021-09-28T08:51:37.000Z</time>
      </trkpt>
      <trkpt lat="47.89778" lon="7.10177">
        <ele>1302.6</ele>
        <time>2021-09-28T08:51:44.000Z</time>
      </trkpt>
      <trkpt lat="47.89769" lon="7.1018">
        <ele>1299.3</ele>
        <time>2021-09-28T08:51:58.000Z</time>
      </trkpt>
      <trkpt lat="47.89765" lon="7.10192">
        <ele>1297.1</ele>
        <time>2021-09-28T08:52:06.000Z</time>
      </trkpt>
      <trkpt lat="47.89762" lon="7.10205">
        <ele>1295.2</ele>
        <time>2021-09-28T08:52:13.000Z</time>
      </trkpt>
      <trkpt lat="47.89761" lon="7.10219">
        <ele>1293.8</ele>
        <time>2021-09-28T08:52:21.000Z</time>
      </trkpt>
      <trkpt lat="47.8976" lon="7.10235">
        <ele>1292.5</ele>
        <time>2021-09-28T08:52:30.000Z</time>
      </trkpt>
      <trkpt lat="47.89756" lon="7.10249">
        <ele>1290.7</ele>
        <time>2021-09-28T08:52:37.000Z</time>
      </trkpt>
      <trkpt lat="47.89755" lon="7.10263">
        <ele>1288.9</ele>
        <time>2021-09-28T08:52:45.000Z</time>
      </trkpt>
      <trkpt lat="47.89749" lon="7.10274">
        <ele>1286.5</ele>
        <time>2021-09-28T08:52:53.000Z</time>
      </trkpt>
      <trkpt lat="47.89745" lon="7.10287">
        <ele>1284.1</ele>
        <time>2021-09-28T08:53:00.000Z</time>
      </trkpt>
      <trkpt lat="47.89741" lon="7.10299">
        <ele>1282.2</ele>
        <time>2021-09-28T08:53:07.000Z</time>
      </trkpt>
      <trkpt lat="47.89744" lon="7.10312">
        <ele>1281.8</ele>
        <time>2021-09-28T08:53:30.000Z</time>
      </trkpt>
      <trkpt lat="47.89749" lon="7.10324">
        <ele>1281.8</ele>
        <time>2021-09-28T08:53:38.000Z</time>
      </trkpt>
      <trkpt lat="47.89757" lon="7.10333">
        <ele>1282.2</ele>
        <time>2021-09-28T08:53:43.000Z</time>
      </trkpt>
      <trkpt lat="47.89767" lon="7.10337">
        <ele>1283.6</ele>
        <time>2021-09-28T08:53:51.000Z</time>
      </trkpt>
      <trkpt lat="47.89773" lon="7.10346">
        <ele>1284.2</ele>
        <time>2021-09-28T08:53:59.000Z</time>
      </trkpt>
      <trkpt lat="47.89779" lon="7.10357">
        <ele>1284.4</ele>
        <time>2021-09-28T08:54:09.000Z</time>
      </trkpt>
      <trkpt lat="47.89785" lon="7.10368">
        <ele>1284.5</ele>
        <time>2021-09-28T08:54:15.000Z</time>
      </trkpt>
      <trkpt lat="47.89791" lon="7.10378">
        <ele>1284.4</ele>
        <time>2021-09-28T08:54:21.000Z</time>
      </trkpt>
      <trkpt lat="47.89798" lon="7.10388">
        <ele>1284.4</ele>
        <time>2021-09-28T08:54:27.000Z</time>
      </trkpt>
      <trkpt lat="47.89806" lon="7.10397">
        <ele>1284.3</ele>
        <time>2021-09-28T08:54:34.000Z</time>
      </trkpt>
      <trkpt lat="47.89819" lon="7.10409">
        <ele>1284</ele>
        <time>2021-09-28T08:54:39.000Z</time>
      </trkpt>
      <trkpt lat="47.89824" lon="7.10421">
        <ele>1282.8</ele>
        <time>2021-09-28T08:54:49.000Z</time>
      </trkpt>
      <trkpt lat="47.89833" lon="7.10426">
        <ele>1282.8</ele>
        <time>2021-09-28T08:54:58.000Z</time>
      </trkpt>
      <trkpt lat="47.89841" lon="7.10434">
        <ele>1281.8</ele>
        <time>2021-09-28T08:55:07.000Z</time>
      </trkpt>
      <trkpt lat="47.89844" lon="7.10448">
        <ele>1280</ele>
        <time>2021-09-28T08:55:13.000Z</time>
      </trkpt>
      <trkpt lat="47.8985" lon="7.10458">
        <ele>1278.6</ele>
        <time>2021-09-28T08:55:19.000Z</time>
      </trkpt>
      <trkpt lat="47.89858" lon="7.10468">
        <ele>1277.3</ele>
        <time>2021-09-28T08:55:27.000Z</time>
      </trkpt>
      <trkpt lat="47.89864" lon="7.10477">
        <ele>1276.1</ele>
        <time>2021-09-28T08:55:35.000Z</time>
      </trkpt>
      <trkpt lat="47.89872" lon="7.10486">
        <ele>1275</ele>
        <time>2021-09-28T08:55:43.000Z</time>
      </trkpt>
      <trkpt lat="47.89876" lon="7.10498">
        <ele>1273.2</ele>
        <time>2021-09-28T08:55:51.000Z</time>
      </trkpt>
      <trkpt lat="47.89875" lon="7.10512">
        <ele>1271</ele>
        <time>2021-09-28T08:56:01.000Z</time>
      </trkpt>
      <trkpt lat="47.89868" lon="7.10524">
        <ele>1269.3</ele>
        <time>2021-09-28T08:56:08.000Z</time>
      </trkpt>
      <trkpt lat="47.89862" lon="7.10537">
        <ele>1267.4</ele>
        <time>2021-09-28T08:56:16.000Z</time>
      </trkpt>
      <trkpt lat="47.89858" lon="7.10549">
        <ele>1265.6</ele>
        <time>2021-09-28T08:56:25.000Z</time>
      </trkpt>
      <trkpt lat="47.89858" lon="7.10564">
        <ele>1263.5</ele>
        <time>2021-09-28T08:56:32.000Z</time>
      </trkpt>
      <trkpt lat="47.89862" lon="7.10578">
        <ele>1261.2</ele>
        <time>2021-09-28T08:56:38.000Z</time>
      </trkpt>
      <trkpt lat="47.89863" lon="7.10591">
        <ele>1258.7</ele>
        <time>2021-09-28T08:56:52.000Z</time>
      </trkpt>
      <trkpt lat="47.8986" lon="7.10605">
        <ele>1256.4</ele>
        <time>2021-09-28T08:57:01.000Z</time>
      </trkpt>
      <trkpt lat="47.89857" lon="7.10621">
        <ele>1253.4</ele>
        <time>2021-09-28T08:57:09.000Z</time>
      </trkpt>
      <trkpt lat="47.89853" lon="7.10633">
        <ele>1251.1</ele>
        <time>2021-09-28T08:57:16.000Z</time>
      </trkpt>
      <trkpt lat="47.89847" lon="7.10643">
        <ele>1249</ele>
        <time>2021-09-28T08:57:25.000Z</time>
      </trkpt>
      <trkpt lat="47.89839" lon="7.10652">
        <ele>1247.2</ele>
        <time>2021-09-28T08:57:34.000Z</time>
      </trkpt>
      <trkpt lat="47.8983" lon="7.10659">
        <ele>1245.9</ele>
        <time>2021-09-28T08:57:40.000Z</time>
      </trkpt>
      <trkpt lat="47.89827" lon="7.10672">
        <ele>1243.5</ele>
        <time>2021-09-28T08:57:49.000Z</time>
      </trkpt>
      <trkpt lat="47.89819" lon="7.1068">
        <ele>1242.7</ele>
        <time>2021-09-28T08:57:56.000Z</time>
      </trkpt>
      <trkpt lat="47.89812" lon="7.10687">
        <ele>1241.9</ele>
        <time>2021-09-28T08:58:02.000Z</time>
      </trkpt>
      <trkpt lat="47.89807" lon="7.107">
        <ele>1240</ele>
        <time>2021-09-28T08:58:09.000Z</time>
      </trkpt>
      <trkpt lat="47.89801" lon="7.10711">
        <ele>1238.3</ele>
        <time>2021-09-28T08:58:17.000Z</time>
      </trkpt>
      <trkpt lat="47.89795" lon="7.10723">
        <ele>1236.5</ele>
        <time>2021-09-28T08:58:25.000Z</time>
      </trkpt>
      <trkpt lat="47.89787" lon="7.10731">
        <ele>1235.2</ele>
        <time>2021-09-28T08:58:33.000Z</time>
      </trkpt>
      <trkpt lat="47.8978" lon="7.1074">
        <ele>1233.8</ele>
        <time>2021-09-28T08:58:40.000Z</time>
      </trkpt>
      <trkpt lat="47.89771" lon="7.10746">
        <ele>1232.7</ele>
        <time>2021-09-28T08:58:48.000Z</time>
      </trkpt>
      <trkpt lat="47.89764" lon="7.10755">
        <ele>1231.1</ele>
        <time>2021-09-28T08:58:56.000Z</time>
      </trkpt>
      <trkpt lat="47.89757" lon="7.10765">
        <ele>1229.2</ele>
        <time>2021-09-28T08:59:04.000Z</time>
      </trkpt>
      <trkpt lat="47.89749" lon="7.10772">
        <ele>1227.9</ele>
        <time>2021-09-28T08:59:13.000Z</time>
      </trkpt>
      <trkpt lat="47.89741" lon="7.1078">
        <ele>1226.5</ele>
        <time>2021-09-28T08:59:22.000Z</time>
      </trkpt>
      <trkpt lat="47.89731" lon="7.10786">
        <ele>1225.8</ele>
        <time>2021-09-28T08:59:31.000Z</time>
      </trkpt>
      <trkpt lat="47.89723" lon="7.10792">
        <ele>1224.7</ele>
        <time>2021-09-28T08:59:38.000Z</time>
      </trkpt>
      <trkpt lat="47.89718" lon="7.10803">
        <ele>1222.7</ele>
        <time>2021-09-28T08:59:44.000Z</time>
      </trkpt>
      <trkpt lat="47.89712" lon="7.10816">
        <ele>1220.3</ele>
        <time>2021-09-28T08:59:50.000Z</time>
      </trkpt>
      <trkpt lat="47.89709" lon="7.10829">
        <ele>1217.8</ele>
        <time>2021-09-28T09:00:00.000Z</time>
      </trkpt>
      <trkpt lat="47.89701" lon="7.10838">
        <ele>1216.2</ele>
        <time>2021-09-28T09:00:08.000Z</time>
      </trkpt>
      <trkpt lat="47.89694" lon="7.10847">
        <ele>1214.6</ele>
        <time>2021-09-28T09:00:16.000Z</time>
      </trkpt>
      <trkpt lat="47.89685" lon="7.10854">
        <ele>1213</ele>
        <time>2021-09-28T09:00:24.000Z</time>
      </trkpt>
      <trkpt lat="47.89677" lon="7.10863">
        <ele>1211.2</ele>
        <time>2021-09-28T09:00:31.000Z</time>
      </trkpt>
      <trkpt lat="47.89669" lon="7.1087">
        <ele>1209.6</ele>
        <time>2021-09-28T09:00:40.000Z</time>
      </trkpt>
      <trkpt lat="47.89662" lon="7.10879">
        <ele>1207.9</ele>
        <time>2021-09-28T09:00:49.000Z</time>
      </trkpt>
      <trkpt lat="47.89655" lon="7.10889">
        <ele>1206.1</ele>
        <time>2021-09-28T09:00:57.000Z</time>
      </trkpt>
      <trkpt lat="47.89649" lon="7.109">
        <ele>1204.2</ele>
        <time>2021-09-28T09:01:04.000Z</time>
      </trkpt>
      <trkpt lat="47.89647" lon="7.10914">
        <ele>1201.3</ele>
        <time>2021-09-28T09:01:11.000Z</time>
      </trkpt>
      <trkpt lat="47.89642" lon="7.10926">
        <ele>1199.4</ele>
        <time>2021-09-28T09:01:21.000Z</time>
      </trkpt>
      <trkpt lat="47.89635" lon="7.10934">
        <ele>1198.6</ele>
        <time>2021-09-28T09:01:28.000Z</time>
      </trkpt>
      <trkpt lat="47.89628" lon="7.10944">
        <ele>1197.7</ele>
        <time>2021-09-28T09:01:35.000Z</time>
      </trkpt>
      <trkpt lat="47.89621" lon="7.10955">
        <ele>1196.5</ele>
        <time>2021-09-28T09:01:43.000Z</time>
      </trkpt>
      <trkpt lat="47.89613" lon="7.10964">
        <ele>1196.1</ele>
        <time>2021-09-28T09:01:50.000Z</time>
      </trkpt>
      <trkpt lat="47.89606" lon="7.10974">
        <ele>1195.4</ele>
        <time>2021-09-28T09:01:58.000Z</time>
      </trkpt>
      <trkpt lat="47.896" lon="7.10985">
        <ele>1194.5</ele>
        <time>2021-09-28T09:02:06.000Z</time>
      </trkpt>
      <trkpt lat="47.89594" lon="7.10995">
        <ele>1194.1</ele>
        <time>2021-09-28T09:02:12.000Z</time>
      </trkpt>
      <trkpt lat="47.89587" lon="7.11006">
        <ele>1193.2</ele>
        <time>2021-09-28T09:02:20.000Z</time>
      </trkpt>
      <trkpt lat="47.89582" lon="7.11017">
        <ele>1192</ele>
        <time>2021-09-28T09:02:27.000Z</time>
      </trkpt>
      <trkpt lat="47.89575" lon="7.11027">
        <ele>1191.3</ele>
        <time>2021-09-28T09:02:34.000Z</time>
      </trkpt>
      <trkpt lat="47.8957" lon="7.1104">
        <ele>1189.8</ele>
        <time>2021-09-28T09:02:40.000Z</time>
      </trkpt>
      <trkpt lat="47.89566" lon="7.11054">
        <ele>1187.9</ele>
        <time>2021-09-28T09:02:48.000Z</time>
      </trkpt>
      <trkpt lat="47.89561" lon="7.11067">
        <ele>1186.4</ele>
        <time>2021-09-28T09:02:56.000Z</time>
      </trkpt>
      <trkpt lat="47.89555" lon="7.11078">
        <ele>1185.5</ele>
        <time>2021-09-28T09:03:05.000Z</time>
      </trkpt>
      <trkpt lat="47.8955" lon="7.11091">
        <ele>1183.4</ele>
        <time>2021-09-28T09:03:12.000Z</time>
      </trkpt>
      <trkpt lat="47.89543" lon="7.111">
        <ele>1182.5</ele>
        <time>2021-09-28T09:03:20.000Z</time>
      </trkpt>
      <trkpt lat="47.89536" lon="7.1111">
        <ele>1181.4</ele>
        <time>2021-09-28T09:03:26.000Z</time>
      </trkpt>
      <trkpt lat="47.89528" lon="7.1112">
        <ele>1180.3</ele>
        <time>2021-09-28T09:03:33.000Z</time>
      </trkpt>
      <trkpt lat="47.89522" lon="7.11131">
        <ele>1179</ele>
        <time>2021-09-28T09:03:41.000Z</time>
      </trkpt>
      <trkpt lat="47.89516" lon="7.11142">
        <ele>1177.5</ele>
        <time>2021-09-28T09:03:49.000Z</time>
      </trkpt>
      <trkpt lat="47.89509" lon="7.11152">
        <ele>1176.6</ele>
        <time>2021-09-28T09:03:56.000Z</time>
      </trkpt>
      <trkpt lat="47.89502" lon="7.11164">
        <ele>1175.2</ele>
        <time>2021-09-28T09:04:04.000Z</time>
      </trkpt>
      <trkpt lat="47.895" lon="7.11178">
        <ele>1173.2</ele>
        <time>2021-09-28T09:04:10.000Z</time>
      </trkpt>
      <trkpt lat="47.89494" lon="7.11189">
        <ele>1172.5</ele>
        <time>2021-09-28T09:04:16.000Z</time>
      </trkpt>
      <trkpt lat="47.89489" lon="7.11201">
        <ele>1171.8</ele>
        <time>2021-09-28T09:04:23.000Z</time>
      </trkpt>
      <trkpt lat="47.89484" lon="7.11212">
        <ele>1171.3</ele>
        <time>2021-09-28T09:04:31.000Z</time>
      </trkpt>
      <trkpt lat="47.89478" lon="7.11223">
        <ele>1170.5</ele>
        <time>2021-09-28T09:04:36.000Z</time>
      </trkpt>
      <trkpt lat="47.89478" lon="7.11237">
        <ele>1168.2</ele>
        <time>2021-09-28T09:04:42.000Z</time>
      </trkpt>
      <trkpt lat="47.89474" lon="7.11249">
        <ele>1167.1</ele>
        <time>2021-09-28T09:04:50.000Z</time>
      </trkpt>
      <trkpt lat="47.89471" lon="7.11262">
        <ele>1165.6</ele>
        <time>2021-09-28T09:04:57.000Z</time>
      </trkpt>
      <trkpt lat="47.89466" lon="7.11275">
        <ele>1164.4</ele>
        <time>2021-09-28T09:05:05.000Z</time>
      </trkpt>
      <trkpt lat="47.89463" lon="7.11289">
        <ele>1162.7</ele>
        <time>2021-09-28T09:05:11.000Z</time>
      </trkpt>
      <trkpt lat="47.89458" lon="7.11311">
        <ele>1159.7</ele>
        <time>2021-09-28T09:05:16.000Z</time>
      </trkpt>
      <trkpt lat="47.89451" lon="7.11333">
        <ele>1156.7</ele>
        <time>2021-09-28T09:05:21.000Z</time>
      </trkpt>
      <trkpt lat="47.89442" lon="7.11335">
        <ele>1157.7</ele>
        <time>2021-09-28T09:05:38.000Z</time>
      </trkpt>
      <trkpt lat="47.89435" lon="7.11345">
        <ele>1157.2</ele>
        <time>2021-09-28T09:05:47.000Z</time>
      </trkpt>
      <trkpt lat="47.89428" lon="7.11356">
        <ele>1156.2</ele>
        <time>2021-09-28T09:05:55.000Z</time>
      </trkpt>
      <trkpt lat="47.8942" lon="7.11365">
        <ele>1155.6</ele>
        <time>2021-09-28T09:06:04.000Z</time>
      </trkpt>
      <trkpt lat="47.89412" lon="7.11374">
        <ele>1154.5</ele>
        <time>2021-09-28T09:06:11.000Z</time>
      </trkpt>
      <trkpt lat="47.89403" lon="7.11379">
        <ele>1154</ele>
        <time>2021-09-28T09:06:19.000Z</time>
      </trkpt>
      <trkpt lat="47.89393" lon="7.11385">
        <ele>1153.1</ele>
        <time>2021-09-28T09:06:28.000Z</time>
      </trkpt>
      <trkpt lat="47.89385" lon="7.11394">
        <ele>1151.8</ele>
        <time>2021-09-28T09:06:35.000Z</time>
      </trkpt>
      <trkpt lat="47.8938" lon="7.11405">
        <ele>1149.8</ele>
        <time>2021-09-28T09:06:41.000Z</time>
      </trkpt>
      <trkpt lat="47.89372" lon="7.11414">
        <ele>1148.2</ele>
        <time>2021-09-28T09:06:50.000Z</time>
      </trkpt>
      <trkpt lat="47.89365" lon="7.11424">
        <ele>1146.9</ele>
        <time>2021-09-28T09:06:58.000Z</time>
      </trkpt>
      <trkpt lat="47.89357" lon="7.11433">
        <ele>1145.8</ele>
        <time>2021-09-28T09:07:07.000Z</time>
      </trkpt>
      <trkpt lat="47.89349" lon="7.11441">
        <ele>1144.7</ele>
        <time>2021-09-28T09:07:16.000Z</time>
      </trkpt>
      <trkpt lat="47.89344" lon="7.11453">
        <ele>1143.1</ele>
        <time>2021-09-28T09:07:24.000Z</time>
      </trkpt>
      <trkpt lat="47.89337" lon="7.11464">
        <ele>1141.6</ele>
        <time>2021-09-28T09:07:32.000Z</time>
      </trkpt>
      <trkpt lat="47.89332" lon="7.11475">
        <ele>1139.8</ele>
        <time>2021-09-28T09:07:42.000Z</time>
      </trkpt>
      <trkpt lat="47.89328" lon="7.11487">
        <ele>1137.7</ele>
        <time>2021-09-28T09:07:50.000Z</time>
      </trkpt>
      <trkpt lat="47.89323" lon="7.115">
        <ele>1135.2</ele>
        <time>2021-09-28T09:07:59.000Z</time>
      </trkpt>
      <trkpt lat="47.89318" lon="7.11511">
        <ele>1132.5</ele>
        <time>2021-09-28T09:08:08.000Z</time>
      </trkpt>
      <trkpt lat="47.8931" lon="7.1152">
        <ele>1130.1</ele>
        <time>2021-09-28T09:08:18.000Z</time>
      </trkpt>
      <trkpt lat="47.89304" lon="7.11531">
        <ele>1127.3</ele>
        <time>2021-09-28T09:08:26.000Z</time>
      </trkpt>
      <trkpt lat="47.89297" lon="7.1154">
        <ele>1125</ele>
        <time>2021-09-28T09:08:34.000Z</time>
      </trkpt>
      <trkpt lat="47.89291" lon="7.11551">
        <ele>1122.1</ele>
        <time>2021-09-28T09:08:42.000Z</time>
      </trkpt>
      <trkpt lat="47.89284" lon="7.11561">
        <ele>1119.7</ele>
        <time>2021-09-28T09:08:51.000Z</time>
      </trkpt>
      <trkpt lat="47.89275" lon="7.11566">
        <ele>1118.1</ele>
        <time>2021-09-28T09:09:07.000Z</time>
      </trkpt>
      <trkpt lat="47.89265" lon="7.11572">
        <ele>1116.3</ele>
        <time>2021-09-28T09:09:16.000Z</time>
      </trkpt>
      <trkpt lat="47.89256" lon="7.11579">
        <ele>1114.3</ele>
        <time>2021-09-28T09:09:24.000Z</time>
      </trkpt>
      <trkpt lat="47.89249" lon="7.11588">
        <ele>1112.5</ele>
        <time>2021-09-28T09:09:32.000Z</time>
      </trkpt>
      <trkpt lat="47.89242" lon="7.11597">
        <ele>1111.3</ele>
        <time>2021-09-28T09:09:39.000Z</time>
      </trkpt>
      <trkpt lat="47.89237" lon="7.1161">
        <ele>1109.9</ele>
        <time>2021-09-28T09:09:46.000Z</time>
      </trkpt>
      <trkpt lat="47.89227" lon="7.11614">
        <ele>1109.2</ele>
        <time>2021-09-28T09:09:53.000Z</time>
      </trkpt>
      <trkpt lat="47.89219" lon="7.11621">
        <ele>1108.4</ele>
        <time>2021-09-28T09:10:01.000Z</time>
      </trkpt>
      <trkpt lat="47.89211" lon="7.11629">
        <ele>1107.4</ele>
        <time>2021-09-28T09:10:09.000Z</time>
      </trkpt>
      <trkpt lat="47.89207" lon="7.11642">
        <ele>1106</ele>
        <time>2021-09-28T09:10:21.000Z</time>
      </trkpt>
      <trkpt lat="47.89199" lon="7.1165">
        <ele>1105.1</ele>
        <time>2021-09-28T09:10:34.000Z</time>
      </trkpt>
      <trkpt lat="47.89192" lon="7.1166">
        <ele>1104</ele>
        <time>2021-09-28T09:10:42.000Z</time>
      </trkpt>
      <trkpt lat="47.89191" lon="7.11674">
        <ele>1102.1</ele>
        <time>2021-09-28T09:10:50.000Z</time>
      </trkpt>
      <trkpt lat="47.89187" lon="7.11689">
        <ele>1099.7</ele>
        <time>2021-09-28T09:10:59.000Z</time>
      </trkpt>
      <trkpt lat="47.8918" lon="7.11699">
        <ele>1098</ele>
        <time>2021-09-28T09:11:08.000Z</time>
      </trkpt>
      <trkpt lat="47.89173" lon="7.11709">
        <ele>1096.5</ele>
        <time>2021-09-28T09:11:16.000Z</time>
      </trkpt>
      <trkpt lat="47.89168" lon="7.11721">
        <ele>1094.5</ele>
        <time>2021-09-28T09:11:26.000Z</time>
      </trkpt>
      <trkpt lat="47.89164" lon="7.11735">
        <ele>1092.4</ele>
        <time>2021-09-28T09:11:34.000Z</time>
      </trkpt>
      <trkpt lat="47.89159" lon="7.11748">
        <ele>1090.5</ele>
        <time>2021-09-28T09:11:41.000Z</time>
      </trkpt>
      <trkpt lat="47.89155" lon="7.11761">
        <ele>1088.9</ele>
        <time>2021-09-28T09:11:48.000Z</time>
      </trkpt>
      <trkpt lat="47.8915" lon="7.11774">
        <ele>1087.4</ele>
        <time>2021-09-28T09:11:56.000Z</time>
      </trkpt>
      <trkpt lat="47.89146" lon="7.11789">
        <ele>1085.6</ele>
        <time>2021-09-28T09:12:05.000Z</time>
      </trkpt>
      <trkpt lat="47.89145" lon="7.11804">
        <ele>1083.6</ele>
        <time>2021-09-28T09:12:13.000Z</time>
      </trkpt>
      <trkpt lat="47.89143" lon="7.11818">
        <ele>1082</ele>
        <time>2021-09-28T09:12:21.000Z</time>
      </trkpt>
      <trkpt lat="47.89138" lon="7.1183">
        <ele>1080.5</ele>
        <time>2021-09-28T09:12:28.000Z</time>
      </trkpt>
      <trkpt lat="47.8913" lon="7.11838">
        <ele>1079.8</ele>
        <time>2021-09-28T09:12:35.000Z</time>
      </trkpt>
      <trkpt lat="47.89123" lon="7.11849">
        <ele>1078.7</ele>
        <time>2021-09-28T09:12:43.000Z</time>
      </trkpt>
      <trkpt lat="47.89116" lon="7.11858">
        <ele>1077.7</ele>
        <time>2021-09-28T09:12:49.000Z</time>
      </trkpt>
      <trkpt lat="47.89109" lon="7.11867">
        <ele>1076.7</ele>
        <time>2021-09-28T09:12:56.000Z</time>
      </trkpt>
      <trkpt lat="47.89102" lon="7.11878">
        <ele>1075.3</ele>
        <time>2021-09-28T09:13:04.000Z</time>
      </trkpt>
      <trkpt lat="47.89094" lon="7.11887">
        <ele>1074.2</ele>
        <time>2021-09-28T09:13:12.000Z</time>
      </trkpt>
      <trkpt lat="47.89087" lon="7.11899">
        <ele>1072.6</ele>
        <time>2021-09-28T09:13:20.000Z</time>
      </trkpt>
      <trkpt lat="47.89081" lon="7.11909">
        <ele>1071.3</ele>
        <time>2021-09-28T09:13:29.000Z</time>
      </trkpt>
      <trkpt lat="47.89077" lon="7.11922">
        <ele>1069.9</ele>
        <time>2021-09-28T09:13:37.000Z</time>
      </trkpt>
      <trkpt lat="47.89071" lon="7.11932">
        <ele>1068.9</ele>
        <time>2021-09-28T09:13:48.000Z</time>
      </trkpt>
      <trkpt lat="47.89064" lon="7.11942">
        <ele>1068</ele>
        <time>2021-09-28T09:13:56.000Z</time>
      </trkpt>
      <trkpt lat="47.89055" lon="7.11948">
        <ele>1067.7</ele>
        <time>2021-09-28T09:14:04.000Z</time>
      </trkpt>
      <trkpt lat="47.89047" lon="7.11955">
        <ele>1067.2</ele>
        <time>2021-09-28T09:14:12.000Z</time>
      </trkpt>
      <trkpt lat="47.89039" lon="7.11962">
        <ele>1066.6</ele>
        <time>2021-09-28T09:14:20.000Z</time>
      </trkpt>
      <trkpt lat="47.89031" lon="7.11969">
        <ele>1065.9</ele>
        <time>2021-09-28T09:14:27.000Z</time>
      </trkpt>
      <trkpt lat="47.89022" lon="7.11975">
        <ele>1065.4</ele>
        <time>2021-09-28T09:14:34.000Z</time>
      </trkpt>
      <trkpt lat="47.89013" lon="7.11981">
        <ele>1064.8</ele>
        <time>2021-09-28T09:14:44.000Z</time>
      </trkpt>
      <trkpt lat="47.89006" lon="7.11991">
        <ele>1063.4</ele>
        <time>2021-09-28T09:14:53.000Z</time>
      </trkpt>
      <trkpt lat="47.89" lon="7.12002">
        <ele>1061.7</ele>
        <time>2021-09-28T09:15:07.000Z</time>
      </trkpt>
      <trkpt lat="47.88997" lon="7.12015">
        <ele>1059.2</ele>
        <time>2021-09-28T09:15:16.000Z</time>
      </trkpt>
      <trkpt lat="47.88992" lon="7.12026">
        <ele>1057.2</ele>
        <time>2021-09-28T09:15:23.000Z</time>
      </trkpt>
      <trkpt lat="47.88983" lon="7.12032">
        <ele>1057.1</ele>
        <time>2021-09-28T09:15:31.000Z</time>
      </trkpt>
      <trkpt lat="47.88974" lon="7.12037">
        <ele>1057</ele>
        <time>2021-09-28T09:15:40.000Z</time>
      </trkpt>
      <trkpt lat="47.88966" lon="7.12044">
        <ele>1056.5</ele>
        <time>2021-09-28T09:15:51.000Z</time>
      </trkpt>
      <trkpt lat="47.8896" lon="7.12055">
        <ele>1054.9</ele>
        <time>2021-09-28T09:16:01.000Z</time>
      </trkpt>
      <trkpt lat="47.88954" lon="7.12065">
        <ele>1053.7</ele>
        <time>2021-09-28T09:16:10.000Z</time>
      </trkpt>
      <trkpt lat="47.88946" lon="7.12073">
        <ele>1053.2</ele>
        <time>2021-09-28T09:16:19.000Z</time>
      </trkpt>
      <trkpt lat="47.88937" lon="7.12078">
        <ele>1053.5</ele>
        <time>2021-09-28T09:16:27.000Z</time>
      </trkpt>
      <trkpt lat="47.88931" lon="7.12089">
        <ele>1051.6</ele>
        <time>2021-09-28T09:16:34.000Z</time>
      </trkpt>
      <trkpt lat="47.88924" lon="7.12098">
        <ele>1049.8</ele>
        <time>2021-09-28T09:16:44.000Z</time>
      </trkpt>
      <trkpt lat="47.88917" lon="7.12107">
        <ele>1048.3</ele>
        <time>2021-09-28T09:16:52.000Z</time>
      </trkpt>
      <trkpt lat="47.88909" lon="7.12115">
        <ele>1047</ele>
        <time>2021-09-28T09:16:59.000Z</time>
      </trkpt>
      <trkpt lat="47.88901" lon="7.1212">
        <ele>1047</ele>
        <time>2021-09-28T09:17:05.000Z</time>
      </trkpt>
      <trkpt lat="47.88893" lon="7.12129">
        <ele>1045.8</ele>
        <time>2021-09-28T09:17:11.000Z</time>
      </trkpt>
      <trkpt lat="47.88885" lon="7.12137">
        <ele>1045.3</ele>
        <time>2021-09-28T09:17:18.000Z</time>
      </trkpt>
      <trkpt lat="47.88878" lon="7.12146">
        <ele>1044.6</ele>
        <time>2021-09-28T09:17:26.000Z</time>
      </trkpt>
      <trkpt lat="47.88871" lon="7.12157">
        <ele>1043.5</ele>
        <time>2021-09-28T09:17:34.000Z</time>
      </trkpt>
      <trkpt lat="47.88864" lon="7.12166">
        <ele>1043.1</ele>
        <time>2021-09-28T09:17:46.000Z</time>
      </trkpt>
      <trkpt lat="47.88857" lon="7.12177">
        <ele>1042.4</ele>
        <time>2021-09-28T09:17:54.000Z</time>
      </trkpt>
      <trkpt lat="47.88851" lon="7.12187">
        <ele>1041.5</ele>
        <time>2021-09-28T09:18:01.000Z</time>
      </trkpt>
      <trkpt lat="47.88845" lon="7.12199">
        <ele>1040.4</ele>
        <time>2021-09-28T09:18:09.000Z</time>
      </trkpt>
      <trkpt lat="47.88839" lon="7.12211">
        <ele>1039.4</ele>
        <time>2021-09-28T09:18:18.000Z</time>
      </trkpt>
      <trkpt lat="47.88836" lon="7.12225">
        <ele>1037.4</ele>
        <time>2021-09-28T09:18:27.000Z</time>
      </trkpt>
      <trkpt lat="47.88831" lon="7.12237">
        <ele>1036</ele>
        <time>2021-09-28T09:18:36.000Z</time>
      </trkpt>
      <trkpt lat="47.88827" lon="7.12251">
        <ele>1034</ele>
        <time>2021-09-28T09:18:46.000Z</time>
      </trkpt>
      <trkpt lat="47.88822" lon="7.12263">
        <ele>1033.2</ele>
        <time>2021-09-28T09:18:54.000Z</time>
      </trkpt>
      <trkpt lat="47.88817" lon="7.12275">
        <ele>1032.4</ele>
        <time>2021-09-28T09:19:02.000Z</time>
      </trkpt>
      <trkpt lat="47.88814" lon="7.12288">
        <ele>1031.1</ele>
        <time>2021-09-28T09:19:10.000Z</time>
      </trkpt>
      <trkpt lat="47.88813" lon="7.12302">
        <ele>1029.3</ele>
        <time>2021-09-28T09:19:17.000Z</time>
      </trkpt>
      <trkpt lat="47.88812" lon="7.12317">
        <ele>1027.3</ele>
        <time>2021-09-28T09:19:25.000Z</time>
      </trkpt>
      <trkpt lat="47.88808" lon="7.12331">
        <ele>1025.7</ele>
        <time>2021-09-28T09:19:33.000Z</time>
      </trkpt>
      <trkpt lat="47.88805" lon="7.12344">
        <ele>1024.2</ele>
        <time>2021-09-28T09:19:41.000Z</time>
      </trkpt>
      <trkpt lat="47.88801" lon="7.12356">
        <ele>1022.9</ele>
        <time>2021-09-28T09:19:49.000Z</time>
      </trkpt>
      <trkpt lat="47.888" lon="7.12369">
        <ele>1020.9</ele>
        <time>2021-09-28T09:19:56.000Z</time>
      </trkpt>
      <trkpt lat="47.88796" lon="7.12383">
        <ele>1019.4</ele>
        <time>2021-09-28T09:20:03.000Z</time>
      </trkpt>
      <trkpt lat="47.88791" lon="7.12394">
        <ele>1018.2</ele>
        <time>2021-09-28T09:20:10.000Z</time>
      </trkpt>
      <trkpt lat="47.88788" lon="7.12408">
        <ele>1016.2</ele>
        <time>2021-09-28T09:20:19.000Z</time>
      </trkpt>
      <trkpt lat="47.88786" lon="7.12423">
        <ele>1014.1</ele>
        <time>2021-09-28T09:20:27.000Z</time>
      </trkpt>
      <trkpt lat="47.88782" lon="7.12435">
        <ele>1012.1</ele>
        <time>2021-09-28T09:20:35.000Z</time>
      </trkpt>
      <trkpt lat="47.88777" lon="7.12447">
        <ele>1010.4</ele>
        <time>2021-09-28T09:20:42.000Z</time>
      </trkpt>
      <trkpt lat="47.88769" lon="7.12457">
        <ele>1009.2</ele>
        <time>2021-09-28T09:20:51.000Z</time>
      </trkpt>
      <trkpt lat="47.88761" lon="7.12464">
        <ele>1008.5</ele>
        <time>2021-09-28T09:20:58.000Z</time>
      </trkpt>
      <trkpt lat="47.88753" lon="7.1247">
        <ele>1007.9</ele>
        <time>2021-09-28T09:21:06.000Z</time>
      </trkpt>
      <trkpt lat="47.88745" lon="7.12478">
        <ele>1005.3</ele>
        <time>2021-09-28T09:21:16.000Z</time>
      </trkpt>
      <trkpt lat="47.8875" lon="7.12491">
        <ele>1003.7</ele>
        <time>2021-09-28T09:21:22.000Z</time>
      </trkpt>
      <trkpt lat="47.88753" lon="7.12504">
        <ele>1001.1</ele>
        <time>2021-09-28T09:21:29.000Z</time>
      </trkpt>
      <trkpt lat="47.88758" lon="7.12517">
        <ele>998.7</ele>
        <time>2021-09-28T09:21:36.000Z</time>
      </trkpt>
      <trkpt lat="47.88761" lon="7.12529">
        <ele>996.4</ele>
        <time>2021-09-28T09:21:45.000Z</time>
      </trkpt>
      <trkpt lat="47.88763" lon="7.12542">
        <ele>994</ele>
        <time>2021-09-28T09:21:54.000Z</time>
      </trkpt>
      <trkpt lat="47.88771" lon="7.1255">
        <ele>992</ele>
        <time>2021-09-28T09:22:03.000Z</time>
      </trkpt>
      <trkpt lat="47.8878" lon="7.12558">
        <ele>989.9</ele>
        <time>2021-09-28T09:22:11.000Z</time>
      </trkpt>
      <trkpt lat="47.88788" lon="7.12565">
        <ele>988</ele>
        <time>2021-09-28T09:22:18.000Z</time>
      </trkpt>
      <trkpt lat="47.88797" lon="7.12574">
        <ele>985.8</ele>
        <time>2021-09-28T09:22:25.000Z</time>
      </trkpt>
      <trkpt lat="47.88806" lon="7.12579">
        <ele>984</ele>
        <time>2021-09-28T09:22:34.000Z</time>
      </trkpt>
      <trkpt lat="47.88816" lon="7.12581">
        <ele>982.9</ele>
        <time>2021-09-28T09:22:41.000Z</time>
      </trkpt>
      <trkpt lat="47.88825" lon="7.12575">
        <ele>983.3</ele>
        <time>2021-09-28T09:22:50.000Z</time>
      </trkpt>
      <trkpt lat="47.88832" lon="7.12568">
        <ele>984.1</ele>
        <time>2021-09-28T09:22:57.000Z</time>
      </trkpt>
      <trkpt lat="47.88828" lon="7.1258">
        <ele>982.2</ele>
        <time>2021-09-28T09:23:12.000Z</time>
      </trkpt>
      <trkpt lat="47.88821" lon="7.12591">
        <ele>980</ele>
        <time>2021-09-28T09:23:22.000Z</time>
      </trkpt>
      <trkpt lat="47.88814" lon="7.12601">
        <ele>977.8</ele>
        <time>2021-09-28T09:23:30.000Z</time>
      </trkpt>
      <trkpt lat="47.88804" lon="7.12604">
        <ele>978.1</ele>
        <time>2021-09-28T09:23:39.000Z</time>
      </trkpt>
      <trkpt lat="47.88795" lon="7.12608">
        <ele>978.1</ele>
        <time>2021-09-28T09:23:49.000Z</time>
      </trkpt>
      <trkpt lat="47.88787" lon="7.12614">
        <ele>977.6</ele>
        <time>2021-09-28T09:23:58.000Z</time>
      </trkpt>
      <trkpt lat="47.88778" lon="7.12617">
        <ele>977.8</ele>
        <time>2021-09-28T09:24:06.000Z</time>
      </trkpt>
      <trkpt lat="47.88768" lon="7.12623">
        <ele>977.8</ele>
        <time>2021-09-28T09:24:15.000Z</time>
      </trkpt>
      <trkpt lat="47.8876" lon="7.12629">
        <ele>977.4</ele>
        <time>2021-09-28T09:24:22.000Z</time>
      </trkpt>
      <trkpt lat="47.88752" lon="7.12637">
        <ele>976.8</ele>
        <time>2021-09-28T09:24:29.000Z</time>
      </trkpt>
      <trkpt lat="47.88744" lon="7.12645">
        <ele>974.5</ele>
        <time>2021-09-28T09:24:36.000Z</time>
      </trkpt>
      <trkpt lat="47.88736" lon="7.12653">
        <ele>971.6</ele>
        <time>2021-09-28T09:24:43.000Z</time>
      </trkpt>
      <trkpt lat="47.8873" lon="7.12666">
        <ele>968.5</ele>
        <time>2021-09-28T09:24:51.000Z</time>
      </trkpt>
      <trkpt lat="47.88724" lon="7.12678">
        <ele>965.5</ele>
        <time>2021-09-28T09:24:57.000Z</time>
      </trkpt>
      <trkpt lat="47.88718" lon="7.12689">
        <ele>962.9</ele>
        <time>2021-09-28T09:25:03.000Z</time>
      </trkpt>
      <trkpt lat="47.88713" lon="7.127">
        <ele>960.4</ele>
        <time>2021-09-28T09:25:09.000Z</time>
      </trkpt>
      <trkpt lat="47.88709" lon="7.12713">
        <ele>957.7</ele>
        <time>2021-09-28T09:25:16.000Z</time>
      </trkpt>
      <trkpt lat="47.88704" lon="7.12726">
        <ele>955.3</ele>
        <time>2021-09-28T09:25:22.000Z</time>
      </trkpt>
      <trkpt lat="47.887" lon="7.12739">
        <ele>953</ele>
        <time>2021-09-28T09:25:29.000Z</time>
      </trkpt>
      <trkpt lat="47.88697" lon="7.12752">
        <ele>951.2</ele>
        <time>2021-09-28T09:25:37.000Z</time>
      </trkpt>
      <trkpt lat="47.88693" lon="7.12766">
        <ele>951.6</ele>
        <time>2021-09-28T09:25:45.000Z</time>
      </trkpt>
      <trkpt lat="47.8869" lon="7.12781">
        <ele>952.2</ele>
        <time>2021-09-28T09:25:53.000Z</time>
      </trkpt>
      <trkpt lat="47.88686" lon="7.12793">
        <ele>952.8</ele>
        <time>2021-09-28T09:26:00.000Z</time>
      </trkpt>
      <trkpt lat="47.8868" lon="7.12804">
        <ele>953.6</ele>
        <time>2021-09-28T09:26:10.000Z</time>
      </trkpt>
      <trkpt lat="47.88671" lon="7.1281">
        <ele>954.2</ele>
        <time>2021-09-28T09:26:30.000Z</time>
      </trkpt>
      <trkpt lat="47.88662" lon="7.12814">
        <ele>954.3</ele>
        <time>2021-09-28T09:26:38.000Z</time>
      </trkpt>
      <trkpt lat="47.88652" lon="7.12819">
        <ele>954.3</ele>
        <time>2021-09-28T09:26:47.000Z</time>
      </trkpt>
      <trkpt lat="47.88645" lon="7.12828">
        <ele>954.9</ele>
        <time>2021-09-28T09:26:55.000Z</time>
      </trkpt>
      <trkpt lat="47.88635" lon="7.12835">
        <ele>955.5</ele>
        <time>2021-09-28T09:27:03.000Z</time>
      </trkpt>
      <trkpt lat="47.88627" lon="7.12841">
        <ele>956.7</ele>
        <time>2021-09-28T09:27:10.000Z</time>
      </trkpt>
      <trkpt lat="47.88618" lon="7.12844">
        <ele>957.3</ele>
        <time>2021-09-28T09:27:20.000Z</time>
      </trkpt>
      <trkpt lat="47.88609" lon="7.12846">
        <ele>957.7</ele>
        <time>2021-09-28T09:27:26.000Z</time>
      </trkpt>
      <trkpt lat="47.886" lon="7.12851">
        <ele>959.1</ele>
        <time>2021-09-28T09:27:33.000Z</time>
      </trkpt>
      <trkpt lat="47.8859" lon="7.12851">
        <ele>959</ele>
        <time>2021-09-28T09:27:42.000Z</time>
      </trkpt>
      <trkpt lat="47.88581" lon="7.12853">
        <ele>959.3</ele>
        <time>2021-09-28T09:27:48.000Z</time>
      </trkpt>
      <trkpt lat="47.88571" lon="7.12853">
        <ele>958.5</ele>
        <time>2021-09-28T09:27:55.000Z</time>
      </trkpt>
      <trkpt lat="47.88564" lon="7.12861">
        <ele>960.1</ele>
        <time>2021-09-28T09:28:04.000Z</time>
      </trkpt>
      <trkpt lat="47.88555" lon="7.12861">
        <ele>959.1</ele>
        <time>2021-09-28T09:28:12.000Z</time>
      </trkpt>
      <trkpt lat="47.88544" lon="7.12861">
        <ele>958.1</ele>
        <time>2021-09-28T09:28:19.000Z</time>
      </trkpt>
      <trkpt lat="47.88535" lon="7.12866">
        <ele>958.4</ele>
        <time>2021-09-28T09:28:27.000Z</time>
      </trkpt>
      <trkpt lat="47.88525" lon="7.12868">
        <ele>958</ele>
        <time>2021-09-28T09:28:34.000Z</time>
      </trkpt>
      <trkpt lat="47.88515" lon="7.12867">
        <ele>956.9</ele>
        <time>2021-09-28T09:28:42.000Z</time>
      </trkpt>
      <trkpt lat="47.88506" lon="7.12873">
        <ele>957.1</ele>
        <time>2021-09-28T09:28:49.000Z</time>
      </trkpt>
      <trkpt lat="47.88497" lon="7.12879">
        <ele>956.8</ele>
        <time>2021-09-28T09:28:55.000Z</time>
      </trkpt>
      <trkpt lat="47.88488" lon="7.12884">
        <ele>955.2</ele>
        <time>2021-09-28T09:29:03.000Z</time>
      </trkpt>
      <trkpt lat="47.88481" lon="7.12894">
        <ele>955.7</ele>
        <time>2021-09-28T09:29:13.000Z</time>
      </trkpt>
      <trkpt lat="47.88475" lon="7.12906">
        <ele>956.4</ele>
        <time>2021-09-28T09:29:21.000Z</time>
      </trkpt>
      <trkpt lat="47.88467" lon="7.12914">
        <ele>955.9</ele>
        <time>2021-09-28T09:29:28.000Z</time>
      </trkpt>
      <trkpt lat="47.8846" lon="7.12921">
        <ele>955.4</ele>
        <time>2021-09-28T09:29:34.000Z</time>
      </trkpt>
      <trkpt lat="47.88451" lon="7.12927">
        <ele>954.7</ele>
        <time>2021-09-28T09:29:41.000Z</time>
      </trkpt>
      <trkpt lat="47.88445" lon="7.12937">
        <ele>955.7</ele>
        <time>2021-09-28T09:29:49.000Z</time>
      </trkpt>
      <trkpt lat="47.88442" lon="7.12951">
        <ele>958.2</ele>
        <time>2021-09-28T09:29:55.000Z</time>
      </trkpt>
      <trkpt lat="47.88433" lon="7.12955">
        <ele>957.1</ele>
        <time>2021-09-28T09:30:04.000Z</time>
      </trkpt>
      <trkpt lat="47.88423" lon="7.12955">
        <ele>954.2</ele>
        <time>2021-09-28T09:30:12.000Z</time>
      </trkpt>
      <trkpt lat="47.88413" lon="7.12958">
        <ele>953.1</ele>
        <time>2021-09-28T09:30:22.000Z</time>
      </trkpt>
      <trkpt lat="47.88404" lon="7.12957">
        <ele>951.7</ele>
        <time>2021-09-28T09:30:29.000Z</time>
      </trkpt>
      <trkpt lat="47.88394" lon="7.12956">
        <ele>950.4</ele>
        <time>2021-09-28T09:30:36.000Z</time>
      </trkpt>
      <trkpt lat="47.88385" lon="7.12953">
        <ele>948.5</ele>
        <time>2021-09-28T09:30:42.000Z</time>
      </trkpt>
      <trkpt lat="47.88376" lon="7.12947">
        <ele>946.3</ele>
        <time>2021-09-28T09:30:49.000Z</time>
      </trkpt>
      <trkpt lat="47.88367" lon="7.12943">
        <ele>944.5</ele>
        <time>2021-09-28T09:30:56.000Z</time>
      </trkpt>
      <trkpt lat="47.88357" lon="7.12941">
        <ele>943.3</ele>
        <time>2021-09-28T09:31:05.000Z</time>
      </trkpt>
      <trkpt lat="47.88347" lon="7.1294">
        <ele>942.1</ele>
        <time>2021-09-28T09:31:12.000Z</time>
      </trkpt>
      <trkpt lat="47.88339" lon="7.12933">
        <ele>940.2</ele>
        <time>2021-09-28T09:31:19.000Z</time>
      </trkpt>
      <trkpt lat="47.88331" lon="7.12927">
        <ele>938.5</ele>
        <time>2021-09-28T09:31:24.000Z</time>
      </trkpt>
      <trkpt lat="47.88322" lon="7.1292">
        <ele>936.6</ele>
        <time>2021-09-28T09:31:32.000Z</time>
      </trkpt>
      <trkpt lat="47.88312" lon="7.12914">
        <ele>934.5</ele>
        <time>2021-09-28T09:31:40.000Z</time>
      </trkpt>
      <trkpt lat="47.88304" lon="7.12908">
        <ele>932.1</ele>
        <time>2021-09-28T09:31:49.000Z</time>
      </trkpt>
      <trkpt lat="47.88296" lon="7.12902">
        <ele>929.9</ele>
        <time>2021-09-28T09:31:55.000Z</time>
      </trkpt>
      <trkpt lat="47.88285" lon="7.129">
        <ele>928.5</ele>
        <time>2021-09-28T09:32:02.000Z</time>
      </trkpt>
      <trkpt lat="47.88275" lon="7.12899">
        <ele>927.3</ele>
        <time>2021-09-28T09:32:08.000Z</time>
      </trkpt>
      <trkpt lat="47.88266" lon="7.129">
        <ele>927.1</ele>
        <time>2021-09-28T09:32:19.000Z</time>
      </trkpt>
      <trkpt lat="47.88257" lon="7.12896">
        <ele>925.4</ele>
        <time>2021-09-28T09:32:32.000Z</time>
      </trkpt>
      <trkpt lat="47.88246" lon="7.12893">
        <ele>923.6</ele>
        <time>2021-09-28T09:32:37.000Z</time>
      </trkpt>
      <trkpt lat="47.88236" lon="7.12895">
        <ele>923</ele>
        <time>2021-09-28T09:32:43.000Z</time>
      </trkpt>
      <trkpt lat="47.88228" lon="7.12886">
        <ele>920.3</ele>
        <time>2021-09-28T09:32:50.000Z</time>
      </trkpt>
      <trkpt lat="47.8822" lon="7.12879">
        <ele>918</ele>
        <time>2021-09-28T09:32:58.000Z</time>
      </trkpt>
      <trkpt lat="47.88211" lon="7.12875">
        <ele>916.4</ele>
        <time>2021-09-28T09:33:06.000Z</time>
      </trkpt>
      <trkpt lat="47.88203" lon="7.12867">
        <ele>914.3</ele>
        <time>2021-09-28T09:33:12.000Z</time>
      </trkpt>
      <trkpt lat="47.88193" lon="7.12864">
        <ele>913</ele>
        <time>2021-09-28T09:33:19.000Z</time>
      </trkpt>
      <trkpt lat="47.88184" lon="7.12862">
        <ele>912.2</ele>
        <time>2021-09-28T09:33:26.000Z</time>
      </trkpt>
      <trkpt lat="47.88175" lon="7.12862">
        <ele>911.6</ele>
        <time>2021-09-28T09:33:34.000Z</time>
      </trkpt>
      <trkpt lat="47.88166" lon="7.12854">
        <ele>909.9</ele>
        <time>2021-09-28T09:33:43.000Z</time>
      </trkpt>
      <trkpt lat="47.88158" lon="7.12846">
        <ele>908</ele>
        <time>2021-09-28T09:33:50.000Z</time>
      </trkpt>
      <trkpt lat="47.88148" lon="7.12838">
        <ele>906.1</ele>
        <time>2021-09-28T09:33:55.000Z</time>
      </trkpt>
      <trkpt lat="47.88137" lon="7.12835">
        <ele>904.7</ele>
        <time>2021-09-28T09:34:00.000Z</time>
      </trkpt>
      <trkpt lat="47.88128" lon="7.12836">
        <ele>904</ele>
        <time>2021-09-28T09:34:06.000Z</time>
      </trkpt>
      <trkpt lat="47.8812" lon="7.12841">
        <ele>903.9</ele>
        <time>2021-09-28T09:34:13.000Z</time>
      </trkpt>
      <trkpt lat="47.88112" lon="7.12851">
        <ele>904.3</ele>
        <time>2021-09-28T09:34:21.000Z</time>
      </trkpt>
      <trkpt lat="47.88107" lon="7.12862">
        <ele>904.9</ele>
        <time>2021-09-28T09:34:29.000Z</time>
      </trkpt>
      <trkpt lat="47.88099" lon="7.1287">
        <ele>904.8</ele>
        <time>2021-09-28T09:34:39.000Z</time>
      </trkpt>
      <trkpt lat="47.8809" lon="7.12879">
        <ele>904.6</ele>
        <time>2021-09-28T09:34:46.000Z</time>
      </trkpt>
      <trkpt lat="47.88083" lon="7.12889">
        <ele>904.6</ele>
        <time>2021-09-28T09:34:52.000Z</time>
      </trkpt>
      <trkpt lat="47.88075" lon="7.12895">
        <ele>904.3</ele>
        <time>2021-09-28T09:35:00.000Z</time>
      </trkpt>
      <trkpt lat="47.88066" lon="7.12899">
        <ele>903.6</ele>
        <time>2021-09-28T09:35:10.000Z</time>
      </trkpt>
      <trkpt lat="47.88057" lon="7.129">
        <ele>902.6</ele>
        <time>2021-09-28T09:35:19.000Z</time>
      </trkpt>
      <trkpt lat="47.88047" lon="7.12898">
        <ele>901.5</ele>
        <time>2021-09-28T09:35:28.000Z</time>
      </trkpt>
      <trkpt lat="47.88038" lon="7.12894">
        <ele>900.3</ele>
        <time>2021-09-28T09:35:38.000Z</time>
      </trkpt>
      <trkpt lat="47.88029" lon="7.12887">
        <ele>899.2</ele>
        <time>2021-09-28T09:35:47.000Z</time>
      </trkpt>
      <trkpt lat="47.8802" lon="7.12881">
        <ele>898.3</ele>
        <time>2021-09-28T09:35:53.000Z</time>
      </trkpt>
      <trkpt lat="47.88012" lon="7.12875">
        <ele>897.5</ele>
        <time>2021-09-28T09:36:01.000Z</time>
      </trkpt>
      <trkpt lat="47.88003" lon="7.1287">
        <ele>896.8</ele>
        <time>2021-09-28T09:36:09.000Z</time>
      </trkpt>
      <trkpt lat="47.87995" lon="7.12865">
        <ele>895.2</ele>
        <time>2021-09-28T09:36:17.000Z</time>
      </trkpt>
      <trkpt lat="47.87985" lon="7.1286">
        <ele>892.8</ele>
        <time>2021-09-28T09:36:27.000Z</time>
      </trkpt>
      <trkpt lat="47.87977" lon="7.12854">
        <ele>891.2</ele>
        <time>2021-09-28T09:36:33.000Z</time>
      </trkpt>
      <trkpt lat="47.87969" lon="7.12846">
        <ele>889.7</ele>
        <time>2021-09-28T09:36:41.000Z</time>
      </trkpt>
      <trkpt lat="47.87962" lon="7.12836">
        <ele>889</ele>
        <time>2021-09-28T09:36:50.000Z</time>
      </trkpt>
      <trkpt lat="47.87954" lon="7.12828">
        <ele>887.5</ele>
        <time>2021-09-28T09:36:58.000Z</time>
      </trkpt>
      <trkpt lat="47.87946" lon="7.12823">
        <ele>885.8</ele>
        <time>2021-09-28T09:37:07.000Z</time>
      </trkpt>
      <trkpt lat="47.87937" lon="7.12817">
        <ele>884.3</ele>
        <time>2021-09-28T09:37:14.000Z</time>
      </trkpt>
      <trkpt lat="47.87928" lon="7.12811">
        <ele>882.9</ele>
        <time>2021-09-28T09:37:21.000Z</time>
      </trkpt>
      <trkpt lat="47.87919" lon="7.12806">
        <ele>881.7</ele>
        <time>2021-09-28T09:37:30.000Z</time>
      </trkpt>
      <trkpt lat="47.87911" lon="7.128">
        <ele>880.1</ele>
        <time>2021-09-28T09:37:38.000Z</time>
      </trkpt>
      <trkpt lat="47.87901" lon="7.12799">
        <ele>877.7</ele>
        <time>2021-09-28T09:37:46.000Z</time>
      </trkpt>
      <trkpt lat="47.87883" lon="7.12797">
        <ele>873.2</ele>
        <time>2021-09-28T09:37:52.000Z</time>
      </trkpt>
      <trkpt lat="47.87874" lon="7.12795">
        <ele>871.3</ele>
        <time>2021-09-28T09:38:15.000Z</time>
      </trkpt>
      <trkpt lat="47.87869" lon="7.12783">
        <ele>871.7</ele>
        <time>2021-09-28T09:39:23.000Z</time>
      </trkpt>
      <trkpt lat="47.87862" lon="7.12773">
        <ele>871.6</ele>
        <time>2021-09-28T09:39:31.000Z</time>
      </trkpt>
      <trkpt lat="47.87853" lon="7.12772">
        <ele>869.8</ele>
        <time>2021-09-28T09:39:41.000Z</time>
      </trkpt>
      <trkpt lat="47.87845" lon="7.12764">
        <ele>869.6</ele>
        <time>2021-09-28T09:39:47.000Z</time>
      </trkpt>
      <trkpt lat="47.87835" lon="7.12762">
        <ele>868.1</ele>
        <time>2021-09-28T09:39:55.000Z</time>
      </trkpt>
      <trkpt lat="47.87826" lon="7.12757">
        <ele>866.9</ele>
        <time>2021-09-28T09:40:01.000Z</time>
      </trkpt>
      <trkpt lat="47.87816" lon="7.12757">
        <ele>864.5</ele>
        <time>2021-09-28T09:40:12.000Z</time>
      </trkpt>
      <trkpt lat="47.87809" lon="7.1275">
        <ele>864.1</ele>
        <time>2021-09-28T09:40:18.000Z</time>
      </trkpt>
      <trkpt lat="47.87798" lon="7.12743">
        <ele>861</ele>
        <time>2021-09-28T09:40:23.000Z</time>
      </trkpt>
      <trkpt lat="47.87789" lon="7.1274">
        <ele>858.6</ele>
        <time>2021-09-28T09:40:30.000Z</time>
      </trkpt>
      <trkpt lat="47.8778" lon="7.12735">
        <ele>855.9</ele>
        <time>2021-09-28T09:40:37.000Z</time>
      </trkpt>
      <trkpt lat="47.87769" lon="7.12735">
        <ele>853.5</ele>
        <time>2021-09-28T09:40:48.000Z</time>
      </trkpt>
      <trkpt lat="47.87759" lon="7.12734">
        <ele>851.1</ele>
        <time>2021-09-28T09:40:57.000Z</time>
      </trkpt>
      <trkpt lat="47.87751" lon="7.12726">
        <ele>848.7</ele>
        <time>2021-09-28T09:41:08.000Z</time>
      </trkpt>
      <trkpt lat="47.87741" lon="7.12726">
        <ele>847.9</ele>
        <time>2021-09-28T09:41:15.000Z</time>
      </trkpt>
      <trkpt lat="47.87731" lon="7.12726">
        <ele>847.2</ele>
        <time>2021-09-28T09:41:23.000Z</time>
      </trkpt>
      <trkpt lat="47.87721" lon="7.12729">
        <ele>846.6</ele>
        <time>2021-09-28T09:41:33.000Z</time>
      </trkpt>
      <trkpt lat="47.8771" lon="7.12732">
        <ele>846</ele>
        <time>2021-09-28T09:41:56.000Z</time>
      </trkpt>
      <trkpt lat="47.87705" lon="7.12744">
        <ele>846</ele>
        <time>2021-09-28T09:42:03.000Z</time>
      </trkpt>
      <trkpt lat="47.87697" lon="7.1275">
        <ele>845.5</ele>
        <time>2021-09-28T09:42:11.000Z</time>
      </trkpt>
      <trkpt lat="47.87686" lon="7.12753">
        <ele>844.1</ele>
        <time>2021-09-28T09:42:20.000Z</time>
      </trkpt>
      <trkpt lat="47.87677" lon="7.12757">
        <ele>842.5</ele>
        <time>2021-09-28T09:42:28.000Z</time>
      </trkpt>
      <trkpt lat="47.87668" lon="7.12754">
        <ele>842.4</ele>
        <time>2021-09-28T09:42:36.000Z</time>
      </trkpt>
      <trkpt lat="47.87659" lon="7.1275">
        <ele>841.6</ele>
        <time>2021-09-28T09:42:48.000Z</time>
      </trkpt>
      <trkpt lat="47.8765" lon="7.12749">
        <ele>839.8</ele>
        <time>2021-09-28T09:42:57.000Z</time>
      </trkpt>
      <trkpt lat="47.87642" lon="7.12743">
        <ele>838.2</ele>
        <time>2021-09-28T09:43:03.000Z</time>
      </trkpt>
      <trkpt lat="47.87633" lon="7.12738">
        <ele>836.5</ele>
        <time>2021-09-28T09:43:10.000Z</time>
      </trkpt>
      <trkpt lat="47.87625" lon="7.12731">
        <ele>835</ele>
        <time>2021-09-28T09:43:17.000Z</time>
      </trkpt>
      <trkpt lat="47.8762" lon="7.12718">
        <ele>834.1</ele>
        <time>2021-09-28T09:43:30.000Z</time>
      </trkpt>
      <trkpt lat="47.87611" lon="7.12713">
        <ele>832.4</ele>
        <time>2021-09-28T09:43:37.000Z</time>
      </trkpt>
      <trkpt lat="47.87601" lon="7.1271">
        <ele>830.7</ele>
        <time>2021-09-28T09:43:44.000Z</time>
      </trkpt>
      <trkpt lat="47.87591" lon="7.12711">
        <ele>828.9</ele>
        <time>2021-09-28T09:43:51.000Z</time>
      </trkpt>
      <trkpt lat="47.87582" lon="7.1271">
        <ele>827.5</ele>
        <time>2021-09-28T09:43:58.000Z</time>
      </trkpt>
      <trkpt lat="47.87572" lon="7.12711">
        <ele>827.2</ele>
        <time>2021-09-28T09:44:05.000Z</time>
      </trkpt>
      <trkpt lat="47.87565" lon="7.1272">
        <ele>827.1</ele>
        <time>2021-09-28T09:44:11.000Z</time>
      </trkpt>
      <trkpt lat="47.87556" lon="7.12724">
        <ele>827</ele>
        <time>2021-09-28T09:44:18.000Z</time>
      </trkpt>
      <trkpt lat="47.87547" lon="7.1273">
        <ele>827</ele>
        <time>2021-09-28T09:44:25.000Z</time>
      </trkpt>
      <trkpt lat="47.8754" lon="7.12737">
        <ele>827.2</ele>
        <time>2021-09-28T09:44:33.000Z</time>
      </trkpt>
      <trkpt lat="47.87531" lon="7.12731">
        <ele>827</ele>
        <time>2021-09-28T09:44:50.000Z</time>
      </trkpt>
      <trkpt lat="47.87525" lon="7.12722">
        <ele>826.6</ele>
        <time>2021-09-28T09:45:01.000Z</time>
      </trkpt>
      <trkpt lat="47.87516" lon="7.12718">
        <ele>826.3</ele>
        <time>2021-09-28T09:45:10.000Z</time>
      </trkpt>
      <trkpt lat="47.87507" lon="7.12711">
        <ele>825.8</ele>
        <time>2021-09-28T09:45:18.000Z</time>
      </trkpt>
      <trkpt lat="47.87498" lon="7.12709">
        <ele>826</ele>
        <time>2021-09-28T09:45:27.000Z</time>
      </trkpt>
      <trkpt lat="47.8749" lon="7.12701">
        <ele>826.9</ele>
        <time>2021-09-28T09:45:38.000Z</time>
      </trkpt>
      <trkpt lat="47.87481" lon="7.12696">
        <ele>828.3</ele>
        <time>2021-09-28T09:45:47.000Z</time>
      </trkpt>
      <trkpt lat="47.87472" lon="7.12691">
        <ele>829.5</ele>
        <time>2021-09-28T09:45:58.000Z</time>
      </trkpt>
      <trkpt lat="47.87462" lon="7.12687">
        <ele>831</ele>
        <time>2021-09-28T09:46:07.000Z</time>
      </trkpt>
      <trkpt lat="47.87453" lon="7.12681">
        <ele>832.1</ele>
        <time>2021-09-28T09:46:17.000Z</time>
      </trkpt>
      <trkpt lat="47.87444" lon="7.12677">
        <ele>833.3</ele>
        <time>2021-09-28T09:46:30.000Z</time>
      </trkpt>
      <trkpt lat="47.87435" lon="7.12675">
        <ele>834.8</ele>
        <time>2021-09-28T09:46:40.000Z</time>
      </trkpt>
      <trkpt lat="47.87425" lon="7.12671">
        <ele>836.1</ele>
        <time>2021-09-28T09:46:48.000Z</time>
      </trkpt>
      <trkpt lat="47.87415" lon="7.1267">
        <ele>837.4</ele>
        <time>2021-09-28T09:47:00.000Z</time>
      </trkpt>
      <trkpt lat="47.87407" lon="7.12666">
        <ele>837.7</ele>
        <time>2021-09-28T09:47:09.000Z</time>
      </trkpt>
      <trkpt lat="47.87397" lon="7.12659">
        <ele>837.3</ele>
        <time>2021-09-28T09:47:18.000Z</time>
      </trkpt>
      <trkpt lat="47.8739" lon="7.12652">
        <ele>836.5</ele>
        <time>2021-09-28T09:47:25.000Z</time>
      </trkpt>
      <trkpt lat="47.87381" lon="7.12647">
        <ele>836.4</ele>
        <time>2021-09-28T09:47:32.000Z</time>
      </trkpt>
      <trkpt lat="47.87372" lon="7.12641">
        <ele>835.8</ele>
        <time>2021-09-28T09:47:40.000Z</time>
      </trkpt>
      <trkpt lat="47.87363" lon="7.12636">
        <ele>835.4</ele>
        <time>2021-09-28T09:47:50.000Z</time>
      </trkpt>
      <trkpt lat="47.87353" lon="7.12635">
        <ele>835.8</ele>
        <time>2021-09-28T09:47:57.000Z</time>
      </trkpt>
      <trkpt lat="47.87347" lon="7.12645">
        <ele>838.3</ele>
        <time>2021-09-28T09:48:07.000Z</time>
      </trkpt>
      <trkpt lat="47.87338" lon="7.12648">
        <ele>839.6</ele>
        <time>2021-09-28T09:48:14.000Z</time>
      </trkpt>
      <trkpt lat="47.87329" lon="7.12654">
        <ele>841.3</ele>
        <time>2021-09-28T09:48:24.000Z</time>
      </trkpt>
      <trkpt lat="47.87323" lon="7.12663">
        <ele>843.4</ele>
        <time>2021-09-28T09:48:34.000Z</time>
      </trkpt>
      <trkpt lat="47.87319" lon="7.12676">
        <ele>845.7</ele>
        <time>2021-09-28T09:48:43.000Z</time>
      </trkpt>
      <trkpt lat="47.87316" lon="7.1269">
        <ele>847.9</ele>
        <time>2021-09-28T09:48:53.000Z</time>
      </trkpt>
      <trkpt lat="47.87315" lon="7.12703">
        <ele>850.2</ele>
        <time>2021-09-28T09:49:02.000Z</time>
      </trkpt>
      <trkpt lat="47.87313" lon="7.12717">
        <ele>852.5</ele>
        <time>2021-09-28T09:49:11.000Z</time>
      </trkpt>
      <trkpt lat="47.8731" lon="7.12732">
        <ele>855.1</ele>
        <time>2021-09-28T09:49:19.000Z</time>
      </trkpt>
      <trkpt lat="47.87311" lon="7.12747">
        <ele>857.5</ele>
        <time>2021-09-28T09:49:29.000Z</time>
      </trkpt>
      <trkpt lat="47.87313" lon="7.12761">
        <ele>857.8</ele>
        <time>2021-09-28T09:49:39.000Z</time>
      </trkpt>
      <trkpt lat="47.87306" lon="7.1277">
        <ele>858.2</ele>
        <time>2021-09-28T09:49:51.000Z</time>
      </trkpt>
      <trkpt lat="47.87297" lon="7.12764">
        <ele>858.9</ele>
        <time>2021-09-28T09:50:03.000Z</time>
      </trkpt>
      <trkpt lat="47.87291" lon="7.12754">
        <ele>859.1</ele>
        <time>2021-09-28T09:50:11.000Z</time>
      </trkpt>
      <trkpt lat="47.87281" lon="7.12749">
        <ele>859.4</ele>
        <time>2021-09-28T09:50:17.000Z</time>
      </trkpt>
      <trkpt lat="47.87271" lon="7.12746">
        <ele>859.3</ele>
        <time>2021-09-28T09:50:27.000Z</time>
      </trkpt>
      <trkpt lat="47.87261" lon="7.12744">
        <ele>859.3</ele>
        <time>2021-09-28T09:50:34.000Z</time>
      </trkpt>
      <trkpt lat="47.87251" lon="7.12745">
        <ele>860</ele>
        <time>2021-09-28T09:50:43.000Z</time>
      </trkpt>
      <trkpt lat="47.87243" lon="7.12738">
        <ele>859.5</ele>
        <time>2021-09-28T09:50:55.000Z</time>
      </trkpt>
      <trkpt lat="47.87234" lon="7.12741">
        <ele>861.2</ele>
        <time>2021-09-28T09:51:07.000Z</time>
      </trkpt>
      <trkpt lat="47.87226" lon="7.12733">
        <ele>861</ele>
        <time>2021-09-28T09:51:20.000Z</time>
      </trkpt>
      <trkpt lat="47.87217" lon="7.12727">
        <ele>861.5</ele>
        <time>2021-09-28T09:51:30.000Z</time>
      </trkpt>
      <trkpt lat="47.87209" lon="7.12723">
        <ele>862.2</ele>
        <time>2021-09-28T09:51:39.000Z</time>
      </trkpt>
      <trkpt lat="47.872" lon="7.12717">
        <ele>863</ele>
        <time>2021-09-28T09:51:49.000Z</time>
      </trkpt>
      <trkpt lat="47.87191" lon="7.12712">
        <ele>863.9</ele>
        <time>2021-09-28T09:51:57.000Z</time>
      </trkpt>
      <trkpt lat="47.87184" lon="7.12703">
        <ele>864.5</ele>
        <time>2021-09-28T09:52:04.000Z</time>
      </trkpt>
      <trkpt lat="47.87177" lon="7.12692">
        <ele>865</ele>
        <time>2021-09-28T09:52:14.000Z</time>
      </trkpt>
      <trkpt lat="47.87173" lon="7.1268">
        <ele>865.3</ele>
        <time>2021-09-28T09:52:25.000Z</time>
      </trkpt>
      <trkpt lat="47.87168" lon="7.12667">
        <ele>865.6</ele>
        <time>2021-09-28T09:52:32.000Z</time>
      </trkpt>
      <trkpt lat="47.87161" lon="7.12657">
        <ele>866</ele>
        <time>2021-09-28T09:52:39.000Z</time>
      </trkpt>
      <trkpt lat="47.87156" lon="7.12645">
        <ele>865.9</ele>
        <time>2021-09-28T09:52:47.000Z</time>
      </trkpt>
      <trkpt lat="47.87152" lon="7.12632">
        <ele>865.9</ele>
        <time>2021-09-28T09:52:55.000Z</time>
      </trkpt>
      <trkpt lat="47.87146" lon="7.12621">
        <ele>866.7</ele>
        <time>2021-09-28T09:53:03.000Z</time>
      </trkpt>
      <trkpt lat="47.87141" lon="7.12609">
        <ele>867.4</ele>
        <time>2021-09-28T09:53:13.000Z</time>
      </trkpt>
      <trkpt lat="47.87135" lon="7.12597">
        <ele>868.7</ele>
        <time>2021-09-28T09:53:21.000Z</time>
      </trkpt>
      <trkpt lat="47.87128" lon="7.12588">
        <ele>870.6</ele>
        <time>2021-09-28T09:53:30.000Z</time>
      </trkpt>
      <trkpt lat="47.87122" lon="7.12578">
        <ele>872.3</ele>
        <time>2021-09-28T09:53:45.000Z</time>
      </trkpt>
      <trkpt lat="47.87116" lon="7.12568">
        <ele>873.5</ele>
        <time>2021-09-28T09:53:52.000Z</time>
      </trkpt>
      <trkpt lat="47.87108" lon="7.12559">
        <ele>876</ele>
        <time>2021-09-28T09:54:03.000Z</time>
      </trkpt>
      <trkpt lat="47.871" lon="7.12549">
        <ele>878.5</ele>
        <time>2021-09-28T09:54:13.000Z</time>
      </trkpt>
      <trkpt lat="47.87092" lon="7.12541">
        <ele>881.2</ele>
        <time>2021-09-28T09:54:25.000Z</time>
      </trkpt>
      <trkpt lat="47.87084" lon="7.12534">
        <ele>884.2</ele>
        <time>2021-09-28T09:54:39.000Z</time>
      </trkpt>
      <trkpt lat="47.87079" lon="7.12522">
        <ele>885.5</ele>
        <time>2021-09-28T09:54:55.000Z</time>
      </trkpt>
      <trkpt lat="47.87074" lon="7.12511">
        <ele>886.8</ele>
        <time>2021-09-28T09:55:09.000Z</time>
      </trkpt>
      <trkpt lat="47.87067" lon="7.12502">
        <ele>888.5</ele>
        <time>2021-09-28T09:55:24.000Z</time>
      </trkpt>
      <trkpt lat="47.87059" lon="7.12493">
        <ele>889.4</ele>
        <time>2021-09-28T09:55:45.000Z</time>
      </trkpt>
      <trkpt lat="47.87054" lon="7.12481">
        <ele>889.2</ele>
        <time>2021-09-28T09:55:57.000Z</time>
      </trkpt>
      <trkpt lat="47.87049" lon="7.1247">
        <ele>889.4</ele>
        <time>2021-09-28T09:56:10.000Z</time>
      </trkpt>
      <trkpt lat="47.87036" lon="7.12455">
        <ele>891.5</ele>
        <time>2021-09-28T09:56:36.000Z</time>
      </trkpt>
      <trkpt lat="47.87027" lon="7.12455">
        <ele>894.2</ele>
        <time>2021-09-28T09:56:47.000Z</time>
      </trkpt>
      <trkpt lat="47.87026" lon="7.12437">
        <ele>893.3</ele>
        <time>2021-09-28T09:56:59.000Z</time>
      </trkpt>
      <trkpt lat="47.8703" lon="7.12425">
        <ele>891.1</ele>
        <time>2021-09-28T09:57:12.000Z</time>
      </trkpt>
      <trkpt lat="47.87028" lon="7.12411">
        <ele>890.3</ele>
        <time>2021-09-28T09:57:20.000Z</time>
      </trkpt>
      <trkpt lat="47.87024" lon="7.12399">
        <ele>889.7</ele>
        <time>2021-09-28T09:57:28.000Z</time>
      </trkpt>
      <trkpt lat="47.87019" lon="7.12387">
        <ele>889.2</ele>
        <time>2021-09-28T09:57:36.000Z</time>
      </trkpt>
      <trkpt lat="47.87014" lon="7.12373">
        <ele>888.6</ele>
        <time>2021-09-28T09:57:43.000Z</time>
      </trkpt>
      <trkpt lat="47.87007" lon="7.12363">
        <ele>889.1</ele>
        <time>2021-09-28T09:57:51.000Z</time>
      </trkpt>
      <trkpt lat="47.87" lon="7.12352">
        <ele>889.4</ele>
        <time>2021-09-28T09:57:58.000Z</time>
      </trkpt>
      <trkpt lat="47.86991" lon="7.12345">
        <ele>887.5</ele>
        <time>2021-09-28T09:58:07.000Z</time>
      </trkpt>
      <trkpt lat="47.86982" lon="7.12342">
        <ele>886.5</ele>
        <time>2021-09-28T09:58:17.000Z</time>
      </trkpt>
      <trkpt lat="47.86975" lon="7.12332">
        <ele>884.8</ele>
        <time>2021-09-28T09:58:25.000Z</time>
      </trkpt>
      <trkpt lat="47.86967" lon="7.12324">
        <ele>882.9</ele>
        <time>2021-09-28T09:58:33.000Z</time>
      </trkpt>
      <trkpt lat="47.86962" lon="7.12312">
        <ele>880.4</ele>
        <time>2021-09-28T09:58:44.000Z</time>
      </trkpt>
      <trkpt lat="47.86954" lon="7.12305">
        <ele>878.7</ele>
        <time>2021-09-28T09:58:51.000Z</time>
      </trkpt>
      <trkpt lat="47.86945" lon="7.12296">
        <ele>876.8</ele>
        <time>2021-09-28T09:58:57.000Z</time>
      </trkpt>
      <trkpt lat="47.86937" lon="7.12287">
        <ele>875</ele>
        <time>2021-09-28T09:59:05.000Z</time>
      </trkpt>
      <trkpt lat="47.86929" lon="7.12278">
        <ele>873.2</ele>
        <time>2021-09-28T09:59:11.000Z</time>
      </trkpt>
      <trkpt lat="47.86921" lon="7.1227">
        <ele>871.7</ele>
        <time>2021-09-28T09:59:22.000Z</time>
      </trkpt>
      <trkpt lat="47.86911" lon="7.12265">
        <ele>869.8</ele>
        <time>2021-09-28T09:59:31.000Z</time>
      </trkpt>
      <trkpt lat="47.86902" lon="7.12266">
        <ele>868.2</ele>
        <time>2021-09-28T09:59:41.000Z</time>
      </trkpt>
      <trkpt lat="47.86892" lon="7.12267">
        <ele>866.7</ele>
        <time>2021-09-28T09:59:51.000Z</time>
      </trkpt>
      <trkpt lat="47.86882" lon="7.12268">
        <ele>865.1</ele>
        <time>2021-09-28T09:59:58.000Z</time>
      </trkpt>
      <trkpt lat="47.86872" lon="7.12271">
        <ele>863.7</ele>
        <time>2021-09-28T10:00:06.000Z</time>
      </trkpt>
      <trkpt lat="47.86863" lon="7.12275">
        <ele>862.5</ele>
        <time>2021-09-28T10:00:16.000Z</time>
      </trkpt>
      <trkpt lat="47.86854" lon="7.12282">
        <ele>861.6</ele>
        <time>2021-09-28T10:00:23.000Z</time>
      </trkpt>
      <trkpt lat="47.86845" lon="7.12288">
        <ele>860.5</ele>
        <time>2021-09-28T10:00:32.000Z</time>
      </trkpt>
      <trkpt lat="47.86835" lon="7.12283">
        <ele>858.1</ele>
        <time>2021-09-28T10:00:39.000Z</time>
      </trkpt>
      <trkpt lat="47.86825" lon="7.12282">
        <ele>858.2</ele>
        <time>2021-09-28T10:00:47.000Z</time>
      </trkpt>
      <trkpt lat="47.86816" lon="7.12289">
        <ele>859.3</ele>
        <time>2021-09-28T10:00:57.000Z</time>
      </trkpt>
      <trkpt lat="47.86809" lon="7.123">
        <ele>860.4</ele>
        <time>2021-09-28T10:01:07.000Z</time>
      </trkpt>
      <trkpt lat="47.86809" lon="7.12313">
        <ele>861.4</ele>
        <time>2021-09-28T10:01:15.000Z</time>
      </trkpt>
      <trkpt lat="47.86806" lon="7.12326">
        <ele>862.5</ele>
        <time>2021-09-28T10:01:23.000Z</time>
      </trkpt>
      <trkpt lat="47.86796" lon="7.12326">
        <ele>862.8</ele>
        <time>2021-09-28T10:01:43.000Z</time>
      </trkpt>
      <trkpt lat="47.86786" lon="7.12327">
        <ele>863.3</ele>
        <time>2021-09-28T10:01:53.000Z</time>
      </trkpt>
      <trkpt lat="47.86776" lon="7.12326">
        <ele>863.6</ele>
        <time>2021-09-28T10:02:06.000Z</time>
      </trkpt>
      <trkpt lat="47.86768" lon="7.12334">
        <ele>864.3</ele>
        <time>2021-09-28T10:02:16.000Z</time>
      </trkpt>
      <trkpt lat="47.86759" lon="7.12338">
        <ele>864.5</ele>
        <time>2021-09-28T10:02:28.000Z</time>
      </trkpt>
      <trkpt lat="47.8675" lon="7.12345">
        <ele>864.7</ele>
        <time>2021-09-28T10:02:35.000Z</time>
      </trkpt>
      <trkpt lat="47.86741" lon="7.12351">
        <ele>864.9</ele>
        <time>2021-09-28T10:02:43.000Z</time>
      </trkpt>
      <trkpt lat="47.86734" lon="7.12362">
        <ele>865.2</ele>
        <time>2021-09-28T10:02:55.000Z</time>
      </trkpt>
      <trkpt lat="47.86724" lon="7.12362">
        <ele>865.7</ele>
        <time>2021-09-28T10:03:04.000Z</time>
      </trkpt>
      <trkpt lat="47.86716" lon="7.12368">
        <ele>866.4</ele>
        <time>2021-09-28T10:03:44.000Z</time>
      </trkpt>
      <trkpt lat="47.86708" lon="7.12375">
        <ele>867.3</ele>
        <time>2021-09-28T10:03:50.000Z</time>
      </trkpt>
      <trkpt lat="47.867" lon="7.12384">
        <ele>868.5</ele>
        <time>2021-09-28T10:03:57.000Z</time>
      </trkpt>
      <trkpt lat="47.86691" lon="7.12388">
        <ele>869.7</ele>
        <time>2021-09-28T10:04:04.000Z</time>
      </trkpt>
      <trkpt lat="47.86682" lon="7.12393">
        <ele>871.1</ele>
        <time>2021-09-28T10:04:12.000Z</time>
      </trkpt>
      <trkpt lat="47.86676" lon="7.12402">
        <ele>872.9</ele>
        <time>2021-09-28T10:04:18.000Z</time>
      </trkpt>
      <trkpt lat="47.86667" lon="7.12407">
        <ele>874.7</ele>
        <time>2021-09-28T10:04:27.000Z</time>
      </trkpt>
      <trkpt lat="47.86658" lon="7.12408">
        <ele>875.2</ele>
        <time>2021-09-28T10:04:34.000Z</time>
      </trkpt>
      <trkpt lat="47.86647" lon="7.12408">
        <ele>875.6</ele>
        <time>2021-09-28T10:04:41.000Z</time>
      </trkpt>
      <trkpt lat="47.86637" lon="7.1241">
        <ele>876.3</ele>
        <time>2021-09-28T10:04:50.000Z</time>
      </trkpt>
      <trkpt lat="47.86628" lon="7.12413">
        <ele>877.2</ele>
        <time>2021-09-28T10:04:57.000Z</time>
      </trkpt>
      <trkpt lat="47.86619" lon="7.12415">
        <ele>878</ele>
        <time>2021-09-28T10:05:04.000Z</time>
      </trkpt>
      <trkpt lat="47.8661" lon="7.12413">
        <ele>877.9</ele>
        <time>2021-09-28T10:05:12.000Z</time>
      </trkpt>
      <trkpt lat="47.86601" lon="7.12414">
        <ele>878.6</ele>
        <time>2021-09-28T10:05:19.000Z</time>
      </trkpt>
      <trkpt lat="47.86591" lon="7.12418">
        <ele>879.8</ele>
        <time>2021-09-28T10:05:27.000Z</time>
      </trkpt>
      <trkpt lat="47.86581" lon="7.1242">
        <ele>880.7</ele>
        <time>2021-09-28T10:05:36.000Z</time>
      </trkpt>
      <trkpt lat="47.86572" lon="7.1242">
        <ele>881.4</ele>
        <time>2021-09-28T10:05:44.000Z</time>
      </trkpt>
      <trkpt lat="47.86562" lon="7.12421">
        <ele>882.1</ele>
        <time>2021-09-28T10:05:52.000Z</time>
      </trkpt>
      <trkpt lat="47.86553" lon="7.1242">
        <ele>882.5</ele>
        <time>2021-09-28T10:05:59.000Z</time>
      </trkpt>
      <trkpt lat="47.86544" lon="7.12416">
        <ele>882.2</ele>
        <time>2021-09-28T10:06:07.000Z</time>
      </trkpt>
      <trkpt lat="47.86535" lon="7.12417">
        <ele>882.9</ele>
        <time>2021-09-28T10:06:16.000Z</time>
      </trkpt>
      <trkpt lat="47.86526" lon="7.12417">
        <ele>883.5</ele>
        <time>2021-09-28T10:06:23.000Z</time>
      </trkpt>
      <trkpt lat="47.86516" lon="7.12413">
        <ele>883</ele>
        <time>2021-09-28T10:06:32.000Z</time>
      </trkpt>
      <trkpt lat="47.86507" lon="7.12414">
        <ele>884</ele>
        <time>2021-09-28T10:06:39.000Z</time>
      </trkpt>
      <trkpt lat="47.86496" lon="7.12413">
        <ele>884.8</ele>
        <time>2021-09-28T10:06:47.000Z</time>
      </trkpt>
      <trkpt lat="47.86486" lon="7.12414">
        <ele>887.4</ele>
        <time>2021-09-28T10:06:57.000Z</time>
      </trkpt>
      <trkpt lat="47.86476" lon="7.12414">
        <ele>889.5</ele>
        <time>2021-09-28T10:07:05.000Z</time>
      </trkpt>
      <trkpt lat="47.86467" lon="7.12413">
        <ele>891.2</ele>
        <time>2021-09-28T10:07:12.000Z</time>
      </trkpt>
      <trkpt lat="47.86457" lon="7.12413">
        <ele>893.4</ele>
        <time>2021-09-28T10:07:20.000Z</time>
      </trkpt>
      <trkpt lat="47.86448" lon="7.12413">
        <ele>895.5</ele>
        <time>2021-09-28T10:07:28.000Z</time>
      </trkpt>
      <trkpt lat="47.86439" lon="7.12405">
        <ele>895.6</ele>
        <time>2021-09-28T10:07:37.000Z</time>
      </trkpt>
      <trkpt lat="47.86433" lon="7.12394">
        <ele>894.4</ele>
        <time>2021-09-28T10:07:50.000Z</time>
      </trkpt>
      <trkpt lat="47.86421" lon="7.12397">
        <ele>898.1</ele>
        <time>2021-09-28T10:08:04.000Z</time>
      </trkpt>
      <trkpt lat="47.86428" lon="7.12388">
        <ele>894.5</ele>
        <time>2021-09-28T10:08:09.000Z</time>
      </trkpt>
      <trkpt lat="47.86419" lon="7.12382">
        <ele>895.3</ele>
        <time>2021-09-28T10:08:15.000Z</time>
      </trkpt>
      <trkpt lat="47.8641" lon="7.1238">
        <ele>897.3</ele>
        <time>2021-09-28T10:08:24.000Z</time>
      </trkpt>
      <trkpt lat="47.86402" lon="7.12372">
        <ele>897.8</ele>
        <time>2021-09-28T10:08:33.000Z</time>
      </trkpt>
      <trkpt lat="47.86398" lon="7.12361">
        <ele>896.7</ele>
        <time>2021-09-28T10:08:40.000Z</time>
      </trkpt>
      <trkpt lat="47.86393" lon="7.12349">
        <ele>895.6</ele>
        <time>2021-09-28T10:08:47.000Z</time>
      </trkpt>
      <trkpt lat="47.86387" lon="7.12339">
        <ele>895.1</ele>
        <time>2021-09-28T10:08:57.000Z</time>
      </trkpt>
      <trkpt lat="47.86381" lon="7.12327">
        <ele>893.7</ele>
        <time>2021-09-28T10:09:05.000Z</time>
      </trkpt>
      <trkpt lat="47.86373" lon="7.12321">
        <ele>894.4</ele>
        <time>2021-09-28T10:09:12.000Z</time>
      </trkpt>
      <trkpt lat="47.86364" lon="7.1232">
        <ele>896.6</ele>
        <time>2021-09-28T10:09:19.000Z</time>
      </trkpt>
      <trkpt lat="47.86354" lon="7.12318">
        <ele>898.6</ele>
        <time>2021-09-28T10:09:28.000Z</time>
      </trkpt>
      <trkpt lat="47.86345" lon="7.12319">
        <ele>901.4</ele>
        <time>2021-09-28T10:09:37.000Z</time>
      </trkpt>
      <trkpt lat="47.86336" lon="7.12316">
        <ele>903.1</ele>
        <time>2021-09-28T10:09:46.000Z</time>
      </trkpt>
      <trkpt lat="47.86328" lon="7.12309">
        <ele>904.5</ele>
        <time>2021-09-28T10:09:54.000Z</time>
      </trkpt>
      <trkpt lat="47.86319" lon="7.12303">
        <ele>906.2</ele>
        <time>2021-09-28T10:10:01.000Z</time>
      </trkpt>
      <trkpt lat="47.86309" lon="7.12298">
        <ele>908.6</ele>
        <time>2021-09-28T10:10:08.000Z</time>
      </trkpt>
      <trkpt lat="47.863" lon="7.12298">
        <ele>911.8</ele>
        <time>2021-09-28T10:10:16.000Z</time>
      </trkpt>
      <trkpt lat="47.8629" lon="7.123">
        <ele>915.5</ele>
        <time>2021-09-28T10:10:25.000Z</time>
      </trkpt>
      <trkpt lat="47.86281" lon="7.12297">
        <ele>918.2</ele>
        <time>2021-09-28T10:10:34.000Z</time>
      </trkpt>
      <trkpt lat="47.86272" lon="7.12298">
        <ele>921.5</ele>
        <time>2021-09-28T10:10:45.000Z</time>
      </trkpt>
      <trkpt lat="47.86263" lon="7.12294">
        <ele>923.5</ele>
        <time>2021-09-28T10:10:59.000Z</time>
      </trkpt>
      <trkpt lat="47.86255" lon="7.12287">
        <ele>924.6</ele>
        <time>2021-09-28T10:11:11.000Z</time>
      </trkpt>
      <trkpt lat="47.86245" lon="7.12284">
        <ele>927.5</ele>
        <time>2021-09-28T10:11:20.000Z</time>
      </trkpt>
      <trkpt lat="47.86236" lon="7.1228">
        <ele>930.3</ele>
        <time>2021-09-28T10:11:31.000Z</time>
      </trkpt>
      <trkpt lat="47.8623" lon="7.1227">
        <ele>930.2</ele>
        <time>2021-09-28T10:11:42.000Z</time>
      </trkpt>
      <trkpt lat="47.86222" lon="7.12262">
        <ele>931.1</ele>
        <time>2021-09-28T10:11:54.000Z</time>
      </trkpt>
      <trkpt lat="47.86215" lon="7.12253">
        <ele>931.8</ele>
        <time>2021-09-28T10:12:09.000Z</time>
      </trkpt>
      <trkpt lat="47.86208" lon="7.12243">
        <ele>932.5</ele>
        <time>2021-09-28T10:12:20.000Z</time>
      </trkpt>
      <trkpt lat="47.862" lon="7.12236">
        <ele>934.5</ele>
        <time>2021-09-28T10:12:28.000Z</time>
      </trkpt>
      <trkpt lat="47.86191" lon="7.1223">
        <ele>936.8</ele>
        <time>2021-09-28T10:12:34.000Z</time>
      </trkpt>
      <trkpt lat="47.86185" lon="7.12221">
        <ele>937.5</ele>
        <time>2021-09-28T10:12:42.000Z</time>
      </trkpt>
      <trkpt lat="47.86178" lon="7.12211">
        <ele>938.1</ele>
        <time>2021-09-28T10:12:50.000Z</time>
      </trkpt>
      <trkpt lat="47.86171" lon="7.12202">
        <ele>938.7</ele>
        <time>2021-09-28T10:13:00.000Z</time>
      </trkpt>
      <trkpt lat="47.86165" lon="7.1219">
        <ele>938.1</ele>
        <time>2021-09-28T10:13:08.000Z</time>
      </trkpt>
      <trkpt lat="47.86158" lon="7.12181">
        <ele>938.1</ele>
        <time>2021-09-28T10:13:14.000Z</time>
      </trkpt>
      <trkpt lat="47.86152" lon="7.1217">
        <ele>937.3</ele>
        <time>2021-09-28T10:13:22.000Z</time>
      </trkpt>
      <trkpt lat="47.86145" lon="7.12161">
        <ele>937.5</ele>
        <time>2021-09-28T10:13:29.000Z</time>
      </trkpt>
      <trkpt lat="47.86142" lon="7.12147">
        <ele>935.3</ele>
        <time>2021-09-28T10:13:38.000Z</time>
      </trkpt>
      <trkpt lat="47.86136" lon="7.12137">
        <ele>934.6</ele>
        <time>2021-09-28T10:13:44.000Z</time>
      </trkpt>
      <trkpt lat="47.86128" lon="7.12125">
        <ele>934.3</ele>
        <time>2021-09-28T10:13:51.000Z</time>
      </trkpt>
      <trkpt lat="47.86123" lon="7.12114">
        <ele>933.2</ele>
        <time>2021-09-28T10:13:59.000Z</time>
      </trkpt>
      <trkpt lat="47.86115" lon="7.12106">
        <ele>933.5</ele>
        <time>2021-09-28T10:14:09.000Z</time>
      </trkpt>
      <trkpt lat="47.86107" lon="7.12096">
        <ele>933.3</ele>
        <time>2021-09-28T10:14:17.000Z</time>
      </trkpt>
      <trkpt lat="47.86101" lon="7.12084">
        <ele>932.1</ele>
        <time>2021-09-28T10:14:24.000Z</time>
      </trkpt>
      <trkpt lat="47.86096" lon="7.12073">
        <ele>932.3</ele>
        <time>2021-09-28T10:14:31.000Z</time>
      </trkpt>
      <trkpt lat="47.86091" lon="7.12062">
        <ele>932.5</ele>
        <time>2021-09-28T10:14:39.000Z</time>
      </trkpt>
      <trkpt lat="47.86087" lon="7.12048">
        <ele>932.6</ele>
        <time>2021-09-28T10:14:46.000Z</time>
      </trkpt>
      <trkpt lat="47.86084" lon="7.12034">
        <ele>932.2</ele>
        <time>2021-09-28T10:14:52.000Z</time>
      </trkpt>
      <trkpt lat="47.86079" lon="7.12022">
        <ele>930.9</ele>
        <time>2021-09-28T10:14:59.000Z</time>
      </trkpt>
      <trkpt lat="47.86074" lon="7.1201">
        <ele>929.4</ele>
        <time>2021-09-28T10:15:09.000Z</time>
      </trkpt>
      <trkpt lat="47.8607" lon="7.11998">
        <ele>927.6</ele>
        <time>2021-09-28T10:15:17.000Z</time>
      </trkpt>
      <trkpt lat="47.86066" lon="7.11985">
        <ele>925.2</ele>
        <time>2021-09-28T10:15:26.000Z</time>
      </trkpt>
      <trkpt lat="47.86058" lon="7.11976">
        <ele>923.3</ele>
        <time>2021-09-28T10:15:35.000Z</time>
      </trkpt>
      <trkpt lat="47.8605" lon="7.11971">
        <ele>921.9</ele>
        <time>2021-09-28T10:15:41.000Z</time>
      </trkpt>
      <trkpt lat="47.86041" lon="7.11977">
        <ele>922.4</ele>
        <time>2021-09-28T10:15:48.000Z</time>
      </trkpt>
      <trkpt lat="47.86035" lon="7.1199">
        <ele>923.9</ele>
        <time>2021-09-28T10:15:55.000Z</time>
      </trkpt>
      <trkpt lat="47.86028" lon="7.12002">
        <ele>925.4</ele>
        <time>2021-09-28T10:16:02.000Z</time>
      </trkpt>
      <trkpt lat="47.86021" lon="7.12012">
        <ele>926.4</ele>
        <time>2021-09-28T10:16:11.000Z</time>
      </trkpt>
      <trkpt lat="47.86013" lon="7.1202">
        <ele>927.2</ele>
        <time>2021-09-28T10:16:19.000Z</time>
      </trkpt>
      <trkpt lat="47.86007" lon="7.12031">
        <ele>928.9</ele>
        <time>2021-09-28T10:16:28.000Z</time>
      </trkpt>
      <trkpt lat="47.86002" lon="7.12045">
        <ele>931.1</ele>
        <time>2021-09-28T10:16:37.000Z</time>
      </trkpt>
      <trkpt lat="47.85996" lon="7.12056">
        <ele>931.3</ele>
        <time>2021-09-28T10:16:43.000Z</time>
      </trkpt>
      <trkpt lat="47.8599" lon="7.12067">
        <ele>930.4</ele>
        <time>2021-09-28T10:16:51.000Z</time>
      </trkpt>
      <trkpt lat="47.85984" lon="7.1208">
        <ele>930</ele>
        <time>2021-09-28T10:16:58.000Z</time>
      </trkpt>
      <trkpt lat="47.85977" lon="7.12089">
        <ele>928.3</ele>
        <time>2021-09-28T10:17:14.000Z</time>
      </trkpt>
      <trkpt lat="47.8597" lon="7.12099">
        <ele>927.4</ele>
        <time>2021-09-28T10:17:25.000Z</time>
      </trkpt>
      <trkpt lat="47.85968" lon="7.12113">
        <ele>929.3</ele>
        <time>2021-09-28T10:17:32.000Z</time>
      </trkpt>
      <trkpt lat="47.85965" lon="7.12127">
        <ele>930.7</ele>
        <time>2021-09-28T10:17:39.000Z</time>
      </trkpt>
      <trkpt lat="47.8596" lon="7.12139">
        <ele>931.3</ele>
        <time>2021-09-28T10:17:46.000Z</time>
      </trkpt>
      <trkpt lat="47.85956" lon="7.12152">
        <ele>932.3</ele>
        <time>2021-09-28T10:17:54.000Z</time>
      </trkpt>
      <trkpt lat="47.85952" lon="7.12164">
        <ele>932.8</ele>
        <time>2021-09-28T10:18:04.000Z</time>
      </trkpt>
      <trkpt lat="47.85946" lon="7.12175">
        <ele>932.2</ele>
        <time>2021-09-28T10:18:11.000Z</time>
      </trkpt>
      <trkpt lat="47.85943" lon="7.12187">
        <ele>932.1</ele>
        <time>2021-09-28T10:18:21.000Z</time>
      </trkpt>
      <trkpt lat="47.85941" lon="7.12201">
        <ele>933.1</ele>
        <time>2021-09-28T10:18:29.000Z</time>
      </trkpt>
      <trkpt lat="47.85939" lon="7.12215">
        <ele>933.9</ele>
        <time>2021-09-28T10:18:37.000Z</time>
      </trkpt>
      <trkpt lat="47.85933" lon="7.12226">
        <ele>932.7</ele>
        <time>2021-09-28T10:18:45.000Z</time>
      </trkpt>
      <trkpt lat="47.85928" lon="7.12239">
        <ele>931.9</ele>
        <time>2021-09-28T10:18:51.000Z</time>
      </trkpt>
      <trkpt lat="47.85924" lon="7.12252">
        <ele>931.6</ele>
        <time>2021-09-28T10:18:58.000Z</time>
      </trkpt>
      <trkpt lat="47.85918" lon="7.12264">
        <ele>929.6</ele>
        <time>2021-09-28T10:19:06.000Z</time>
      </trkpt>
      <trkpt lat="47.85913" lon="7.12278">
        <ele>928.8</ele>
        <time>2021-09-28T10:19:17.000Z</time>
      </trkpt>
      <trkpt lat="47.8591" lon="7.12292">
        <ele>928.5</ele>
        <time>2021-09-28T10:19:23.000Z</time>
      </trkpt>
      <trkpt lat="47.8591" lon="7.12306">
        <ele>929.4</ele>
        <time>2021-09-28T10:19:32.000Z</time>
      </trkpt>
      <trkpt lat="47.85908" lon="7.1232">
        <ele>929.9</ele>
        <time>2021-09-28T10:19:39.000Z</time>
      </trkpt>
      <trkpt lat="47.85908" lon="7.12334">
        <ele>930.9</ele>
        <time>2021-09-28T10:19:46.000Z</time>
      </trkpt>
      <trkpt lat="47.8591" lon="7.12348">
        <ele>932.9</ele>
        <time>2021-09-28T10:19:53.000Z</time>
      </trkpt>
      <trkpt lat="47.85907" lon="7.1236">
        <ele>932.3</ele>
        <time>2021-09-28T10:20:01.000Z</time>
      </trkpt>
      <trkpt lat="47.85905" lon="7.12374">
        <ele>932.8</ele>
        <time>2021-09-28T10:20:09.000Z</time>
      </trkpt>
      <trkpt lat="47.85904" lon="7.12388">
        <ele>933.2</ele>
        <time>2021-09-28T10:20:20.000Z</time>
      </trkpt>
      <trkpt lat="47.85901" lon="7.12401">
        <ele>932.9</ele>
        <time>2021-09-28T10:20:28.000Z</time>
      </trkpt>
      <trkpt lat="47.85897" lon="7.12414">
        <ele>932.6</ele>
        <time>2021-09-28T10:20:36.000Z</time>
      </trkpt>
      <trkpt lat="47.85892" lon="7.12424">
        <ele>931.7</ele>
        <time>2021-09-28T10:20:44.000Z</time>
      </trkpt>
      <trkpt lat="47.85889" lon="7.12438">
        <ele>932.6</ele>
        <time>2021-09-28T10:20:52.000Z</time>
      </trkpt>
      <trkpt lat="47.85883" lon="7.12449">
        <ele>931.7</ele>
        <time>2021-09-28T10:20:59.000Z</time>
      </trkpt>
      <trkpt lat="47.85884" lon="7.12462">
        <ele>934</ele>
        <time>2021-09-28T10:21:07.000Z</time>
      </trkpt>
      <trkpt lat="47.85878" lon="7.12474">
        <ele>933.2</ele>
        <time>2021-09-28T10:21:17.000Z</time>
      </trkpt>
      <trkpt lat="47.85877" lon="7.12488">
        <ele>935.2</ele>
        <time>2021-09-28T10:21:22.000Z</time>
      </trkpt>
      <trkpt lat="47.85874" lon="7.12501">
        <ele>935.4</ele>
        <time>2021-09-28T10:21:31.000Z</time>
      </trkpt>
      <trkpt lat="47.8587" lon="7.12515">
        <ele>936.4</ele>
        <time>2021-09-28T10:21:40.000Z</time>
      </trkpt>
      <trkpt lat="47.85864" lon="7.12527">
        <ele>936.3</ele>
        <time>2021-09-28T10:21:47.000Z</time>
      </trkpt>
      <trkpt lat="47.85856" lon="7.12539">
        <ele>935.5</ele>
        <time>2021-09-28T10:21:52.000Z</time>
      </trkpt>
      <trkpt lat="47.8585" lon="7.12548">
        <ele>935</ele>
        <time>2021-09-28T10:21:59.000Z</time>
      </trkpt>
      <trkpt lat="47.85841" lon="7.12552">
        <ele>932.5</ele>
        <time>2021-09-28T10:22:12.000Z</time>
      </trkpt>
      <trkpt lat="47.8583" lon="7.1255">
        <ele>929.4</ele>
        <time>2021-09-28T10:22:19.000Z</time>
      </trkpt>
      <trkpt lat="47.85821" lon="7.12551">
        <ele>929.5</ele>
        <time>2021-09-28T10:22:27.000Z</time>
      </trkpt>
      <trkpt lat="47.85811" lon="7.12549">
        <ele>928.8</ele>
        <time>2021-09-28T10:22:35.000Z</time>
      </trkpt>
      <trkpt lat="47.85802" lon="7.12545">
        <ele>927.7</ele>
        <time>2021-09-28T10:22:41.000Z</time>
      </trkpt>
      <trkpt lat="47.85793" lon="7.1254">
        <ele>926.4</ele>
        <time>2021-09-28T10:22:48.000Z</time>
      </trkpt>
      <trkpt lat="47.85784" lon="7.12537">
        <ele>925.4</ele>
        <time>2021-09-28T10:22:55.000Z</time>
      </trkpt>
      <trkpt lat="47.85775" lon="7.12531">
        <ele>923.6</ele>
        <time>2021-09-28T10:23:06.000Z</time>
      </trkpt>
      <trkpt lat="47.85766" lon="7.12524">
        <ele>921.8</ele>
        <time>2021-09-28T10:23:14.000Z</time>
      </trkpt>
      <trkpt lat="47.85757" lon="7.12518">
        <ele>919.9</ele>
        <time>2021-09-28T10:23:20.000Z</time>
      </trkpt>
      <trkpt lat="47.85748" lon="7.12513">
        <ele>918.9</ele>
        <time>2021-09-28T10:23:26.000Z</time>
      </trkpt>
      <trkpt lat="47.85738" lon="7.12512">
        <ele>920.3</ele>
        <time>2021-09-28T10:23:32.000Z</time>
      </trkpt>
      <trkpt lat="47.85729" lon="7.12511">
        <ele>921.5</ele>
        <time>2021-09-28T10:23:40.000Z</time>
      </trkpt>
      <trkpt lat="47.8572" lon="7.12512">
        <ele>923.7</ele>
        <time>2021-09-28T10:23:49.000Z</time>
      </trkpt>
      <trkpt lat="47.8571" lon="7.12512">
        <ele>925.4</ele>
        <time>2021-09-28T10:23:56.000Z</time>
      </trkpt>
      <trkpt lat="47.85701" lon="7.12509">
        <ele>926.2</ele>
        <time>2021-09-28T10:24:04.000Z</time>
      </trkpt>
      <trkpt lat="47.85692" lon="7.12506">
        <ele>926.7</ele>
        <time>2021-09-28T10:24:12.000Z</time>
      </trkpt>
      <trkpt lat="47.85683" lon="7.12501">
        <ele>926.6</ele>
        <time>2021-09-28T10:24:23.000Z</time>
      </trkpt>
      <trkpt lat="47.85673" lon="7.12494">
        <ele>925.7</ele>
        <time>2021-09-28T10:24:33.000Z</time>
      </trkpt>
      <trkpt lat="47.85664" lon="7.1249">
        <ele>925.8</ele>
        <time>2021-09-28T10:24:40.000Z</time>
      </trkpt>
      <trkpt lat="47.85655" lon="7.1249">
        <ele>928.6</ele>
        <time>2021-09-28T10:24:48.000Z</time>
      </trkpt>
      <trkpt lat="47.85645" lon="7.12488">
        <ele>930.7</ele>
        <time>2021-09-28T10:24:57.000Z</time>
      </trkpt>
      <trkpt lat="47.85635" lon="7.12484">
        <ele>932.2</ele>
        <time>2021-09-28T10:25:02.000Z</time>
      </trkpt>
      <trkpt lat="47.85629" lon="7.12473">
        <ele>929.9</ele>
        <time>2021-09-28T10:25:10.000Z</time>
      </trkpt>
      <trkpt lat="47.85624" lon="7.12461">
        <ele>926.6</ele>
        <time>2021-09-28T10:25:15.000Z</time>
      </trkpt>
      <trkpt lat="47.85616" lon="7.12454">
        <ele>926.4</ele>
        <time>2021-09-28T10:25:24.000Z</time>
      </trkpt>
      <trkpt lat="47.85607" lon="7.12449">
        <ele>927.1</ele>
        <time>2021-09-28T10:25:36.000Z</time>
      </trkpt>
      <trkpt lat="47.85601" lon="7.12438">
        <ele>924.6</ele>
        <time>2021-09-28T10:25:46.000Z</time>
      </trkpt>
      <trkpt lat="47.85593" lon="7.1243">
        <ele>924.1</ele>
        <time>2021-09-28T10:25:53.000Z</time>
      </trkpt>
      <trkpt lat="47.85585" lon="7.12424">
        <ele>924.4</ele>
        <time>2021-09-28T10:26:00.000Z</time>
      </trkpt>
      <trkpt lat="47.85576" lon="7.1242">
        <ele>926.7</ele>
        <time>2021-09-28T10:26:09.000Z</time>
      </trkpt>
      <trkpt lat="47.85567" lon="7.12415">
        <ele>929.3</ele>
        <time>2021-09-28T10:26:14.000Z</time>
      </trkpt>
      <trkpt lat="47.85559" lon="7.12408">
        <ele>930.7</ele>
        <time>2021-09-28T10:26:20.000Z</time>
      </trkpt>
      <trkpt lat="47.85553" lon="7.12397">
        <ele>930.1</ele>
        <time>2021-09-28T10:26:32.000Z</time>
      </trkpt>
      <trkpt lat="47.85546" lon="7.12387">
        <ele>930.3</ele>
        <time>2021-09-28T10:26:39.000Z</time>
      </trkpt>
      <trkpt lat="47.85539" lon="7.12377">
        <ele>930.1</ele>
        <time>2021-09-28T10:26:48.000Z</time>
      </trkpt>
      <trkpt lat="47.85534" lon="7.12366">
        <ele>928.6</ele>
        <time>2021-09-28T10:26:56.000Z</time>
      </trkpt>
      <trkpt lat="47.85527" lon="7.12355">
        <ele>928.2</ele>
        <time>2021-09-28T10:27:07.000Z</time>
      </trkpt>
      <trkpt lat="47.85524" lon="7.12336">
        <ele>922.9</ele>
        <time>2021-09-28T10:27:12.000Z</time>
      </trkpt>
      <trkpt lat="47.85516" lon="7.12328">
        <ele>923.7</ele>
        <time>2021-09-28T10:27:23.000Z</time>
      </trkpt>
      <trkpt lat="47.85511" lon="7.12318">
        <ele>922.7</ele>
        <time>2021-09-28T10:27:29.000Z</time>
      </trkpt>
      <trkpt lat="47.85505" lon="7.12307">
        <ele>921.4</ele>
        <time>2021-09-28T10:27:37.000Z</time>
      </trkpt>
      <trkpt lat="47.85498" lon="7.12298">
        <ele>921.1</ele>
        <time>2021-09-28T10:27:44.000Z</time>
      </trkpt>
      <trkpt lat="47.8549" lon="7.12288">
        <ele>920.3</ele>
        <time>2021-09-28T10:27:51.000Z</time>
      </trkpt>
      <trkpt lat="47.85481" lon="7.12282">
        <ele>921</ele>
        <time>2021-09-28T10:27:58.000Z</time>
      </trkpt>
      <trkpt lat="47.85472" lon="7.12277">
        <ele>922.1</ele>
        <time>2021-09-28T10:28:05.000Z</time>
      </trkpt>
      <trkpt lat="47.85462" lon="7.12273">
        <ele>923.4</ele>
        <time>2021-09-28T10:28:14.000Z</time>
      </trkpt>
      <trkpt lat="47.85454" lon="7.12264">
        <ele>922.9</ele>
        <time>2021-09-28T10:28:22.000Z</time>
      </trkpt>
      <trkpt lat="47.85446" lon="7.12256">
        <ele>922.7</ele>
        <time>2021-09-28T10:28:32.000Z</time>
      </trkpt>
      <trkpt lat="47.85437" lon="7.1225">
        <ele>923.1</ele>
        <time>2021-09-28T10:28:42.000Z</time>
      </trkpt>
      <trkpt lat="47.85429" lon="7.12244">
        <ele>923.8</ele>
        <time>2021-09-28T10:28:51.000Z</time>
      </trkpt>
      <trkpt lat="47.85421" lon="7.12234">
        <ele>923.3</ele>
        <time>2021-09-28T10:28:59.000Z</time>
      </trkpt>
      <trkpt lat="47.85413" lon="7.12225">
        <ele>923.4</ele>
        <time>2021-09-28T10:29:07.000Z</time>
      </trkpt>
      <trkpt lat="47.85407" lon="7.12214">
        <ele>923.1</ele>
        <time>2021-09-28T10:29:14.000Z</time>
      </trkpt>
      <trkpt lat="47.85399" lon="7.12205">
        <ele>923.5</ele>
        <time>2021-09-28T10:29:21.000Z</time>
      </trkpt>
      <trkpt lat="47.85392" lon="7.12196">
        <ele>923.9</ele>
        <time>2021-09-28T10:29:29.000Z</time>
      </trkpt>
      <trkpt lat="47.85386" lon="7.12185">
        <ele>923.7</ele>
        <time>2021-09-28T10:29:37.000Z</time>
      </trkpt>
      <trkpt lat="47.85378" lon="7.12176">
        <ele>924.2</ele>
        <time>2021-09-28T10:29:45.000Z</time>
      </trkpt>
      <trkpt lat="47.8537" lon="7.12168">
        <ele>925.5</ele>
        <time>2021-09-28T10:29:51.000Z</time>
      </trkpt>
      <trkpt lat="47.85364" lon="7.12156">
        <ele>924.6</ele>
        <time>2021-09-28T10:30:01.000Z</time>
      </trkpt>
      <trkpt lat="47.85359" lon="7.12146">
        <ele>924.1</ele>
        <time>2021-09-28T10:30:10.000Z</time>
      </trkpt>
      <trkpt lat="47.85352" lon="7.12136">
        <ele>924</ele>
        <time>2021-09-28T10:30:16.000Z</time>
      </trkpt>
      <trkpt lat="47.85346" lon="7.12125">
        <ele>923.6</ele>
        <time>2021-09-28T10:30:22.000Z</time>
      </trkpt>
      <trkpt lat="47.85342" lon="7.12112">
        <ele>921.6</ele>
        <time>2021-09-28T10:30:30.000Z</time>
      </trkpt>
      <trkpt lat="47.85335" lon="7.12103">
        <ele>921.7</ele>
        <time>2021-09-28T10:30:38.000Z</time>
      </trkpt>
      <trkpt lat="47.85328" lon="7.12093">
        <ele>922</ele>
        <time>2021-09-28T10:30:48.000Z</time>
      </trkpt>
      <trkpt lat="47.85322" lon="7.12082">
        <ele>921.4</ele>
        <time>2021-09-28T10:30:57.000Z</time>
      </trkpt>
      <trkpt lat="47.85315" lon="7.12074">
        <ele>923</ele>
        <time>2021-09-28T10:31:05.000Z</time>
      </trkpt>
      <trkpt lat="47.8531" lon="7.12062">
        <ele>922.2</ele>
        <time>2021-09-28T10:31:13.000Z</time>
      </trkpt>
      <trkpt lat="47.85305" lon="7.12049">
        <ele>921.5</ele>
        <time>2021-09-28T10:31:20.000Z</time>
      </trkpt>
      <trkpt lat="47.853" lon="7.12037">
        <ele>920.7</ele>
        <time>2021-09-28T10:31:26.000Z</time>
      </trkpt>
      <trkpt lat="47.85294" lon="7.12025">
        <ele>920</ele>
        <time>2021-09-28T10:31:35.000Z</time>
      </trkpt>
      <trkpt lat="47.85289" lon="7.12013">
        <ele>919</ele>
        <time>2021-09-28T10:31:43.000Z</time>
      </trkpt>
      <trkpt lat="47.8528" lon="7.12004">
        <ele>919.4</ele>
        <time>2021-09-28T10:31:51.000Z</time>
      </trkpt>
      <trkpt lat="47.85273" lon="7.11994">
        <ele>919.2</ele>
        <time>2021-09-28T10:32:00.000Z</time>
      </trkpt>
      <trkpt lat="47.85267" lon="7.11984">
        <ele>918</ele>
        <time>2021-09-28T10:32:07.000Z</time>
      </trkpt>
      <trkpt lat="47.85258" lon="7.11976">
        <ele>918.1</ele>
        <time>2021-09-28T10:32:16.000Z</time>
      </trkpt>
      <trkpt lat="47.8525" lon="7.11966">
        <ele>917</ele>
        <time>2021-09-28T10:32:23.000Z</time>
      </trkpt>
      <trkpt lat="47.85242" lon="7.11961">
        <ele>916.3</ele>
        <time>2021-09-28T10:32:32.000Z</time>
      </trkpt>
      <trkpt lat="47.85232" lon="7.11958">
        <ele>916.8</ele>
        <time>2021-09-28T10:32:39.000Z</time>
      </trkpt>
      <trkpt lat="47.85222" lon="7.11959">
        <ele>918.5</ele>
        <time>2021-09-28T10:32:45.000Z</time>
      </trkpt>
      <trkpt lat="47.85213" lon="7.11954">
        <ele>917.7</ele>
        <time>2021-09-28T10:32:52.000Z</time>
      </trkpt>
      <trkpt lat="47.85205" lon="7.11948">
        <ele>916.6</ele>
        <time>2021-09-28T10:33:00.000Z</time>
      </trkpt>
      <trkpt lat="47.85195" lon="7.11946">
        <ele>917.1</ele>
        <time>2021-09-28T10:33:10.000Z</time>
      </trkpt>
      <trkpt lat="47.85186" lon="7.11944">
        <ele>917.6</ele>
        <time>2021-09-28T10:33:18.000Z</time>
      </trkpt>
      <trkpt lat="47.85176" lon="7.11942">
        <ele>918.1</ele>
        <time>2021-09-28T10:33:26.000Z</time>
      </trkpt>
      <trkpt lat="47.85167" lon="7.11941">
        <ele>918.7</ele>
        <time>2021-09-28T10:33:33.000Z</time>
      </trkpt>
      <trkpt lat="47.85158" lon="7.1194">
        <ele>919.5</ele>
        <time>2021-09-28T10:33:41.000Z</time>
      </trkpt>
      <trkpt lat="47.85148" lon="7.11936">
        <ele>919.6</ele>
        <time>2021-09-28T10:33:51.000Z</time>
      </trkpt>
      <trkpt lat="47.8514" lon="7.11929">
        <ele>918.2</ele>
        <time>2021-09-28T10:34:00.000Z</time>
      </trkpt>
      <trkpt lat="47.8513" lon="7.11927">
        <ele>919</ele>
        <time>2021-09-28T10:34:07.000Z</time>
      </trkpt>
      <trkpt lat="47.85121" lon="7.11923">
        <ele>919.1</ele>
        <time>2021-09-28T10:34:13.000Z</time>
      </trkpt>
      <trkpt lat="47.85112" lon="7.11916">
        <ele>917.9</ele>
        <time>2021-09-28T10:34:22.000Z</time>
      </trkpt>
      <trkpt lat="47.85102" lon="7.11913">
        <ele>918.3</ele>
        <time>2021-09-28T10:34:28.000Z</time>
      </trkpt>
      <trkpt lat="47.85092" lon="7.11913">
        <ele>919.8</ele>
        <time>2021-09-28T10:34:36.000Z</time>
      </trkpt>
      <trkpt lat="47.85083" lon="7.11908">
        <ele>918.9</ele>
        <time>2021-09-28T10:34:45.000Z</time>
      </trkpt>
      <trkpt lat="47.85074" lon="7.11905">
        <ele>918</ele>
        <time>2021-09-28T10:34:53.000Z</time>
      </trkpt>
      <trkpt lat="47.85064" lon="7.119">
        <ele>916.6</ele>
        <time>2021-09-28T10:35:02.000Z</time>
      </trkpt>
      <trkpt lat="47.85057" lon="7.1189">
        <ele>912.8</ele>
        <time>2021-09-28T10:35:12.000Z</time>
      </trkpt>
      <trkpt lat="47.8505" lon="7.1188">
        <ele>909.7</ele>
        <time>2021-09-28T10:35:19.000Z</time>
      </trkpt>
      <trkpt lat="47.85041" lon="7.11879">
        <ele>910.1</ele>
        <time>2021-09-28T10:35:38.000Z</time>
      </trkpt>
      <trkpt lat="47.85031" lon="7.11885">
        <ele>913.3</ele>
        <time>2021-09-28T10:35:46.000Z</time>
      </trkpt>
      <trkpt lat="47.85022" lon="7.11886">
        <ele>914.9</ele>
        <time>2021-09-28T10:35:52.000Z</time>
      </trkpt>
      <trkpt lat="47.85014" lon="7.11892">
        <ele>917.7</ele>
        <time>2021-09-28T10:35:58.000Z</time>
      </trkpt>
      <trkpt lat="47.85005" lon="7.11895">
        <ele>919.5</ele>
        <time>2021-09-28T10:36:07.000Z</time>
      </trkpt>
      <trkpt lat="47.84996" lon="7.119">
        <ele>921.5</ele>
        <time>2021-09-28T10:36:16.000Z</time>
      </trkpt>
      <trkpt lat="47.84987" lon="7.119">
        <ele>921.5</ele>
        <time>2021-09-28T10:36:24.000Z</time>
      </trkpt>
      <trkpt lat="47.84977" lon="7.11896">
        <ele>920.5</ele>
        <time>2021-09-28T10:36:32.000Z</time>
      </trkpt>
      <trkpt lat="47.84969" lon="7.1189">
        <ele>919.4</ele>
        <time>2021-09-28T10:36:48.000Z</time>
      </trkpt>
      <trkpt lat="47.84961" lon="7.11879">
        <ele>917.4</ele>
        <time>2021-09-28T10:37:06.000Z</time>
      </trkpt>
      <trkpt lat="47.84957" lon="7.11866">
        <ele>915.2</ele>
        <time>2021-09-28T10:37:16.000Z</time>
      </trkpt>
      <trkpt lat="47.84949" lon="7.11858">
        <ele>914.5</ele>
        <time>2021-09-28T10:37:22.000Z</time>
      </trkpt>
      <trkpt lat="47.84942" lon="7.11849">
        <ele>914.1</ele>
        <time>2021-09-28T10:37:31.000Z</time>
      </trkpt>
      <trkpt lat="47.84935" lon="7.1184">
        <ele>914.2</ele>
        <time>2021-09-28T10:37:37.000Z</time>
      </trkpt>
      <trkpt lat="47.84927" lon="7.11831">
        <ele>914.4</ele>
        <time>2021-09-28T10:37:44.000Z</time>
      </trkpt>
      <trkpt lat="47.84921" lon="7.1182">
        <ele>913.6</ele>
        <time>2021-09-28T10:37:53.000Z</time>
      </trkpt>
      <trkpt lat="47.84919" lon="7.11805">
        <ele>911.2</ele>
        <time>2021-09-28T10:38:04.000Z</time>
      </trkpt>
      <trkpt lat="47.84915" lon="7.11793">
        <ele>909.7</ele>
        <time>2021-09-28T10:38:12.000Z</time>
      </trkpt>
      <trkpt lat="47.84908" lon="7.11783">
        <ele>908.4</ele>
        <time>2021-09-28T10:38:20.000Z</time>
      </trkpt>
      <trkpt lat="47.84901" lon="7.11775">
        <ele>907.8</ele>
        <time>2021-09-28T10:38:27.000Z</time>
      </trkpt>
      <trkpt lat="47.84892" lon="7.11769">
        <ele>908.1</ele>
        <time>2021-09-28T10:38:34.000Z</time>
      </trkpt>
      <trkpt lat="47.84882" lon="7.11765">
        <ele>908.8</ele>
        <time>2021-09-28T10:38:40.000Z</time>
      </trkpt>
      <trkpt lat="47.84874" lon="7.11771">
        <ele>910</ele>
        <time>2021-09-28T10:38:47.000Z</time>
      </trkpt>
      <trkpt lat="47.84876" lon="7.11789">
        <ele>910.6</ele>
        <time>2021-09-28T10:39:06.000Z</time>
      </trkpt>
      <trkpt lat="47.84879" lon="7.11797">
        <ele>910.9</ele>
        <time>2021-09-28T10:39:11.000Z</time>
      </trkpt>
      <trkpt lat="47.84884" lon="7.11785">
        <ele>910</ele>
        <time>2021-09-28T10:39:34.000Z</time>
      </trkpt>
      <trkpt lat="47.84877" lon="7.11798">
        <ele>911</ele>
        <time>2021-09-28T10:52:08.000Z</time>
      </trkpt>
      <trkpt lat="47.84872" lon="7.11786">
        <ele>910.7</ele>
        <time>2021-09-28T10:59:53.000Z</time>
      </trkpt>
      <trkpt lat="47.84877" lon="7.11797">
        <ele>910.9</ele>
        <time>2021-09-28T11:00:44.000Z</time>
      </trkpt>
      <trkpt lat="47.84881" lon="7.11785">
        <ele>910.1</ele>
        <time>2021-09-28T11:01:27.000Z</time>
      </trkpt>
      <trkpt lat="47.8488" lon="7.1177">
        <ele>909.4</ele>
        <time>2021-09-28T11:01:33.000Z</time>
      </trkpt>
      <trkpt lat="47.84881" lon="7.11757">
        <ele>908.5</ele>
        <time>2021-09-28T11:01:40.000Z</time>
      </trkpt>
      <trkpt lat="47.84872" lon="7.11763">
        <ele>909.9</ele>
        <time>2021-09-28T11:01:52.000Z</time>
      </trkpt>
      <trkpt lat="47.84869" lon="7.11778">
        <ele>910.6</ele>
        <time>2021-09-28T11:02:02.000Z</time>
      </trkpt>
      <trkpt lat="47.84872" lon="7.11765">
        <ele>910</ele>
        <time>2021-09-28T11:02:33.000Z</time>
      </trkpt>
      <trkpt lat="47.84872" lon="7.11751">
        <ele>909.5</ele>
        <time>2021-09-28T11:02:40.000Z</time>
      </trkpt>
      <trkpt lat="47.84874" lon="7.11736">
        <ele>908.3</ele>
        <time>2021-09-28T11:02:51.000Z</time>
      </trkpt>
      <trkpt lat="47.8487" lon="7.11723">
        <ele>908</ele>
        <time>2021-09-28T11:02:58.000Z</time>
      </trkpt>
      <trkpt lat="47.8487" lon="7.11709">
        <ele>907</ele>
        <time>2021-09-28T11:03:06.000Z</time>
      </trkpt>
      <trkpt lat="47.84868" lon="7.11694">
        <ele>906.6</ele>
        <time>2021-09-28T11:03:13.000Z</time>
      </trkpt>
      <trkpt lat="47.84865" lon="7.11679">
        <ele>906.3</ele>
        <time>2021-09-28T11:03:21.000Z</time>
      </trkpt>
      <trkpt lat="47.84863" lon="7.11661">
        <ele>905.7</ele>
        <time>2021-09-28T11:03:26.000Z</time>
      </trkpt>
      <trkpt lat="47.84859" lon="7.11639">
        <ele>905.1</ele>
        <time>2021-09-28T11:03:31.000Z</time>
      </trkpt>
      <trkpt lat="47.84854" lon="7.11627">
        <ele>905.6</ele>
        <time>2021-09-28T11:03:38.000Z</time>
      </trkpt>
      <trkpt lat="47.84853" lon="7.11613">
        <ele>904.7</ele>
        <time>2021-09-28T11:03:54.000Z</time>
      </trkpt>
      <trkpt lat="47.84852" lon="7.11599">
        <ele>903.7</ele>
        <time>2021-09-28T11:04:02.000Z</time>
      </trkpt>
      <trkpt lat="47.84852" lon="7.11584">
        <ele>902.7</ele>
        <time>2021-09-28T11:04:09.000Z</time>
      </trkpt>
      <trkpt lat="47.84855" lon="7.11569">
        <ele>898.7</ele>
        <time>2021-09-28T11:04:18.000Z</time>
      </trkpt>
      <trkpt lat="47.84858" lon="7.11555">
        <ele>894.6</ele>
        <time>2021-09-28T11:04:25.000Z</time>
      </trkpt>
      <trkpt lat="47.8486" lon="7.11539">
        <ele>890.6</ele>
        <time>2021-09-28T11:04:33.000Z</time>
      </trkpt>
      <trkpt lat="47.84859" lon="7.11525">
        <ele>887.8</ele>
        <time>2021-09-28T11:04:40.000Z</time>
      </trkpt>
      <trkpt lat="47.84854" lon="7.11512">
        <ele>886.3</ele>
        <time>2021-09-28T11:04:47.000Z</time>
      </trkpt>
      <trkpt lat="47.84845" lon="7.11507">
        <ele>887.5</ele>
        <time>2021-09-28T11:04:54.000Z</time>
      </trkpt>
      <trkpt lat="47.84835" lon="7.11507">
        <ele>890</ele>
        <time>2021-09-28T11:05:03.000Z</time>
      </trkpt>
      <trkpt lat="47.84826" lon="7.11505">
        <ele>888.9</ele>
        <time>2021-09-28T11:05:11.000Z</time>
      </trkpt>
      <trkpt lat="47.84818" lon="7.11515">
        <ele>889.9</ele>
        <time>2021-09-28T11:05:18.000Z</time>
      </trkpt>
      <trkpt lat="47.84811" lon="7.11525">
        <ele>891</ele>
        <time>2021-09-28T11:05:25.000Z</time>
      </trkpt>
      <trkpt lat="47.84804" lon="7.11535">
        <ele>892.4</ele>
        <time>2021-09-28T11:05:31.000Z</time>
      </trkpt>
      <trkpt lat="47.84798" lon="7.11545">
        <ele>894</ele>
        <time>2021-09-28T11:05:37.000Z</time>
      </trkpt>
      <trkpt lat="47.8479" lon="7.11552">
        <ele>894.6</ele>
        <time>2021-09-28T11:05:44.000Z</time>
      </trkpt>
      <trkpt lat="47.84781" lon="7.1156">
        <ele>895.1</ele>
        <time>2021-09-28T11:05:50.000Z</time>
      </trkpt>
      <trkpt lat="47.84772" lon="7.11568">
        <ele>895.9</ele>
        <time>2021-09-28T11:05:58.000Z</time>
      </trkpt>
      <trkpt lat="47.84764" lon="7.11577">
        <ele>897.3</ele>
        <time>2021-09-28T11:06:07.000Z</time>
      </trkpt>
      <trkpt lat="47.84754" lon="7.1158">
        <ele>896.7</ele>
        <time>2021-09-28T11:06:16.000Z</time>
      </trkpt>
      <trkpt lat="47.84745" lon="7.11584">
        <ele>895.7</ele>
        <time>2021-09-28T11:06:22.000Z</time>
      </trkpt>
      <trkpt lat="47.84735" lon="7.11588">
        <ele>893.8</ele>
        <time>2021-09-28T11:06:30.000Z</time>
      </trkpt>
      <trkpt lat="47.84724" lon="7.11585">
        <ele>890.4</ele>
        <time>2021-09-28T11:06:36.000Z</time>
      </trkpt>
      <trkpt lat="47.84714" lon="7.11587">
        <ele>888.1</ele>
        <time>2021-09-28T11:06:41.000Z</time>
      </trkpt>
      <trkpt lat="47.84708" lon="7.11598">
        <ele>888.5</ele>
        <time>2021-09-28T11:06:49.000Z</time>
      </trkpt>
      <trkpt lat="47.847" lon="7.11605">
        <ele>887.9</ele>
        <time>2021-09-28T11:06:56.000Z</time>
      </trkpt>
      <trkpt lat="47.84695" lon="7.11617">
        <ele>888.8</ele>
        <time>2021-09-28T11:07:04.000Z</time>
      </trkpt>
      <trkpt lat="47.84685" lon="7.11624">
        <ele>887.9</ele>
        <time>2021-09-28T11:07:12.000Z</time>
      </trkpt>
      <trkpt lat="47.84676" lon="7.11626">
        <ele>886.3</ele>
        <time>2021-09-28T11:07:19.000Z</time>
      </trkpt>
      <trkpt lat="47.84666" lon="7.11626">
        <ele>884.1</ele>
        <time>2021-09-28T11:07:25.000Z</time>
      </trkpt>
      <trkpt lat="47.84657" lon="7.11627">
        <ele>883.9</ele>
        <time>2021-09-28T11:07:33.000Z</time>
      </trkpt>
      <trkpt lat="47.84648" lon="7.11627">
        <ele>883.5</ele>
        <time>2021-09-28T11:07:40.000Z</time>
      </trkpt>
      <trkpt lat="47.84639" lon="7.11629">
        <ele>883.4</ele>
        <time>2021-09-28T11:07:47.000Z</time>
      </trkpt>
      <trkpt lat="47.84629" lon="7.11627">
        <ele>882.5</ele>
        <time>2021-09-28T11:07:55.000Z</time>
      </trkpt>
      <trkpt lat="47.8462" lon="7.11629">
        <ele>882.4</ele>
        <time>2021-09-28T11:08:03.000Z</time>
      </trkpt>
      <trkpt lat="47.84611" lon="7.11627">
        <ele>881.5</ele>
        <time>2021-09-28T11:08:09.000Z</time>
      </trkpt>
      <trkpt lat="47.84602" lon="7.11623">
        <ele>880.6</ele>
        <time>2021-09-28T11:08:19.000Z</time>
      </trkpt>
      <trkpt lat="47.84592" lon="7.1162">
        <ele>879.8</ele>
        <time>2021-09-28T11:08:26.000Z</time>
      </trkpt>
      <trkpt lat="47.84583" lon="7.11619">
        <ele>879.3</ele>
        <time>2021-09-28T11:08:33.000Z</time>
      </trkpt>
      <trkpt lat="47.84573" lon="7.11614">
        <ele>879.2</ele>
        <time>2021-09-28T11:08:40.000Z</time>
      </trkpt>
      <trkpt lat="47.84565" lon="7.11607">
        <ele>878.8</ele>
        <time>2021-09-28T11:08:46.000Z</time>
      </trkpt>
      <trkpt lat="47.84557" lon="7.116">
        <ele>878.4</ele>
        <time>2021-09-28T11:08:53.000Z</time>
      </trkpt>
      <trkpt lat="47.84547" lon="7.11595">
        <ele>878.5</ele>
        <time>2021-09-28T11:09:01.000Z</time>
      </trkpt>
      <trkpt lat="47.84536" lon="7.11587">
        <ele>878.2</ele>
        <time>2021-09-28T11:09:06.000Z</time>
      </trkpt>
      <trkpt lat="47.84527" lon="7.11583">
        <ele>878.1</ele>
        <time>2021-09-28T11:09:13.000Z</time>
      </trkpt>
      <trkpt lat="47.84518" lon="7.11584">
        <ele>879</ele>
        <time>2021-09-28T11:09:25.000Z</time>
      </trkpt>
      <trkpt lat="47.84507" lon="7.11581">
        <ele>878.8</ele>
        <time>2021-09-28T11:09:31.000Z</time>
      </trkpt>
      <trkpt lat="47.84498" lon="7.11578">
        <ele>878.9</ele>
        <time>2021-09-28T11:09:37.000Z</time>
      </trkpt>
      <trkpt lat="47.84489" lon="7.11574">
        <ele>880.1</ele>
        <time>2021-09-28T11:09:42.000Z</time>
      </trkpt>
      <trkpt lat="47.84481" lon="7.11567">
        <ele>880.1</ele>
        <time>2021-09-28T11:09:50.000Z</time>
      </trkpt>
      <trkpt lat="47.84473" lon="7.1156">
        <ele>880.4</ele>
        <time>2021-09-28T11:09:59.000Z</time>
      </trkpt>
      <trkpt lat="47.84465" lon="7.1155">
        <ele>880</ele>
        <time>2021-09-28T11:10:09.000Z</time>
      </trkpt>
      <trkpt lat="47.84457" lon="7.1154">
        <ele>880.1</ele>
        <time>2021-09-28T11:10:15.000Z</time>
      </trkpt>
      <trkpt lat="47.84451" lon="7.11531">
        <ele>879.7</ele>
        <time>2021-09-28T11:10:22.000Z</time>
      </trkpt>
      <trkpt lat="47.84445" lon="7.11521">
        <ele>879.6</ele>
        <time>2021-09-28T11:10:31.000Z</time>
      </trkpt>
      <trkpt lat="47.84438" lon="7.11509">
        <ele>879.4</ele>
        <time>2021-09-28T11:10:39.000Z</time>
      </trkpt>
      <trkpt lat="47.84431" lon="7.11498">
        <ele>879.6</ele>
        <time>2021-09-28T11:10:45.000Z</time>
      </trkpt>
      <trkpt lat="47.84427" lon="7.11487">
        <ele>878.7</ele>
        <time>2021-09-28T11:10:50.000Z</time>
      </trkpt>
      <trkpt lat="47.84421" lon="7.11474">
        <ele>878</ele>
        <time>2021-09-28T11:10:58.000Z</time>
      </trkpt>
      <trkpt lat="47.84416" lon="7.11461">
        <ele>877.4</ele>
        <time>2021-09-28T11:11:06.000Z</time>
      </trkpt>
      <trkpt lat="47.84415" lon="7.11447">
        <ele>874.8</ele>
        <time>2021-09-28T11:11:14.000Z</time>
      </trkpt>
      <trkpt lat="47.84409" lon="7.11436">
        <ele>874.7</ele>
        <time>2021-09-28T11:11:21.000Z</time>
      </trkpt>
      <trkpt lat="47.84407" lon="7.11422">
        <ele>873</ele>
        <time>2021-09-28T11:11:29.000Z</time>
      </trkpt>
      <trkpt lat="47.84403" lon="7.11408">
        <ele>872.1</ele>
        <time>2021-09-28T11:11:37.000Z</time>
      </trkpt>
      <trkpt lat="47.844" lon="7.11395">
        <ele>871.2</ele>
        <time>2021-09-28T11:11:43.000Z</time>
      </trkpt>
      <trkpt lat="47.84397" lon="7.11382">
        <ele>869.8</ele>
        <time>2021-09-28T11:11:50.000Z</time>
      </trkpt>
      <trkpt lat="47.84393" lon="7.11369">
        <ele>869</ele>
        <time>2021-09-28T11:11:58.000Z</time>
      </trkpt>
      <trkpt lat="47.84389" lon="7.11356">
        <ele>868.1</ele>
        <time>2021-09-28T11:12:05.000Z</time>
      </trkpt>
      <trkpt lat="47.84388" lon="7.11341">
        <ele>865.5</ele>
        <time>2021-09-28T11:12:13.000Z</time>
      </trkpt>
      <trkpt lat="47.84387" lon="7.11326">
        <ele>862.2</ele>
        <time>2021-09-28T11:12:19.000Z</time>
      </trkpt>
      <trkpt lat="47.84385" lon="7.11312">
        <ele>857.8</ele>
        <time>2021-09-28T11:12:26.000Z</time>
      </trkpt>
      <trkpt lat="47.84381" lon="7.11299">
        <ele>855.3</ele>
        <time>2021-09-28T11:12:35.000Z</time>
      </trkpt>
      <trkpt lat="47.84375" lon="7.11287">
        <ele>852.9</ele>
        <time>2021-09-28T11:12:43.000Z</time>
      </trkpt>
      <trkpt lat="47.84368" lon="7.11277">
        <ele>851.9</ele>
        <time>2021-09-28T11:12:48.000Z</time>
      </trkpt>
      <trkpt lat="47.84362" lon="7.11267">
        <ele>850.5</ele>
        <time>2021-09-28T11:12:54.000Z</time>
      </trkpt>
      <trkpt lat="47.84353" lon="7.11261">
        <ele>850.9</ele>
        <time>2021-09-28T11:13:01.000Z</time>
      </trkpt>
      <trkpt lat="47.84342" lon="7.11263">
        <ele>855.3</ele>
        <time>2021-09-28T11:13:10.000Z</time>
      </trkpt>
      <trkpt lat="47.8433" lon="7.11258">
        <ele>855.2</ele>
        <time>2021-09-28T11:13:15.000Z</time>
      </trkpt>
      <trkpt lat="47.84321" lon="7.11252">
        <ele>850.2</ele>
        <time>2021-09-28T11:13:20.000Z</time>
      </trkpt>
      <trkpt lat="47.84312" lon="7.1125">
        <ele>846.7</ele>
        <time>2021-09-28T11:13:26.000Z</time>
      </trkpt>
      <trkpt lat="47.84304" lon="7.11237">
        <ele>839.2</ele>
        <time>2021-09-28T11:13:39.000Z</time>
      </trkpt>
      <trkpt lat="47.84316" lon="7.11292">
        <ele>865.6</ele>
        <time>2021-09-28T11:13:44.000Z</time>
      </trkpt>
      <trkpt lat="47.84331" lon="7.11291">
        <ele>868.9</ele>
        <time>2021-09-28T11:13:54.000Z</time>
      </trkpt>
      <trkpt lat="47.84321" lon="7.1125">
        <ele>849.3</ele>
        <time>2021-09-28T11:13:59.000Z</time>
      </trkpt>
      <trkpt lat="47.84307" lon="7.11257">
        <ele>848.3</ele>
        <time>2021-09-28T11:14:04.000Z</time>
      </trkpt>
      <trkpt lat="47.84312" lon="7.11269">
        <ele>854.6</ele>
        <time>2021-09-28T11:14:12.000Z</time>
      </trkpt>
      <trkpt lat="47.843" lon="7.11285">
        <ele>858.5</ele>
        <time>2021-09-28T11:15:26.000Z</time>
      </trkpt>
      <trkpt lat="47.8429" lon="7.11278">
        <ele>852.7</ele>
        <time>2021-09-28T11:15:48.000Z</time>
      </trkpt>
      <trkpt lat="47.84282" lon="7.11283">
        <ele>852.6</ele>
        <time>2021-09-28T11:16:00.000Z</time>
      </trkpt>
      <trkpt lat="47.84271" lon="7.11287">
        <ele>852</ele>
        <time>2021-09-28T11:16:10.000Z</time>
      </trkpt>
      <trkpt lat="47.84265" lon="7.11297">
        <ele>854.6</ele>
        <time>2021-09-28T11:16:18.000Z</time>
      </trkpt>
      <trkpt lat="47.84255" lon="7.11303">
        <ele>854.9</ele>
        <time>2021-09-28T11:16:25.000Z</time>
      </trkpt>
      <trkpt lat="47.84247" lon="7.11309">
        <ele>855.7</ele>
        <time>2021-09-28T11:16:31.000Z</time>
      </trkpt>
      <trkpt lat="47.84239" lon="7.11318">
        <ele>856.8</ele>
        <time>2021-09-28T11:16:38.000Z</time>
      </trkpt>
      <trkpt lat="47.84229" lon="7.11324">
        <ele>855.9</ele>
        <time>2021-09-28T11:16:45.000Z</time>
      </trkpt>
      <trkpt lat="47.8422" lon="7.1133">
        <ele>855.1</ele>
        <time>2021-09-28T11:16:54.000Z</time>
      </trkpt>
      <trkpt lat="47.84213" lon="7.11339">
        <ele>855.8</ele>
        <time>2021-09-28T11:17:02.000Z</time>
      </trkpt>
      <trkpt lat="47.84207" lon="7.11352">
        <ele>857.2</ele>
        <time>2021-09-28T11:17:10.000Z</time>
      </trkpt>
      <trkpt lat="47.842" lon="7.1136">
        <ele>857.2</ele>
        <time>2021-09-28T11:17:18.000Z</time>
      </trkpt>
      <trkpt lat="47.84191" lon="7.1137">
        <ele>857</ele>
        <time>2021-09-28T11:17:26.000Z</time>
      </trkpt>
      <trkpt lat="47.84182" lon="7.11377">
        <ele>856.2</ele>
        <time>2021-09-28T11:17:34.000Z</time>
      </trkpt>
      <trkpt lat="47.84172" lon="7.11378">
        <ele>853.3</ele>
        <time>2021-09-28T11:17:39.000Z</time>
      </trkpt>
      <trkpt lat="47.84163" lon="7.11377">
        <ele>850.7</ele>
        <time>2021-09-28T11:17:44.000Z</time>
      </trkpt>
      <trkpt lat="47.84154" lon="7.11378">
        <ele>849.8</ele>
        <time>2021-09-28T11:17:51.000Z</time>
      </trkpt>
      <trkpt lat="47.84143" lon="7.11382">
        <ele>849.4</ele>
        <time>2021-09-28T11:17:57.000Z</time>
      </trkpt>
      <trkpt lat="47.84134" lon="7.11387">
        <ele>849.4</ele>
        <time>2021-09-28T11:18:04.000Z</time>
      </trkpt>
      <trkpt lat="47.84127" lon="7.11395">
        <ele>850.8</ele>
        <time>2021-09-28T11:18:11.000Z</time>
      </trkpt>
      <trkpt lat="47.84118" lon="7.114">
        <ele>851.2</ele>
        <time>2021-09-28T11:18:18.000Z</time>
      </trkpt>
      <trkpt lat="47.84109" lon="7.11402">
        <ele>850.1</ele>
        <time>2021-09-28T11:18:25.000Z</time>
      </trkpt>
      <trkpt lat="47.841" lon="7.11405">
        <ele>849.6</ele>
        <time>2021-09-28T11:18:32.000Z</time>
      </trkpt>
      <trkpt lat="47.84091" lon="7.11411">
        <ele>849.8</ele>
        <time>2021-09-28T11:18:40.000Z</time>
      </trkpt>
      <trkpt lat="47.84083" lon="7.11419">
        <ele>850.1</ele>
        <time>2021-09-28T11:18:50.000Z</time>
      </trkpt>
      <trkpt lat="47.84074" lon="7.1142">
        <ele>853</ele>
        <time>2021-09-28T11:19:13.000Z</time>
      </trkpt>
      <trkpt lat="47.84065" lon="7.11412">
        <ele>854.9</ele>
        <time>2021-09-28T11:19:20.000Z</time>
      </trkpt>
      <trkpt lat="47.84057" lon="7.11403">
        <ele>855</ele>
        <time>2021-09-28T11:19:27.000Z</time>
      </trkpt>
      <trkpt lat="47.84048" lon="7.11399">
        <ele>856.9</ele>
        <time>2021-09-28T11:19:34.000Z</time>
      </trkpt>
      <trkpt lat="47.8404" lon="7.11391">
        <ele>857.5</ele>
        <time>2021-09-28T11:19:43.000Z</time>
      </trkpt>
      <trkpt lat="47.84033" lon="7.11382">
        <ele>857.8</ele>
        <time>2021-09-28T11:19:51.000Z</time>
      </trkpt>
      <trkpt lat="47.84028" lon="7.1137">
        <ele>856.5</ele>
        <time>2021-09-28T11:19:59.000Z</time>
      </trkpt>
      <trkpt lat="47.84022" lon="7.11359">
        <ele>855.8</ele>
        <time>2021-09-28T11:20:06.000Z</time>
      </trkpt>
      <trkpt lat="47.8402" lon="7.11346">
        <ele>853.1</ele>
        <time>2021-09-28T11:20:13.000Z</time>
      </trkpt>
      <trkpt lat="47.84022" lon="7.11332">
        <ele>849.2</ele>
        <time>2021-09-28T11:20:21.000Z</time>
      </trkpt>
      <trkpt lat="47.8402" lon="7.11317">
        <ele>844.6</ele>
        <time>2021-09-28T11:20:29.000Z</time>
      </trkpt>
      <trkpt lat="47.84017" lon="7.11303">
        <ele>841.4</ele>
        <time>2021-09-28T11:20:36.000Z</time>
      </trkpt>
      <trkpt lat="47.8401" lon="7.11294">
        <ele>841.2</ele>
        <time>2021-09-28T11:20:44.000Z</time>
      </trkpt>
      <trkpt lat="47.84004" lon="7.11282">
        <ele>840.1</ele>
        <time>2021-09-28T11:20:53.000Z</time>
      </trkpt>
      <trkpt lat="47.83997" lon="7.11271">
        <ele>840.2</ele>
        <time>2021-09-28T11:21:00.000Z</time>
      </trkpt>
      <trkpt lat="47.8399" lon="7.1126">
        <ele>840.8</ele>
        <time>2021-09-28T11:21:07.000Z</time>
      </trkpt>
      <trkpt lat="47.83987" lon="7.11247">
        <ele>838.7</ele>
        <time>2021-09-28T11:21:15.000Z</time>
      </trkpt>
      <trkpt lat="47.83984" lon="7.11232">
        <ele>836.5</ele>
        <time>2021-09-28T11:21:22.000Z</time>
      </trkpt>
      <trkpt lat="47.83983" lon="7.11218">
        <ele>833.3</ele>
        <time>2021-09-28T11:21:29.000Z</time>
      </trkpt>
      <trkpt lat="47.83981" lon="7.11204">
        <ele>830.9</ele>
        <time>2021-09-28T11:21:34.000Z</time>
      </trkpt>
      <trkpt lat="47.83977" lon="7.11191">
        <ele>829.5</ele>
        <time>2021-09-28T11:21:40.000Z</time>
      </trkpt>
      <trkpt lat="47.83971" lon="7.1118">
        <ele>829.8</ele>
        <time>2021-09-28T11:21:47.000Z</time>
      </trkpt>
      <trkpt lat="47.83965" lon="7.1117">
        <ele>830.9</ele>
        <time>2021-09-28T11:21:53.000Z</time>
      </trkpt>
      <trkpt lat="47.83962" lon="7.11157">
        <ele>829.4</ele>
        <time>2021-09-28T11:22:00.000Z</time>
      </trkpt>
      <trkpt lat="47.83957" lon="7.11145">
        <ele>829.8</ele>
        <time>2021-09-28T11:22:08.000Z</time>
      </trkpt>
      <trkpt lat="47.83953" lon="7.11132">
        <ele>828.7</ele>
        <time>2021-09-28T11:22:15.000Z</time>
      </trkpt>
      <trkpt lat="47.83946" lon="7.11121">
        <ele>830.4</ele>
        <time>2021-09-28T11:22:21.000Z</time>
      </trkpt>
      <trkpt lat="47.83941" lon="7.11109">
        <ele>830.7</ele>
        <time>2021-09-28T11:22:29.000Z</time>
      </trkpt>
      <trkpt lat="47.83935" lon="7.11096">
        <ele>831.1</ele>
        <time>2021-09-28T11:22:37.000Z</time>
      </trkpt>
      <trkpt lat="47.83932" lon="7.11084">
        <ele>830.2</ele>
        <time>2021-09-28T11:22:44.000Z</time>
      </trkpt>
      <trkpt lat="47.83927" lon="7.11071">
        <ele>829</ele>
        <time>2021-09-28T11:22:51.000Z</time>
      </trkpt>
      <trkpt lat="47.83926" lon="7.11056">
        <ele>825.1</ele>
        <time>2021-09-28T11:22:59.000Z</time>
      </trkpt>
      <trkpt lat="47.83922" lon="7.11043">
        <ele>823.3</ele>
        <time>2021-09-28T11:23:06.000Z</time>
      </trkpt>
      <trkpt lat="47.83916" lon="7.1103">
        <ele>821.8</ele>
        <time>2021-09-28T11:23:15.000Z</time>
      </trkpt>
      <trkpt lat="47.83911" lon="7.11019">
        <ele>818.5</ele>
        <time>2021-09-28T11:23:21.000Z</time>
      </trkpt>
      <trkpt lat="47.83904" lon="7.11008">
        <ele>815.9</ele>
        <time>2021-09-28T11:23:28.000Z</time>
      </trkpt>
      <trkpt lat="47.83896" lon="7.11004">
        <ele>815.4</ele>
        <time>2021-09-28T11:23:36.000Z</time>
      </trkpt>
      <trkpt lat="47.83886" lon="7.11002">
        <ele>815.9</ele>
        <time>2021-09-28T11:23:43.000Z</time>
      </trkpt>
      <trkpt lat="47.83877" lon="7.10996">
        <ele>815</ele>
        <time>2021-09-28T11:23:53.000Z</time>
      </trkpt>
      <trkpt lat="47.83869" lon="7.10988">
        <ele>813</ele>
        <time>2021-09-28T11:24:01.000Z</time>
      </trkpt>
      <trkpt lat="47.83863" lon="7.10977">
        <ele>810.3</ele>
        <time>2021-09-28T11:24:07.000Z</time>
      </trkpt>
      <trkpt lat="47.83858" lon="7.10966">
        <ele>807.7</ele>
        <time>2021-09-28T11:24:14.000Z</time>
      </trkpt>
      <trkpt lat="47.83851" lon="7.10955">
        <ele>805.5</ele>
        <time>2021-09-28T11:24:23.000Z</time>
      </trkpt>
      <trkpt lat="47.83842" lon="7.10946">
        <ele>804.9</ele>
        <time>2021-09-28T11:24:32.000Z</time>
      </trkpt>
      <trkpt lat="47.83836" lon="7.10935">
        <ele>803.2</ele>
        <time>2021-09-28T11:24:38.000Z</time>
      </trkpt>
      <trkpt lat="47.83829" lon="7.10924">
        <ele>800</ele>
        <time>2021-09-28T11:24:45.000Z</time>
      </trkpt>
      <trkpt lat="47.83821" lon="7.10915">
        <ele>796.4</ele>
        <time>2021-09-28T11:24:52.000Z</time>
      </trkpt>
      <trkpt lat="47.83814" lon="7.10906">
        <ele>793</ele>
        <time>2021-09-28T11:24:57.000Z</time>
      </trkpt>
      <trkpt lat="47.83809" lon="7.10895">
        <ele>789.5</ele>
        <time>2021-09-28T11:25:04.000Z</time>
      </trkpt>
      <trkpt lat="47.83804" lon="7.10884">
        <ele>786.5</ele>
        <time>2021-09-28T11:25:13.000Z</time>
      </trkpt>
      <trkpt lat="47.83796" lon="7.10874">
        <ele>784.4</ele>
        <time>2021-09-28T11:25:22.000Z</time>
      </trkpt>
      <trkpt lat="47.8379" lon="7.10862">
        <ele>782.2</ele>
        <time>2021-09-28T11:25:30.000Z</time>
      </trkpt>
      <trkpt lat="47.83785" lon="7.10851">
        <ele>780.9</ele>
        <time>2021-09-28T11:25:38.000Z</time>
      </trkpt>
      <trkpt lat="47.83775" lon="7.10851">
        <ele>781.8</ele>
        <time>2021-09-28T11:25:45.000Z</time>
      </trkpt>
      <trkpt lat="47.83765" lon="7.10851">
        <ele>782.8</ele>
        <time>2021-09-28T11:25:52.000Z</time>
      </trkpt>
      <trkpt lat="47.83755" lon="7.1085">
        <ele>783.7</ele>
        <time>2021-09-28T11:26:30.000Z</time>
      </trkpt>
      <trkpt lat="47.8375" lon="7.10839">
        <ele>784</ele>
        <time>2021-09-28T11:26:35.000Z</time>
      </trkpt>
      <trkpt lat="47.83746" lon="7.10827">
        <ele>782.5</ele>
        <time>2021-09-28T11:26:43.000Z</time>
      </trkpt>
      <trkpt lat="47.83741" lon="7.10813">
        <ele>781.1</ele>
        <time>2021-09-28T11:26:50.000Z</time>
      </trkpt>
      <trkpt lat="47.83737" lon="7.10801">
        <ele>780.1</ele>
        <time>2021-09-28T11:26:57.000Z</time>
      </trkpt>
      <trkpt lat="47.83739" lon="7.10787">
        <ele>780.2</ele>
        <time>2021-09-28T11:27:03.000Z</time>
      </trkpt>
      <trkpt lat="47.83742" lon="7.10774">
        <ele>780.3</ele>
        <time>2021-09-28T11:27:12.000Z</time>
      </trkpt>
      <trkpt lat="47.83741" lon="7.1076">
        <ele>779.9</ele>
        <time>2021-09-28T11:27:20.000Z</time>
      </trkpt>
      <trkpt lat="47.83741" lon="7.10745">
        <ele>779.3</ele>
        <time>2021-09-28T11:27:28.000Z</time>
      </trkpt>
      <trkpt lat="47.83738" lon="7.10731">
        <ele>778.2</ele>
        <time>2021-09-28T11:27:35.000Z</time>
      </trkpt>
      <trkpt lat="47.83737" lon="7.10717">
        <ele>777.3</ele>
        <time>2021-09-28T11:27:42.000Z</time>
      </trkpt>
      <trkpt lat="47.83736" lon="7.10702">
        <ele>776.4</ele>
        <time>2021-09-28T11:27:49.000Z</time>
      </trkpt>
      <trkpt lat="47.83736" lon="7.10687">
        <ele>775.4</ele>
        <time>2021-09-28T11:27:58.000Z</time>
      </trkpt>
      <trkpt lat="47.83737" lon="7.10672">
        <ele>774.3</ele>
        <time>2021-09-28T11:28:06.000Z</time>
      </trkpt>
      <trkpt lat="47.83737" lon="7.10658">
        <ele>773.3</ele>
        <time>2021-09-28T11:28:13.000Z</time>
      </trkpt>
      <trkpt lat="47.83738" lon="7.10644">
        <ele>772</ele>
        <time>2021-09-28T11:28:21.000Z</time>
      </trkpt>
      <trkpt lat="47.83736" lon="7.1063">
        <ele>771.5</ele>
        <time>2021-09-28T11:28:29.000Z</time>
      </trkpt>
      <trkpt lat="47.83734" lon="7.10616">
        <ele>771</ele>
        <time>2021-09-28T11:28:37.000Z</time>
      </trkpt>
      <trkpt lat="47.83732" lon="7.10601">
        <ele>770.6</ele>
        <time>2021-09-28T11:28:44.000Z</time>
      </trkpt>
      <trkpt lat="47.83732" lon="7.10587">
        <ele>770</ele>
        <time>2021-09-28T11:28:51.000Z</time>
      </trkpt>
      <trkpt lat="47.83731" lon="7.10573">
        <ele>769</ele>
        <time>2021-09-28T11:28:59.000Z</time>
      </trkpt>
      <trkpt lat="47.83728" lon="7.10559">
        <ele>768.4</ele>
        <time>2021-09-28T11:29:41.000Z</time>
      </trkpt>
      <trkpt lat="47.83731" lon="7.10546">
        <ele>766.1</ele>
        <time>2021-09-28T11:29:48.000Z</time>
      </trkpt>
      <trkpt lat="47.8373" lon="7.10531">
        <ele>764.7</ele>
        <time>2021-09-28T11:29:57.000Z</time>
      </trkpt>
      <trkpt lat="47.83727" lon="7.10517">
        <ele>764.3</ele>
        <time>2021-09-28T11:30:05.000Z</time>
      </trkpt>
      <trkpt lat="47.83721" lon="7.10506">
        <ele>765.2</ele>
        <time>2021-09-28T11:30:12.000Z</time>
      </trkpt>
      <trkpt lat="47.83714" lon="7.10496">
        <ele>766.3</ele>
        <time>2021-09-28T11:30:19.000Z</time>
      </trkpt>
      <trkpt lat="47.83704" lon="7.10496">
        <ele>770</ele>
        <time>2021-09-28T11:30:27.000Z</time>
      </trkpt>
      <trkpt lat="47.83696" lon="7.10487">
        <ele>770.5</ele>
        <time>2021-09-28T11:30:37.000Z</time>
      </trkpt>
      <trkpt lat="47.83688" lon="7.10477">
        <ele>771</ele>
        <time>2021-09-28T11:30:44.000Z</time>
      </trkpt>
      <trkpt lat="47.83682" lon="7.10466">
        <ele>770.3</ele>
        <time>2021-09-28T11:30:52.000Z</time>
      </trkpt>
      <trkpt lat="47.83672" lon="7.10466">
        <ele>773.6</ele>
        <time>2021-09-28T11:31:00.000Z</time>
      </trkpt>
      <trkpt lat="47.83665" lon="7.10456">
        <ele>772.6</ele>
        <time>2021-09-28T11:31:07.000Z</time>
      </trkpt>
      <trkpt lat="47.83657" lon="7.10446">
        <ele>769.6</ele>
        <time>2021-09-28T11:31:14.000Z</time>
      </trkpt>
      <trkpt lat="47.83652" lon="7.10435">
        <ele>766.8</ele>
        <time>2021-09-28T11:31:20.000Z</time>
      </trkpt>
      <trkpt lat="47.83644" lon="7.10426">
        <ele>765</ele>
        <time>2021-09-28T11:31:28.000Z</time>
      </trkpt>
      <trkpt lat="47.83635" lon="7.10422">
        <ele>764.7</ele>
        <time>2021-09-28T11:31:35.000Z</time>
      </trkpt>
      <trkpt lat="47.83625" lon="7.10419">
        <ele>764.8</ele>
        <time>2021-09-28T11:31:43.000Z</time>
      </trkpt>
      <trkpt lat="47.83616" lon="7.10417">
        <ele>765.1</ele>
        <time>2021-09-28T11:31:52.000Z</time>
      </trkpt>
      <trkpt lat="47.83608" lon="7.10411">
        <ele>764.5</ele>
        <time>2021-09-28T11:32:00.000Z</time>
      </trkpt>
      <trkpt lat="47.83599" lon="7.10405">
        <ele>764.2</ele>
        <time>2021-09-28T11:32:07.000Z</time>
      </trkpt>
      <trkpt lat="47.83591" lon="7.10397">
        <ele>763.9</ele>
        <time>2021-09-28T11:32:13.000Z</time>
      </trkpt>
      <trkpt lat="47.83583" lon="7.10389">
        <ele>764</ele>
        <time>2021-09-28T11:32:21.000Z</time>
      </trkpt>
      <trkpt lat="47.83577" lon="7.10379">
        <ele>763.4</ele>
        <time>2021-09-28T11:32:30.000Z</time>
      </trkpt>
      <trkpt lat="47.83569" lon="7.10371">
        <ele>763.6</ele>
        <time>2021-09-28T11:32:37.000Z</time>
      </trkpt>
      <trkpt lat="47.83561" lon="7.10364">
        <ele>764.4</ele>
        <time>2021-09-28T11:32:47.000Z</time>
      </trkpt>
      <trkpt lat="47.83557" lon="7.1035">
        <ele>765</ele>
        <time>2021-09-28T11:32:58.000Z</time>
      </trkpt>
      <trkpt lat="47.83557" lon="7.10337">
        <ele>765.2</ele>
        <time>2021-09-28T11:33:05.000Z</time>
      </trkpt>
      <trkpt lat="47.83559" lon="7.10322">
        <ele>763.8</ele>
        <time>2021-09-28T11:33:13.000Z</time>
      </trkpt>
      <trkpt lat="47.83562" lon="7.10309">
        <ele>762</ele>
        <time>2021-09-28T11:33:19.000Z</time>
      </trkpt>
      <trkpt lat="47.83559" lon="7.10294">
        <ele>761.5</ele>
        <time>2021-09-28T11:33:27.000Z</time>
      </trkpt>
      <trkpt lat="47.83556" lon="7.1028">
        <ele>761.4</ele>
        <time>2021-09-28T11:33:37.000Z</time>
      </trkpt>
      <trkpt lat="47.83555" lon="7.10267">
        <ele>760.8</ele>
        <time>2021-09-28T11:33:45.000Z</time>
      </trkpt>
      <trkpt lat="47.83554" lon="7.10253">
        <ele>760.1</ele>
        <time>2021-09-28T11:33:53.000Z</time>
      </trkpt>
      <trkpt lat="47.83553" lon="7.10239">
        <ele>757.8</ele>
        <time>2021-09-28T11:34:03.000Z</time>
      </trkpt>
      <trkpt lat="47.83548" lon="7.10226">
        <ele>756.9</ele>
        <time>2021-09-28T11:34:11.000Z</time>
      </trkpt>
      <trkpt lat="47.83544" lon="7.10212">
        <ele>755.2</ele>
        <time>2021-09-28T11:34:19.000Z</time>
      </trkpt>
      <trkpt lat="47.83538" lon="7.102">
        <ele>754.2</ele>
        <time>2021-09-28T11:34:28.000Z</time>
      </trkpt>
      <trkpt lat="47.83532" lon="7.10191">
        <ele>753.9</ele>
        <time>2021-09-28T11:34:36.000Z</time>
      </trkpt>
      <trkpt lat="47.83524" lon="7.10182">
        <ele>753.8</ele>
        <time>2021-09-28T11:34:43.000Z</time>
      </trkpt>
      <trkpt lat="47.83517" lon="7.10174">
        <ele>753.9</ele>
        <time>2021-09-28T11:34:51.000Z</time>
      </trkpt>
      <trkpt lat="47.83511" lon="7.10163">
        <ele>752.5</ele>
        <time>2021-09-28T11:34:59.000Z</time>
      </trkpt>
      <trkpt lat="47.83504" lon="7.10154">
        <ele>751.6</ele>
        <time>2021-09-28T11:35:06.000Z</time>
      </trkpt>
      <trkpt lat="47.83501" lon="7.1014">
        <ele>748.4</ele>
        <time>2021-09-28T11:35:14.000Z</time>
      </trkpt>
      <trkpt lat="47.83497" lon="7.10126">
        <ele>744.5</ele>
        <time>2021-09-28T11:35:22.000Z</time>
      </trkpt>
      <trkpt lat="47.83489" lon="7.1012">
        <ele>742.2</ele>
        <time>2021-09-28T11:35:28.000Z</time>
      </trkpt>
      <trkpt lat="47.83487" lon="7.10105">
        <ele>737.5</ele>
        <time>2021-09-28T11:35:37.000Z</time>
      </trkpt>
      <trkpt lat="47.83482" lon="7.10091">
        <ele>733</ele>
        <time>2021-09-28T11:35:47.000Z</time>
      </trkpt>
      <trkpt lat="47.83476" lon="7.1008">
        <ele>728.7</ele>
        <time>2021-09-28T11:35:54.000Z</time>
      </trkpt>
      <trkpt lat="47.83471" lon="7.10067">
        <ele>724.2</ele>
        <time>2021-09-28T11:36:02.000Z</time>
      </trkpt>
      <trkpt lat="47.83464" lon="7.10058">
        <ele>720.5</ele>
        <time>2021-09-28T11:36:11.000Z</time>
      </trkpt>
      <trkpt lat="47.83455" lon="7.10059">
        <ele>719.2</ele>
        <time>2021-09-28T11:36:20.000Z</time>
      </trkpt>
      <trkpt lat="47.83446" lon="7.1006">
        <ele>718</ele>
        <time>2021-09-28T11:36:28.000Z</time>
      </trkpt>
      <trkpt lat="47.83437" lon="7.10056">
        <ele>715</ele>
        <time>2021-09-28T11:36:34.000Z</time>
      </trkpt>
      <trkpt lat="47.83427" lon="7.10058">
        <ele>714.3</ele>
        <time>2021-09-28T11:36:41.000Z</time>
      </trkpt>
      <trkpt lat="47.83419" lon="7.10066">
        <ele>716</ele>
        <time>2021-09-28T11:36:49.000Z</time>
      </trkpt>
      <trkpt lat="47.8341" lon="7.10073">
        <ele>715.8</ele>
        <time>2021-09-28T11:36:58.000Z</time>
      </trkpt>
      <trkpt lat="47.83402" lon="7.10081">
        <ele>715.5</ele>
        <time>2021-09-28T11:37:07.000Z</time>
      </trkpt>
      <trkpt lat="47.83393" lon="7.10085">
        <ele>714</ele>
        <time>2021-09-28T11:37:17.000Z</time>
      </trkpt>
      <trkpt lat="47.83385" lon="7.10092">
        <ele>713.4</ele>
        <time>2021-09-28T11:37:25.000Z</time>
      </trkpt>
      <trkpt lat="47.83378" lon="7.10103">
        <ele>714.9</ele>
        <time>2021-09-28T11:37:33.000Z</time>
      </trkpt>
      <trkpt lat="47.83371" lon="7.10112">
        <ele>715.7</ele>
        <time>2021-09-28T11:37:40.000Z</time>
      </trkpt>
      <trkpt lat="47.83362" lon="7.10116">
        <ele>714</ele>
        <time>2021-09-28T11:37:47.000Z</time>
      </trkpt>
      <trkpt lat="47.83354" lon="7.10123">
        <ele>713.6</ele>
        <time>2021-09-28T11:37:54.000Z</time>
      </trkpt>
      <trkpt lat="47.83345" lon="7.10128">
        <ele>712.3</ele>
        <time>2021-09-28T11:38:01.000Z</time>
      </trkpt>
      <trkpt lat="47.83336" lon="7.10134">
        <ele>710.6</ele>
        <time>2021-09-28T11:38:08.000Z</time>
      </trkpt>
      <trkpt lat="47.83328" lon="7.10142">
        <ele>711.9</ele>
        <time>2021-09-28T11:38:18.000Z</time>
      </trkpt>
      <trkpt lat="47.83318" lon="7.10146">
        <ele>711.8</ele>
        <time>2021-09-28T11:38:26.000Z</time>
      </trkpt>
      <trkpt lat="47.83309" lon="7.10147">
        <ele>710.4</ele>
        <time>2021-09-28T11:38:36.000Z</time>
      </trkpt>
      <trkpt lat="47.83299" lon="7.10149">
        <ele>709.3</ele>
        <time>2021-09-28T11:38:43.000Z</time>
      </trkpt>
      <trkpt lat="47.83289" lon="7.10151">
        <ele>708.7</ele>
        <time>2021-09-28T11:38:50.000Z</time>
      </trkpt>
      <trkpt lat="47.8328" lon="7.10152">
        <ele>707.2</ele>
        <time>2021-09-28T11:38:58.000Z</time>
      </trkpt>
      <trkpt lat="47.83271" lon="7.10148">
        <ele>704.3</ele>
        <time>2021-09-28T11:39:06.000Z</time>
      </trkpt>
      <trkpt lat="47.83261" lon="7.10145">
        <ele>701.3</ele>
        <time>2021-09-28T11:39:13.000Z</time>
      </trkpt>
      <trkpt lat="47.83251" lon="7.10149">
        <ele>701.1</ele>
        <time>2021-09-28T11:39:24.000Z</time>
      </trkpt>
      <trkpt lat="47.83242" lon="7.10153">
        <ele>702.8</ele>
        <time>2021-09-28T11:39:31.000Z</time>
      </trkpt>
      <trkpt lat="47.83233" lon="7.10154">
        <ele>703.5</ele>
        <time>2021-09-28T11:39:38.000Z</time>
      </trkpt>
      <trkpt lat="47.83224" lon="7.10151">
        <ele>702.7</ele>
        <time>2021-09-28T11:39:46.000Z</time>
      </trkpt>
      <trkpt lat="47.83216" lon="7.10143">
        <ele>700.3</ele>
        <time>2021-09-28T11:39:57.000Z</time>
      </trkpt>
      <trkpt lat="47.83209" lon="7.10134">
        <ele>697.6</ele>
        <time>2021-09-28T11:40:07.000Z</time>
      </trkpt>
      <trkpt lat="47.83202" lon="7.10123">
        <ele>694.5</ele>
        <time>2021-09-28T11:40:20.000Z</time>
      </trkpt>
      <trkpt lat="47.83194" lon="7.10113">
        <ele>692.1</ele>
        <time>2021-09-28T11:40:27.000Z</time>
      </trkpt>
      <trkpt lat="47.83186" lon="7.10105">
        <ele>690.7</ele>
        <time>2021-09-28T11:40:35.000Z</time>
      </trkpt>
      <trkpt lat="47.83179" lon="7.10093">
        <ele>688</ele>
        <time>2021-09-28T11:40:43.000Z</time>
      </trkpt>
      <trkpt lat="47.83174" lon="7.10082">
        <ele>685.4</ele>
        <time>2021-09-28T11:40:48.000Z</time>
      </trkpt>
      <trkpt lat="47.83167" lon="7.10071">
        <ele>682.9</ele>
        <time>2021-09-28T11:40:56.000Z</time>
      </trkpt>
      <trkpt lat="47.83163" lon="7.10057">
        <ele>677.9</ele>
        <time>2021-09-28T11:41:03.000Z</time>
      </trkpt>
      <trkpt lat="47.83159" lon="7.10044">
        <ele>673.3</ele>
        <time>2021-09-28T11:41:10.000Z</time>
      </trkpt>
      <trkpt lat="47.8315" lon="7.1004">
        <ele>671.4</ele>
        <time>2021-09-28T11:41:19.000Z</time>
      </trkpt>
      <trkpt lat="47.83139" lon="7.10039">
        <ele>670.2</ele>
        <time>2021-09-28T11:41:27.000Z</time>
      </trkpt>
      <trkpt lat="47.8313" lon="7.10035">
        <ele>668.5</ele>
        <time>2021-09-28T11:41:35.000Z</time>
      </trkpt>
      <trkpt lat="47.83122" lon="7.1003">
        <ele>666.1</ele>
        <time>2021-09-28T11:41:44.000Z</time>
      </trkpt>
      <trkpt lat="47.83112" lon="7.10032">
        <ele>666.2</ele>
        <time>2021-09-28T11:41:53.000Z</time>
      </trkpt>
      <trkpt lat="47.83102" lon="7.10039">
        <ele>667.8</ele>
        <time>2021-09-28T11:42:00.000Z</time>
      </trkpt>
      <trkpt lat="47.83093" lon="7.10046">
        <ele>669.7</ele>
        <time>2021-09-28T11:42:07.000Z</time>
      </trkpt>
      <trkpt lat="47.83085" lon="7.10053">
        <ele>671.4</ele>
        <time>2021-09-28T11:42:14.000Z</time>
      </trkpt>
      <trkpt lat="47.83078" lon="7.10062">
        <ele>672.3</ele>
        <time>2021-09-28T11:42:24.000Z</time>
      </trkpt>
      <trkpt lat="47.83071" lon="7.10071">
        <ele>673.5</ele>
        <time>2021-09-28T11:42:34.000Z</time>
      </trkpt>
      <trkpt lat="47.83062" lon="7.10081">
        <ele>674.3</ele>
        <time>2021-09-28T11:42:42.000Z</time>
      </trkpt>
      <trkpt lat="47.83054" lon="7.10088">
        <ele>673.5</ele>
        <time>2021-09-28T11:42:49.000Z</time>
      </trkpt>
      <trkpt lat="47.83045" lon="7.10094">
        <ele>672</ele>
        <time>2021-09-28T11:42:58.000Z</time>
      </trkpt>
      <trkpt lat="47.83035" lon="7.10094">
        <ele>669</ele>
        <time>2021-09-28T11:43:05.000Z</time>
      </trkpt>
      <trkpt lat="47.83026" lon="7.10096">
        <ele>666.6</ele>
        <time>2021-09-28T11:43:11.000Z</time>
      </trkpt>
      <trkpt lat="47.83015" lon="7.10098">
        <ele>664.1</ele>
        <time>2021-09-28T11:43:19.000Z</time>
      </trkpt>
      <trkpt lat="47.83005" lon="7.101">
        <ele>661.5</ele>
        <time>2021-09-28T11:43:28.000Z</time>
      </trkpt>
      <trkpt lat="47.82996" lon="7.10106">
        <ele>660.3</ele>
        <time>2021-09-28T11:43:36.000Z</time>
      </trkpt>
      <trkpt lat="47.82988" lon="7.10113">
        <ele>660.3</ele>
        <time>2021-09-28T11:43:43.000Z</time>
      </trkpt>
      <trkpt lat="47.82979" lon="7.10118">
        <ele>659.6</ele>
        <time>2021-09-28T11:43:51.000Z</time>
      </trkpt>
      <trkpt lat="47.82971" lon="7.10124">
        <ele>659</ele>
        <time>2021-09-28T11:43:57.000Z</time>
      </trkpt>
      <trkpt lat="47.82962" lon="7.10129">
        <ele>658.2</ele>
        <time>2021-09-28T11:44:03.000Z</time>
      </trkpt>
      <trkpt lat="47.82953" lon="7.10132">
        <ele>657</ele>
        <time>2021-09-28T11:44:13.000Z</time>
      </trkpt>
      <trkpt lat="47.82944" lon="7.10138">
        <ele>655.9</ele>
        <time>2021-09-28T11:44:24.000Z</time>
      </trkpt>
      <trkpt lat="47.82937" lon="7.10148">
        <ele>655</ele>
        <time>2021-09-28T11:44:36.000Z</time>
      </trkpt>
      <trkpt lat="47.82929" lon="7.10154">
        <ele>653.5</ele>
        <time>2021-09-28T11:44:46.000Z</time>
      </trkpt>
      <trkpt lat="47.8292" lon="7.1016">
        <ele>651.8</ele>
        <time>2021-09-28T11:44:55.000Z</time>
      </trkpt>
      <trkpt lat="47.82911" lon="7.10162">
        <ele>651.2</ele>
        <time>2021-09-28T11:45:04.000Z</time>
      </trkpt>
      <trkpt lat="47.82902" lon="7.10159">
        <ele>651.4</ele>
        <time>2021-09-28T11:45:09.000Z</time>
      </trkpt>
      <trkpt lat="47.82892" lon="7.10156">
        <ele>651.5</ele>
        <time>2021-09-28T11:45:17.000Z</time>
      </trkpt>
      <trkpt lat="47.82882" lon="7.10159">
        <ele>651.6</ele>
        <time>2021-09-28T11:45:27.000Z</time>
      </trkpt>
      <trkpt lat="47.82873" lon="7.10162">
        <ele>651.6</ele>
        <time>2021-09-28T11:45:33.000Z</time>
      </trkpt>
      <trkpt lat="47.82864" lon="7.10167">
        <ele>651.5</ele>
        <time>2021-09-28T11:45:42.000Z</time>
      </trkpt>
      <trkpt lat="47.82857" lon="7.10176">
        <ele>649.4</ele>
        <time>2021-09-28T11:45:48.000Z</time>
      </trkpt>
      <trkpt lat="47.82848" lon="7.10183">
        <ele>647.3</ele>
        <time>2021-09-28T11:45:55.000Z</time>
      </trkpt>
      <trkpt lat="47.82841" lon="7.10191">
        <ele>645.2</ele>
        <time>2021-09-28T11:46:03.000Z</time>
      </trkpt>
      <trkpt lat="47.82832" lon="7.10198">
        <ele>642.7</ele>
        <time>2021-09-28T11:46:12.000Z</time>
      </trkpt>
      <trkpt lat="47.82824" lon="7.10205">
        <ele>638.8</ele>
        <time>2021-09-28T11:46:19.000Z</time>
      </trkpt>
      <trkpt lat="47.82816" lon="7.10212">
        <ele>635.5</ele>
        <time>2021-09-28T11:46:27.000Z</time>
      </trkpt>
      <trkpt lat="47.82809" lon="7.10224">
        <ele>631.4</ele>
        <time>2021-09-28T11:46:37.000Z</time>
      </trkpt>
      <trkpt lat="47.82801" lon="7.10231">
        <ele>628.6</ele>
        <time>2021-09-28T11:46:45.000Z</time>
      </trkpt>
      <trkpt lat="47.82792" lon="7.10237">
        <ele>626</ele>
        <time>2021-09-28T11:46:54.000Z</time>
      </trkpt>
      <trkpt lat="47.82783" lon="7.10242">
        <ele>623.9</ele>
        <time>2021-09-28T11:47:05.000Z</time>
      </trkpt>
      <trkpt lat="47.82774" lon="7.1025">
        <ele>621.6</ele>
        <time>2021-09-28T11:47:14.000Z</time>
      </trkpt>
      <trkpt lat="47.82766" lon="7.1026">
        <ele>618.6</ele>
        <time>2021-09-28T11:47:23.000Z</time>
      </trkpt>
      <trkpt lat="47.82757" lon="7.10268">
        <ele>616.3</ele>
        <time>2021-09-28T11:47:32.000Z</time>
      </trkpt>
      <trkpt lat="47.82749" lon="7.10274">
        <ele>614.5</ele>
        <time>2021-09-28T11:47:38.000Z</time>
      </trkpt>
      <trkpt lat="47.8274" lon="7.1028">
        <ele>611.9</ele>
        <time>2021-09-28T11:47:45.000Z</time>
      </trkpt>
      <trkpt lat="47.82732" lon="7.10287">
        <ele>609.5</ele>
        <time>2021-09-28T11:47:56.000Z</time>
      </trkpt>
      <trkpt lat="47.82722" lon="7.10292">
        <ele>607.5</ele>
        <time>2021-09-28T11:48:03.000Z</time>
      </trkpt>
      <trkpt lat="47.82712" lon="7.10296">
        <ele>605.7</ele>
        <time>2021-09-28T11:48:10.000Z</time>
      </trkpt>
      <trkpt lat="47.82704" lon="7.10302">
        <ele>604.2</ele>
        <time>2021-09-28T11:48:19.000Z</time>
      </trkpt>
      <trkpt lat="47.82696" lon="7.10311">
        <ele>603</ele>
        <time>2021-09-28T11:48:25.000Z</time>
      </trkpt>
      <trkpt lat="47.82687" lon="7.10316">
        <ele>602</ele>
        <time>2021-09-28T11:48:34.000Z</time>
      </trkpt>
      <trkpt lat="47.82678" lon="7.10323">
        <ele>601.3</ele>
        <time>2021-09-28T11:48:44.000Z</time>
      </trkpt>
      <trkpt lat="47.82669" lon="7.10327">
        <ele>600.9</ele>
        <time>2021-09-28T11:48:55.000Z</time>
      </trkpt>
      <trkpt lat="47.82662" lon="7.10338">
        <ele>598.9</ele>
        <time>2021-09-28T11:49:06.000Z</time>
      </trkpt>
      <trkpt lat="47.82658" lon="7.10351">
        <ele>595.2</ele>
        <time>2021-09-28T11:49:14.000Z</time>
      </trkpt>
      <trkpt lat="47.82653" lon="7.10362">
        <ele>591.9</ele>
        <time>2021-09-28T11:49:20.000Z</time>
      </trkpt>
      <trkpt lat="47.82644" lon="7.10353">
        <ele>591.8</ele>
        <time>2021-09-28T11:49:40.000Z</time>
      </trkpt>
      <trkpt lat="47.82643" lon="7.10339">
        <ele>594</ele>
        <time>2021-09-28T11:49:51.000Z</time>
      </trkpt>
      <trkpt lat="47.82634" lon="7.10346">
        <ele>590.8</ele>
        <time>2021-09-28T11:49:59.000Z</time>
      </trkpt>
      <trkpt lat="47.82626" lon="7.10354">
        <ele>588</ele>
        <time>2021-09-28T11:50:06.000Z</time>
      </trkpt>
      <trkpt lat="47.82619" lon="7.10364">
        <ele>585.3</ele>
        <time>2021-09-28T11:50:13.000Z</time>
      </trkpt>
      <trkpt lat="47.82611" lon="7.10358">
        <ele>584.4</ele>
        <time>2021-09-28T11:50:29.000Z</time>
      </trkpt>
      <trkpt lat="47.82602" lon="7.10364">
        <ele>582.3</ele>
        <time>2021-09-28T11:50:36.000Z</time>
      </trkpt>
      <trkpt lat="47.82594" lon="7.10372">
        <ele>580.4</ele>
        <time>2021-09-28T11:50:42.000Z</time>
      </trkpt>
      <trkpt lat="47.82586" lon="7.10378">
        <ele>578.8</ele>
        <time>2021-09-28T11:50:48.000Z</time>
      </trkpt>
      <trkpt lat="47.8258" lon="7.10389">
        <ele>578.2</ele>
        <time>2021-09-28T11:50:59.000Z</time>
      </trkpt>
      <trkpt lat="47.82571" lon="7.10389">
        <ele>578.9</ele>
        <time>2021-09-28T11:51:08.000Z</time>
      </trkpt>
      <trkpt lat="47.82562" lon="7.10386">
        <ele>579.7</ele>
        <time>2021-09-28T11:51:17.000Z</time>
      </trkpt>
      <trkpt lat="47.82552" lon="7.10381">
        <ele>580.3</ele>
        <time>2021-09-28T11:51:23.000Z</time>
      </trkpt>
      <trkpt lat="47.82542" lon="7.10375">
        <ele>580.7</ele>
        <time>2021-09-28T11:51:28.000Z</time>
      </trkpt>
      <trkpt lat="47.82533" lon="7.10373">
        <ele>581.1</ele>
        <time>2021-09-28T11:51:36.000Z</time>
      </trkpt>
      <trkpt lat="47.82523" lon="7.10372">
        <ele>581.6</ele>
        <time>2021-09-28T11:51:43.000Z</time>
      </trkpt>
      <trkpt lat="47.82515" lon="7.10367">
        <ele>581.6</ele>
        <time>2021-09-28T11:51:50.000Z</time>
      </trkpt>
      <trkpt lat="47.82505" lon="7.10362">
        <ele>581.6</ele>
        <time>2021-09-28T11:51:59.000Z</time>
      </trkpt>
      <trkpt lat="47.82495" lon="7.1036">
        <ele>582.6</ele>
        <time>2021-09-28T11:52:09.000Z</time>
      </trkpt>
      <trkpt lat="47.82486" lon="7.10355">
        <ele>583.9</ele>
        <time>2021-09-28T11:52:18.000Z</time>
      </trkpt>
      <trkpt lat="47.82476" lon="7.10353">
        <ele>585.4</ele>
        <time>2021-09-28T11:52:26.000Z</time>
      </trkpt>
      <trkpt lat="47.82467" lon="7.1035">
        <ele>586.9</ele>
        <time>2021-09-28T11:52:32.000Z</time>
      </trkpt>
      <trkpt lat="47.82458" lon="7.10342">
        <ele>587.7</ele>
        <time>2021-09-28T11:52:39.000Z</time>
      </trkpt>
      <trkpt lat="47.82449" lon="7.10338">
        <ele>588.8</ele>
        <time>2021-09-28T11:52:48.000Z</time>
      </trkpt>
      <trkpt lat="47.82439" lon="7.10338">
        <ele>590.6</ele>
        <time>2021-09-28T11:52:55.000Z</time>
      </trkpt>
      <trkpt lat="47.8243" lon="7.10335">
        <ele>591.9</ele>
        <time>2021-09-28T11:53:02.000Z</time>
      </trkpt>
      <trkpt lat="47.82421" lon="7.1033">
        <ele>592.4</ele>
        <time>2021-09-28T11:53:09.000Z</time>
      </trkpt>
      <trkpt lat="47.82414" lon="7.10321">
        <ele>590.5</ele>
        <time>2021-09-28T11:53:19.000Z</time>
      </trkpt>
      <trkpt lat="47.82405" lon="7.10328">
        <ele>592.9</ele>
        <time>2021-09-28T11:53:35.000Z</time>
      </trkpt>
      <trkpt lat="47.82395" lon="7.10325">
        <ele>592.6</ele>
        <time>2021-09-28T11:53:40.000Z</time>
      </trkpt>
      <trkpt lat="47.82383" lon="7.10322">
        <ele>592.6</ele>
        <time>2021-09-28T11:53:45.000Z</time>
      </trkpt>
      <trkpt lat="47.82372" lon="7.10322">
        <ele>593</ele>
        <time>2021-09-28T11:53:50.000Z</time>
      </trkpt>
      <trkpt lat="47.82363" lon="7.1032">
        <ele>593</ele>
        <time>2021-09-28T11:53:58.000Z</time>
      </trkpt>
      <trkpt lat="47.82353" lon="7.10324">
        <ele>594.5</ele>
        <time>2021-09-28T11:54:07.000Z</time>
      </trkpt>
      <trkpt lat="47.82344" lon="7.10326">
        <ele>595.5</ele>
        <time>2021-09-28T11:54:14.000Z</time>
      </trkpt>
      <trkpt lat="47.82333" lon="7.10326">
        <ele>596.2</ele>
        <time>2021-09-28T11:54:25.000Z</time>
      </trkpt>
      <trkpt lat="47.82324" lon="7.1033">
        <ele>597.4</ele>
        <time>2021-09-28T11:54:32.000Z</time>
      </trkpt>
      <trkpt lat="47.82315" lon="7.10331">
        <ele>597.8</ele>
        <time>2021-09-28T11:54:38.000Z</time>
      </trkpt>
      <trkpt lat="47.82304" lon="7.10332">
        <ele>598.1</ele>
        <time>2021-09-28T11:54:45.000Z</time>
      </trkpt>
      <trkpt lat="47.82296" lon="7.10336">
        <ele>598.5</ele>
        <time>2021-09-28T11:54:53.000Z</time>
      </trkpt>
      <trkpt lat="47.82286" lon="7.10336">
        <ele>598.5</ele>
        <time>2021-09-28T11:55:04.000Z</time>
      </trkpt>
      <trkpt lat="47.82276" lon="7.10337">
        <ele>598.5</ele>
        <time>2021-09-28T11:55:13.000Z</time>
      </trkpt>
      <trkpt lat="47.8227" lon="7.10327">
        <ele>598.6</ele>
        <time>2021-09-28T11:55:21.000Z</time>
      </trkpt>
      <trkpt lat="47.82271" lon="7.10312">
        <ele>598</ele>
        <time>2021-09-28T11:55:29.000Z</time>
      </trkpt>
      <trkpt lat="47.82271" lon="7.10298">
        <ele>597.5</ele>
        <time>2021-09-28T11:55:36.000Z</time>
      </trkpt>
      <trkpt lat="47.82273" lon="7.10283">
        <ele>596.5</ele>
        <time>2021-09-28T11:55:45.000Z</time>
      </trkpt>
      <trkpt lat="47.82276" lon="7.10269">
        <ele>595.2</ele>
        <time>2021-09-28T11:55:54.000Z</time>
      </trkpt>
      <trkpt lat="47.82278" lon="7.10255">
        <ele>593.8</ele>
        <time>2021-09-28T11:56:02.000Z</time>
      </trkpt>
      <trkpt lat="47.82281" lon="7.10241">
        <ele>592.5</ele>
        <time>2021-09-28T11:56:10.000Z</time>
      </trkpt>
      <trkpt lat="47.82283" lon="7.10227">
        <ele>591.7</ele>
        <time>2021-09-28T11:56:18.000Z</time>
      </trkpt>
      <trkpt lat="47.82284" lon="7.10212">
        <ele>591</ele>
        <time>2021-09-28T11:56:26.000Z</time>
      </trkpt>
      <trkpt lat="47.82285" lon="7.10198">
        <ele>590.4</ele>
        <time>2021-09-28T11:56:33.000Z</time>
      </trkpt>
      <trkpt lat="47.82285" lon="7.10183">
        <ele>589.9</ele>
        <time>2021-09-28T11:56:42.000Z</time>
      </trkpt>
      <trkpt lat="47.82286" lon="7.10168">
        <ele>589.3</ele>
        <time>2021-09-28T11:56:48.000Z</time>
      </trkpt>
      <trkpt lat="47.82284" lon="7.10155">
        <ele>588.8</ele>
        <time>2021-09-28T11:56:55.000Z</time>
      </trkpt>
      <trkpt lat="47.8228" lon="7.10143">
        <ele>589.1</ele>
        <time>2021-09-28T11:57:03.000Z</time>
      </trkpt>
      <trkpt lat="47.82277" lon="7.10129">
        <ele>589</ele>
        <time>2021-09-28T11:57:11.000Z</time>
      </trkpt>
      <trkpt lat="47.82275" lon="7.10115">
        <ele>588.3</ele>
        <time>2021-09-28T11:57:19.000Z</time>
      </trkpt>
      <trkpt lat="47.82271" lon="7.10103">
        <ele>588.4</ele>
        <time>2021-09-28T11:57:27.000Z</time>
      </trkpt>
      <trkpt lat="47.82271" lon="7.10088">
        <ele>587.2</ele>
        <time>2021-09-28T11:57:33.000Z</time>
      </trkpt>
      <trkpt lat="47.82272" lon="7.10075">
        <ele>584.4</ele>
        <time>2021-09-28T11:57:41.000Z</time>
      </trkpt>
      <trkpt lat="47.82275" lon="7.10061">
        <ele>580.2</ele>
        <time>2021-09-28T11:57:47.000Z</time>
      </trkpt>
      <trkpt lat="47.82279" lon="7.10048">
        <ele>576.2</ele>
        <time>2021-09-28T11:57:55.000Z</time>
      </trkpt>
      <trkpt lat="47.82284" lon="7.10036">
        <ele>572</ele>
        <time>2021-09-28T11:58:04.000Z</time>
      </trkpt>
      <trkpt lat="47.82289" lon="7.10024">
        <ele>567.8</ele>
        <time>2021-09-28T11:58:12.000Z</time>
      </trkpt>
      <trkpt lat="47.82296" lon="7.10011">
        <ele>563.1</ele>
        <time>2021-09-28T11:58:17.000Z</time>
      </trkpt>
      <trkpt lat="47.82297" lon="7.09997">
        <ele>560.1</ele>
        <time>2021-09-28T11:58:23.000Z</time>
      </trkpt>
      <trkpt lat="47.82294" lon="7.09983">
        <ele>557.7</ele>
        <time>2021-09-28T11:58:30.000Z</time>
      </trkpt>
      <trkpt lat="47.82287" lon="7.09972">
        <ele>557</ele>
        <time>2021-09-28T11:58:37.000Z</time>
      </trkpt>
      <trkpt lat="47.82279" lon="7.09964">
        <ele>557.2</ele>
        <time>2021-09-28T11:58:44.000Z</time>
      </trkpt>
      <trkpt lat="47.8227" lon="7.0996">
        <ele>558.8</ele>
        <time>2021-09-28T11:58:52.000Z</time>
      </trkpt>
      <trkpt lat="47.82262" lon="7.09954">
        <ele>559.5</ele>
        <time>2021-09-28T11:58:59.000Z</time>
      </trkpt>
      <trkpt lat="47.82253" lon="7.09948">
        <ele>560.4</ele>
        <time>2021-09-28T11:59:07.000Z</time>
      </trkpt>
      <trkpt lat="47.82244" lon="7.09941">
        <ele>558.9</ele>
        <time>2021-09-28T11:59:14.000Z</time>
      </trkpt>
      <trkpt lat="47.82236" lon="7.09933">
        <ele>556.1</ele>
        <time>2021-09-28T11:59:20.000Z</time>
      </trkpt>
      <trkpt lat="47.82229" lon="7.09923">
        <ele>552.7</ele>
        <time>2021-09-28T11:59:28.000Z</time>
      </trkpt>
      <trkpt lat="47.8222" lon="7.09918">
        <ele>550</ele>
        <time>2021-09-28T11:59:35.000Z</time>
      </trkpt>
      <trkpt lat="47.82211" lon="7.09914">
        <ele>547.9</ele>
        <time>2021-09-28T11:59:43.000Z</time>
      </trkpt>
      <trkpt lat="47.822" lon="7.09916">
        <ele>547.3</ele>
        <time>2021-09-28T11:59:51.000Z</time>
      </trkpt>
      <trkpt lat="47.8219" lon="7.09921">
        <ele>548.1</ele>
        <time>2021-09-28T12:00:00.000Z</time>
      </trkpt>
      <trkpt lat="47.82181" lon="7.09927">
        <ele>549.2</ele>
        <time>2021-09-28T12:00:07.000Z</time>
      </trkpt>
      <trkpt lat="47.82172" lon="7.09933">
        <ele>550.6</ele>
        <time>2021-09-28T12:00:15.000Z</time>
      </trkpt>
      <trkpt lat="47.82164" lon="7.0994">
        <ele>552.7</ele>
        <time>2021-09-28T12:00:21.000Z</time>
      </trkpt>
      <trkpt lat="47.82156" lon="7.09948">
        <ele>555.5</ele>
        <time>2021-09-28T12:00:29.000Z</time>
      </trkpt>
      <trkpt lat="47.82147" lon="7.09951">
        <ele>556.7</ele>
        <time>2021-09-28T12:00:38.000Z</time>
      </trkpt>
      <trkpt lat="47.82138" lon="7.09959">
        <ele>559.1</ele>
        <time>2021-09-28T12:00:45.000Z</time>
      </trkpt>
      <trkpt lat="47.82129" lon="7.09963">
        <ele>560.1</ele>
        <time>2021-09-28T12:00:51.000Z</time>
      </trkpt>
      <trkpt lat="47.8212" lon="7.09961">
        <ele>559.1</ele>
        <time>2021-09-28T12:00:58.000Z</time>
      </trkpt>
      <trkpt lat="47.82112" lon="7.09955">
        <ele>557</ele>
        <time>2021-09-28T12:01:06.000Z</time>
      </trkpt>
      <trkpt lat="47.82103" lon="7.09962">
        <ele>558.8</ele>
        <time>2021-09-28T12:01:11.000Z</time>
      </trkpt>
      <trkpt lat="47.82092" lon="7.0996">
        <ele>557.8</ele>
        <time>2021-09-28T12:01:19.000Z</time>
      </trkpt>
      <trkpt lat="47.82083" lon="7.09955">
        <ele>555.8</ele>
        <time>2021-09-28T12:01:27.000Z</time>
      </trkpt>
      <trkpt lat="47.82075" lon="7.09949">
        <ele>554.9</ele>
        <time>2021-09-28T12:01:35.000Z</time>
      </trkpt>
      <trkpt lat="47.82067" lon="7.09942">
        <ele>553.8</ele>
        <time>2021-09-28T12:01:41.000Z</time>
      </trkpt>
      <trkpt lat="47.82059" lon="7.09934">
        <ele>552.9</ele>
        <time>2021-09-28T12:01:47.000Z</time>
      </trkpt>
      <trkpt lat="47.82053" lon="7.09923">
        <ele>551.1</ele>
        <time>2021-09-28T12:01:55.000Z</time>
      </trkpt>
      <trkpt lat="47.82045" lon="7.09915">
        <ele>550.4</ele>
        <time>2021-09-28T12:02:02.000Z</time>
      </trkpt>
      <trkpt lat="47.8204" lon="7.09902">
        <ele>548</ele>
        <time>2021-09-28T12:02:10.000Z</time>
      </trkpt>
      <trkpt lat="47.82035" lon="7.0989">
        <ele>545.7</ele>
        <time>2021-09-28T12:02:19.000Z</time>
      </trkpt>
      <trkpt lat="47.82031" lon="7.09875">
        <ele>542.8</ele>
        <time>2021-09-28T12:02:27.000Z</time>
      </trkpt>
      <trkpt lat="47.82025" lon="7.09862">
        <ele>541.2</ele>
        <time>2021-09-28T12:02:34.000Z</time>
      </trkpt>
      <trkpt lat="47.82019" lon="7.09851">
        <ele>540.2</ele>
        <time>2021-09-28T12:02:40.000Z</time>
      </trkpt>
      <trkpt lat="47.82012" lon="7.09843">
        <ele>540.2</ele>
        <time>2021-09-28T12:02:48.000Z</time>
      </trkpt>
      <trkpt lat="47.82005" lon="7.09833">
        <ele>540.3</ele>
        <time>2021-09-28T12:02:57.000Z</time>
      </trkpt>
      <trkpt lat="47.81999" lon="7.09822">
        <ele>538.8</ele>
        <time>2021-09-28T12:03:05.000Z</time>
      </trkpt>
      <trkpt lat="47.81994" lon="7.09811">
        <ele>535.2</ele>
        <time>2021-09-28T12:03:12.000Z</time>
      </trkpt>
      <trkpt lat="47.81986" lon="7.09802">
        <ele>532.3</ele>
        <time>2021-09-28T12:03:21.000Z</time>
      </trkpt>
      <trkpt lat="47.81978" lon="7.09795">
        <ele>530.2</ele>
        <time>2021-09-28T12:03:29.000Z</time>
      </trkpt>
      <trkpt lat="47.8197" lon="7.09786">
        <ele>528.1</ele>
        <time>2021-09-28T12:03:35.000Z</time>
      </trkpt>
      <trkpt lat="47.81962" lon="7.09777">
        <ele>526.5</ele>
        <time>2021-09-28T12:03:41.000Z</time>
      </trkpt>
      <trkpt lat="47.81955" lon="7.09768">
        <ele>525.2</ele>
        <time>2021-09-28T12:03:46.000Z</time>
      </trkpt>
      <trkpt lat="47.81946" lon="7.09761">
        <ele>524.8</ele>
        <time>2021-09-28T12:03:53.000Z</time>
      </trkpt>
      <trkpt lat="47.81938" lon="7.09753">
        <ele>524.5</ele>
        <time>2021-09-28T12:04:01.000Z</time>
      </trkpt>
      <trkpt lat="47.81929" lon="7.09747">
        <ele>524.8</ele>
        <time>2021-09-28T12:04:10.000Z</time>
      </trkpt>
      <trkpt lat="47.8192" lon="7.09753">
        <ele>525.8</ele>
        <time>2021-09-28T12:04:19.000Z</time>
      </trkpt>
      <trkpt lat="47.81921" lon="7.09769">
        <ele>526.3</ele>
        <time>2021-09-28T12:04:24.000Z</time>
      </trkpt>
      <trkpt lat="47.81922" lon="7.09783">
        <ele>526.9</ele>
        <time>2021-09-28T12:04:29.000Z</time>
      </trkpt>
      <trkpt lat="47.81926" lon="7.09796">
        <ele>527.6</ele>
        <time>2021-09-28T12:04:34.000Z</time>
      </trkpt>
      <trkpt lat="47.81926" lon="7.09812">
        <ele>528.4</ele>
        <time>2021-09-28T12:04:43.000Z</time>
      </trkpt>
      <trkpt lat="47.81923" lon="7.09825">
        <ele>528.8</ele>
        <time>2021-09-28T12:04:51.000Z</time>
      </trkpt>
      <trkpt lat="47.81922" lon="7.09839">
        <ele>529.2</ele>
        <time>2021-09-28T12:04:56.000Z</time>
      </trkpt>
      <trkpt lat="47.8192" lon="7.09853">
        <ele>529.8</ele>
        <time>2021-09-28T12:05:05.000Z</time>
      </trkpt>
      <trkpt lat="47.81916" lon="7.09866">
        <ele>529.3</ele>
        <time>2021-09-28T12:05:11.000Z</time>
      </trkpt>
      <trkpt lat="47.81909" lon="7.09875">
        <ele>526.2</ele>
        <time>2021-09-28T12:05:18.000Z</time>
      </trkpt>
      <trkpt lat="47.81907" lon="7.09889">
        <ele>525.7</ele>
        <time>2021-09-28T12:05:25.000Z</time>
      </trkpt>
      <trkpt lat="47.81902" lon="7.09902">
        <ele>523.7</ele>
        <time>2021-09-28T12:05:35.000Z</time>
      </trkpt>
      <trkpt lat="47.81899" lon="7.09916">
        <ele>522.5</ele>
        <time>2021-09-28T12:05:43.000Z</time>
      </trkpt>
      <trkpt lat="47.81895" lon="7.09929">
        <ele>521.1</ele>
        <time>2021-09-28T12:05:52.000Z</time>
      </trkpt>
      <trkpt lat="47.81893" lon="7.09942">
        <ele>521</ele>
        <time>2021-09-28T12:06:00.000Z</time>
      </trkpt>
      <trkpt lat="47.81887" lon="7.09953">
        <ele>518.2</ele>
        <time>2021-09-28T12:06:08.000Z</time>
      </trkpt>
      <trkpt lat="47.81881" lon="7.09963">
        <ele>515.1</ele>
        <time>2021-09-28T12:06:14.000Z</time>
      </trkpt>
      <trkpt lat="47.81875" lon="7.09973">
        <ele>512.3</ele>
        <time>2021-09-28T12:06:21.000Z</time>
      </trkpt>
      <trkpt lat="47.8187" lon="7.09987">
        <ele>510.6</ele>
        <time>2021-09-28T12:06:28.000Z</time>
      </trkpt>
      <trkpt lat="47.81865" lon="7.09999">
        <ele>508.9</ele>
        <time>2021-09-28T12:06:36.000Z</time>
      </trkpt>
      <trkpt lat="47.81864" lon="7.10013">
        <ele>508.4</ele>
        <time>2021-09-28T12:06:44.000Z</time>
      </trkpt>
      <trkpt lat="47.81861" lon="7.10028">
        <ele>507.7</ele>
        <time>2021-09-28T12:06:52.000Z</time>
      </trkpt>
      <trkpt lat="47.8186" lon="7.10044">
        <ele>507.2</ele>
        <time>2021-09-28T12:07:01.000Z</time>
      </trkpt>
      <trkpt lat="47.81857" lon="7.10057">
        <ele>506.3</ele>
        <time>2021-09-28T12:07:06.000Z</time>
      </trkpt>
      <trkpt lat="47.81856" lon="7.1007">
        <ele>506.2</ele>
        <time>2021-09-28T12:07:14.000Z</time>
      </trkpt>
      <trkpt lat="47.81854" lon="7.10085">
        <ele>505.7</ele>
        <time>2021-09-28T12:07:25.000Z</time>
      </trkpt>
      <trkpt lat="47.81851" lon="7.10099">
        <ele>502.6</ele>
        <time>2021-09-28T12:07:31.000Z</time>
      </trkpt>
      <trkpt lat="47.81848" lon="7.10112">
        <ele>499.5</ele>
        <time>2021-09-28T12:07:40.000Z</time>
      </trkpt>
      <trkpt lat="47.81847" lon="7.10126">
        <ele>497.3</ele>
        <time>2021-09-28T12:07:52.000Z</time>
      </trkpt>
      <trkpt lat="47.81842" lon="7.10114">
        <ele>496.2</ele>
        <time>2021-09-28T12:08:00.000Z</time>
      </trkpt>
      <trkpt lat="47.81838" lon="7.10101">
        <ele>496</ele>
        <time>2021-09-28T12:08:12.000Z</time>
      </trkpt>
      <trkpt lat="47.81831" lon="7.10092">
        <ele>493.9</ele>
        <time>2021-09-28T12:08:22.000Z</time>
      </trkpt>
      <trkpt lat="47.81832" lon="7.10079">
        <ele>495.1</ele>
        <time>2021-09-28T12:08:30.000Z</time>
      </trkpt>
      <trkpt lat="47.81831" lon="7.10066">
        <ele>493.7</ele>
        <time>2021-09-28T12:08:40.000Z</time>
      </trkpt>
      <trkpt lat="47.8183" lon="7.10052">
        <ele>492.6</ele>
        <time>2021-09-28T12:08:48.000Z</time>
      </trkpt>
      <trkpt lat="47.81828" lon="7.10036">
        <ele>490.6</ele>
        <time>2021-09-28T12:08:56.000Z</time>
      </trkpt>
      <trkpt lat="47.81829" lon="7.10023">
        <ele>490.2</ele>
        <time>2021-09-28T12:09:06.000Z</time>
      </trkpt>
      <trkpt lat="47.81831" lon="7.1001">
        <ele>490.5</ele>
        <time>2021-09-28T12:09:13.000Z</time>
      </trkpt>
      <trkpt lat="47.81833" lon="7.09996">
        <ele>490.4</ele>
        <time>2021-09-28T12:09:19.000Z</time>
      </trkpt>
      <trkpt lat="47.81833" lon="7.09982">
        <ele>489.5</ele>
        <time>2021-09-28T12:09:27.000Z</time>
      </trkpt>
      <trkpt lat="47.81828" lon="7.0997">
        <ele>485.6</ele>
        <time>2021-09-28T12:09:37.000Z</time>
      </trkpt>
      <trkpt lat="47.8182" lon="7.09982">
        <ele>482.6</ele>
        <time>2021-09-28T12:10:06.000Z</time>
      </trkpt>
      <trkpt lat="47.81814" lon="7.09993">
        <ele>480</ele>
        <time>2021-09-28T12:10:11.000Z</time>
      </trkpt>
      <trkpt lat="47.81811" lon="7.10007">
        <ele>479.7</ele>
        <time>2021-09-28T12:10:19.000Z</time>
      </trkpt>
      <trkpt lat="47.81809" lon="7.10022">
        <ele>479.7</ele>
        <time>2021-09-28T12:10:29.000Z</time>
      </trkpt>
      <trkpt lat="47.81805" lon="7.10034">
        <ele>478</ele>
        <time>2021-09-28T12:10:36.000Z</time>
      </trkpt>
      <trkpt lat="47.818" lon="7.10046">
        <ele>476.2</ele>
        <time>2021-09-28T12:10:44.000Z</time>
      </trkpt>
      <trkpt lat="47.81796" lon="7.1006">
        <ele>475</ele>
        <time>2021-09-28T12:10:51.000Z</time>
      </trkpt>
      <trkpt lat="47.81793" lon="7.10073">
        <ele>474.7</ele>
        <time>2021-09-28T12:11:00.000Z</time>
      </trkpt>
      <trkpt lat="47.81789" lon="7.10085">
        <ele>473.3</ele>
        <time>2021-09-28T12:11:08.000Z</time>
      </trkpt>
      <trkpt lat="47.81785" lon="7.10099">
        <ele>471</ele>
        <time>2021-09-28T12:11:15.000Z</time>
      </trkpt>
      <trkpt lat="47.81781" lon="7.10112">
        <ele>469.1</ele>
        <time>2021-09-28T12:11:23.000Z</time>
      </trkpt>
      <trkpt lat="47.81776" lon="7.10123">
        <ele>467</ele>
        <time>2021-09-28T12:11:31.000Z</time>
      </trkpt>
      <trkpt lat="47.81774" lon="7.10138">
        <ele>466.7</ele>
        <time>2021-09-28T12:11:38.000Z</time>
      </trkpt>
      <trkpt lat="47.8177" lon="7.10151">
        <ele>465.7</ele>
        <time>2021-09-28T12:11:46.000Z</time>
      </trkpt>
      <trkpt lat="47.81768" lon="7.10166">
        <ele>465.5</ele>
        <time>2021-09-28T12:11:55.000Z</time>
      </trkpt>
      <trkpt lat="47.81764" lon="7.1018">
        <ele>461.7</ele>
        <time>2021-09-28T12:12:04.000Z</time>
      </trkpt>
      <trkpt lat="47.81755" lon="7.10176">
        <ele>459.7</ele>
        <time>2021-09-28T12:12:13.000Z</time>
      </trkpt>
      <trkpt lat="47.81747" lon="7.10182">
        <ele>455.9</ele>
        <time>2021-09-28T12:12:31.000Z</time>
      </trkpt>
      <trkpt lat="47.81738" lon="7.10181">
        <ele>453.2</ele>
        <time>2021-09-28T12:12:45.000Z</time>
      </trkpt>
      <trkpt lat="47.81729" lon="7.10181">
        <ele>450.3</ele>
        <time>2021-09-28T12:13:05.000Z</time>
      </trkpt>
      <trkpt lat="47.8172" lon="7.10184">
        <ele>447</ele>
        <time>2021-09-28T12:13:12.000Z</time>
      </trkpt>
      <trkpt lat="47.8171" lon="7.10185">
        <ele>444</ele>
        <time>2021-09-28T12:13:19.000Z</time>
      </trkpt>
      <trkpt lat="47.81701" lon="7.10183">
        <ele>441.1</ele>
        <time>2021-09-28T12:13:28.000Z</time>
      </trkpt>
      <trkpt lat="47.81691" lon="7.10181">
        <ele>438.3</ele>
        <time>2021-09-28T12:13:40.000Z</time>
      </trkpt>
      <trkpt lat="47.81681" lon="7.10177">
        <ele>435.5</ele>
        <time>2021-09-28T12:13:52.000Z</time>
      </trkpt>
      <trkpt lat="47.81672" lon="7.10179">
        <ele>432.5</ele>
        <time>2021-09-28T12:14:09.000Z</time>
      </trkpt>
      <trkpt lat="47.81665" lon="7.10188">
        <ele>430.2</ele>
        <time>2021-09-28T12:14:18.000Z</time>
      </trkpt>
      <trkpt lat="47.81657" lon="7.10194">
        <ele>428.7</ele>
        <time>2021-09-28T12:14:28.000Z</time>
      </trkpt>
      <trkpt lat="47.81648" lon="7.10202">
        <ele>426.8</ele>
        <time>2021-09-28T12:14:38.000Z</time>
      </trkpt>
      <trkpt lat="47.8164" lon="7.10208">
        <ele>424.9</ele>
        <time>2021-09-28T12:14:47.000Z</time>
      </trkpt>
      <trkpt lat="47.81631" lon="7.1021">
        <ele>423</ele>
        <time>2021-09-28T12:14:56.000Z</time>
      </trkpt>
      <trkpt lat="47.81621" lon="7.10203">
        <ele>421.7</ele>
        <time>2021-09-28T12:15:05.000Z</time>
      </trkpt>
      <trkpt lat="47.81615" lon="7.10194">
        <ele>421.5</ele>
        <time>2021-09-28T12:15:13.000Z</time>
      </trkpt>
      <trkpt lat="47.81611" lon="7.10182">
        <ele>422.1</ele>
        <time>2021-09-28T12:15:21.000Z</time>
      </trkpt>
      <trkpt lat="47.81607" lon="7.10168">
        <ele>423</ele>
        <time>2021-09-28T12:15:32.000Z</time>
      </trkpt>
      <trkpt lat="47.81602" lon="7.10155">
        <ele>421.7</ele>
        <time>2021-09-28T12:15:37.000Z</time>
      </trkpt>
      <trkpt lat="47.81599" lon="7.10142">
        <ele>420.5</ele>
        <time>2021-09-28T12:15:43.000Z</time>
      </trkpt>
      <trkpt lat="47.816" lon="7.10128">
        <ele>419.5</ele>
        <time>2021-09-28T12:15:50.000Z</time>
      </trkpt>
      <trkpt lat="47.81594" lon="7.10116">
        <ele>418.3</ele>
        <time>2021-09-28T12:16:01.000Z</time>
      </trkpt>
      <trkpt lat="47.81586" lon="7.10108">
        <ele>417.4</ele>
        <time>2021-09-28T12:16:08.000Z</time>
      </trkpt>
      <trkpt lat="47.81577" lon="7.10101">
        <ele>417.4</ele>
        <time>2021-09-28T12:16:17.000Z</time>
      </trkpt>
      <trkpt lat="47.81568" lon="7.10097">
        <ele>418</ele>
        <time>2021-09-28T12:16:23.000Z</time>
      </trkpt>
      <trkpt lat="47.81559" lon="7.10095">
        <ele>418.9</ele>
        <time>2021-09-28T12:16:30.000Z</time>
      </trkpt>
      <trkpt lat="47.8155" lon="7.10088">
        <ele>419.6</ele>
        <time>2021-09-28T12:16:41.000Z</time>
      </trkpt>
      <trkpt lat="47.81542" lon="7.10095">
        <ele>420.4</ele>
        <time>2021-09-28T12:16:51.000Z</time>
      </trkpt>
      <trkpt lat="47.81535" lon="7.10085">
        <ele>421.2</ele>
        <time>2021-09-28T12:17:03.000Z</time>
      </trkpt>
      <trkpt lat="47.8153" lon="7.10097">
        <ele>421.5</ele>
        <time>2021-09-28T12:17:24.000Z</time>
      </trkpt>
      <trkpt lat="47.8153" lon="7.10111">
        <ele>421.2</ele>
        <time>2021-09-28T12:17:34.000Z</time>
      </trkpt>
      <trkpt lat="47.8152" lon="7.10111">
        <ele>421.9</ele>
        <time>2021-09-28T12:17:47.000Z</time>
      </trkpt>
      <trkpt lat="47.81513" lon="7.10101">
        <ele>422.8</ele>
        <time>2021-09-28T12:18:04.000Z</time>
      </trkpt>
      <trkpt lat="47.81506" lon="7.10093">
        <ele>423.9</ele>
        <time>2021-09-28T12:18:13.000Z</time>
      </trkpt>
      <trkpt lat="47.815" lon="7.10082">
        <ele>424.7</ele>
        <time>2021-09-28T12:18:24.000Z</time>
      </trkpt>
      <trkpt lat="47.81492" lon="7.10077">
        <ele>420.8</ele>
        <time>2021-09-28T12:18:35.000Z</time>
      </trkpt>
      <trkpt lat="47.8149" lon="7.10064">
        <ele>417.2</ele>
        <time>2021-09-28T12:18:46.000Z</time>
      </trkpt>
      <trkpt lat="47.81479" lon="7.10066">
        <ele>413.9</ele>
        <time>2021-09-28T12:19:51.000Z</time>
      </trkpt>
      <trkpt lat="47.81471" lon="7.10075">
        <ele>413.4</ele>
        <time>2021-09-28T12:19:57.000Z</time>
      </trkpt>
      <trkpt lat="47.81476" lon="7.10098">
        <ele>416.6</ele>
        <time>2021-09-28T12:20:02.000Z</time>
      </trkpt>
      <trkpt lat="47.81469" lon="7.10107">
        <ele>414.2</ele>
        <time>2021-09-28T12:20:15.000Z</time>
      </trkpt>
      <trkpt lat="47.81461" lon="7.10113">
        <ele>411.7</ele>
        <time>2021-09-28T12:20:24.000Z</time>
      </trkpt>
      <trkpt lat="47.81468" lon="7.10104">
        <ele>413.9</ele>
        <time>2021-09-28T12:27:02.000Z</time>
      </trkpt>
      <trkpt lat="47.81455" lon="7.10104">
        <ele>409.8</ele>
        <time>2021-09-28T12:27:47.000Z</time>
      </trkpt>
      <trkpt lat="47.81371" lon="7.10138">
        <ele>379</ele>
        <time>2021-09-28T12:27:52.000Z</time>
      </trkpt>
      <trkpt lat="47.81382" lon="7.10122">
        <ele>382.3</ele>
        <time>2021-09-28T12:27:57.000Z</time>
      </trkpt>
      <trkpt lat="47.81396" lon="7.10123">
        <ele>389.4</ele>
        <time>2021-09-28T12:28:02.000Z</time>
      </trkpt>
      <trkpt lat="47.81413" lon="7.10118">
        <ele>397.2</ele>
        <time>2021-09-28T12:28:08.000Z</time>
      </trkpt>
      <trkpt lat="47.81431" lon="7.10109">
        <ele>402.8</ele>
        <time>2021-09-28T12:28:13.000Z</time>
      </trkpt>
      <trkpt lat="47.81447" lon="7.10105">
        <ele>407.5</ele>
        <time>2021-09-28T12:28:19.000Z</time>
      </trkpt>
      <trkpt lat="47.8146" lon="7.10106">
        <ele>411.5</ele>
        <time>2021-09-28T12:28:33.000Z</time>
      </trkpt>
      <trkpt lat="47.81469" lon="7.10105">
        <ele>414.3</ele>
        <time>2021-09-28T12:30:00.000Z</time>
      </trkpt>
      <trkpt lat="47.81478" lon="7.10099">
        <ele>417</ele>
        <time>2021-09-28T12:30:10.000Z</time>
      </trkpt>
      <trkpt lat="47.81481" lon="7.10086">
        <ele>418.5</ele>
        <time>2021-09-28T12:30:20.000Z</time>
      </trkpt>
      <trkpt lat="47.81476" lon="7.10073">
        <ele>414.5</ele>
        <time>2021-09-28T12:30:33.000Z</time>
      </trkpt>
      <trkpt lat="47.81475" lon="7.10059">
        <ele>411.1</ele>
        <time>2021-09-28T12:30:43.000Z</time>
      </trkpt>
      <trkpt lat="47.81478" lon="7.10046">
        <ele>409</ele>
        <time>2021-09-28T12:30:55.000Z</time>
      </trkpt>
      <trkpt lat="47.81482" lon="7.10032">
        <ele>407.1</ele>
        <time>2021-09-28T12:31:03.000Z</time>
      </trkpt>
      <trkpt lat="47.81474" lon="7.10039">
        <ele>406.1</ele>
        <time>2021-09-28T12:32:25.000Z</time>
      </trkpt>
      <trkpt lat="47.81468" lon="7.10049">
        <ele>406.2</ele>
        <time>2021-09-28T12:33:24.000Z</time>
      </trkpt>
      <trkpt lat="47.81475" lon="7.10038">
        <ele>406.1</ele>
        <time>2021-09-28T12:33:41.000Z</time>
      </trkpt>
      <trkpt lat="47.8148" lon="7.10048">
        <ele>410.4</ele>
        <time>2021-09-28T12:33:55.000Z</time>
      </trkpt>
      <trkpt lat="47.81476" lon="7.10062">
        <ele>412.1</ele>
        <time>2021-09-28T12:34:04.000Z</time>
      </trkpt>
      <trkpt lat="47.81478" lon="7.10076">
        <ele>415.9</ele>
        <time>2021-09-28T12:34:14.000Z</time>
      </trkpt>
      <trkpt lat="47.81485" lon="7.10086">
        <ele>419.8</ele>
        <time>2021-09-28T12:34:27.000Z</time>
      </trkpt>
      <trkpt lat="47.81494" lon="7.10086">
        <ele>422.8</ele>
        <time>2021-09-28T12:34:34.000Z</time>
      </trkpt>
      <trkpt lat="47.81504" lon="7.10085">
        <ele>424.5</ele>
        <time>2021-09-28T12:34:45.000Z</time>
      </trkpt>
      <trkpt lat="47.81509" lon="7.10097">
        <ele>423.4</ele>
        <time>2021-09-28T12:34:57.000Z</time>
      </trkpt>
      <trkpt lat="47.81515" lon="7.10107">
        <ele>422.4</ele>
        <time>2021-09-28T12:35:05.000Z</time>
      </trkpt>
      <trkpt lat="47.81523" lon="7.10116">
        <ele>421.6</ele>
        <time>2021-09-28T12:35:17.000Z</time>
      </trkpt>
      <trkpt lat="47.81529" lon="7.10104">
        <ele>421.4</ele>
        <time>2021-09-28T12:35:28.000Z</time>
      </trkpt>
      <trkpt lat="47.8153" lon="7.1009">
        <ele>421.7</ele>
        <time>2021-09-28T12:35:36.000Z</time>
      </trkpt>
      <trkpt lat="47.81538" lon="7.10093">
        <ele>420.8</ele>
        <time>2021-09-28T12:35:50.000Z</time>
      </trkpt>
      <trkpt lat="47.81538" lon="7.10107">
        <ele>420.7</ele>
        <time>2021-09-28T12:35:58.000Z</time>
      </trkpt>
      <trkpt lat="47.81538" lon="7.10122">
        <ele>420.5</ele>
        <time>2021-09-28T12:36:06.000Z</time>
      </trkpt>
      <trkpt lat="47.81537" lon="7.10136">
        <ele>420.4</ele>
        <time>2021-09-28T12:36:13.000Z</time>
      </trkpt>
      <trkpt lat="47.81535" lon="7.1015">
        <ele>420.2</ele>
        <time>2021-09-28T12:36:21.000Z</time>
      </trkpt>
      <trkpt lat="47.81527" lon="7.1016">
        <ele>420.2</ele>
        <time>2021-09-28T12:36:28.000Z</time>
      </trkpt>
      <trkpt lat="47.8152" lon="7.1017">
        <ele>419.2</ele>
        <time>2021-09-28T12:36:35.000Z</time>
      </trkpt>
      <trkpt lat="47.81511" lon="7.10178">
        <ele>416.7</ele>
        <time>2021-09-28T12:36:43.000Z</time>
      </trkpt>
      <trkpt lat="47.81522" lon="7.10179">
        <ele>416.7</ele>
        <time>2021-09-28T12:37:33.000Z</time>
      </trkpt>
      <trkpt lat="47.81531" lon="7.10181">
        <ele>416.5</ele>
        <time>2021-09-28T12:37:39.000Z</time>
      </trkpt>
      <trkpt lat="47.81538" lon="7.10191">
        <ele>414.2</ele>
        <time>2021-09-28T12:37:48.000Z</time>
      </trkpt>
      <trkpt lat="47.81544" lon="7.10202">
        <ele>412.2</ele>
        <time>2021-09-28T12:37:57.000Z</time>
      </trkpt>
      <trkpt lat="47.81549" lon="7.10213">
        <ele>410.2</ele>
        <time>2021-09-28T12:38:08.000Z</time>
      </trkpt>
      <trkpt lat="47.81557" lon="7.10222">
        <ele>409.2</ele>
        <time>2021-09-28T12:38:15.000Z</time>
      </trkpt>
      <trkpt lat="47.81563" lon="7.10235">
        <ele>407.4</ele>
        <time>2021-09-28T12:38:20.000Z</time>
      </trkpt>
      <trkpt lat="47.81569" lon="7.10245">
        <ele>406.4</ele>
        <time>2021-09-28T12:38:27.000Z</time>
      </trkpt>
      <trkpt lat="47.81574" lon="7.10257">
        <ele>405</ele>
        <time>2021-09-28T12:38:34.000Z</time>
      </trkpt>
      <trkpt lat="47.81581" lon="7.10267">
        <ele>403.9</ele>
        <time>2021-09-28T12:38:42.000Z</time>
      </trkpt>
      <trkpt lat="47.81588" lon="7.10276">
        <ele>403.4</ele>
        <time>2021-09-28T12:38:49.000Z</time>
      </trkpt>
      <trkpt lat="47.81596" lon="7.10284">
        <ele>403.6</ele>
        <time>2021-09-28T12:38:58.000Z</time>
      </trkpt>
      <trkpt lat="47.81603" lon="7.10295">
        <ele>403</ele>
        <time>2021-09-28T12:39:07.000Z</time>
      </trkpt>
      <trkpt lat="47.8161" lon="7.10304">
        <ele>402.6</ele>
        <time>2021-09-28T12:39:14.000Z</time>
      </trkpt>
      <trkpt lat="47.81615" lon="7.10316">
        <ele>401.1</ele>
        <time>2021-09-28T12:39:22.000Z</time>
      </trkpt>
      <trkpt lat="47.81617" lon="7.1033">
        <ele>398.4</ele>
        <time>2021-09-28T12:39:32.000Z</time>
      </trkpt>
      <trkpt lat="47.81618" lon="7.10345">
        <ele>395.3</ele>
        <time>2021-09-28T12:39:40.000Z</time>
      </trkpt>
      <trkpt lat="47.81609" lon="7.10343">
        <ele>393.5</ele>
        <time>2021-09-28T12:39:58.000Z</time>
      </trkpt>
      <trkpt lat="47.816" lon="7.10336">
        <ele>393.3</ele>
        <time>2021-09-28T12:40:05.000Z</time>
      </trkpt>
      <trkpt lat="47.81591" lon="7.10332">
        <ele>392</ele>
        <time>2021-09-28T12:40:15.000Z</time>
      </trkpt>
      <trkpt lat="47.81581" lon="7.10328">
        <ele>390.4</ele>
        <time>2021-09-28T12:40:25.000Z</time>
      </trkpt>
      <trkpt lat="47.8157" lon="7.10326">
        <ele>388.4</ele>
        <time>2021-09-28T12:40:34.000Z</time>
      </trkpt>
      <trkpt lat="47.8156" lon="7.10323">
        <ele>386.7</ele>
        <time>2021-09-28T12:40:41.000Z</time>
      </trkpt>
      <trkpt lat="47.81551" lon="7.1032">
        <ele>385</ele>
        <time>2021-09-28T12:40:49.000Z</time>
      </trkpt>
      <trkpt lat="47.81541" lon="7.1032">
        <ele>382.9</ele>
        <time>2021-09-28T12:40:57.000Z</time>
      </trkpt>
      <trkpt lat="47.81532" lon="7.10319">
        <ele>380.9</ele>
        <time>2021-09-28T12:41:04.000Z</time>
      </trkpt>
      <trkpt lat="47.81523" lon="7.1032">
        <ele>378.4</ele>
        <time>2021-09-28T12:41:12.000Z</time>
      </trkpt>
      <trkpt lat="47.81513" lon="7.10322">
        <ele>375.6</ele>
        <time>2021-09-28T12:41:21.000Z</time>
      </trkpt>
      <trkpt lat="47.81504" lon="7.1032">
        <ele>373.8</ele>
        <time>2021-09-28T12:41:27.000Z</time>
      </trkpt>
      <trkpt lat="47.81494" lon="7.10322">
        <ele>371.8</ele>
        <time>2021-09-28T12:41:35.000Z</time>
      </trkpt>
      <trkpt lat="47.81485" lon="7.10326">
        <ele>369.4</ele>
        <time>2021-09-28T12:41:43.000Z</time>
      </trkpt>
      <trkpt lat="47.81475" lon="7.10327">
        <ele>368</ele>
        <time>2021-09-28T12:41:50.000Z</time>
      </trkpt>
      <trkpt lat="47.81466" lon="7.10328">
        <ele>366.7</ele>
        <time>2021-09-28T12:41:58.000Z</time>
      </trkpt>
      <trkpt lat="47.81458" lon="7.10332">
        <ele>364.4</ele>
        <time>2021-09-28T12:42:05.000Z</time>
      </trkpt>
      <trkpt lat="47.81448" lon="7.10333">
        <ele>362.9</ele>
        <time>2021-09-28T12:42:15.000Z</time>
      </trkpt>
      <trkpt lat="47.81439" lon="7.10337">
        <ele>361.2</ele>
        <time>2021-09-28T12:42:22.000Z</time>
      </trkpt>
      <trkpt lat="47.81431" lon="7.10345">
        <ele>359.2</ele>
        <time>2021-09-28T12:42:31.000Z</time>
      </trkpt>
      <trkpt lat="47.81423" lon="7.10352">
        <ele>357.4</ele>
        <time>2021-09-28T12:42:40.000Z</time>
      </trkpt>
      <trkpt lat="47.81414" lon="7.1036">
        <ele>355.4</ele>
        <time>2021-09-28T12:42:50.000Z</time>
      </trkpt>
      <trkpt lat="47.81408" lon="7.10371">
        <ele>353.3</ele>
        <time>2021-09-28T12:42:57.000Z</time>
      </trkpt>
      <trkpt lat="47.81398" lon="7.10372">
        <ele>351.9</ele>
        <time>2021-09-28T12:43:08.000Z</time>
      </trkpt>
      <trkpt lat="47.81388" lon="7.10375">
        <ele>350.4</ele>
        <time>2021-09-28T12:43:18.000Z</time>
      </trkpt>
      <trkpt lat="47.81377" lon="7.1038">
        <ele>348.6</ele>
        <time>2021-09-28T12:43:23.000Z</time>
      </trkpt>
      <trkpt lat="47.81367" lon="7.10379">
        <ele>347.5</ele>
        <time>2021-09-28T12:43:32.000Z</time>
      </trkpt>
      <trkpt lat="47.81358" lon="7.10377">
        <ele>346.5</ele>
        <time>2021-09-28T12:43:40.000Z</time>
      </trkpt>
      <trkpt lat="47.81348" lon="7.10371">
        <ele>345.6</ele>
        <time>2021-09-28T12:43:48.000Z</time>
      </trkpt>
      <trkpt lat="47.81339" lon="7.10366">
        <ele>344.8</ele>
        <time>2021-09-28T12:43:53.000Z</time>
      </trkpt>
      <trkpt lat="47.8133" lon="7.10363">
        <ele>343.9</ele>
        <time>2021-09-28T12:44:02.000Z</time>
      </trkpt>
      <trkpt lat="47.8132" lon="7.10361">
        <ele>343.2</ele>
        <time>2021-09-28T12:44:09.000Z</time>
      </trkpt>
      <trkpt lat="47.81313" lon="7.10352">
        <ele>343.1</ele>
        <time>2021-09-28T12:44:14.000Z</time>
      </trkpt>
      <trkpt lat="47.81307" lon="7.1034">
        <ele>343.1</ele>
        <time>2021-09-28T12:44:21.000Z</time>
      </trkpt>
      <trkpt lat="47.81308" lon="7.10326">
        <ele>344.5</ele>
        <time>2021-09-28T12:44:27.000Z</time>
      </trkpt>
      <trkpt lat="47.81303" lon="7.10313">
        <ele>345.9</ele>
        <time>2021-09-28T12:44:36.000Z</time>
      </trkpt>
      <trkpt lat="47.81297" lon="7.10301">
        <ele>346.5</ele>
        <time>2021-09-28T12:44:44.000Z</time>
      </trkpt>
      <trkpt lat="47.81293" lon="7.10287">
        <ele>347.5</ele>
        <time>2021-09-28T12:44:55.000Z</time>
      </trkpt>
      <trkpt lat="47.81287" lon="7.10277">
        <ele>347.4</ele>
        <time>2021-09-28T12:45:00.000Z</time>
      </trkpt>
      <trkpt lat="47.8128" lon="7.10266">
        <ele>347.1</ele>
        <time>2021-09-28T12:45:05.000Z</time>
      </trkpt>
      <trkpt lat="47.81278" lon="7.10253">
        <ele>347.8</ele>
        <time>2021-09-28T12:45:16.000Z</time>
      </trkpt>
      <trkpt lat="47.81279" lon="7.10239">
        <ele>348.1</ele>
        <time>2021-09-28T12:45:24.000Z</time>
      </trkpt>
      <trkpt lat="47.81278" lon="7.10225">
        <ele>347.9</ele>
        <time>2021-09-28T12:45:34.000Z</time>
      </trkpt>
      <trkpt lat="47.8128" lon="7.1021">
        <ele>348.2</ele>
        <time>2021-09-28T12:45:42.000Z</time>
      </trkpt>
      <trkpt lat="47.81279" lon="7.10196">
        <ele>347.8</ele>
        <time>2021-09-28T12:45:48.000Z</time>
      </trkpt>
      <trkpt lat="47.81275" lon="7.10183">
        <ele>346.3</ele>
        <time>2021-09-28T12:45:54.000Z</time>
      </trkpt>
      <trkpt lat="47.81264" lon="7.10177">
        <ele>342.7</ele>
        <time>2021-09-28T12:45:59.000Z</time>
      </trkpt>
      <trkpt lat="47.81254" lon="7.10174">
        <ele>339.4</ele>
        <time>2021-09-28T12:46:05.000Z</time>
      </trkpt>
      <trkpt lat="47.81243" lon="7.10172">
        <ele>338.3</ele>
        <time>2021-09-28T12:46:13.000Z</time>
      </trkpt>
      <trkpt lat="47.81236" lon="7.10182">
        <ele>338.7</ele>
        <time>2021-09-28T12:46:57.000Z</time>
      </trkpt>
      <trkpt lat="47.81227" lon="7.10179">
        <ele>338.8</ele>
        <time>2021-09-28T12:47:04.000Z</time>
      </trkpt>
      <trkpt lat="47.81219" lon="7.1017">
        <ele>338.8</ele>
        <time>2021-09-28T12:47:11.000Z</time>
      </trkpt>
      <trkpt lat="47.81209" lon="7.1017">
        <ele>339</ele>
        <time>2021-09-28T12:47:18.000Z</time>
      </trkpt>
      <trkpt lat="47.81199" lon="7.10166">
        <ele>339.2</ele>
        <time>2021-09-28T12:47:26.000Z</time>
      </trkpt>
      <trkpt lat="47.81189" lon="7.10163">
        <ele>339.5</ele>
        <time>2021-09-28T12:47:33.000Z</time>
      </trkpt>
      <trkpt lat="47.8118" lon="7.10161">
        <ele>339.7</ele>
        <time>2021-09-28T12:47:39.000Z</time>
      </trkpt>
      <trkpt lat="47.81171" lon="7.10162">
        <ele>340</ele>
        <time>2021-09-28T12:47:45.000Z</time>
      </trkpt>
      <trkpt lat="47.81161" lon="7.10162">
        <ele>340.1</ele>
        <time>2021-09-28T12:47:53.000Z</time>
      </trkpt>
      <trkpt lat="47.81151" lon="7.10161">
        <ele>340.1</ele>
        <time>2021-09-28T12:48:01.000Z</time>
      </trkpt>
      <trkpt lat="47.81143" lon="7.10168">
        <ele>340</ele>
        <time>2021-09-28T12:48:08.000Z</time>
      </trkpt>
      <trkpt lat="47.81134" lon="7.10172">
        <ele>339.9</ele>
        <time>2021-09-28T12:48:16.000Z</time>
      </trkpt>
      <trkpt lat="47.81124" lon="7.10172">
        <ele>339.9</ele>
        <time>2021-09-28T12:48:25.000Z</time>
      </trkpt>
      <trkpt lat="47.81115" lon="7.10176">
        <ele>339.8</ele>
        <time>2021-09-28T12:48:30.000Z</time>
      </trkpt>
      <trkpt lat="47.81108" lon="7.10184">
        <ele>339.6</ele>
        <time>2021-09-28T12:48:39.000Z</time>
      </trkpt>
      <trkpt lat="47.81107" lon="7.10198">
        <ele>339.4</ele>
        <time>2021-09-28T12:48:48.000Z</time>
      </trkpt>
      <trkpt lat="47.81099" lon="7.10206">
        <ele>339.1</ele>
        <time>2021-09-28T12:48:57.000Z</time>
      </trkpt>
      <trkpt lat="47.81093" lon="7.10218">
        <ele>338.8</ele>
        <time>2021-09-28T12:49:08.000Z</time>
      </trkpt>
      <trkpt lat="47.81088" lon="7.10229">
        <ele>338.5</ele>
        <time>2021-09-28T12:49:14.000Z</time>
      </trkpt>
      <trkpt lat="47.81083" lon="7.10241">
        <ele>338.2</ele>
        <time>2021-09-28T12:49:19.000Z</time>
      </trkpt>
      <trkpt lat="47.81078" lon="7.10252">
        <ele>338</ele>
        <time>2021-09-28T12:49:26.000Z</time>
      </trkpt>
      <trkpt lat="47.81072" lon="7.10264">
        <ele>337.8</ele>
        <time>2021-09-28T12:49:34.000Z</time>
      </trkpt>
      <trkpt lat="47.81064" lon="7.10275">
        <ele>337.6</ele>
        <time>2021-09-28T12:49:46.000Z</time>
      </trkpt>
      <trkpt lat="47.81058" lon="7.10287">
        <ele>337.4</ele>
        <time>2021-09-28T12:49:52.000Z</time>
      </trkpt>
      <trkpt lat="47.81053" lon="7.10299">
        <ele>337.2</ele>
        <time>2021-09-28T12:50:00.000Z</time>
      </trkpt>
      <trkpt lat="47.81047" lon="7.10312">
        <ele>336.9</ele>
        <time>2021-09-28T12:50:07.000Z</time>
      </trkpt>
      <trkpt lat="47.81037" lon="7.10317">
        <ele>336.8</ele>
        <time>2021-09-28T12:50:13.000Z</time>
      </trkpt>
      <trkpt lat="47.8103" lon="7.10325">
        <ele>336.5</ele>
        <time>2021-09-28T12:50:19.000Z</time>
      </trkpt>
      <trkpt lat="47.81021" lon="7.10331">
        <ele>336.3</ele>
        <time>2021-09-28T12:50:26.000Z</time>
      </trkpt>
      <trkpt lat="47.81012" lon="7.10336">
        <ele>336.1</ele>
        <time>2021-09-28T12:50:33.000Z</time>
      </trkpt>
      <trkpt lat="47.81004" lon="7.10345">
        <ele>335.9</ele>
        <time>2021-09-28T12:50:42.000Z</time>
      </trkpt>
      <trkpt lat="47.80996" lon="7.10351">
        <ele>335.9</ele>
        <time>2021-09-28T12:50:50.000Z</time>
      </trkpt>
      <trkpt lat="47.80988" lon="7.10356">
        <ele>336.1</ele>
        <time>2021-09-28T12:50:57.000Z</time>
      </trkpt>
      <trkpt lat="47.8098" lon="7.10365">
        <ele>336.2</ele>
        <time>2021-09-28T12:51:04.000Z</time>
      </trkpt>
      <trkpt lat="47.80974" lon="7.10374">
        <ele>336.1</ele>
        <time>2021-09-28T12:51:12.000Z</time>
      </trkpt>
      <trkpt lat="47.80967" lon="7.10383">
        <ele>336.1</ele>
        <time>2021-09-28T12:51:18.000Z</time>
      </trkpt>
      <trkpt lat="47.8096" lon="7.10392">
        <ele>336.1</ele>
        <time>2021-09-28T12:51:25.000Z</time>
      </trkpt>
      <trkpt lat="47.80952" lon="7.10402">
        <ele>336</ele>
        <time>2021-09-28T12:51:33.000Z</time>
      </trkpt>
      <trkpt lat="47.80946" lon="7.10412">
        <ele>335.8</ele>
        <time>2021-09-28T12:51:40.000Z</time>
      </trkpt>
      <trkpt lat="47.80938" lon="7.10418">
        <ele>335.7</ele>
        <time>2021-09-28T12:51:47.000Z</time>
      </trkpt>
      <trkpt lat="47.80932" lon="7.10429">
        <ele>335.7</ele>
        <time>2021-09-28T12:51:54.000Z</time>
      </trkpt>
      <trkpt lat="47.80926" lon="7.10439">
        <ele>335.7</ele>
        <time>2021-09-28T12:52:01.000Z</time>
      </trkpt>
      <trkpt lat="47.80918" lon="7.10446">
        <ele>335.6</ele>
        <time>2021-09-28T12:52:07.000Z</time>
      </trkpt>
      <trkpt lat="47.80912" lon="7.10459">
        <ele>335.6</ele>
        <time>2021-09-28T12:52:13.000Z</time>
      </trkpt>
      <trkpt lat="47.80909" lon="7.10472">
        <ele>335.6</ele>
        <time>2021-09-28T12:52:20.000Z</time>
      </trkpt>
      <trkpt lat="47.80905" lon="7.10486">
        <ele>335.5</ele>
        <time>2021-09-28T12:52:29.000Z</time>
      </trkpt>
      <trkpt lat="47.809" lon="7.10498">
        <ele>335.4</ele>
        <time>2021-09-28T12:52:38.000Z</time>
      </trkpt>
      <trkpt lat="47.80896" lon="7.10511">
        <ele>335.3</ele>
        <time>2021-09-28T12:52:44.000Z</time>
      </trkpt>
      <trkpt lat="47.80895" lon="7.10525">
        <ele>335</ele>
        <time>2021-09-28T12:52:51.000Z</time>
      </trkpt>
      <trkpt lat="47.80891" lon="7.10538">
        <ele>334.8</ele>
        <time>2021-09-28T12:52:59.000Z</time>
      </trkpt>
      <trkpt lat="47.80887" lon="7.10552">
        <ele>334.7</ele>
        <time>2021-09-28T12:53:06.000Z</time>
      </trkpt>
      <trkpt lat="47.80886" lon="7.10567">
        <ele>334.5</ele>
        <time>2021-09-28T12:53:14.000Z</time>
      </trkpt>
      <trkpt lat="47.80883" lon="7.10581">
        <ele>334.3</ele>
        <time>2021-09-28T12:53:22.000Z</time>
      </trkpt>
      <trkpt lat="47.80883" lon="7.10594">
        <ele>334.3</ele>
        <time>2021-09-28T12:53:29.000Z</time>
      </trkpt>
      <trkpt lat="47.80881" lon="7.10608">
        <ele>334.4</ele>
        <time>2021-09-28T12:53:36.000Z</time>
      </trkpt>
      <trkpt lat="47.80878" lon="7.10622">
        <ele>334.6</ele>
        <time>2021-09-28T12:53:44.000Z</time>
      </trkpt>
      <trkpt lat="47.80877" lon="7.10636">
        <ele>334.7</ele>
        <time>2021-09-28T12:53:51.000Z</time>
      </trkpt>
      <trkpt lat="47.80881" lon="7.1065">
        <ele>334.6</ele>
        <time>2021-09-28T12:53:58.000Z</time>
      </trkpt>
      <trkpt lat="47.80887" lon="7.10661">
        <ele>334.4</ele>
        <time>2021-09-28T12:54:06.000Z</time>
      </trkpt>
      <trkpt lat="47.80893" lon="7.10672">
        <ele>334.2</ele>
        <time>2021-09-28T12:54:17.000Z</time>
      </trkpt>
      <trkpt lat="47.80898" lon="7.10685">
        <ele>334</ele>
        <time>2021-09-28T12:54:25.000Z</time>
      </trkpt>
      <trkpt lat="47.80901" lon="7.10699">
        <ele>333.9</ele>
        <time>2021-09-28T12:54:34.000Z</time>
      </trkpt>
      <trkpt lat="47.80905" lon="7.10706">
        <ele>333.8</ele>
        <time>2021-09-28T12:55:05.000Z</time>
      </trkpt>
    </trkseg>
  </trk>
  <trk>
    <name><![CDATA[2021-09-27 J1-Munster-Thann par Petit et Grand Ballon (seul et bivouac)]]></name>
    <extensions>
      <line xmlns="http://www.topografix.com/GPX/gpx_style/0/2">
        <color>0000FF</color>
        <opacity>0.59</opacity>
        <width>6</width>
      </line>
    </extensions>
    <trkseg>
      <trkpt lat="48.03825" lon="7.13435">
        <ele>383.3</ele>
        <time>2021-09-27T06:15:38.000Z</time>
      </trkpt>
      <trkpt lat="48.03832" lon="7.13426">
        <ele>383.7</ele>
        <time>2021-09-27T06:15:50.000Z</time>
      </trkpt>
      <trkpt lat="48.03839" lon="7.13418">
        <ele>384</ele>
        <time>2021-09-27T06:15:56.000Z</time>
      </trkpt>
      <trkpt lat="48.03845" lon="7.13408">
        <ele>383.9</ele>
        <time>2021-09-27T06:16:01.000Z</time>
      </trkpt>
      <trkpt lat="48.03852" lon="7.13398">
        <ele>383.8</ele>
        <time>2021-09-27T06:16:10.000Z</time>
      </trkpt>
      <trkpt lat="48.0386" lon="7.13389">
        <ele>383.9</ele>
        <time>2021-09-27T06:16:16.000Z</time>
      </trkpt>
      <trkpt lat="48.0386" lon="7.13375">
        <ele>383.8</ele>
        <time>2021-09-27T06:16:23.000Z</time>
      </trkpt>
      <trkpt lat="48.03858" lon="7.13361">
        <ele>383.7</ele>
        <time>2021-09-27T06:16:32.000Z</time>
      </trkpt>
      <trkpt lat="48.03856" lon="7.13348">
        <ele>383.5</ele>
        <time>2021-09-27T06:16:40.000Z</time>
      </trkpt>
      <trkpt lat="48.03854" lon="7.13333">
        <ele>383.2</ele>
        <time>2021-09-27T06:16:47.000Z</time>
      </trkpt>
      <trkpt lat="48.03853" lon="7.13317">
        <ele>383.1</ele>
        <time>2021-09-27T06:16:54.000Z</time>
      </trkpt>
      <trkpt lat="48.03852" lon="7.13303">
        <ele>382.9</ele>
        <time>2021-09-27T06:17:00.000Z</time>
      </trkpt>
      <trkpt lat="48.03853" lon="7.13288">
        <ele>382.9</ele>
        <time>2021-09-27T06:17:08.000Z</time>
      </trkpt>
      <trkpt lat="48.03851" lon="7.13275">
        <ele>382.8</ele>
        <time>2021-09-27T06:17:16.000Z</time>
      </trkpt>
      <trkpt lat="48.03845" lon="7.13264">
        <ele>382.5</ele>
        <time>2021-09-27T06:17:25.000Z</time>
      </trkpt>
      <trkpt lat="48.03838" lon="7.13274">
        <ele>382.2</ele>
        <time>2021-09-27T06:17:33.000Z</time>
      </trkpt>
      <trkpt lat="48.03829" lon="7.13281">
        <ele>382</ele>
        <time>2021-09-27T06:17:41.000Z</time>
      </trkpt>
      <trkpt lat="48.0382" lon="7.13287">
        <ele>381.9</ele>
        <time>2021-09-27T06:17:48.000Z</time>
      </trkpt>
      <trkpt lat="48.0381" lon="7.13288">
        <ele>381.9</ele>
        <time>2021-09-27T06:18:51.000Z</time>
      </trkpt>
      <trkpt lat="48.03801" lon="7.13287">
        <ele>381.8</ele>
        <time>2021-09-27T06:18:57.000Z</time>
      </trkpt>
      <trkpt lat="48.03792" lon="7.13286">
        <ele>381.8</ele>
        <time>2021-09-27T06:19:03.000Z</time>
      </trkpt>
      <trkpt lat="48.03781" lon="7.13282">
        <ele>381.8</ele>
        <time>2021-09-27T06:19:09.000Z</time>
      </trkpt>
      <trkpt lat="48.0377" lon="7.13275">
        <ele>381.8</ele>
        <time>2021-09-27T06:19:14.000Z</time>
      </trkpt>
      <trkpt lat="48.0376" lon="7.1327">
        <ele>381.8</ele>
        <time>2021-09-27T06:19:19.000Z</time>
      </trkpt>
      <trkpt lat="48.03751" lon="7.1327">
        <ele>381.8</ele>
        <time>2021-09-27T06:19:25.000Z</time>
      </trkpt>
      <trkpt lat="48.03742" lon="7.13266">
        <ele>381.9</ele>
        <time>2021-09-27T06:19:30.000Z</time>
      </trkpt>
      <trkpt lat="48.03733" lon="7.13263">
        <ele>382</ele>
        <time>2021-09-27T06:19:35.000Z</time>
      </trkpt>
      <trkpt lat="48.03724" lon="7.13262">
        <ele>382</ele>
        <time>2021-09-27T06:19:41.000Z</time>
      </trkpt>
      <trkpt lat="48.03714" lon="7.13265">
        <ele>382</ele>
        <time>2021-09-27T06:19:48.000Z</time>
      </trkpt>
      <trkpt lat="48.03704" lon="7.13269">
        <ele>381.9</ele>
        <time>2021-09-27T06:19:56.000Z</time>
      </trkpt>
      <trkpt lat="48.03695" lon="7.13271">
        <ele>381.9</ele>
        <time>2021-09-27T06:20:04.000Z</time>
      </trkpt>
      <trkpt lat="48.03685" lon="7.13276">
        <ele>381.8</ele>
        <time>2021-09-27T06:20:11.000Z</time>
      </trkpt>
      <trkpt lat="48.03674" lon="7.13276">
        <ele>381.8</ele>
        <time>2021-09-27T06:20:18.000Z</time>
      </trkpt>
      <trkpt lat="48.03665" lon="7.13277">
        <ele>381.8</ele>
        <time>2021-09-27T06:20:25.000Z</time>
      </trkpt>
      <trkpt lat="48.03656" lon="7.13275">
        <ele>382</ele>
        <time>2021-09-27T06:20:32.000Z</time>
      </trkpt>
      <trkpt lat="48.03646" lon="7.13275">
        <ele>382.1</ele>
        <time>2021-09-27T06:20:41.000Z</time>
      </trkpt>
      <trkpt lat="48.03636" lon="7.13272">
        <ele>382.3</ele>
        <time>2021-09-27T06:20:49.000Z</time>
      </trkpt>
      <trkpt lat="48.03627" lon="7.13268">
        <ele>382.5</ele>
        <time>2021-09-27T06:20:56.000Z</time>
      </trkpt>
      <trkpt lat="48.03617" lon="7.13266">
        <ele>382.5</ele>
        <time>2021-09-27T06:21:03.000Z</time>
      </trkpt>
      <trkpt lat="48.03608" lon="7.13264">
        <ele>382.6</ele>
        <time>2021-09-27T06:21:10.000Z</time>
      </trkpt>
      <trkpt lat="48.03599" lon="7.13264">
        <ele>382.6</ele>
        <time>2021-09-27T06:21:18.000Z</time>
      </trkpt>
      <trkpt lat="48.0359" lon="7.13265">
        <ele>382.7</ele>
        <time>2021-09-27T06:21:24.000Z</time>
      </trkpt>
      <trkpt lat="48.0358" lon="7.13266">
        <ele>383.6</ele>
        <time>2021-09-27T06:21:32.000Z</time>
      </trkpt>
      <trkpt lat="48.03571" lon="7.13273">
        <ele>385.8</ele>
        <time>2021-09-27T06:21:40.000Z</time>
      </trkpt>
      <trkpt lat="48.03562" lon="7.13277">
        <ele>388.2</ele>
        <time>2021-09-27T06:21:47.000Z</time>
      </trkpt>
      <trkpt lat="48.03553" lon="7.13278">
        <ele>390.3</ele>
        <time>2021-09-27T06:21:54.000Z</time>
      </trkpt>
      <trkpt lat="48.03544" lon="7.13274">
        <ele>392</ele>
        <time>2021-09-27T06:22:01.000Z</time>
      </trkpt>
      <trkpt lat="48.03535" lon="7.13269">
        <ele>393.5</ele>
        <time>2021-09-27T06:22:09.000Z</time>
      </trkpt>
      <trkpt lat="48.03527" lon="7.1326">
        <ele>394</ele>
        <time>2021-09-27T06:22:18.000Z</time>
      </trkpt>
      <trkpt lat="48.03521" lon="7.13249">
        <ele>393.8</ele>
        <time>2021-09-27T06:22:27.000Z</time>
      </trkpt>
      <trkpt lat="48.03518" lon="7.13235">
        <ele>393.7</ele>
        <time>2021-09-27T06:22:36.000Z</time>
      </trkpt>
      <trkpt lat="48.03513" lon="7.13224">
        <ele>394.1</ele>
        <time>2021-09-27T06:22:44.000Z</time>
      </trkpt>
      <trkpt lat="48.0351" lon="7.13211">
        <ele>394</ele>
        <time>2021-09-27T06:22:52.000Z</time>
      </trkpt>
      <trkpt lat="48.03507" lon="7.13198">
        <ele>393.8</ele>
        <time>2021-09-27T06:23:00.000Z</time>
      </trkpt>
      <trkpt lat="48.03505" lon="7.13183">
        <ele>393.3</ele>
        <time>2021-09-27T06:23:09.000Z</time>
      </trkpt>
      <trkpt lat="48.03501" lon="7.1317">
        <ele>393.1</ele>
        <time>2021-09-27T06:23:17.000Z</time>
      </trkpt>
      <trkpt lat="48.03496" lon="7.13157">
        <ele>393.9</ele>
        <time>2021-09-27T06:23:25.000Z</time>
      </trkpt>
      <trkpt lat="48.03491" lon="7.13146">
        <ele>395</ele>
        <time>2021-09-27T06:23:36.000Z</time>
      </trkpt>
      <trkpt lat="48.03485" lon="7.13134">
        <ele>396.5</ele>
        <time>2021-09-27T06:23:44.000Z</time>
      </trkpt>
      <trkpt lat="48.0348" lon="7.13122">
        <ele>397.7</ele>
        <time>2021-09-27T06:23:53.000Z</time>
      </trkpt>
      <trkpt lat="48.03472" lon="7.13111">
        <ele>399.5</ele>
        <time>2021-09-27T06:24:03.000Z</time>
      </trkpt>
      <trkpt lat="48.03465" lon="7.131">
        <ele>401</ele>
        <time>2021-09-27T06:24:11.000Z</time>
      </trkpt>
      <trkpt lat="48.03459" lon="7.13089">
        <ele>402.2</ele>
        <time>2021-09-27T06:24:18.000Z</time>
      </trkpt>
      <trkpt lat="48.03453" lon="7.13078">
        <ele>403</ele>
        <time>2021-09-27T06:24:27.000Z</time>
      </trkpt>
      <trkpt lat="48.03447" lon="7.13068">
        <ele>403.7</ele>
        <time>2021-09-27T06:24:34.000Z</time>
      </trkpt>
      <trkpt lat="48.03443" lon="7.13056">
        <ele>403.6</ele>
        <time>2021-09-27T06:24:44.000Z</time>
      </trkpt>
      <trkpt lat="48.03437" lon="7.13044">
        <ele>403.6</ele>
        <time>2021-09-27T06:24:52.000Z</time>
      </trkpt>
      <trkpt lat="48.03431" lon="7.13032">
        <ele>403.4</ele>
        <time>2021-09-27T06:25:00.000Z</time>
      </trkpt>
      <trkpt lat="48.03427" lon="7.13019">
        <ele>402.6</ele>
        <time>2021-09-27T06:25:08.000Z</time>
      </trkpt>
      <trkpt lat="48.03423" lon="7.13007">
        <ele>401.7</ele>
        <time>2021-09-27T06:25:15.000Z</time>
      </trkpt>
      <trkpt lat="48.03417" lon="7.12994">
        <ele>401.4</ele>
        <time>2021-09-27T06:25:22.000Z</time>
      </trkpt>
      <trkpt lat="48.03412" lon="7.12982">
        <ele>401.5</ele>
        <time>2021-09-27T06:25:31.000Z</time>
      </trkpt>
      <trkpt lat="48.03406" lon="7.12972">
        <ele>402.1</ele>
        <time>2021-09-27T06:25:37.000Z</time>
      </trkpt>
      <trkpt lat="48.03402" lon="7.1296">
        <ele>401.7</ele>
        <time>2021-09-27T06:25:45.000Z</time>
      </trkpt>
      <trkpt lat="48.03393" lon="7.12949">
        <ele>402.6</ele>
        <time>2021-09-27T06:25:53.000Z</time>
      </trkpt>
      <trkpt lat="48.03386" lon="7.12939">
        <ele>403.1</ele>
        <time>2021-09-27T06:26:00.000Z</time>
      </trkpt>
      <trkpt lat="48.0338" lon="7.12927">
        <ele>402.9</ele>
        <time>2021-09-27T06:26:09.000Z</time>
      </trkpt>
      <trkpt lat="48.03374" lon="7.12917">
        <ele>402.8</ele>
        <time>2021-09-27T06:26:18.000Z</time>
      </trkpt>
      <trkpt lat="48.03368" lon="7.12907">
        <ele>403.4</ele>
        <time>2021-09-27T06:26:25.000Z</time>
      </trkpt>
      <trkpt lat="48.0336" lon="7.12897">
        <ele>404.3</ele>
        <time>2021-09-27T06:26:35.000Z</time>
      </trkpt>
      <trkpt lat="48.03357" lon="7.12911">
        <ele>406.1</ele>
        <time>2021-09-27T06:26:47.000Z</time>
      </trkpt>
      <trkpt lat="48.03358" lon="7.12926">
        <ele>407.9</ele>
        <time>2021-09-27T06:26:57.000Z</time>
      </trkpt>
      <trkpt lat="48.03359" lon="7.1294">
        <ele>409.9</ele>
        <time>2021-09-27T06:27:10.000Z</time>
      </trkpt>
      <trkpt lat="48.03357" lon="7.12954">
        <ele>412.7</ele>
        <time>2021-09-27T06:27:21.000Z</time>
      </trkpt>
      <trkpt lat="48.0336" lon="7.12968">
        <ele>414.6</ele>
        <time>2021-09-27T06:27:33.000Z</time>
      </trkpt>
      <trkpt lat="48.03362" lon="7.12982">
        <ele>416</ele>
        <time>2021-09-27T06:27:42.000Z</time>
      </trkpt>
      <trkpt lat="48.03365" lon="7.12995">
        <ele>417.2</ele>
        <time>2021-09-27T06:27:52.000Z</time>
      </trkpt>
      <trkpt lat="48.03371" lon="7.13006">
        <ele>417.3</ele>
        <time>2021-09-27T06:28:01.000Z</time>
      </trkpt>
      <trkpt lat="48.03373" lon="7.13019">
        <ele>418.9</ele>
        <time>2021-09-27T06:28:11.000Z</time>
      </trkpt>
      <trkpt lat="48.03378" lon="7.13031">
        <ele>419.4</ele>
        <time>2021-09-27T06:28:21.000Z</time>
      </trkpt>
      <trkpt lat="48.0338" lon="7.13045">
        <ele>421.3</ele>
        <time>2021-09-27T06:28:33.000Z</time>
      </trkpt>
      <trkpt lat="48.03382" lon="7.13059">
        <ele>423</ele>
        <time>2021-09-27T06:28:43.000Z</time>
      </trkpt>
      <trkpt lat="48.03381" lon="7.13074">
        <ele>425.9</ele>
        <time>2021-09-27T06:28:54.000Z</time>
      </trkpt>
      <trkpt lat="48.03384" lon="7.13088">
        <ele>426.7</ele>
        <time>2021-09-27T06:29:03.000Z</time>
      </trkpt>
      <trkpt lat="48.0339" lon="7.13099">
        <ele>425.8</ele>
        <time>2021-09-27T06:29:13.000Z</time>
      </trkpt>
      <trkpt lat="48.03393" lon="7.13113">
        <ele>426.2</ele>
        <time>2021-09-27T06:29:22.000Z</time>
      </trkpt>
      <trkpt lat="48.03396" lon="7.13126">
        <ele>426.5</ele>
        <time>2021-09-27T06:29:32.000Z</time>
      </trkpt>
      <trkpt lat="48.03395" lon="7.1314">
        <ele>428.3</ele>
        <time>2021-09-27T06:29:42.000Z</time>
      </trkpt>
      <trkpt lat="48.03393" lon="7.13154">
        <ele>430.6</ele>
        <time>2021-09-27T06:29:52.000Z</time>
      </trkpt>
      <trkpt lat="48.03389" lon="7.13166">
        <ele>433.3</ele>
        <time>2021-09-27T06:30:01.000Z</time>
      </trkpt>
      <trkpt lat="48.03388" lon="7.13181">
        <ele>434.2</ele>
        <time>2021-09-27T06:30:11.000Z</time>
      </trkpt>
      <trkpt lat="48.03385" lon="7.13195">
        <ele>436.1</ele>
        <time>2021-09-27T06:30:23.000Z</time>
      </trkpt>
      <trkpt lat="48.03379" lon="7.13205">
        <ele>438.6</ele>
        <time>2021-09-27T06:30:33.000Z</time>
      </trkpt>
      <trkpt lat="48.03376" lon="7.13218">
        <ele>440.2</ele>
        <time>2021-09-27T06:30:44.000Z</time>
      </trkpt>
      <trkpt lat="48.03376" lon="7.13231">
        <ele>440.5</ele>
        <time>2021-09-27T06:30:54.000Z</time>
      </trkpt>
      <trkpt lat="48.03375" lon="7.13245">
        <ele>441.4</ele>
        <time>2021-09-27T06:31:04.000Z</time>
      </trkpt>
      <trkpt lat="48.03369" lon="7.13255">
        <ele>443.3</ele>
        <time>2021-09-27T06:31:14.000Z</time>
      </trkpt>
      <trkpt lat="48.0336" lon="7.13262">
        <ele>445.6</ele>
        <time>2021-09-27T06:31:26.000Z</time>
      </trkpt>
      <trkpt lat="48.03354" lon="7.13274">
        <ele>446.6</ele>
        <time>2021-09-27T06:31:35.000Z</time>
      </trkpt>
      <trkpt lat="48.03346" lon="7.13281">
        <ele>448.4</ele>
        <time>2021-09-27T06:31:47.000Z</time>
      </trkpt>
      <trkpt lat="48.03339" lon="7.13289">
        <ele>449.8</ele>
        <time>2021-09-27T06:32:03.000Z</time>
      </trkpt>
      <trkpt lat="48.03329" lon="7.13289">
        <ele>452.6</ele>
        <time>2021-09-27T06:32:18.000Z</time>
      </trkpt>
      <trkpt lat="48.03321" lon="7.13286">
        <ele>456.1</ele>
        <time>2021-09-27T06:32:35.000Z</time>
      </trkpt>
      <trkpt lat="48.03312" lon="7.13279">
        <ele>459.5</ele>
        <time>2021-09-27T06:32:46.000Z</time>
      </trkpt>
      <trkpt lat="48.03305" lon="7.13271">
        <ele>462.3</ele>
        <time>2021-09-27T06:33:01.000Z</time>
      </trkpt>
      <trkpt lat="48.03296" lon="7.13275">
        <ele>465</ele>
        <time>2021-09-27T06:33:10.000Z</time>
      </trkpt>
      <trkpt lat="48.03287" lon="7.13274">
        <ele>468.1</ele>
        <time>2021-09-27T06:33:22.000Z</time>
      </trkpt>
      <trkpt lat="48.03272" lon="7.13273">
        <ele>472.8</ele>
        <time>2021-09-27T06:33:50.000Z</time>
      </trkpt>
      <trkpt lat="48.03264" lon="7.1328">
        <ele>475.9</ele>
        <time>2021-09-27T06:34:01.000Z</time>
      </trkpt>
      <trkpt lat="48.03258" lon="7.13294">
        <ele>478.3</ele>
        <time>2021-09-27T06:34:12.000Z</time>
      </trkpt>
      <trkpt lat="48.03256" lon="7.13307">
        <ele>479.5</ele>
        <time>2021-09-27T06:34:27.000Z</time>
      </trkpt>
      <trkpt lat="48.03259" lon="7.13294">
        <ele>477.7</ele>
        <time>2021-09-27T06:34:51.000Z</time>
      </trkpt>
      <trkpt lat="48.03262" lon="7.13281">
        <ele>476.4</ele>
        <time>2021-09-27T06:35:01.000Z</time>
      </trkpt>
      <trkpt lat="48.03259" lon="7.13267">
        <ele>476.9</ele>
        <time>2021-09-27T06:35:13.000Z</time>
      </trkpt>
      <trkpt lat="48.03251" lon="7.13273">
        <ele>479.9</ele>
        <time>2021-09-27T06:35:23.000Z</time>
      </trkpt>
      <trkpt lat="48.03247" lon="7.13287">
        <ele>481.8</ele>
        <time>2021-09-27T06:35:33.000Z</time>
      </trkpt>
      <trkpt lat="48.0324" lon="7.13297">
        <ele>484.8</ele>
        <time>2021-09-27T06:35:42.000Z</time>
      </trkpt>
      <trkpt lat="48.03246" lon="7.13287">
        <ele>482.1</ele>
        <time>2021-09-27T06:36:12.000Z</time>
      </trkpt>
      <trkpt lat="48.03244" lon="7.13273">
        <ele>482.2</ele>
        <time>2021-09-27T06:36:25.000Z</time>
      </trkpt>
      <trkpt lat="48.03238" lon="7.13262">
        <ele>484.1</ele>
        <time>2021-09-27T06:36:35.000Z</time>
      </trkpt>
      <trkpt lat="48.03228" lon="7.13266">
        <ele>487.8</ele>
        <time>2021-09-27T06:36:45.000Z</time>
      </trkpt>
      <trkpt lat="48.03223" lon="7.13278">
        <ele>490.6</ele>
        <time>2021-09-27T06:36:55.000Z</time>
      </trkpt>
      <trkpt lat="48.03218" lon="7.13291">
        <ele>492.9</ele>
        <time>2021-09-27T06:37:06.000Z</time>
      </trkpt>
      <trkpt lat="48.03213" lon="7.13303">
        <ele>495.3</ele>
        <time>2021-09-27T06:37:16.000Z</time>
      </trkpt>
      <trkpt lat="48.03211" lon="7.13289">
        <ele>495.4</ele>
        <time>2021-09-27T06:37:45.000Z</time>
      </trkpt>
      <trkpt lat="48.03202" lon="7.13292">
        <ele>498.9</ele>
        <time>2021-09-27T06:38:07.000Z</time>
      </trkpt>
      <trkpt lat="48.03194" lon="7.13284">
        <ele>501.6</ele>
        <time>2021-09-27T06:38:31.000Z</time>
      </trkpt>
      <trkpt lat="48.0319" lon="7.1327">
        <ele>502.2</ele>
        <time>2021-09-27T06:38:44.000Z</time>
      </trkpt>
      <trkpt lat="48.03187" lon="7.13257">
        <ele>502.9</ele>
        <time>2021-09-27T06:38:54.000Z</time>
      </trkpt>
      <trkpt lat="48.03181" lon="7.13245">
        <ele>504.1</ele>
        <time>2021-09-27T06:39:03.000Z</time>
      </trkpt>
      <trkpt lat="48.03175" lon="7.13256">
        <ele>507.4</ele>
        <time>2021-09-27T06:39:18.000Z</time>
      </trkpt>
      <trkpt lat="48.03172" lon="7.13269">
        <ele>509.1</ele>
        <time>2021-09-27T06:39:28.000Z</time>
      </trkpt>
      <trkpt lat="48.03169" lon="7.13283">
        <ele>510.8</ele>
        <time>2021-09-27T06:39:40.000Z</time>
      </trkpt>
      <trkpt lat="48.03165" lon="7.13296">
        <ele>512.6</ele>
        <time>2021-09-27T06:39:51.000Z</time>
      </trkpt>
      <trkpt lat="48.03158" lon="7.13305">
        <ele>515.2</ele>
        <time>2021-09-27T06:40:03.000Z</time>
      </trkpt>
      <trkpt lat="48.03159" lon="7.13291">
        <ele>514.4</ele>
        <time>2021-09-27T06:40:21.000Z</time>
      </trkpt>
      <trkpt lat="48.03155" lon="7.13278">
        <ele>514.9</ele>
        <time>2021-09-27T06:40:34.000Z</time>
      </trkpt>
      <trkpt lat="48.0315" lon="7.13267">
        <ele>516</ele>
        <time>2021-09-27T06:40:47.000Z</time>
      </trkpt>
      <trkpt lat="48.03142" lon="7.13276">
        <ele>518.6</ele>
        <time>2021-09-27T06:40:59.000Z</time>
      </trkpt>
      <trkpt lat="48.03138" lon="7.13289">
        <ele>520.5</ele>
        <time>2021-09-27T06:41:11.000Z</time>
      </trkpt>
      <trkpt lat="48.03132" lon="7.13298">
        <ele>523</ele>
        <time>2021-09-27T06:41:25.000Z</time>
      </trkpt>
      <trkpt lat="48.03125" lon="7.13307">
        <ele>525.5</ele>
        <time>2021-09-27T06:41:37.000Z</time>
      </trkpt>
      <trkpt lat="48.03116" lon="7.13313">
        <ele>528.6</ele>
        <time>2021-09-27T06:41:47.000Z</time>
      </trkpt>
      <trkpt lat="48.03108" lon="7.13319">
        <ele>531.6</ele>
        <time>2021-09-27T06:41:58.000Z</time>
      </trkpt>
      <trkpt lat="48.03099" lon="7.13324">
        <ele>534.5</ele>
        <time>2021-09-27T06:42:25.000Z</time>
      </trkpt>
      <trkpt lat="48.0309" lon="7.13326">
        <ele>537.5</ele>
        <time>2021-09-27T06:42:34.000Z</time>
      </trkpt>
      <trkpt lat="48.03082" lon="7.13321">
        <ele>539.9</ele>
        <time>2021-09-27T06:46:25.000Z</time>
      </trkpt>
      <trkpt lat="48.03073" lon="7.13316">
        <ele>542.8</ele>
        <time>2021-09-27T06:46:35.000Z</time>
      </trkpt>
      <trkpt lat="48.03065" lon="7.1331">
        <ele>545.3</ele>
        <time>2021-09-27T06:46:46.000Z</time>
      </trkpt>
      <trkpt lat="48.03057" lon="7.13302">
        <ele>547.3</ele>
        <time>2021-09-27T06:46:54.000Z</time>
      </trkpt>
      <trkpt lat="48.0305" lon="7.13292">
        <ele>548.4</ele>
        <time>2021-09-27T06:47:04.000Z</time>
      </trkpt>
      <trkpt lat="48.03042" lon="7.13286">
        <ele>550.4</ele>
        <time>2021-09-27T06:47:19.000Z</time>
      </trkpt>
      <trkpt lat="48.03045" lon="7.13299">
        <ele>551.1</ele>
        <time>2021-09-27T06:47:31.000Z</time>
      </trkpt>
      <trkpt lat="48.0305" lon="7.13311">
        <ele>550.6</ele>
        <time>2021-09-27T06:47:40.000Z</time>
      </trkpt>
      <trkpt lat="48.03051" lon="7.13326">
        <ele>551.7</ele>
        <time>2021-09-27T06:47:50.000Z</time>
      </trkpt>
      <trkpt lat="48.03042" lon="7.13325">
        <ele>555.1</ele>
        <time>2021-09-27T06:48:04.000Z</time>
      </trkpt>
      <trkpt lat="48.03032" lon="7.13325">
        <ele>558.6</ele>
        <time>2021-09-27T06:48:15.000Z</time>
      </trkpt>
      <trkpt lat="48.03016" lon="7.13329">
        <ele>565.4</ele>
        <time>2021-09-27T06:48:52.000Z</time>
      </trkpt>
      <trkpt lat="48.03004" lon="7.13331">
        <ele>570.1</ele>
        <time>2021-09-27T06:49:27.000Z</time>
      </trkpt>
      <trkpt lat="48.02995" lon="7.13336">
        <ele>573.9</ele>
        <time>2021-09-27T06:49:47.000Z</time>
      </trkpt>
      <trkpt lat="48.02985" lon="7.13337">
        <ele>577.5</ele>
        <time>2021-09-27T06:50:05.000Z</time>
      </trkpt>
      <trkpt lat="48.02976" lon="7.13338">
        <ele>580.8</ele>
        <time>2021-09-27T06:50:23.000Z</time>
      </trkpt>
      <trkpt lat="48.02967" lon="7.13344">
        <ele>584.4</ele>
        <time>2021-09-27T06:50:50.000Z</time>
      </trkpt>
      <trkpt lat="48.02957" lon="7.13345">
        <ele>588.1</ele>
        <time>2021-09-27T06:51:14.000Z</time>
      </trkpt>
      <trkpt lat="48.02944" lon="7.1335">
        <ele>593.1</ele>
        <time>2021-09-27T06:51:56.000Z</time>
      </trkpt>
      <trkpt lat="48.02934" lon="7.13351">
        <ele>596.9</ele>
        <time>2021-09-27T06:52:24.000Z</time>
      </trkpt>
      <trkpt lat="48.02925" lon="7.1335">
        <ele>600.2</ele>
        <time>2021-09-27T06:52:39.000Z</time>
      </trkpt>
      <trkpt lat="48.02915" lon="7.13354">
        <ele>603.9</ele>
        <time>2021-09-27T06:52:50.000Z</time>
      </trkpt>
      <trkpt lat="48.02906" lon="7.13357">
        <ele>606.6</ele>
        <time>2021-09-27T06:53:24.000Z</time>
      </trkpt>
      <trkpt lat="48.02894" lon="7.1336">
        <ele>609.9</ele>
        <time>2021-09-27T06:53:48.000Z</time>
      </trkpt>
      <trkpt lat="48.02885" lon="7.13362">
        <ele>612.4</ele>
        <time>2021-09-27T06:54:04.000Z</time>
      </trkpt>
      <trkpt lat="48.02875" lon="7.13363">
        <ele>614.8</ele>
        <time>2021-09-27T06:54:16.000Z</time>
      </trkpt>
      <trkpt lat="48.02866" lon="7.13363">
        <ele>617</ele>
        <time>2021-09-27T06:54:24.000Z</time>
      </trkpt>
      <trkpt lat="48.02857" lon="7.13367">
        <ele>619.4</ele>
        <time>2021-09-27T06:54:34.000Z</time>
      </trkpt>
      <trkpt lat="48.02847" lon="7.13372">
        <ele>622.2</ele>
        <time>2021-09-27T06:55:02.000Z</time>
      </trkpt>
      <trkpt lat="48.02838" lon="7.13376">
        <ele>624.6</ele>
        <time>2021-09-27T06:55:15.000Z</time>
      </trkpt>
      <trkpt lat="48.02829" lon="7.1338">
        <ele>626.8</ele>
        <time>2021-09-27T06:55:28.000Z</time>
      </trkpt>
      <trkpt lat="48.0282" lon="7.1338">
        <ele>629</ele>
        <time>2021-09-27T06:55:46.000Z</time>
      </trkpt>
      <trkpt lat="48.02811" lon="7.13382">
        <ele>631.3</ele>
        <time>2021-09-27T06:55:58.000Z</time>
      </trkpt>
      <trkpt lat="48.02801" lon="7.1338">
        <ele>633.7</ele>
        <time>2021-09-27T06:56:15.000Z</time>
      </trkpt>
      <trkpt lat="48.02792" lon="7.13378">
        <ele>635.9</ele>
        <time>2021-09-27T06:56:25.000Z</time>
      </trkpt>
      <trkpt lat="48.02782" lon="7.13373">
        <ele>638</ele>
        <time>2021-09-27T06:56:37.000Z</time>
      </trkpt>
      <trkpt lat="48.02775" lon="7.13366">
        <ele>639.6</ele>
        <time>2021-09-27T06:57:01.000Z</time>
      </trkpt>
      <trkpt lat="48.02766" lon="7.13362">
        <ele>641.6</ele>
        <time>2021-09-27T06:57:16.000Z</time>
      </trkpt>
      <trkpt lat="48.02757" lon="7.1336">
        <ele>643.7</ele>
        <time>2021-09-27T06:57:28.000Z</time>
      </trkpt>
      <trkpt lat="48.02747" lon="7.1336">
        <ele>646.3</ele>
        <time>2021-09-27T06:57:39.000Z</time>
      </trkpt>
      <trkpt lat="48.02738" lon="7.1336">
        <ele>649.1</ele>
        <time>2021-09-27T06:57:50.000Z</time>
      </trkpt>
      <trkpt lat="48.02726" lon="7.13363">
        <ele>652.8</ele>
        <time>2021-09-27T06:58:11.000Z</time>
      </trkpt>
      <trkpt lat="48.02717" lon="7.13363">
        <ele>655.6</ele>
        <time>2021-09-27T06:58:21.000Z</time>
      </trkpt>
      <trkpt lat="48.02704" lon="7.13368">
        <ele>659.4</ele>
        <time>2021-09-27T06:58:42.000Z</time>
      </trkpt>
      <trkpt lat="48.02695" lon="7.13368">
        <ele>662.2</ele>
        <time>2021-09-27T06:58:55.000Z</time>
      </trkpt>
      <trkpt lat="48.02686" lon="7.13367">
        <ele>664.9</ele>
        <time>2021-09-27T06:59:12.000Z</time>
      </trkpt>
      <trkpt lat="48.02676" lon="7.13366">
        <ele>667.8</ele>
        <time>2021-09-27T06:59:28.000Z</time>
      </trkpt>
      <trkpt lat="48.02668" lon="7.13357">
        <ele>670.9</ele>
        <time>2021-09-27T06:59:53.000Z</time>
      </trkpt>
      <trkpt lat="48.02659" lon="7.13355">
        <ele>674</ele>
        <time>2021-09-27T07:00:00.000Z</time>
      </trkpt>
      <trkpt lat="48.0265" lon="7.1336">
        <ele>676.4</ele>
        <time>2021-09-27T07:00:11.000Z</time>
      </trkpt>
      <trkpt lat="48.02641" lon="7.13366">
        <ele>678.6</ele>
        <time>2021-09-27T07:01:32.000Z</time>
      </trkpt>
      <trkpt lat="48.02632" lon="7.13365">
        <ele>681.4</ele>
        <time>2021-09-27T07:01:49.000Z</time>
      </trkpt>
      <trkpt lat="48.02623" lon="7.13366">
        <ele>684.1</ele>
        <time>2021-09-27T07:02:19.000Z</time>
      </trkpt>
      <trkpt lat="48.02614" lon="7.13366">
        <ele>686.9</ele>
        <time>2021-09-27T07:02:27.000Z</time>
      </trkpt>
      <trkpt lat="48.02605" lon="7.13363">
        <ele>689.9</ele>
        <time>2021-09-27T07:02:49.000Z</time>
      </trkpt>
      <trkpt lat="48.02595" lon="7.1336">
        <ele>693.2</ele>
        <time>2021-09-27T07:03:15.000Z</time>
      </trkpt>
      <trkpt lat="48.02586" lon="7.13358">
        <ele>696.3</ele>
        <time>2021-09-27T07:03:28.000Z</time>
      </trkpt>
      <trkpt lat="48.02577" lon="7.13358">
        <ele>698.7</ele>
        <time>2021-09-27T07:03:39.000Z</time>
      </trkpt>
      <trkpt lat="48.02567" lon="7.13361">
        <ele>700.7</ele>
        <time>2021-09-27T07:04:03.000Z</time>
      </trkpt>
      <trkpt lat="48.02558" lon="7.1336">
        <ele>703.1</ele>
        <time>2021-09-27T07:04:17.000Z</time>
      </trkpt>
      <trkpt lat="48.02549" lon="7.13359">
        <ele>705.4</ele>
        <time>2021-09-27T07:04:32.000Z</time>
      </trkpt>
      <trkpt lat="48.02539" lon="7.13358">
        <ele>707.7</ele>
        <time>2021-09-27T07:04:44.000Z</time>
      </trkpt>
      <trkpt lat="48.0253" lon="7.13356">
        <ele>710.2</ele>
        <time>2021-09-27T07:05:00.000Z</time>
      </trkpt>
      <trkpt lat="48.0252" lon="7.13356">
        <ele>712.4</ele>
        <time>2021-09-27T07:05:11.000Z</time>
      </trkpt>
      <trkpt lat="48.02511" lon="7.13353">
        <ele>714.8</ele>
        <time>2021-09-27T07:05:30.000Z</time>
      </trkpt>
      <trkpt lat="48.02501" lon="7.13357">
        <ele>717.2</ele>
        <time>2021-09-27T07:05:38.000Z</time>
      </trkpt>
      <trkpt lat="48.02492" lon="7.13362">
        <ele>719.7</ele>
        <time>2021-09-27T07:05:52.000Z</time>
      </trkpt>
      <trkpt lat="48.02483" lon="7.13362">
        <ele>722.2</ele>
        <time>2021-09-27T07:06:08.000Z</time>
      </trkpt>
      <trkpt lat="48.02474" lon="7.13363">
        <ele>724.8</ele>
        <time>2021-09-27T07:06:22.000Z</time>
      </trkpt>
      <trkpt lat="48.02465" lon="7.13366">
        <ele>727.3</ele>
        <time>2021-09-27T07:06:38.000Z</time>
      </trkpt>
      <trkpt lat="48.02456" lon="7.13373">
        <ele>729.9</ele>
        <time>2021-09-27T07:06:49.000Z</time>
      </trkpt>
      <trkpt lat="48.02445" lon="7.1337">
        <ele>733</ele>
        <time>2021-09-27T07:07:11.000Z</time>
      </trkpt>
      <trkpt lat="48.02435" lon="7.13372">
        <ele>735.7</ele>
        <time>2021-09-27T07:07:22.000Z</time>
      </trkpt>
      <trkpt lat="48.02426" lon="7.13371">
        <ele>738.2</ele>
        <time>2021-09-27T07:07:37.000Z</time>
      </trkpt>
      <trkpt lat="48.02417" lon="7.13368">
        <ele>740.8</ele>
        <time>2021-09-27T07:07:59.000Z</time>
      </trkpt>
      <trkpt lat="48.02408" lon="7.13366">
        <ele>742.8</ele>
        <time>2021-09-27T07:08:28.000Z</time>
      </trkpt>
      <trkpt lat="48.02399" lon="7.13366">
        <ele>744.7</ele>
        <time>2021-09-27T07:08:42.000Z</time>
      </trkpt>
      <trkpt lat="48.0239" lon="7.1337">
        <ele>746.7</ele>
        <time>2021-09-27T07:08:54.000Z</time>
      </trkpt>
      <trkpt lat="48.02379" lon="7.13376">
        <ele>749.2</ele>
        <time>2021-09-27T07:09:15.000Z</time>
      </trkpt>
      <trkpt lat="48.02365" lon="7.13377">
        <ele>752.2</ele>
        <time>2021-09-27T07:09:42.000Z</time>
      </trkpt>
      <trkpt lat="48.02356" lon="7.1338">
        <ele>754.2</ele>
        <time>2021-09-27T07:09:53.000Z</time>
      </trkpt>
      <trkpt lat="48.02347" lon="7.13376">
        <ele>756.1</ele>
        <time>2021-09-27T07:10:10.000Z</time>
      </trkpt>
      <trkpt lat="48.02337" lon="7.1338">
        <ele>758.2</ele>
        <time>2021-09-27T07:10:18.000Z</time>
      </trkpt>
      <trkpt lat="48.02334" lon="7.13394">
        <ele>759.2</ele>
        <time>2021-09-27T07:10:29.000Z</time>
      </trkpt>
      <trkpt lat="48.02325" lon="7.13399">
        <ele>761.7</ele>
        <time>2021-09-27T07:10:50.000Z</time>
      </trkpt>
      <trkpt lat="48.02315" lon="7.13399">
        <ele>764.2</ele>
        <time>2021-09-27T07:11:23.000Z</time>
      </trkpt>
      <trkpt lat="48.02305" lon="7.13402">
        <ele>766.6</ele>
        <time>2021-09-27T07:11:53.000Z</time>
      </trkpt>
      <trkpt lat="48.02296" lon="7.13404">
        <ele>769</ele>
        <time>2021-09-27T07:12:03.000Z</time>
      </trkpt>
      <trkpt lat="48.02287" lon="7.1341">
        <ele>771.4</ele>
        <time>2021-09-27T07:12:28.000Z</time>
      </trkpt>
      <trkpt lat="48.02278" lon="7.13416">
        <ele>773.9</ele>
        <time>2021-09-27T07:12:36.000Z</time>
      </trkpt>
      <trkpt lat="48.02269" lon="7.13421">
        <ele>775.2</ele>
        <time>2021-09-27T07:12:46.000Z</time>
      </trkpt>
      <trkpt lat="48.02258" lon="7.13425">
        <ele>777</ele>
        <time>2021-09-27T07:12:58.000Z</time>
      </trkpt>
      <trkpt lat="48.0225" lon="7.1343">
        <ele>777.8</ele>
        <time>2021-09-27T07:13:06.000Z</time>
      </trkpt>
      <trkpt lat="48.0224" lon="7.13435">
        <ele>777.5</ele>
        <time>2021-09-27T07:13:13.000Z</time>
      </trkpt>
      <trkpt lat="48.02232" lon="7.13442">
        <ele>776.7</ele>
        <time>2021-09-27T07:13:22.000Z</time>
      </trkpt>
      <trkpt lat="48.02226" lon="7.13453">
        <ele>775.2</ele>
        <time>2021-09-27T07:13:35.000Z</time>
      </trkpt>
      <trkpt lat="48.02218" lon="7.13462">
        <ele>774.6</ele>
        <time>2021-09-27T07:13:45.000Z</time>
      </trkpt>
      <trkpt lat="48.02214" lon="7.13475">
        <ele>773.1</ele>
        <time>2021-09-27T07:13:54.000Z</time>
      </trkpt>
      <trkpt lat="48.02205" lon="7.13467">
        <ele>775.6</ele>
        <time>2021-09-27T07:16:13.000Z</time>
      </trkpt>
      <trkpt lat="48.02196" lon="7.13466">
        <ele>777.2</ele>
        <time>2021-09-27T07:16:32.000Z</time>
      </trkpt>
      <trkpt lat="48.02186" lon="7.13469">
        <ele>778.2</ele>
        <time>2021-09-27T07:16:38.000Z</time>
      </trkpt>
      <trkpt lat="48.02177" lon="7.13473">
        <ele>779.4</ele>
        <time>2021-09-27T07:16:46.000Z</time>
      </trkpt>
      <trkpt lat="48.02167" lon="7.13475">
        <ele>780.8</ele>
        <time>2021-09-27T07:16:54.000Z</time>
      </trkpt>
      <trkpt lat="48.02158" lon="7.13473">
        <ele>782</ele>
        <time>2021-09-27T07:17:04.000Z</time>
      </trkpt>
      <trkpt lat="48.0215" lon="7.13468">
        <ele>783.3</ele>
        <time>2021-09-27T07:17:13.000Z</time>
      </trkpt>
      <trkpt lat="48.0214" lon="7.13467">
        <ele>784.4</ele>
        <time>2021-09-27T07:17:21.000Z</time>
      </trkpt>
      <trkpt lat="48.02131" lon="7.13468">
        <ele>785.4</ele>
        <time>2021-09-27T07:17:31.000Z</time>
      </trkpt>
      <trkpt lat="48.02122" lon="7.13467">
        <ele>786.5</ele>
        <time>2021-09-27T07:17:40.000Z</time>
      </trkpt>
      <trkpt lat="48.02112" lon="7.13473">
        <ele>787.5</ele>
        <time>2021-09-27T07:17:55.000Z</time>
      </trkpt>
      <trkpt lat="48.02104" lon="7.13478">
        <ele>788.6</ele>
        <time>2021-09-27T07:18:07.000Z</time>
      </trkpt>
      <trkpt lat="48.02095" lon="7.13479">
        <ele>789.8</ele>
        <time>2021-09-27T07:18:19.000Z</time>
      </trkpt>
      <trkpt lat="48.02085" lon="7.13482">
        <ele>791.1</ele>
        <time>2021-09-27T07:18:29.000Z</time>
      </trkpt>
      <trkpt lat="48.02077" lon="7.13488">
        <ele>792.4</ele>
        <time>2021-09-27T07:18:39.000Z</time>
      </trkpt>
      <trkpt lat="48.02068" lon="7.13494">
        <ele>793.8</ele>
        <time>2021-09-27T07:18:50.000Z</time>
      </trkpt>
      <trkpt lat="48.02059" lon="7.13499">
        <ele>795.2</ele>
        <time>2021-09-27T07:19:02.000Z</time>
      </trkpt>
      <trkpt lat="48.0205" lon="7.13504">
        <ele>796.1</ele>
        <time>2021-09-27T07:19:22.000Z</time>
      </trkpt>
      <trkpt lat="48.02038" lon="7.13505">
        <ele>797.5</ele>
        <time>2021-09-27T07:19:42.000Z</time>
      </trkpt>
      <trkpt lat="48.02029" lon="7.13506">
        <ele>798.6</ele>
        <time>2021-09-27T07:19:58.000Z</time>
      </trkpt>
      <trkpt lat="48.0202" lon="7.13507">
        <ele>799.7</ele>
        <time>2021-09-27T07:20:10.000Z</time>
      </trkpt>
      <trkpt lat="48.0201" lon="7.13506">
        <ele>801.1</ele>
        <time>2021-09-27T07:20:24.000Z</time>
      </trkpt>
      <trkpt lat="48.02001" lon="7.13505">
        <ele>802.4</ele>
        <time>2021-09-27T07:20:34.000Z</time>
      </trkpt>
      <trkpt lat="48.01992" lon="7.13503">
        <ele>802.5</ele>
        <time>2021-09-27T07:20:43.000Z</time>
      </trkpt>
      <trkpt lat="48.01983" lon="7.13504">
        <ele>802</ele>
        <time>2021-09-27T07:20:51.000Z</time>
      </trkpt>
      <trkpt lat="48.01973" lon="7.13501">
        <ele>801.9</ele>
        <time>2021-09-27T07:20:58.000Z</time>
      </trkpt>
      <trkpt lat="48.01964" lon="7.13499">
        <ele>801.7</ele>
        <time>2021-09-27T07:21:08.000Z</time>
      </trkpt>
      <trkpt lat="48.01955" lon="7.13494">
        <ele>801.3</ele>
        <time>2021-09-27T07:21:17.000Z</time>
      </trkpt>
      <trkpt lat="48.01947" lon="7.1349">
        <ele>801</ele>
        <time>2021-09-27T07:21:25.000Z</time>
      </trkpt>
      <trkpt lat="48.01937" lon="7.13488">
        <ele>800.7</ele>
        <time>2021-09-27T07:21:32.000Z</time>
      </trkpt>
      <trkpt lat="48.01928" lon="7.13483">
        <ele>800.6</ele>
        <time>2021-09-27T07:21:42.000Z</time>
      </trkpt>
      <trkpt lat="48.01919" lon="7.13477">
        <ele>800.6</ele>
        <time>2021-09-27T07:21:50.000Z</time>
      </trkpt>
      <trkpt lat="48.0191" lon="7.13473">
        <ele>800.9</ele>
        <time>2021-09-27T07:21:59.000Z</time>
      </trkpt>
      <trkpt lat="48.019" lon="7.13475">
        <ele>801.1</ele>
        <time>2021-09-27T07:22:07.000Z</time>
      </trkpt>
      <trkpt lat="48.0189" lon="7.1348">
        <ele>801.3</ele>
        <time>2021-09-27T07:22:14.000Z</time>
      </trkpt>
      <trkpt lat="48.01882" lon="7.13484">
        <ele>801.4</ele>
        <time>2021-09-27T07:22:23.000Z</time>
      </trkpt>
      <trkpt lat="48.01875" lon="7.13495">
        <ele>801.2</ele>
        <time>2021-09-27T07:22:35.000Z</time>
      </trkpt>
      <trkpt lat="48.01866" lon="7.13502">
        <ele>801.1</ele>
        <time>2021-09-27T07:22:43.000Z</time>
      </trkpt>
      <trkpt lat="48.01858" lon="7.13509">
        <ele>800.7</ele>
        <time>2021-09-27T07:22:50.000Z</time>
      </trkpt>
      <trkpt lat="48.01851" lon="7.13517">
        <ele>800.4</ele>
        <time>2021-09-27T07:22:56.000Z</time>
      </trkpt>
      <trkpt lat="48.01842" lon="7.13519">
        <ele>800.7</ele>
        <time>2021-09-27T07:23:07.000Z</time>
      </trkpt>
      <trkpt lat="48.01833" lon="7.13517">
        <ele>801.3</ele>
        <time>2021-09-27T07:23:18.000Z</time>
      </trkpt>
      <trkpt lat="48.01823" lon="7.13516">
        <ele>802.4</ele>
        <time>2021-09-27T07:23:27.000Z</time>
      </trkpt>
      <trkpt lat="48.01814" lon="7.13513">
        <ele>803.7</ele>
        <time>2021-09-27T07:23:37.000Z</time>
      </trkpt>
      <trkpt lat="48.01803" lon="7.13513">
        <ele>804.9</ele>
        <time>2021-09-27T07:23:46.000Z</time>
      </trkpt>
      <trkpt lat="48.01794" lon="7.13515">
        <ele>805.9</ele>
        <time>2021-09-27T07:23:57.000Z</time>
      </trkpt>
      <trkpt lat="48.01784" lon="7.13513">
        <ele>807.2</ele>
        <time>2021-09-27T07:24:10.000Z</time>
      </trkpt>
      <trkpt lat="48.01775" lon="7.13515">
        <ele>808.2</ele>
        <time>2021-09-27T07:24:20.000Z</time>
      </trkpt>
      <trkpt lat="48.01766" lon="7.13522">
        <ele>808.8</ele>
        <time>2021-09-27T07:24:28.000Z</time>
      </trkpt>
      <trkpt lat="48.01759" lon="7.13531">
        <ele>809.1</ele>
        <time>2021-09-27T07:24:35.000Z</time>
      </trkpt>
      <trkpt lat="48.01752" lon="7.1354">
        <ele>809.4</ele>
        <time>2021-09-27T07:24:44.000Z</time>
      </trkpt>
      <trkpt lat="48.01745" lon="7.1355">
        <ele>809.9</ele>
        <time>2021-09-27T07:24:55.000Z</time>
      </trkpt>
      <trkpt lat="48.01737" lon="7.13559">
        <ele>810.8</ele>
        <time>2021-09-27T07:25:04.000Z</time>
      </trkpt>
      <trkpt lat="48.01731" lon="7.13571">
        <ele>810.9</ele>
        <time>2021-09-27T07:25:11.000Z</time>
      </trkpt>
      <trkpt lat="48.01725" lon="7.13581">
        <ele>811.1</ele>
        <time>2021-09-27T07:25:17.000Z</time>
      </trkpt>
      <trkpt lat="48.01718" lon="7.13589">
        <ele>811.4</ele>
        <time>2021-09-27T07:25:24.000Z</time>
      </trkpt>
      <trkpt lat="48.01709" lon="7.13592">
        <ele>812.4</ele>
        <time>2021-09-27T07:25:33.000Z</time>
      </trkpt>
      <trkpt lat="48.017" lon="7.13599">
        <ele>812.7</ele>
        <time>2021-09-27T07:25:42.000Z</time>
      </trkpt>
      <trkpt lat="48.01691" lon="7.13604">
        <ele>813.3</ele>
        <time>2021-09-27T07:25:51.000Z</time>
      </trkpt>
      <trkpt lat="48.01681" lon="7.13606">
        <ele>814.2</ele>
        <time>2021-09-27T07:26:03.000Z</time>
      </trkpt>
      <trkpt lat="48.01671" lon="7.13607">
        <ele>815.3</ele>
        <time>2021-09-27T07:26:12.000Z</time>
      </trkpt>
      <trkpt lat="48.01661" lon="7.13609">
        <ele>815.8</ele>
        <time>2021-09-27T07:26:21.000Z</time>
      </trkpt>
      <trkpt lat="48.01652" lon="7.13607">
        <ele>816.8</ele>
        <time>2021-09-27T07:26:30.000Z</time>
      </trkpt>
      <trkpt lat="48.01642" lon="7.13609">
        <ele>816.9</ele>
        <time>2021-09-27T07:26:40.000Z</time>
      </trkpt>
      <trkpt lat="48.01634" lon="7.13614">
        <ele>816.4</ele>
        <time>2021-09-27T07:26:47.000Z</time>
      </trkpt>
      <trkpt lat="48.01625" lon="7.13618">
        <ele>815.8</ele>
        <time>2021-09-27T07:26:55.000Z</time>
      </trkpt>
      <trkpt lat="48.01617" lon="7.13625">
        <ele>814.5</ele>
        <time>2021-09-27T07:27:02.000Z</time>
      </trkpt>
      <trkpt lat="48.01609" lon="7.13631">
        <ele>813.5</ele>
        <time>2021-09-27T07:27:13.000Z</time>
      </trkpt>
      <trkpt lat="48.01601" lon="7.13638">
        <ele>811.8</ele>
        <time>2021-09-27T07:27:24.000Z</time>
      </trkpt>
      <trkpt lat="48.01593" lon="7.13645">
        <ele>810.1</ele>
        <time>2021-09-27T07:27:36.000Z</time>
      </trkpt>
      <trkpt lat="48.01584" lon="7.13641">
        <ele>811.5</ele>
        <time>2021-09-27T07:28:35.000Z</time>
      </trkpt>
      <trkpt lat="48.01576" lon="7.13635">
        <ele>814.7</ele>
        <time>2021-09-27T07:28:46.000Z</time>
      </trkpt>
      <trkpt lat="48.01568" lon="7.13628">
        <ele>818</ele>
        <time>2021-09-27T07:29:00.000Z</time>
      </trkpt>
      <trkpt lat="48.01559" lon="7.1362">
        <ele>822.1</ele>
        <time>2021-09-27T07:29:15.000Z</time>
      </trkpt>
      <trkpt lat="48.0155" lon="7.13615">
        <ele>825.2</ele>
        <time>2021-09-27T07:29:28.000Z</time>
      </trkpt>
      <trkpt lat="48.01542" lon="7.13609">
        <ele>828.4</ele>
        <time>2021-09-27T07:29:38.000Z</time>
      </trkpt>
      <trkpt lat="48.01533" lon="7.13603">
        <ele>831.8</ele>
        <time>2021-09-27T07:29:55.000Z</time>
      </trkpt>
      <trkpt lat="48.01524" lon="7.136">
        <ele>834.5</ele>
        <time>2021-09-27T07:30:08.000Z</time>
      </trkpt>
      <trkpt lat="48.01515" lon="7.13599">
        <ele>836.5</ele>
        <time>2021-09-27T07:30:17.000Z</time>
      </trkpt>
      <trkpt lat="48.01505" lon="7.13602">
        <ele>837.5</ele>
        <time>2021-09-27T07:30:25.000Z</time>
      </trkpt>
      <trkpt lat="48.01496" lon="7.13605">
        <ele>837.8</ele>
        <time>2021-09-27T07:30:34.000Z</time>
      </trkpt>
      <trkpt lat="48.01486" lon="7.13604">
        <ele>838.4</ele>
        <time>2021-09-27T07:30:45.000Z</time>
      </trkpt>
      <trkpt lat="48.01477" lon="7.13604">
        <ele>838.7</ele>
        <time>2021-09-27T07:30:55.000Z</time>
      </trkpt>
      <trkpt lat="48.01468" lon="7.13607">
        <ele>838.5</ele>
        <time>2021-09-27T07:31:09.000Z</time>
      </trkpt>
      <trkpt lat="48.01458" lon="7.13607">
        <ele>838.9</ele>
        <time>2021-09-27T07:31:19.000Z</time>
      </trkpt>
      <trkpt lat="48.0145" lon="7.13601">
        <ele>840.5</ele>
        <time>2021-09-27T07:31:36.000Z</time>
      </trkpt>
      <trkpt lat="48.01441" lon="7.136">
        <ele>841</ele>
        <time>2021-09-27T07:31:45.000Z</time>
      </trkpt>
      <trkpt lat="48.01431" lon="7.13603">
        <ele>840.9</ele>
        <time>2021-09-27T07:31:52.000Z</time>
      </trkpt>
      <trkpt lat="48.01421" lon="7.13605">
        <ele>840.9</ele>
        <time>2021-09-27T07:32:01.000Z</time>
      </trkpt>
      <trkpt lat="48.01411" lon="7.13603">
        <ele>841.5</ele>
        <time>2021-09-27T07:32:11.000Z</time>
      </trkpt>
      <trkpt lat="48.01402" lon="7.13602">
        <ele>841.5</ele>
        <time>2021-09-27T07:32:19.000Z</time>
      </trkpt>
      <trkpt lat="48.01392" lon="7.13603">
        <ele>841.4</ele>
        <time>2021-09-27T07:32:27.000Z</time>
      </trkpt>
      <trkpt lat="48.01383" lon="7.13603">
        <ele>841.5</ele>
        <time>2021-09-27T07:32:34.000Z</time>
      </trkpt>
      <trkpt lat="48.01374" lon="7.13608">
        <ele>841.1</ele>
        <time>2021-09-27T07:32:42.000Z</time>
      </trkpt>
      <trkpt lat="48.01365" lon="7.13614">
        <ele>840.8</ele>
        <time>2021-09-27T07:32:51.000Z</time>
      </trkpt>
      <trkpt lat="48.01357" lon="7.13622">
        <ele>840.5</ele>
        <time>2021-09-27T07:33:01.000Z</time>
      </trkpt>
      <trkpt lat="48.0135" lon="7.13633">
        <ele>840.2</ele>
        <time>2021-09-27T07:33:10.000Z</time>
      </trkpt>
      <trkpt lat="48.01343" lon="7.13642">
        <ele>840.1</ele>
        <time>2021-09-27T07:33:19.000Z</time>
      </trkpt>
      <trkpt lat="48.01336" lon="7.13651">
        <ele>840.2</ele>
        <time>2021-09-27T07:33:26.000Z</time>
      </trkpt>
      <trkpt lat="48.01327" lon="7.13661">
        <ele>840.5</ele>
        <time>2021-09-27T07:33:32.000Z</time>
      </trkpt>
      <trkpt lat="48.01325" lon="7.13675">
        <ele>840.3</ele>
        <time>2021-09-27T07:33:38.000Z</time>
      </trkpt>
      <trkpt lat="48.01321" lon="7.13688">
        <ele>840.1</ele>
        <time>2021-09-27T07:33:45.000Z</time>
      </trkpt>
      <trkpt lat="48.01318" lon="7.13701">
        <ele>840</ele>
        <time>2021-09-27T07:33:55.000Z</time>
      </trkpt>
      <trkpt lat="48.01316" lon="7.13715">
        <ele>839.8</ele>
        <time>2021-09-27T07:34:04.000Z</time>
      </trkpt>
      <trkpt lat="48.01314" lon="7.13729">
        <ele>839.6</ele>
        <time>2021-09-27T07:34:14.000Z</time>
      </trkpt>
      <trkpt lat="48.0131" lon="7.13742">
        <ele>839.9</ele>
        <time>2021-09-27T07:34:25.000Z</time>
      </trkpt>
      <trkpt lat="48.01305" lon="7.13755">
        <ele>840.2</ele>
        <time>2021-09-27T07:34:35.000Z</time>
      </trkpt>
      <trkpt lat="48.01301" lon="7.13769">
        <ele>840.3</ele>
        <time>2021-09-27T07:34:45.000Z</time>
      </trkpt>
      <trkpt lat="48.01296" lon="7.13781">
        <ele>840.6</ele>
        <time>2021-09-27T07:34:52.000Z</time>
      </trkpt>
      <trkpt lat="48.01295" lon="7.13794">
        <ele>840.2</ele>
        <time>2021-09-27T07:35:47.000Z</time>
      </trkpt>
      <trkpt lat="48.01285" lon="7.13802">
        <ele>841.2</ele>
        <time>2021-09-27T07:36:10.000Z</time>
      </trkpt>
      <trkpt lat="48.01272" lon="7.138">
        <ele>843</ele>
        <time>2021-09-27T07:36:23.000Z</time>
      </trkpt>
      <trkpt lat="48.01282" lon="7.13798">
        <ele>841.9</ele>
        <time>2021-09-27T07:36:40.000Z</time>
      </trkpt>
      <trkpt lat="48.0129" lon="7.13791">
        <ele>841</ele>
        <time>2021-09-27T07:36:49.000Z</time>
      </trkpt>
      <trkpt lat="48.01299" lon="7.13792">
        <ele>839.7</ele>
        <time>2021-09-27T07:36:58.000Z</time>
      </trkpt>
      <trkpt lat="48.01293" lon="7.13803">
        <ele>840.1</ele>
        <time>2021-09-27T07:37:48.000Z</time>
      </trkpt>
      <trkpt lat="48.01302" lon="7.1379">
        <ele>839.4</ele>
        <time>2021-09-27T07:38:01.000Z</time>
      </trkpt>
      <trkpt lat="48.01292" lon="7.1379">
        <ele>840.9</ele>
        <time>2021-09-27T07:38:55.000Z</time>
      </trkpt>
      <trkpt lat="48.01284" lon="7.13797">
        <ele>841.6</ele>
        <time>2021-09-27T07:39:02.000Z</time>
      </trkpt>
      <trkpt lat="48.01279" lon="7.13808">
        <ele>841.8</ele>
        <time>2021-09-27T07:39:10.000Z</time>
      </trkpt>
      <trkpt lat="48.01271" lon="7.13815">
        <ele>842.4</ele>
        <time>2021-09-27T07:39:19.000Z</time>
      </trkpt>
      <trkpt lat="48.01262" lon="7.13816">
        <ele>843.6</ele>
        <time>2021-09-27T07:39:29.000Z</time>
      </trkpt>
      <trkpt lat="48.01252" lon="7.13812">
        <ele>845</ele>
        <time>2021-09-27T07:39:38.000Z</time>
      </trkpt>
      <trkpt lat="48.01243" lon="7.13809">
        <ele>846.6</ele>
        <time>2021-09-27T07:39:45.000Z</time>
      </trkpt>
      <trkpt lat="48.01234" lon="7.13803">
        <ele>848.4</ele>
        <time>2021-09-27T07:39:53.000Z</time>
      </trkpt>
      <trkpt lat="48.01225" lon="7.13796">
        <ele>850.2</ele>
        <time>2021-09-27T07:40:04.000Z</time>
      </trkpt>
      <trkpt lat="48.01215" lon="7.13796">
        <ele>851.7</ele>
        <time>2021-09-27T07:40:11.000Z</time>
      </trkpt>
      <trkpt lat="48.01205" lon="7.13794">
        <ele>853.4</ele>
        <time>2021-09-27T07:40:18.000Z</time>
      </trkpt>
      <trkpt lat="48.01195" lon="7.13793">
        <ele>855</ele>
        <time>2021-09-27T07:40:24.000Z</time>
      </trkpt>
      <trkpt lat="48.01186" lon="7.13791">
        <ele>856.5</ele>
        <time>2021-09-27T07:40:33.000Z</time>
      </trkpt>
      <trkpt lat="48.01177" lon="7.13795">
        <ele>857.7</ele>
        <time>2021-09-27T07:40:41.000Z</time>
      </trkpt>
      <trkpt lat="48.01168" lon="7.138">
        <ele>858.9</ele>
        <time>2021-09-27T07:40:51.000Z</time>
      </trkpt>
      <trkpt lat="48.01158" lon="7.138">
        <ele>859.7</ele>
        <time>2021-09-27T07:40:58.000Z</time>
      </trkpt>
      <trkpt lat="48.01149" lon="7.138">
        <ele>860.4</ele>
        <time>2021-09-27T07:41:05.000Z</time>
      </trkpt>
      <trkpt lat="48.01139" lon="7.13801">
        <ele>861.1</ele>
        <time>2021-09-27T07:41:13.000Z</time>
      </trkpt>
      <trkpt lat="48.01129" lon="7.13803">
        <ele>861.7</ele>
        <time>2021-09-27T07:41:23.000Z</time>
      </trkpt>
      <trkpt lat="48.0112" lon="7.13798">
        <ele>862.8</ele>
        <time>2021-09-27T07:41:32.000Z</time>
      </trkpt>
      <trkpt lat="48.01111" lon="7.13797">
        <ele>863.6</ele>
        <time>2021-09-27T07:41:44.000Z</time>
      </trkpt>
      <trkpt lat="48.01101" lon="7.13798">
        <ele>864.4</ele>
        <time>2021-09-27T07:41:53.000Z</time>
      </trkpt>
      <trkpt lat="48.01092" lon="7.13795">
        <ele>865.4</ele>
        <time>2021-09-27T07:42:04.000Z</time>
      </trkpt>
      <trkpt lat="48.01082" lon="7.13791">
        <ele>866.6</ele>
        <time>2021-09-27T07:42:14.000Z</time>
      </trkpt>
      <trkpt lat="48.01073" lon="7.13784">
        <ele>868.1</ele>
        <time>2021-09-27T07:42:26.000Z</time>
      </trkpt>
      <trkpt lat="48.01064" lon="7.1378">
        <ele>869.3</ele>
        <time>2021-09-27T07:42:35.000Z</time>
      </trkpt>
      <trkpt lat="48.01056" lon="7.13775">
        <ele>870.4</ele>
        <time>2021-09-27T07:42:46.000Z</time>
      </trkpt>
      <trkpt lat="48.01047" lon="7.13771">
        <ele>871.5</ele>
        <time>2021-09-27T07:42:54.000Z</time>
      </trkpt>
      <trkpt lat="48.01039" lon="7.13762">
        <ele>873</ele>
        <time>2021-09-27T07:43:01.000Z</time>
      </trkpt>
      <trkpt lat="48.01032" lon="7.13753">
        <ele>874.4</ele>
        <time>2021-09-27T07:43:10.000Z</time>
      </trkpt>
      <trkpt lat="48.01023" lon="7.13747">
        <ele>875.2</ele>
        <time>2021-09-27T07:43:22.000Z</time>
      </trkpt>
      <trkpt lat="48.01013" lon="7.13746">
        <ele>876</ele>
        <time>2021-09-27T07:43:31.000Z</time>
      </trkpt>
      <trkpt lat="48.01004" lon="7.13744">
        <ele>876.6</ele>
        <time>2021-09-27T07:43:38.000Z</time>
      </trkpt>
      <trkpt lat="48.00994" lon="7.13741">
        <ele>877.1</ele>
        <time>2021-09-27T07:43:46.000Z</time>
      </trkpt>
      <trkpt lat="48.00986" lon="7.13735">
        <ele>877.4</ele>
        <time>2021-09-27T07:43:55.000Z</time>
      </trkpt>
      <trkpt lat="48.00976" lon="7.13732">
        <ele>877.8</ele>
        <time>2021-09-27T07:44:05.000Z</time>
      </trkpt>
      <trkpt lat="48.00966" lon="7.13733">
        <ele>878.2</ele>
        <time>2021-09-27T07:44:15.000Z</time>
      </trkpt>
      <trkpt lat="48.00956" lon="7.13734">
        <ele>878.5</ele>
        <time>2021-09-27T07:44:23.000Z</time>
      </trkpt>
      <trkpt lat="48.00947" lon="7.13736">
        <ele>878.9</ele>
        <time>2021-09-27T07:44:34.000Z</time>
      </trkpt>
      <trkpt lat="48.00939" lon="7.13741">
        <ele>878.9</ele>
        <time>2021-09-27T07:44:41.000Z</time>
      </trkpt>
      <trkpt lat="48.00929" lon="7.1375">
        <ele>878.7</ele>
        <time>2021-09-27T07:44:46.000Z</time>
      </trkpt>
      <trkpt lat="48.00926" lon="7.13737">
        <ele>879.6</ele>
        <time>2021-09-27T07:44:54.000Z</time>
      </trkpt>
      <trkpt lat="48.00917" lon="7.13733">
        <ele>880.2</ele>
        <time>2021-09-27T07:45:05.000Z</time>
      </trkpt>
      <trkpt lat="48.00917" lon="7.13719">
        <ele>881.2</ele>
        <time>2021-09-27T07:45:23.000Z</time>
      </trkpt>
      <trkpt lat="48.00926" lon="7.13722">
        <ele>880.5</ele>
        <time>2021-09-27T07:45:35.000Z</time>
      </trkpt>
      <trkpt lat="48.00917" lon="7.13719">
        <ele>881.3</ele>
        <time>2021-09-27T07:45:53.000Z</time>
      </trkpt>
      <trkpt lat="48.00908" lon="7.13711">
        <ele>882.9</ele>
        <time>2021-09-27T07:46:01.000Z</time>
      </trkpt>
      <trkpt lat="48.00901" lon="7.13702">
        <ele>884.4</ele>
        <time>2021-09-27T07:46:08.000Z</time>
      </trkpt>
      <trkpt lat="48.00894" lon="7.13692">
        <ele>886.1</ele>
        <time>2021-09-27T07:46:17.000Z</time>
      </trkpt>
      <trkpt lat="48.00888" lon="7.13682">
        <ele>887.6</ele>
        <time>2021-09-27T07:46:26.000Z</time>
      </trkpt>
      <trkpt lat="48.00883" lon="7.1367">
        <ele>889.2</ele>
        <time>2021-09-27T07:46:35.000Z</time>
      </trkpt>
      <trkpt lat="48.00875" lon="7.13663">
        <ele>890.7</ele>
        <time>2021-09-27T07:46:43.000Z</time>
      </trkpt>
      <trkpt lat="48.00869" lon="7.13652">
        <ele>892.2</ele>
        <time>2021-09-27T07:47:00.000Z</time>
      </trkpt>
      <trkpt lat="48.00861" lon="7.13643">
        <ele>894</ele>
        <time>2021-09-27T07:47:07.000Z</time>
      </trkpt>
      <trkpt lat="48.00852" lon="7.13635">
        <ele>896</ele>
        <time>2021-09-27T07:47:16.000Z</time>
      </trkpt>
      <trkpt lat="48.00844" lon="7.13629">
        <ele>897.9</ele>
        <time>2021-09-27T07:47:29.000Z</time>
      </trkpt>
      <trkpt lat="48.00835" lon="7.13622">
        <ele>900</ele>
        <time>2021-09-27T07:47:41.000Z</time>
      </trkpt>
      <trkpt lat="48.00827" lon="7.13616">
        <ele>901.2</ele>
        <time>2021-09-27T07:47:54.000Z</time>
      </trkpt>
      <trkpt lat="48.00819" lon="7.13611">
        <ele>902.1</ele>
        <time>2021-09-27T07:48:06.000Z</time>
      </trkpt>
      <trkpt lat="48.0081" lon="7.13606">
        <ele>903</ele>
        <time>2021-09-27T07:48:14.000Z</time>
      </trkpt>
      <trkpt lat="48.00801" lon="7.13601">
        <ele>904</ele>
        <time>2021-09-27T07:48:22.000Z</time>
      </trkpt>
      <trkpt lat="48.00793" lon="7.13595">
        <ele>904.9</ele>
        <time>2021-09-27T07:48:32.000Z</time>
      </trkpt>
      <trkpt lat="48.00784" lon="7.13588">
        <ele>905.9</ele>
        <time>2021-09-27T07:48:40.000Z</time>
      </trkpt>
      <trkpt lat="48.00774" lon="7.13591">
        <ele>906.2</ele>
        <time>2021-09-27T07:48:51.000Z</time>
      </trkpt>
      <trkpt lat="48.00768" lon="7.136">
        <ele>905.7</ele>
        <time>2021-09-27T07:48:59.000Z</time>
      </trkpt>
      <trkpt lat="48.0076" lon="7.13609">
        <ele>905.4</ele>
        <time>2021-09-27T07:49:06.000Z</time>
      </trkpt>
      <trkpt lat="48.00754" lon="7.13621">
        <ele>904.6</ele>
        <time>2021-09-27T07:49:16.000Z</time>
      </trkpt>
      <trkpt lat="48.00746" lon="7.13631">
        <ele>904.1</ele>
        <time>2021-09-27T07:49:24.000Z</time>
      </trkpt>
      <trkpt lat="48.0074" lon="7.13641">
        <ele>903.6</ele>
        <time>2021-09-27T07:49:29.000Z</time>
      </trkpt>
      <trkpt lat="48.00732" lon="7.13648">
        <ele>903.6</ele>
        <time>2021-09-27T07:49:36.000Z</time>
      </trkpt>
      <trkpt lat="48.00722" lon="7.13653">
        <ele>903.8</ele>
        <time>2021-09-27T07:49:42.000Z</time>
      </trkpt>
      <trkpt lat="48.00713" lon="7.13659">
        <ele>904</ele>
        <time>2021-09-27T07:49:48.000Z</time>
      </trkpt>
      <trkpt lat="48.00705" lon="7.13666">
        <ele>904.2</ele>
        <time>2021-09-27T07:49:58.000Z</time>
      </trkpt>
      <trkpt lat="48.00698" lon="7.13676">
        <ele>904.9</ele>
        <time>2021-09-27T07:50:07.000Z</time>
      </trkpt>
      <trkpt lat="48.0069" lon="7.13684">
        <ele>905.7</ele>
        <time>2021-09-27T07:50:17.000Z</time>
      </trkpt>
      <trkpt lat="48.0068" lon="7.13689">
        <ele>906.6</ele>
        <time>2021-09-27T07:50:24.000Z</time>
      </trkpt>
      <trkpt lat="48.00673" lon="7.13699">
        <ele>907.6</ele>
        <time>2021-09-27T07:50:33.000Z</time>
      </trkpt>
      <trkpt lat="48.00675" lon="7.13712">
        <ele>907.8</ele>
        <time>2021-09-27T07:50:42.000Z</time>
      </trkpt>
      <trkpt lat="48.0067" lon="7.13724">
        <ele>908.7</ele>
        <time>2021-09-27T07:51:18.000Z</time>
      </trkpt>
      <trkpt lat="48.00662" lon="7.13729">
        <ele>909.2</ele>
        <time>2021-09-27T07:51:41.000Z</time>
      </trkpt>
      <trkpt lat="48.00651" lon="7.13731">
        <ele>909.1</ele>
        <time>2021-09-27T07:51:47.000Z</time>
      </trkpt>
      <trkpt lat="48.00643" lon="7.1374">
        <ele>909.7</ele>
        <time>2021-09-27T07:51:57.000Z</time>
      </trkpt>
      <trkpt lat="48.00636" lon="7.13749">
        <ele>910.3</ele>
        <time>2021-09-27T07:52:08.000Z</time>
      </trkpt>
      <trkpt lat="48.00629" lon="7.13756">
        <ele>910.5</ele>
        <time>2021-09-27T07:52:14.000Z</time>
      </trkpt>
      <trkpt lat="48.00621" lon="7.13765">
        <ele>910.7</ele>
        <time>2021-09-27T07:52:22.000Z</time>
      </trkpt>
      <trkpt lat="48.00613" lon="7.13773">
        <ele>911</ele>
        <time>2021-09-27T07:52:31.000Z</time>
      </trkpt>
      <trkpt lat="48.00604" lon="7.13782">
        <ele>911.4</ele>
        <time>2021-09-27T07:52:38.000Z</time>
      </trkpt>
      <trkpt lat="48.00597" lon="7.13791">
        <ele>911.9</ele>
        <time>2021-09-27T07:52:46.000Z</time>
      </trkpt>
      <trkpt lat="48.0059" lon="7.138">
        <ele>912.5</ele>
        <time>2021-09-27T07:52:53.000Z</time>
      </trkpt>
      <trkpt lat="48.00583" lon="7.13809">
        <ele>913.1</ele>
        <time>2021-09-27T07:53:02.000Z</time>
      </trkpt>
      <trkpt lat="48.0058" lon="7.13824">
        <ele>913.5</ele>
        <time>2021-09-27T07:53:10.000Z</time>
      </trkpt>
      <trkpt lat="48.00573" lon="7.13834">
        <ele>913.5</ele>
        <time>2021-09-27T07:53:19.000Z</time>
      </trkpt>
      <trkpt lat="48.00563" lon="7.13831">
        <ele>913</ele>
        <time>2021-09-27T07:53:29.000Z</time>
      </trkpt>
      <trkpt lat="48.00554" lon="7.13826">
        <ele>912.6</ele>
        <time>2021-09-27T07:53:37.000Z</time>
      </trkpt>
      <trkpt lat="48.00545" lon="7.13823">
        <ele>912.2</ele>
        <time>2021-09-27T07:53:45.000Z</time>
      </trkpt>
      <trkpt lat="48.00537" lon="7.13815">
        <ele>912</ele>
        <time>2021-09-27T07:53:54.000Z</time>
      </trkpt>
      <trkpt lat="48.00528" lon="7.13809">
        <ele>911.8</ele>
        <time>2021-09-27T07:54:03.000Z</time>
      </trkpt>
      <trkpt lat="48.0052" lon="7.13802">
        <ele>911.8</ele>
        <time>2021-09-27T07:54:14.000Z</time>
      </trkpt>
      <trkpt lat="48.00511" lon="7.13797">
        <ele>911.9</ele>
        <time>2021-09-27T07:54:21.000Z</time>
      </trkpt>
      <trkpt lat="48.00503" lon="7.13791">
        <ele>912</ele>
        <time>2021-09-27T07:54:27.000Z</time>
      </trkpt>
      <trkpt lat="48.00494" lon="7.13794">
        <ele>912.3</ele>
        <time>2021-09-27T07:54:41.000Z</time>
      </trkpt>
      <trkpt lat="48.00485" lon="7.13789">
        <ele>913.2</ele>
        <time>2021-09-27T07:54:52.000Z</time>
      </trkpt>
      <trkpt lat="48.00476" lon="7.13785">
        <ele>914.2</ele>
        <time>2021-09-27T07:55:02.000Z</time>
      </trkpt>
      <trkpt lat="48.00466" lon="7.13779">
        <ele>915.6</ele>
        <time>2021-09-27T07:55:11.000Z</time>
      </trkpt>
      <trkpt lat="48.00457" lon="7.13775">
        <ele>916.9</ele>
        <time>2021-09-27T07:55:20.000Z</time>
      </trkpt>
      <trkpt lat="48.00448" lon="7.13772">
        <ele>918.1</ele>
        <time>2021-09-27T07:55:29.000Z</time>
      </trkpt>
      <trkpt lat="48.00439" lon="7.1377">
        <ele>919.3</ele>
        <time>2021-09-27T07:55:40.000Z</time>
      </trkpt>
      <trkpt lat="48.00429" lon="7.13767">
        <ele>920.7</ele>
        <time>2021-09-27T07:55:52.000Z</time>
      </trkpt>
      <trkpt lat="48.0042" lon="7.13764">
        <ele>922.1</ele>
        <time>2021-09-27T07:56:01.000Z</time>
      </trkpt>
      <trkpt lat="48.00411" lon="7.13761">
        <ele>923.6</ele>
        <time>2021-09-27T07:56:10.000Z</time>
      </trkpt>
      <trkpt lat="48.00401" lon="7.1376">
        <ele>924.8</ele>
        <time>2021-09-27T07:56:22.000Z</time>
      </trkpt>
      <trkpt lat="48.00392" lon="7.1376">
        <ele>925.7</ele>
        <time>2021-09-27T07:56:31.000Z</time>
      </trkpt>
      <trkpt lat="48.00382" lon="7.13756">
        <ele>927.2</ele>
        <time>2021-09-27T07:56:41.000Z</time>
      </trkpt>
      <trkpt lat="48.00372" lon="7.13755">
        <ele>928.4</ele>
        <time>2021-09-27T07:56:49.000Z</time>
      </trkpt>
      <trkpt lat="48.00364" lon="7.1375">
        <ele>930.1</ele>
        <time>2021-09-27T07:56:59.000Z</time>
      </trkpt>
      <trkpt lat="48.00354" lon="7.13749">
        <ele>931</ele>
        <time>2021-09-27T07:57:08.000Z</time>
      </trkpt>
      <trkpt lat="48.00347" lon="7.13758">
        <ele>930.2</ele>
        <time>2021-09-27T07:57:19.000Z</time>
      </trkpt>
      <trkpt lat="48.00339" lon="7.13769">
        <ele>929.1</ele>
        <time>2021-09-27T07:57:30.000Z</time>
      </trkpt>
      <trkpt lat="48.00332" lon="7.13777">
        <ele>928.3</ele>
        <time>2021-09-27T07:57:39.000Z</time>
      </trkpt>
      <trkpt lat="48.00325" lon="7.13785">
        <ele>928.3</ele>
        <time>2021-09-27T07:57:46.000Z</time>
      </trkpt>
      <trkpt lat="48.00317" lon="7.13793">
        <ele>928.2</ele>
        <time>2021-09-27T07:57:54.000Z</time>
      </trkpt>
      <trkpt lat="48.0031" lon="7.13802">
        <ele>928.1</ele>
        <time>2021-09-27T07:58:04.000Z</time>
      </trkpt>
      <trkpt lat="48.00301" lon="7.13805">
        <ele>929.2</ele>
        <time>2021-09-27T07:58:22.000Z</time>
      </trkpt>
      <trkpt lat="48.00292" lon="7.13807">
        <ele>930.7</ele>
        <time>2021-09-27T07:58:33.000Z</time>
      </trkpt>
      <trkpt lat="48.00283" lon="7.13811">
        <ele>932</ele>
        <time>2021-09-27T07:58:50.000Z</time>
      </trkpt>
      <trkpt lat="48.00277" lon="7.13822">
        <ele>931.7</ele>
        <time>2021-09-27T07:59:12.000Z</time>
      </trkpt>
      <trkpt lat="48.00271" lon="7.13811">
        <ele>934.2</ele>
        <time>2021-09-27T07:59:55.000Z</time>
      </trkpt>
      <trkpt lat="48.00269" lon="7.13825">
        <ele>933</ele>
        <time>2021-09-27T08:03:04.000Z</time>
      </trkpt>
      <trkpt lat="48.0026" lon="7.13831">
        <ele>934.1</ele>
        <time>2021-09-27T08:03:14.000Z</time>
      </trkpt>
      <trkpt lat="48.0025" lon="7.13832">
        <ele>936.2</ele>
        <time>2021-09-27T08:03:44.000Z</time>
      </trkpt>
      <trkpt lat="48.00249" lon="7.13817">
        <ele>937.9</ele>
        <time>2021-09-27T08:03:55.000Z</time>
      </trkpt>
      <trkpt lat="48.00252" lon="7.13803">
        <ele>939</ele>
        <time>2021-09-27T08:04:03.000Z</time>
      </trkpt>
      <trkpt lat="48.00253" lon="7.13789">
        <ele>940.4</ele>
        <time>2021-09-27T08:04:11.000Z</time>
      </trkpt>
      <trkpt lat="48.00254" lon="7.13775">
        <ele>941.5</ele>
        <time>2021-09-27T08:04:18.000Z</time>
      </trkpt>
      <trkpt lat="48.00259" lon="7.13762">
        <ele>942.4</ele>
        <time>2021-09-27T08:04:26.000Z</time>
      </trkpt>
      <trkpt lat="48.0026" lon="7.13748">
        <ele>943.7</ele>
        <time>2021-09-27T08:04:41.000Z</time>
      </trkpt>
      <trkpt lat="48.00256" lon="7.13735">
        <ele>945</ele>
        <time>2021-09-27T08:04:50.000Z</time>
      </trkpt>
      <trkpt lat="48.00246" lon="7.13736">
        <ele>946.2</ele>
        <time>2021-09-27T08:05:23.000Z</time>
      </trkpt>
      <trkpt lat="48.00237" lon="7.13733">
        <ele>947.2</ele>
        <time>2021-09-27T08:05:30.000Z</time>
      </trkpt>
      <trkpt lat="48.00228" lon="7.13733">
        <ele>948</ele>
        <time>2021-09-27T08:05:36.000Z</time>
      </trkpt>
      <trkpt lat="48.0022" lon="7.1374">
        <ele>948.2</ele>
        <time>2021-09-27T08:05:47.000Z</time>
      </trkpt>
      <trkpt lat="48.00211" lon="7.13743">
        <ele>948.8</ele>
        <time>2021-09-27T08:05:57.000Z</time>
      </trkpt>
      <trkpt lat="48.00202" lon="7.13747">
        <ele>949.3</ele>
        <time>2021-09-27T08:06:11.000Z</time>
      </trkpt>
      <trkpt lat="48.00193" lon="7.13753">
        <ele>949.5</ele>
        <time>2021-09-27T08:06:23.000Z</time>
      </trkpt>
      <trkpt lat="48.00184" lon="7.13759">
        <ele>949.5</ele>
        <time>2021-09-27T08:06:36.000Z</time>
      </trkpt>
      <trkpt lat="48.00175" lon="7.13758">
        <ele>950.4</ele>
        <time>2021-09-27T08:06:45.000Z</time>
      </trkpt>
      <trkpt lat="48.00165" lon="7.13756">
        <ele>951.3</ele>
        <time>2021-09-27T08:06:56.000Z</time>
      </trkpt>
      <trkpt lat="48.00155" lon="7.13753">
        <ele>951.6</ele>
        <time>2021-09-27T08:07:06.000Z</time>
      </trkpt>
      <trkpt lat="48.00146" lon="7.13749">
        <ele>952.1</ele>
        <time>2021-09-27T08:07:15.000Z</time>
      </trkpt>
      <trkpt lat="48.00137" lon="7.13745">
        <ele>952.6</ele>
        <time>2021-09-27T08:07:24.000Z</time>
      </trkpt>
      <trkpt lat="48.00129" lon="7.1374">
        <ele>953.4</ele>
        <time>2021-09-27T08:07:33.000Z</time>
      </trkpt>
      <trkpt lat="48.00121" lon="7.13732">
        <ele>954.7</ele>
        <time>2021-09-27T08:07:43.000Z</time>
      </trkpt>
      <trkpt lat="48.00113" lon="7.13724">
        <ele>956.2</ele>
        <time>2021-09-27T08:07:52.000Z</time>
      </trkpt>
      <trkpt lat="48.00106" lon="7.13716">
        <ele>957.9</ele>
        <time>2021-09-27T08:08:05.000Z</time>
      </trkpt>
      <trkpt lat="48.00097" lon="7.13711">
        <ele>959.2</ele>
        <time>2021-09-27T08:08:13.000Z</time>
      </trkpt>
      <trkpt lat="48.0009" lon="7.13702">
        <ele>961.3</ele>
        <time>2021-09-27T08:08:19.000Z</time>
      </trkpt>
      <trkpt lat="48.00085" lon="7.13691">
        <ele>964</ele>
        <time>2021-09-27T08:08:33.000Z</time>
      </trkpt>
      <trkpt lat="48.0008" lon="7.13678">
        <ele>966.3</ele>
        <time>2021-09-27T08:08:43.000Z</time>
      </trkpt>
      <trkpt lat="48.00074" lon="7.13665">
        <ele>968.5</ele>
        <time>2021-09-27T08:08:53.000Z</time>
      </trkpt>
      <trkpt lat="48.00075" lon="7.13652">
        <ele>969.8</ele>
        <time>2021-09-27T08:09:02.000Z</time>
      </trkpt>
      <trkpt lat="48.0007" lon="7.13638">
        <ele>970.9</ele>
        <time>2021-09-27T08:09:15.000Z</time>
      </trkpt>
      <trkpt lat="48.00063" lon="7.13628">
        <ele>971.8</ele>
        <time>2021-09-27T08:09:24.000Z</time>
      </trkpt>
      <trkpt lat="48.00058" lon="7.13614">
        <ele>973.3</ele>
        <time>2021-09-27T08:09:30.000Z</time>
      </trkpt>
      <trkpt lat="48.00051" lon="7.13605">
        <ele>974.4</ele>
        <time>2021-09-27T08:09:39.000Z</time>
      </trkpt>
      <trkpt lat="48.00046" lon="7.13594">
        <ele>975.9</ele>
        <time>2021-09-27T08:09:49.000Z</time>
      </trkpt>
      <trkpt lat="48.0004" lon="7.13584">
        <ele>977.5</ele>
        <time>2021-09-27T08:10:02.000Z</time>
      </trkpt>
      <trkpt lat="48.00032" lon="7.13576">
        <ele>978</ele>
        <time>2021-09-27T08:10:09.000Z</time>
      </trkpt>
      <trkpt lat="48.00023" lon="7.13568">
        <ele>978.6</ele>
        <time>2021-09-27T08:10:17.000Z</time>
      </trkpt>
      <trkpt lat="48.00016" lon="7.13559">
        <ele>979.3</ele>
        <time>2021-09-27T08:10:26.000Z</time>
      </trkpt>
      <trkpt lat="48.00009" lon="7.1355">
        <ele>980</ele>
        <time>2021-09-27T08:10:36.000Z</time>
      </trkpt>
      <trkpt lat="48.00001" lon="7.13543">
        <ele>980.9</ele>
        <time>2021-09-27T08:10:43.000Z</time>
      </trkpt>
      <trkpt lat="47.99992" lon="7.13535">
        <ele>980.2</ele>
        <time>2021-09-27T08:10:52.000Z</time>
      </trkpt>
      <trkpt lat="47.99982" lon="7.13532">
        <ele>979.1</ele>
        <time>2021-09-27T08:10:59.000Z</time>
      </trkpt>
      <trkpt lat="47.99973" lon="7.13531">
        <ele>978</ele>
        <time>2021-09-27T08:11:07.000Z</time>
      </trkpt>
      <trkpt lat="47.99964" lon="7.1353">
        <ele>977</ele>
        <time>2021-09-27T08:11:15.000Z</time>
      </trkpt>
      <trkpt lat="47.99956" lon="7.13523">
        <ele>976.8</ele>
        <time>2021-09-27T08:11:26.000Z</time>
      </trkpt>
      <trkpt lat="47.99946" lon="7.13521">
        <ele>975.9</ele>
        <time>2021-09-27T08:11:32.000Z</time>
      </trkpt>
      <trkpt lat="47.99936" lon="7.13517">
        <ele>975.6</ele>
        <time>2021-09-27T08:11:40.000Z</time>
      </trkpt>
      <trkpt lat="47.99928" lon="7.13512">
        <ele>975.6</ele>
        <time>2021-09-27T08:11:47.000Z</time>
      </trkpt>
      <trkpt lat="47.99919" lon="7.13508">
        <ele>975.5</ele>
        <time>2021-09-27T08:11:54.000Z</time>
      </trkpt>
      <trkpt lat="47.99909" lon="7.13504">
        <ele>975</ele>
        <time>2021-09-27T08:12:01.000Z</time>
      </trkpt>
      <trkpt lat="47.99901" lon="7.13498">
        <ele>975</ele>
        <time>2021-09-27T08:12:09.000Z</time>
      </trkpt>
      <trkpt lat="47.99896" lon="7.13487">
        <ele>976.3</ele>
        <time>2021-09-27T08:12:22.000Z</time>
      </trkpt>
      <trkpt lat="47.99891" lon="7.13475">
        <ele>978</ele>
        <time>2021-09-27T08:12:33.000Z</time>
      </trkpt>
      <trkpt lat="47.99888" lon="7.13463">
        <ele>980.1</ele>
        <time>2021-09-27T08:12:43.000Z</time>
      </trkpt>
      <trkpt lat="47.99883" lon="7.1345">
        <ele>982.3</ele>
        <time>2021-09-27T08:12:53.000Z</time>
      </trkpt>
      <trkpt lat="47.99879" lon="7.13437">
        <ele>984.4</ele>
        <time>2021-09-27T08:13:04.000Z</time>
      </trkpt>
      <trkpt lat="47.99874" lon="7.13425">
        <ele>986.5</ele>
        <time>2021-09-27T08:13:14.000Z</time>
      </trkpt>
      <trkpt lat="47.99865" lon="7.13418">
        <ele>987.4</ele>
        <time>2021-09-27T08:13:22.000Z</time>
      </trkpt>
      <trkpt lat="47.99858" lon="7.13408">
        <ele>988.1</ele>
        <time>2021-09-27T08:13:32.000Z</time>
      </trkpt>
      <trkpt lat="47.9985" lon="7.134">
        <ele>988.9</ele>
        <time>2021-09-27T08:13:39.000Z</time>
      </trkpt>
      <trkpt lat="47.99842" lon="7.13394">
        <ele>989.8</ele>
        <time>2021-09-27T08:13:47.000Z</time>
      </trkpt>
      <trkpt lat="47.99833" lon="7.13389">
        <ele>990.8</ele>
        <time>2021-09-27T08:13:58.000Z</time>
      </trkpt>
      <trkpt lat="47.99825" lon="7.13378">
        <ele>993.4</ele>
        <time>2021-09-27T08:14:10.000Z</time>
      </trkpt>
      <trkpt lat="47.99817" lon="7.13371">
        <ele>995.8</ele>
        <time>2021-09-27T08:14:23.000Z</time>
      </trkpt>
      <trkpt lat="47.99809" lon="7.13364">
        <ele>998.1</ele>
        <time>2021-09-27T08:14:39.000Z</time>
      </trkpt>
      <trkpt lat="47.998" lon="7.13363">
        <ele>999.2</ele>
        <time>2021-09-27T08:14:55.000Z</time>
      </trkpt>
      <trkpt lat="47.9979" lon="7.13363">
        <ele>1000.4</ele>
        <time>2021-09-27T08:15:09.000Z</time>
      </trkpt>
      <trkpt lat="47.99781" lon="7.13357">
        <ele>1002.9</ele>
        <time>2021-09-27T08:15:24.000Z</time>
      </trkpt>
      <trkpt lat="47.99773" lon="7.13353">
        <ele>1005.1</ele>
        <time>2021-09-27T08:15:36.000Z</time>
      </trkpt>
      <trkpt lat="47.99766" lon="7.13343">
        <ele>1009.4</ele>
        <time>2021-09-27T08:15:51.000Z</time>
      </trkpt>
      <trkpt lat="47.99757" lon="7.13337">
        <ele>1012.6</ele>
        <time>2021-09-27T08:16:04.000Z</time>
      </trkpt>
      <trkpt lat="47.99749" lon="7.13329">
        <ele>1015.4</ele>
        <time>2021-09-27T08:16:16.000Z</time>
      </trkpt>
      <trkpt lat="47.9974" lon="7.13333">
        <ele>1014.3</ele>
        <time>2021-09-27T08:16:24.000Z</time>
      </trkpt>
      <trkpt lat="47.99731" lon="7.13331">
        <ele>1013.9</ele>
        <time>2021-09-27T08:16:32.000Z</time>
      </trkpt>
      <trkpt lat="47.99722" lon="7.13331">
        <ele>1013.4</ele>
        <time>2021-09-27T08:16:42.000Z</time>
      </trkpt>
      <trkpt lat="47.99712" lon="7.13331">
        <ele>1012.6</ele>
        <time>2021-09-27T08:16:52.000Z</time>
      </trkpt>
      <trkpt lat="47.99703" lon="7.13335">
        <ele>1011</ele>
        <time>2021-09-27T08:17:01.000Z</time>
      </trkpt>
      <trkpt lat="47.99694" lon="7.13337">
        <ele>1009.9</ele>
        <time>2021-09-27T08:17:10.000Z</time>
      </trkpt>
      <trkpt lat="47.99686" lon="7.13344">
        <ele>1007.4</ele>
        <time>2021-09-27T08:17:47.000Z</time>
      </trkpt>
      <trkpt lat="47.99663" lon="7.1337">
        <ele>998.5</ele>
        <time>2021-09-27T08:17:52.000Z</time>
      </trkpt>
      <trkpt lat="47.99684" lon="7.13397">
        <ele>992.3</ele>
        <time>2021-09-27T08:17:57.000Z</time>
      </trkpt>
      <trkpt lat="47.9969" lon="7.13385">
        <ele>995.6</ele>
        <time>2021-09-27T08:18:02.000Z</time>
      </trkpt>
      <trkpt lat="47.99695" lon="7.13366">
        <ele>1001.4</ele>
        <time>2021-09-27T08:18:10.000Z</time>
      </trkpt>
      <trkpt lat="47.99693" lon="7.1335">
        <ele>1006.1</ele>
        <time>2021-09-27T08:18:16.000Z</time>
      </trkpt>
      <trkpt lat="47.99688" lon="7.13333">
        <ele>1010.6</ele>
        <time>2021-09-27T08:18:21.000Z</time>
      </trkpt>
      <trkpt lat="47.99679" lon="7.13325">
        <ele>1011.3</ele>
        <time>2021-09-27T08:18:27.000Z</time>
      </trkpt>
      <trkpt lat="47.99673" lon="7.13314">
        <ele>1012.6</ele>
        <time>2021-09-27T08:18:35.000Z</time>
      </trkpt>
      <trkpt lat="47.99668" lon="7.13303">
        <ele>1014.2</ele>
        <time>2021-09-27T08:18:44.000Z</time>
      </trkpt>
      <trkpt lat="47.9966" lon="7.13295">
        <ele>1014.2</ele>
        <time>2021-09-27T08:18:52.000Z</time>
      </trkpt>
      <trkpt lat="47.99655" lon="7.13282">
        <ele>1015.1</ele>
        <time>2021-09-27T08:19:01.000Z</time>
      </trkpt>
      <trkpt lat="47.99648" lon="7.13272">
        <ele>1015.5</ele>
        <time>2021-09-27T08:19:09.000Z</time>
      </trkpt>
      <trkpt lat="47.99643" lon="7.1326">
        <ele>1016.2</ele>
        <time>2021-09-27T08:19:18.000Z</time>
      </trkpt>
      <trkpt lat="47.99636" lon="7.1325">
        <ele>1016.4</ele>
        <time>2021-09-27T08:19:27.000Z</time>
      </trkpt>
      <trkpt lat="47.99628" lon="7.13243">
        <ele>1014.5</ele>
        <time>2021-09-27T08:19:34.000Z</time>
      </trkpt>
      <trkpt lat="47.99618" lon="7.13242">
        <ele>1012.5</ele>
        <time>2021-09-27T08:19:40.000Z</time>
      </trkpt>
      <trkpt lat="47.99608" lon="7.1324">
        <ele>1010.6</ele>
        <time>2021-09-27T08:19:47.000Z</time>
      </trkpt>
      <trkpt lat="47.99599" lon="7.13246">
        <ele>1008.6</ele>
        <time>2021-09-27T08:19:52.000Z</time>
      </trkpt>
      <trkpt lat="47.9959" lon="7.13248">
        <ele>1006.5</ele>
        <time>2021-09-27T08:19:59.000Z</time>
      </trkpt>
      <trkpt lat="47.99584" lon="7.13237">
        <ele>1005.9</ele>
        <time>2021-09-27T08:20:09.000Z</time>
      </trkpt>
      <trkpt lat="47.99575" lon="7.13233">
        <ele>1005.2</ele>
        <time>2021-09-27T08:20:18.000Z</time>
      </trkpt>
      <trkpt lat="47.99566" lon="7.13238">
        <ele>1004</ele>
        <time>2021-09-27T08:20:25.000Z</time>
      </trkpt>
      <trkpt lat="47.99556" lon="7.13235">
        <ele>1003.3</ele>
        <time>2021-09-27T08:20:33.000Z</time>
      </trkpt>
      <trkpt lat="47.99547" lon="7.13232">
        <ele>1002.7</ele>
        <time>2021-09-27T08:20:41.000Z</time>
      </trkpt>
      <trkpt lat="47.99539" lon="7.13227">
        <ele>1002.3</ele>
        <time>2021-09-27T08:20:48.000Z</time>
      </trkpt>
      <trkpt lat="47.9953" lon="7.13222">
        <ele>1002</ele>
        <time>2021-09-27T08:20:56.000Z</time>
      </trkpt>
      <trkpt lat="47.9952" lon="7.13219">
        <ele>1001.5</ele>
        <time>2021-09-27T08:21:04.000Z</time>
      </trkpt>
      <trkpt lat="47.99511" lon="7.13217">
        <ele>1000.9</ele>
        <time>2021-09-27T08:21:11.000Z</time>
      </trkpt>
      <trkpt lat="47.99502" lon="7.13213">
        <ele>1000.5</ele>
        <time>2021-09-27T08:21:17.000Z</time>
      </trkpt>
      <trkpt lat="47.99492" lon="7.13212">
        <ele>1000.4</ele>
        <time>2021-09-27T08:21:24.000Z</time>
      </trkpt>
      <trkpt lat="47.99483" lon="7.13211">
        <ele>1000.2</ele>
        <time>2021-09-27T08:21:33.000Z</time>
      </trkpt>
      <trkpt lat="47.99474" lon="7.13203">
        <ele>1001.2</ele>
        <time>2021-09-27T08:21:42.000Z</time>
      </trkpt>
      <trkpt lat="47.99465" lon="7.13199">
        <ele>1001.5</ele>
        <time>2021-09-27T08:21:49.000Z</time>
      </trkpt>
      <trkpt lat="47.99457" lon="7.13194">
        <ele>1002.1</ele>
        <time>2021-09-27T08:21:58.000Z</time>
      </trkpt>
      <trkpt lat="47.99448" lon="7.13188">
        <ele>1002.8</ele>
        <time>2021-09-27T08:22:05.000Z</time>
      </trkpt>
      <trkpt lat="47.9944" lon="7.13184">
        <ele>1003.3</ele>
        <time>2021-09-27T08:22:15.000Z</time>
      </trkpt>
      <trkpt lat="47.9943" lon="7.13181">
        <ele>1003.6</ele>
        <time>2021-09-27T08:22:23.000Z</time>
      </trkpt>
      <trkpt lat="47.9942" lon="7.13177">
        <ele>1004.4</ele>
        <time>2021-09-27T08:22:31.000Z</time>
      </trkpt>
      <trkpt lat="47.99411" lon="7.13175">
        <ele>1004.5</ele>
        <time>2021-09-27T08:22:38.000Z</time>
      </trkpt>
      <trkpt lat="47.994" lon="7.13173">
        <ele>1004.7</ele>
        <time>2021-09-27T08:22:46.000Z</time>
      </trkpt>
      <trkpt lat="47.99391" lon="7.1317">
        <ele>1005.1</ele>
        <time>2021-09-27T08:22:55.000Z</time>
      </trkpt>
      <trkpt lat="47.99383" lon="7.13164">
        <ele>1006</ele>
        <time>2021-09-27T08:23:02.000Z</time>
      </trkpt>
      <trkpt lat="47.99373" lon="7.13158">
        <ele>1006.6</ele>
        <time>2021-09-27T08:23:09.000Z</time>
      </trkpt>
      <trkpt lat="47.99364" lon="7.13156">
        <ele>1006.7</ele>
        <time>2021-09-27T08:23:17.000Z</time>
      </trkpt>
      <trkpt lat="47.99355" lon="7.13153">
        <ele>1007</ele>
        <time>2021-09-27T08:23:26.000Z</time>
      </trkpt>
      <trkpt lat="47.99346" lon="7.13149">
        <ele>1007.4</ele>
        <time>2021-09-27T08:23:33.000Z</time>
      </trkpt>
      <trkpt lat="47.99336" lon="7.13149">
        <ele>1007.4</ele>
        <time>2021-09-27T08:23:40.000Z</time>
      </trkpt>
      <trkpt lat="47.99327" lon="7.13143">
        <ele>1007.6</ele>
        <time>2021-09-27T08:23:50.000Z</time>
      </trkpt>
      <trkpt lat="47.99318" lon="7.13138">
        <ele>1007.7</ele>
        <time>2021-09-27T08:23:58.000Z</time>
      </trkpt>
      <trkpt lat="47.99308" lon="7.13137">
        <ele>1007</ele>
        <time>2021-09-27T08:24:05.000Z</time>
      </trkpt>
      <trkpt lat="47.99299" lon="7.13131">
        <ele>1007.2</ele>
        <time>2021-09-27T08:24:12.000Z</time>
      </trkpt>
      <trkpt lat="47.9929" lon="7.13129">
        <ele>1006.8</ele>
        <time>2021-09-27T08:24:21.000Z</time>
      </trkpt>
      <trkpt lat="47.99281" lon="7.13126">
        <ele>1006.6</ele>
        <time>2021-09-27T08:24:28.000Z</time>
      </trkpt>
      <trkpt lat="47.99273" lon="7.13122">
        <ele>1006.7</ele>
        <time>2021-09-27T08:24:37.000Z</time>
      </trkpt>
      <trkpt lat="47.99263" lon="7.13119">
        <ele>1006.4</ele>
        <time>2021-09-27T08:24:46.000Z</time>
      </trkpt>
      <trkpt lat="47.99254" lon="7.13118">
        <ele>1005.9</ele>
        <time>2021-09-27T08:24:55.000Z</time>
      </trkpt>
      <trkpt lat="47.99245" lon="7.13114">
        <ele>1006.9</ele>
        <time>2021-09-27T08:25:06.000Z</time>
      </trkpt>
      <trkpt lat="47.99237" lon="7.13109">
        <ele>1008.7</ele>
        <time>2021-09-27T08:25:16.000Z</time>
      </trkpt>
      <trkpt lat="47.99227" lon="7.13107">
        <ele>1010.1</ele>
        <time>2021-09-27T08:25:46.000Z</time>
      </trkpt>
      <trkpt lat="47.99222" lon="7.13119">
        <ele>1009</ele>
        <time>2021-09-27T08:26:23.000Z</time>
      </trkpt>
      <trkpt lat="47.99212" lon="7.13122">
        <ele>1009.7</ele>
        <time>2021-09-27T08:26:31.000Z</time>
      </trkpt>
      <trkpt lat="47.99203" lon="7.13125">
        <ele>1010.4</ele>
        <time>2021-09-27T08:26:40.000Z</time>
      </trkpt>
      <trkpt lat="47.99195" lon="7.1313">
        <ele>1010.7</ele>
        <time>2021-09-27T08:26:49.000Z</time>
      </trkpt>
      <trkpt lat="47.99185" lon="7.13137">
        <ele>1011</ele>
        <time>2021-09-27T08:26:58.000Z</time>
      </trkpt>
      <trkpt lat="47.99178" lon="7.13145">
        <ele>1010.6</ele>
        <time>2021-09-27T08:27:04.000Z</time>
      </trkpt>
      <trkpt lat="47.99171" lon="7.13154">
        <ele>1010.3</ele>
        <time>2021-09-27T08:27:13.000Z</time>
      </trkpt>
      <trkpt lat="47.99163" lon="7.13161">
        <ele>1010.9</ele>
        <time>2021-09-27T08:27:20.000Z</time>
      </trkpt>
      <trkpt lat="47.99154" lon="7.13168">
        <ele>1012.1</ele>
        <time>2021-09-27T08:27:28.000Z</time>
      </trkpt>
      <trkpt lat="47.99145" lon="7.13175">
        <ele>1012.9</ele>
        <time>2021-09-27T08:27:36.000Z</time>
      </trkpt>
      <trkpt lat="47.99138" lon="7.13184">
        <ele>1012.8</ele>
        <time>2021-09-27T08:27:44.000Z</time>
      </trkpt>
      <trkpt lat="47.99132" lon="7.13195">
        <ele>1012</ele>
        <time>2021-09-27T08:27:51.000Z</time>
      </trkpt>
      <trkpt lat="47.99125" lon="7.13205">
        <ele>1011.7</ele>
        <time>2021-09-27T08:27:59.000Z</time>
      </trkpt>
      <trkpt lat="47.99117" lon="7.13215">
        <ele>1011.2</ele>
        <time>2021-09-27T08:28:07.000Z</time>
      </trkpt>
      <trkpt lat="47.99109" lon="7.13222">
        <ele>1011.3</ele>
        <time>2021-09-27T08:28:18.000Z</time>
      </trkpt>
      <trkpt lat="47.99101" lon="7.13228">
        <ele>1011.6</ele>
        <time>2021-09-27T08:28:26.000Z</time>
      </trkpt>
      <trkpt lat="47.99093" lon="7.13234">
        <ele>1012</ele>
        <time>2021-09-27T08:28:33.000Z</time>
      </trkpt>
      <trkpt lat="47.99085" lon="7.13242">
        <ele>1011.8</ele>
        <time>2021-09-27T08:28:42.000Z</time>
      </trkpt>
      <trkpt lat="47.99076" lon="7.13246">
        <ele>1013.2</ele>
        <time>2021-09-27T08:28:49.000Z</time>
      </trkpt>
      <trkpt lat="47.99068" lon="7.13251">
        <ele>1014.8</ele>
        <time>2021-09-27T08:28:58.000Z</time>
      </trkpt>
      <trkpt lat="47.99058" lon="7.13251">
        <ele>1017.8</ele>
        <time>2021-09-27T08:29:10.000Z</time>
      </trkpt>
      <trkpt lat="47.99053" lon="7.13262">
        <ele>1017</ele>
        <time>2021-09-27T08:29:20.000Z</time>
      </trkpt>
      <trkpt lat="47.99045" lon="7.1327">
        <ele>1017.7</ele>
        <time>2021-09-27T08:29:42.000Z</time>
      </trkpt>
      <trkpt lat="47.99036" lon="7.13275">
        <ele>1019.3</ele>
        <time>2021-09-27T08:29:53.000Z</time>
      </trkpt>
      <trkpt lat="47.99029" lon="7.13286">
        <ele>1019.1</ele>
        <time>2021-09-27T08:30:04.000Z</time>
      </trkpt>
      <trkpt lat="47.99021" lon="7.13294">
        <ele>1019.7</ele>
        <time>2021-09-27T08:30:13.000Z</time>
      </trkpt>
      <trkpt lat="47.99012" lon="7.13298">
        <ele>1021.7</ele>
        <time>2021-09-27T08:30:26.000Z</time>
      </trkpt>
      <trkpt lat="47.99003" lon="7.13304">
        <ele>1023</ele>
        <time>2021-09-27T08:30:39.000Z</time>
      </trkpt>
      <trkpt lat="47.98995" lon="7.13312">
        <ele>1024.3</ele>
        <time>2021-09-27T08:30:51.000Z</time>
      </trkpt>
      <trkpt lat="47.98987" lon="7.13318">
        <ele>1026.5</ele>
        <time>2021-09-27T08:31:05.000Z</time>
      </trkpt>
      <trkpt lat="47.98978" lon="7.13322">
        <ele>1029.5</ele>
        <time>2021-09-27T08:31:19.000Z</time>
      </trkpt>
      <trkpt lat="47.98971" lon="7.1333">
        <ele>1030.4</ele>
        <time>2021-09-27T08:31:32.000Z</time>
      </trkpt>
      <trkpt lat="47.98963" lon="7.13338">
        <ele>1032.4</ele>
        <time>2021-09-27T08:31:44.000Z</time>
      </trkpt>
      <trkpt lat="47.98955" lon="7.13345">
        <ele>1034.5</ele>
        <time>2021-09-27T08:31:57.000Z</time>
      </trkpt>
      <trkpt lat="47.98947" lon="7.13351">
        <ele>1036.9</ele>
        <time>2021-09-27T08:32:11.000Z</time>
      </trkpt>
      <trkpt lat="47.98939" lon="7.13357">
        <ele>1039.1</ele>
        <time>2021-09-27T08:32:23.000Z</time>
      </trkpt>
      <trkpt lat="47.9893" lon="7.13364">
        <ele>1041.4</ele>
        <time>2021-09-27T08:32:37.000Z</time>
      </trkpt>
      <trkpt lat="47.98921" lon="7.13369">
        <ele>1043.6</ele>
        <time>2021-09-27T08:32:51.000Z</time>
      </trkpt>
      <trkpt lat="47.98912" lon="7.13373">
        <ele>1045.3</ele>
        <time>2021-09-27T08:33:01.000Z</time>
      </trkpt>
      <trkpt lat="47.98904" lon="7.13378">
        <ele>1045.9</ele>
        <time>2021-09-27T08:33:12.000Z</time>
      </trkpt>
      <trkpt lat="47.98897" lon="7.13387">
        <ele>1044.9</ele>
        <time>2021-09-27T08:33:23.000Z</time>
      </trkpt>
      <trkpt lat="47.98888" lon="7.13388">
        <ele>1046.2</ele>
        <time>2021-09-27T08:33:33.000Z</time>
      </trkpt>
      <trkpt lat="47.98877" lon="7.1339">
        <ele>1047.4</ele>
        <time>2021-09-27T08:33:44.000Z</time>
      </trkpt>
      <trkpt lat="47.98868" lon="7.1339">
        <ele>1049</ele>
        <time>2021-09-27T08:33:54.000Z</time>
      </trkpt>
      <trkpt lat="47.98858" lon="7.13387">
        <ele>1051.8</ele>
        <time>2021-09-27T08:34:04.000Z</time>
      </trkpt>
      <trkpt lat="47.9885" lon="7.13379">
        <ele>1055.5</ele>
        <time>2021-09-27T08:34:14.000Z</time>
      </trkpt>
      <trkpt lat="47.98841" lon="7.13377">
        <ele>1058</ele>
        <time>2021-09-27T08:34:23.000Z</time>
      </trkpt>
      <trkpt lat="47.98833" lon="7.13372">
        <ele>1061.1</ele>
        <time>2021-09-27T08:34:33.000Z</time>
      </trkpt>
      <trkpt lat="47.98824" lon="7.13365">
        <ele>1064.4</ele>
        <time>2021-09-27T08:34:43.000Z</time>
      </trkpt>
      <trkpt lat="47.98814" lon="7.13364">
        <ele>1065.8</ele>
        <time>2021-09-27T08:34:53.000Z</time>
      </trkpt>
      <trkpt lat="47.98805" lon="7.1336">
        <ele>1068.2</ele>
        <time>2021-09-27T08:35:03.000Z</time>
      </trkpt>
      <trkpt lat="47.98796" lon="7.1336">
        <ele>1069.4</ele>
        <time>2021-09-27T08:35:11.000Z</time>
      </trkpt>
      <trkpt lat="47.98786" lon="7.13359">
        <ele>1070.7</ele>
        <time>2021-09-27T08:35:18.000Z</time>
      </trkpt>
      <trkpt lat="47.98777" lon="7.13361">
        <ele>1071</ele>
        <time>2021-09-27T08:35:28.000Z</time>
      </trkpt>
      <trkpt lat="47.98768" lon="7.13357">
        <ele>1073.8</ele>
        <time>2021-09-27T08:35:37.000Z</time>
      </trkpt>
      <trkpt lat="47.98758" lon="7.13357">
        <ele>1074.8</ele>
        <time>2021-09-27T08:35:46.000Z</time>
      </trkpt>
      <trkpt lat="47.98749" lon="7.13359">
        <ele>1074.8</ele>
        <time>2021-09-27T08:35:54.000Z</time>
      </trkpt>
      <trkpt lat="47.98744" lon="7.13372">
        <ele>1069.6</ele>
        <time>2021-09-27T08:36:48.000Z</time>
      </trkpt>
      <trkpt lat="47.98735" lon="7.13366">
        <ele>1072.7</ele>
        <time>2021-09-27T08:36:57.000Z</time>
      </trkpt>
      <trkpt lat="47.98725" lon="7.13361">
        <ele>1075</ele>
        <time>2021-09-27T08:37:06.000Z</time>
      </trkpt>
      <trkpt lat="47.98716" lon="7.13361">
        <ele>1075.3</ele>
        <time>2021-09-27T08:37:14.000Z</time>
      </trkpt>
      <trkpt lat="47.98707" lon="7.1336">
        <ele>1076</ele>
        <time>2021-09-27T08:37:22.000Z</time>
      </trkpt>
      <trkpt lat="47.98698" lon="7.1336">
        <ele>1076.5</ele>
        <time>2021-09-27T08:37:30.000Z</time>
      </trkpt>
      <trkpt lat="47.98688" lon="7.13361">
        <ele>1076.6</ele>
        <time>2021-09-27T08:37:41.000Z</time>
      </trkpt>
      <trkpt lat="47.98679" lon="7.13358">
        <ele>1077.9</ele>
        <time>2021-09-27T08:37:50.000Z</time>
      </trkpt>
      <trkpt lat="47.98669" lon="7.13356">
        <ele>1078.9</ele>
        <time>2021-09-27T08:38:02.000Z</time>
      </trkpt>
      <trkpt lat="47.9866" lon="7.13354">
        <ele>1080.6</ele>
        <time>2021-09-27T08:38:12.000Z</time>
      </trkpt>
      <trkpt lat="47.98651" lon="7.13352">
        <ele>1082.6</ele>
        <time>2021-09-27T08:38:23.000Z</time>
      </trkpt>
      <trkpt lat="47.98642" lon="7.13351">
        <ele>1084.1</ele>
        <time>2021-09-27T08:38:36.000Z</time>
      </trkpt>
      <trkpt lat="47.98632" lon="7.1335">
        <ele>1085.7</ele>
        <time>2021-09-27T08:38:48.000Z</time>
      </trkpt>
      <trkpt lat="47.98622" lon="7.13352">
        <ele>1086.6</ele>
        <time>2021-09-27T08:38:56.000Z</time>
      </trkpt>
      <trkpt lat="47.98613" lon="7.13352">
        <ele>1087.9</ele>
        <time>2021-09-27T08:39:09.000Z</time>
      </trkpt>
      <trkpt lat="47.98604" lon="7.13352">
        <ele>1089.2</ele>
        <time>2021-09-27T08:39:19.000Z</time>
      </trkpt>
      <trkpt lat="47.98595" lon="7.13351">
        <ele>1090.9</ele>
        <time>2021-09-27T08:39:32.000Z</time>
      </trkpt>
      <trkpt lat="47.98586" lon="7.1335">
        <ele>1092.3</ele>
        <time>2021-09-27T08:39:43.000Z</time>
      </trkpt>
      <trkpt lat="47.98576" lon="7.13349">
        <ele>1093.9</ele>
        <time>2021-09-27T08:39:52.000Z</time>
      </trkpt>
      <trkpt lat="47.98567" lon="7.13352">
        <ele>1094.6</ele>
        <time>2021-09-27T08:40:05.000Z</time>
      </trkpt>
      <trkpt lat="47.98558" lon="7.13353">
        <ele>1095.7</ele>
        <time>2021-09-27T08:40:19.000Z</time>
      </trkpt>
      <trkpt lat="47.98548" lon="7.13353">
        <ele>1096.9</ele>
        <time>2021-09-27T08:40:30.000Z</time>
      </trkpt>
      <trkpt lat="47.98539" lon="7.13355">
        <ele>1097.9</ele>
        <time>2021-09-27T08:40:40.000Z</time>
      </trkpt>
      <trkpt lat="47.98529" lon="7.13357">
        <ele>1098.7</ele>
        <time>2021-09-27T08:40:51.000Z</time>
      </trkpt>
      <trkpt lat="47.9852" lon="7.13361">
        <ele>1099</ele>
        <time>2021-09-27T08:41:02.000Z</time>
      </trkpt>
      <trkpt lat="47.98512" lon="7.13367">
        <ele>1098.8</ele>
        <time>2021-09-27T08:41:14.000Z</time>
      </trkpt>
      <trkpt lat="47.98514" lon="7.13353">
        <ele>1102</ele>
        <time>2021-09-27T08:41:35.000Z</time>
      </trkpt>
      <trkpt lat="47.98521" lon="7.13342">
        <ele>1103.8</ele>
        <time>2021-09-27T08:41:45.000Z</time>
      </trkpt>
      <trkpt lat="47.98528" lon="7.13334">
        <ele>1105</ele>
        <time>2021-09-27T08:41:54.000Z</time>
      </trkpt>
      <trkpt lat="47.98534" lon="7.13324">
        <ele>1106.3</ele>
        <time>2021-09-27T08:42:02.000Z</time>
      </trkpt>
      <trkpt lat="47.98542" lon="7.13316">
        <ele>1107.4</ele>
        <time>2021-09-27T08:42:11.000Z</time>
      </trkpt>
      <trkpt lat="47.98549" lon="7.13308">
        <ele>1108.2</ele>
        <time>2021-09-27T08:42:20.000Z</time>
      </trkpt>
      <trkpt lat="47.98557" lon="7.13301">
        <ele>1108.8</ele>
        <time>2021-09-27T08:42:29.000Z</time>
      </trkpt>
      <trkpt lat="47.98564" lon="7.13292">
        <ele>1110</ele>
        <time>2021-09-27T08:42:38.000Z</time>
      </trkpt>
      <trkpt lat="47.98573" lon="7.13287">
        <ele>1110.2</ele>
        <time>2021-09-27T08:42:46.000Z</time>
      </trkpt>
      <trkpt lat="47.98581" lon="7.13278">
        <ele>1111.3</ele>
        <time>2021-09-27T08:42:58.000Z</time>
      </trkpt>
      <trkpt lat="47.98582" lon="7.13264">
        <ele>1114.7</ele>
        <time>2021-09-27T08:43:07.000Z</time>
      </trkpt>
      <trkpt lat="47.98575" lon="7.13255">
        <ele>1117.9</ele>
        <time>2021-09-27T08:43:16.000Z</time>
      </trkpt>
      <trkpt lat="47.98565" lon="7.13255">
        <ele>1119.1</ele>
        <time>2021-09-27T08:43:25.000Z</time>
      </trkpt>
      <trkpt lat="47.98556" lon="7.13256">
        <ele>1120.2</ele>
        <time>2021-09-27T08:43:34.000Z</time>
      </trkpt>
      <trkpt lat="47.98547" lon="7.13259">
        <ele>1120.6</ele>
        <time>2021-09-27T08:43:43.000Z</time>
      </trkpt>
      <trkpt lat="47.98537" lon="7.13261">
        <ele>1121.5</ele>
        <time>2021-09-27T08:43:53.000Z</time>
      </trkpt>
      <trkpt lat="47.98528" lon="7.13265">
        <ele>1121.6</ele>
        <time>2021-09-27T08:44:02.000Z</time>
      </trkpt>
      <trkpt lat="47.98519" lon="7.13271">
        <ele>1121.3</ele>
        <time>2021-09-27T08:44:13.000Z</time>
      </trkpt>
      <trkpt lat="47.9851" lon="7.13275">
        <ele>1121.6</ele>
        <time>2021-09-27T08:44:23.000Z</time>
      </trkpt>
      <trkpt lat="47.98501" lon="7.1328">
        <ele>1121.7</ele>
        <time>2021-09-27T08:44:32.000Z</time>
      </trkpt>
      <trkpt lat="47.98491" lon="7.13283">
        <ele>1121</ele>
        <time>2021-09-27T08:44:42.000Z</time>
      </trkpt>
      <trkpt lat="47.98488" lon="7.13271">
        <ele>1124</ele>
        <time>2021-09-27T08:44:56.000Z</time>
      </trkpt>
      <trkpt lat="47.98494" lon="7.1326">
        <ele>1126.6</ele>
        <time>2021-09-27T08:45:05.000Z</time>
      </trkpt>
      <trkpt lat="47.98499" lon="7.13248">
        <ele>1129.5</ele>
        <time>2021-09-27T08:45:17.000Z</time>
      </trkpt>
      <trkpt lat="47.98506" lon="7.13237">
        <ele>1130.9</ele>
        <time>2021-09-27T08:45:28.000Z</time>
      </trkpt>
      <trkpt lat="47.9851" lon="7.13225">
        <ele>1132.8</ele>
        <time>2021-09-27T08:45:37.000Z</time>
      </trkpt>
      <trkpt lat="47.98514" lon="7.13212">
        <ele>1135.1</ele>
        <time>2021-09-27T08:45:47.000Z</time>
      </trkpt>
      <trkpt lat="47.98519" lon="7.132">
        <ele>1136.9</ele>
        <time>2021-09-27T08:45:57.000Z</time>
      </trkpt>
      <trkpt lat="47.98523" lon="7.13187">
        <ele>1139</ele>
        <time>2021-09-27T08:46:06.000Z</time>
      </trkpt>
      <trkpt lat="47.98527" lon="7.13175">
        <ele>1141.1</ele>
        <time>2021-09-27T08:46:17.000Z</time>
      </trkpt>
      <trkpt lat="47.98531" lon="7.13162">
        <ele>1143.1</ele>
        <time>2021-09-27T08:46:27.000Z</time>
      </trkpt>
      <trkpt lat="47.98541" lon="7.13151">
        <ele>1143.9</ele>
        <time>2021-09-27T08:46:37.000Z</time>
      </trkpt>
      <trkpt lat="47.98537" lon="7.12965">
        <ele>1160.4</ele>
        <time>2021-09-27T08:46:42.000Z</time>
      </trkpt>
      <trkpt lat="47.98529" lon="7.12942">
        <ele>1161</ele>
        <time>2021-09-27T08:46:47.000Z</time>
      </trkpt>
      <trkpt lat="47.98537" lon="7.12935">
        <ele>1159.7</ele>
        <time>2021-09-27T08:46:56.000Z</time>
      </trkpt>
      <trkpt lat="47.98543" lon="7.12951">
        <ele>1159.1</ele>
        <time>2021-09-27T08:47:01.000Z</time>
      </trkpt>
      <trkpt lat="47.98547" lon="7.13003">
        <ele>1159.6</ele>
        <time>2021-09-27T08:47:06.000Z</time>
      </trkpt>
      <trkpt lat="47.98549" lon="7.13056">
        <ele>1156.5</ele>
        <time>2021-09-27T08:47:11.000Z</time>
      </trkpt>
      <trkpt lat="47.98551" lon="7.13084">
        <ele>1154.6</ele>
        <time>2021-09-27T08:47:16.000Z</time>
      </trkpt>
      <trkpt lat="47.9856" lon="7.13077">
        <ele>1153.8</ele>
        <time>2021-09-27T08:47:47.000Z</time>
      </trkpt>
      <trkpt lat="47.98562" lon="7.13063">
        <ele>1154.2</ele>
        <time>2021-09-27T08:47:57.000Z</time>
      </trkpt>
      <trkpt lat="47.98567" lon="7.1305">
        <ele>1154.3</ele>
        <time>2021-09-27T08:48:08.000Z</time>
      </trkpt>
      <trkpt lat="47.98568" lon="7.13036">
        <ele>1155</ele>
        <time>2021-09-27T08:48:18.000Z</time>
      </trkpt>
      <trkpt lat="47.98567" lon="7.13021">
        <ele>1155.9</ele>
        <time>2021-09-27T08:48:27.000Z</time>
      </trkpt>
      <trkpt lat="47.98558" lon="7.13018">
        <ele>1157.3</ele>
        <time>2021-09-27T08:48:37.000Z</time>
      </trkpt>
      <trkpt lat="47.98551" lon="7.1301">
        <ele>1158.8</ele>
        <time>2021-09-27T08:48:49.000Z</time>
      </trkpt>
      <trkpt lat="47.98543" lon="7.13004">
        <ele>1160.2</ele>
        <time>2021-09-27T08:49:02.000Z</time>
      </trkpt>
      <trkpt lat="47.98534" lon="7.12999">
        <ele>1161.5</ele>
        <time>2021-09-27T08:49:12.000Z</time>
      </trkpt>
      <trkpt lat="47.98525" lon="7.12998">
        <ele>1162.7</ele>
        <time>2021-09-27T08:49:23.000Z</time>
      </trkpt>
      <trkpt lat="47.98516" lon="7.12998">
        <ele>1163.9</ele>
        <time>2021-09-27T08:49:31.000Z</time>
      </trkpt>
      <trkpt lat="47.98507" lon="7.12994">
        <ele>1165</ele>
        <time>2021-09-27T08:49:42.000Z</time>
      </trkpt>
      <trkpt lat="47.98498" lon="7.1299">
        <ele>1166.4</ele>
        <time>2021-09-27T08:49:59.000Z</time>
      </trkpt>
      <trkpt lat="47.9849" lon="7.12985">
        <ele>1168.3</ele>
        <time>2021-09-27T08:50:10.000Z</time>
      </trkpt>
      <trkpt lat="47.9848" lon="7.12982">
        <ele>1170.6</ele>
        <time>2021-09-27T08:50:20.000Z</time>
      </trkpt>
      <trkpt lat="47.9847" lon="7.12983">
        <ele>1172.8</ele>
        <time>2021-09-27T08:50:31.000Z</time>
      </trkpt>
      <trkpt lat="47.98462" lon="7.12989">
        <ele>1175</ele>
        <time>2021-09-27T08:50:41.000Z</time>
      </trkpt>
      <trkpt lat="47.98453" lon="7.12991">
        <ele>1177.2</ele>
        <time>2021-09-27T08:50:50.000Z</time>
      </trkpt>
      <trkpt lat="47.98443" lon="7.12989">
        <ele>1179.4</ele>
        <time>2021-09-27T08:51:08.000Z</time>
      </trkpt>
      <trkpt lat="47.98434" lon="7.1299">
        <ele>1181.7</ele>
        <time>2021-09-27T08:51:16.000Z</time>
      </trkpt>
      <trkpt lat="47.98425" lon="7.1299">
        <ele>1183.8</ele>
        <time>2021-09-27T08:51:28.000Z</time>
      </trkpt>
      <trkpt lat="47.98415" lon="7.12987">
        <ele>1185.9</ele>
        <time>2021-09-27T08:51:40.000Z</time>
      </trkpt>
      <trkpt lat="47.98406" lon="7.12989">
        <ele>1187.1</ele>
        <time>2021-09-27T08:51:49.000Z</time>
      </trkpt>
      <trkpt lat="47.98396" lon="7.12991">
        <ele>1188.3</ele>
        <time>2021-09-27T08:51:58.000Z</time>
      </trkpt>
      <trkpt lat="47.98387" lon="7.1299">
        <ele>1189.4</ele>
        <time>2021-09-27T08:52:08.000Z</time>
      </trkpt>
      <trkpt lat="47.98378" lon="7.12986">
        <ele>1190.4</ele>
        <time>2021-09-27T08:52:20.000Z</time>
      </trkpt>
      <trkpt lat="47.9837" lon="7.12979">
        <ele>1191.4</ele>
        <time>2021-09-27T08:52:31.000Z</time>
      </trkpt>
      <trkpt lat="47.98363" lon="7.1297">
        <ele>1192.2</ele>
        <time>2021-09-27T08:52:44.000Z</time>
      </trkpt>
      <trkpt lat="47.98356" lon="7.1296">
        <ele>1193</ele>
        <time>2021-09-27T08:52:53.000Z</time>
      </trkpt>
      <trkpt lat="47.98348" lon="7.12952">
        <ele>1194.1</ele>
        <time>2021-09-27T08:53:06.000Z</time>
      </trkpt>
      <trkpt lat="47.9834" lon="7.12944">
        <ele>1195.1</ele>
        <time>2021-09-27T08:53:13.000Z</time>
      </trkpt>
      <trkpt lat="47.98334" lon="7.12935">
        <ele>1196</ele>
        <time>2021-09-27T08:53:24.000Z</time>
      </trkpt>
      <trkpt lat="47.98329" lon="7.12922">
        <ele>1196.8</ele>
        <time>2021-09-27T08:53:34.000Z</time>
      </trkpt>
      <trkpt lat="47.98322" lon="7.12912">
        <ele>1198.4</ele>
        <time>2021-09-27T08:53:45.000Z</time>
      </trkpt>
      <trkpt lat="47.98313" lon="7.12907">
        <ele>1200.4</ele>
        <time>2021-09-27T08:53:53.000Z</time>
      </trkpt>
      <trkpt lat="47.98305" lon="7.12899">
        <ele>1202.4</ele>
        <time>2021-09-27T08:54:05.000Z</time>
      </trkpt>
      <trkpt lat="47.98296" lon="7.12896">
        <ele>1204.5</ele>
        <time>2021-09-27T08:54:15.000Z</time>
      </trkpt>
      <trkpt lat="47.98287" lon="7.12891">
        <ele>1206.6</ele>
        <time>2021-09-27T08:54:27.000Z</time>
      </trkpt>
      <trkpt lat="47.9828" lon="7.12883">
        <ele>1208.6</ele>
        <time>2021-09-27T08:54:40.000Z</time>
      </trkpt>
      <trkpt lat="47.98271" lon="7.12882">
        <ele>1210.7</ele>
        <time>2021-09-27T08:54:49.000Z</time>
      </trkpt>
      <trkpt lat="47.98264" lon="7.12891">
        <ele>1211.7</ele>
        <time>2021-09-27T08:54:56.000Z</time>
      </trkpt>
      <trkpt lat="47.98257" lon="7.129">
        <ele>1212.6</ele>
        <time>2021-09-27T08:55:05.000Z</time>
      </trkpt>
      <trkpt lat="47.9825" lon="7.12907">
        <ele>1213.7</ele>
        <time>2021-09-27T08:55:14.000Z</time>
      </trkpt>
      <trkpt lat="47.9824" lon="7.12912">
        <ele>1214.6</ele>
        <time>2021-09-27T08:55:28.000Z</time>
      </trkpt>
      <trkpt lat="47.98237" lon="7.12899">
        <ele>1216.3</ele>
        <time>2021-09-27T08:56:00.000Z</time>
      </trkpt>
      <trkpt lat="47.9823" lon="7.1289">
        <ele>1218.3</ele>
        <time>2021-09-27T08:56:15.000Z</time>
      </trkpt>
      <trkpt lat="47.98221" lon="7.12892">
        <ele>1219.7</ele>
        <time>2021-09-27T08:56:27.000Z</time>
      </trkpt>
      <trkpt lat="47.98212" lon="7.12896">
        <ele>1220.6</ele>
        <time>2021-09-27T08:56:38.000Z</time>
      </trkpt>
      <trkpt lat="47.98203" lon="7.12895">
        <ele>1222.2</ele>
        <time>2021-09-27T08:56:58.000Z</time>
      </trkpt>
      <trkpt lat="47.98196" lon="7.12904">
        <ele>1221.7</ele>
        <time>2021-09-27T08:57:12.000Z</time>
      </trkpt>
      <trkpt lat="47.98187" lon="7.12908">
        <ele>1222.1</ele>
        <time>2021-09-27T08:57:24.000Z</time>
      </trkpt>
      <trkpt lat="47.98178" lon="7.12912">
        <ele>1222.7</ele>
        <time>2021-09-27T08:57:34.000Z</time>
      </trkpt>
      <trkpt lat="47.98169" lon="7.1291">
        <ele>1224.2</ele>
        <time>2021-09-27T08:57:49.000Z</time>
      </trkpt>
      <trkpt lat="47.98159" lon="7.12913">
        <ele>1224.6</ele>
        <time>2021-09-27T08:58:01.000Z</time>
      </trkpt>
      <trkpt lat="47.9815" lon="7.12908">
        <ele>1226.5</ele>
        <time>2021-09-27T08:58:12.000Z</time>
      </trkpt>
      <trkpt lat="47.98142" lon="7.12904">
        <ele>1228.4</ele>
        <time>2021-09-27T08:58:20.000Z</time>
      </trkpt>
      <trkpt lat="47.98133" lon="7.12898">
        <ele>1230.7</ele>
        <time>2021-09-27T08:58:33.000Z</time>
      </trkpt>
      <trkpt lat="47.98125" lon="7.1289">
        <ele>1233.5</ele>
        <time>2021-09-27T08:58:44.000Z</time>
      </trkpt>
      <trkpt lat="47.98116" lon="7.12891">
        <ele>1234.3</ele>
        <time>2021-09-27T08:58:54.000Z</time>
      </trkpt>
      <trkpt lat="47.98107" lon="7.12891">
        <ele>1235.2</ele>
        <time>2021-09-27T08:59:05.000Z</time>
      </trkpt>
      <trkpt lat="47.98097" lon="7.12889">
        <ele>1236.9</ele>
        <time>2021-09-27T08:59:16.000Z</time>
      </trkpt>
      <trkpt lat="47.98093" lon="7.12877">
        <ele>1240.5</ele>
        <time>2021-09-27T08:59:34.000Z</time>
      </trkpt>
      <trkpt lat="47.98091" lon="7.12863">
        <ele>1244.2</ele>
        <time>2021-09-27T08:59:49.000Z</time>
      </trkpt>
      <trkpt lat="47.98089" lon="7.1285">
        <ele>1247.9</ele>
        <time>2021-09-27T09:00:00.000Z</time>
      </trkpt>
      <trkpt lat="47.98088" lon="7.12837">
        <ele>1251.6</ele>
        <time>2021-09-27T09:00:12.000Z</time>
      </trkpt>
      <trkpt lat="47.98086" lon="7.12822">
        <ele>1253.2</ele>
        <time>2021-09-27T09:00:22.000Z</time>
      </trkpt>
      <trkpt lat="47.98082" lon="7.12808">
        <ele>1254.1</ele>
        <time>2021-09-27T09:00:32.000Z</time>
      </trkpt>
      <trkpt lat="47.98082" lon="7.12793">
        <ele>1254.8</ele>
        <time>2021-09-27T09:00:44.000Z</time>
      </trkpt>
      <trkpt lat="47.98084" lon="7.1278">
        <ele>1255.5</ele>
        <time>2021-09-27T09:00:53.000Z</time>
      </trkpt>
      <trkpt lat="47.9808" lon="7.12767">
        <ele>1256</ele>
        <time>2021-09-27T09:01:01.000Z</time>
      </trkpt>
      <trkpt lat="47.98076" lon="7.12753">
        <ele>1256.5</ele>
        <time>2021-09-27T09:01:11.000Z</time>
      </trkpt>
      <trkpt lat="47.98076" lon="7.12738">
        <ele>1256.7</ele>
        <time>2021-09-27T09:01:20.000Z</time>
      </trkpt>
      <trkpt lat="47.98077" lon="7.12725">
        <ele>1257</ele>
        <time>2021-09-27T09:01:29.000Z</time>
      </trkpt>
      <trkpt lat="47.98075" lon="7.1271">
        <ele>1257</ele>
        <time>2021-09-27T09:01:38.000Z</time>
      </trkpt>
      <trkpt lat="47.98077" lon="7.12697">
        <ele>1257.3</ele>
        <time>2021-09-27T09:01:47.000Z</time>
      </trkpt>
      <trkpt lat="47.98078" lon="7.12683">
        <ele>1257.4</ele>
        <time>2021-09-27T09:01:55.000Z</time>
      </trkpt>
      <trkpt lat="47.98075" lon="7.12669">
        <ele>1257.3</ele>
        <time>2021-09-27T09:02:05.000Z</time>
      </trkpt>
      <trkpt lat="47.98073" lon="7.12656">
        <ele>1258</ele>
        <time>2021-09-27T09:02:14.000Z</time>
      </trkpt>
      <trkpt lat="47.98073" lon="7.12643">
        <ele>1258.8</ele>
        <time>2021-09-27T09:02:26.000Z</time>
      </trkpt>
      <trkpt lat="47.98071" lon="7.12628">
        <ele>1259.6</ele>
        <time>2021-09-27T09:02:33.000Z</time>
      </trkpt>
      <trkpt lat="47.98068" lon="7.12614">
        <ele>1260.1</ele>
        <time>2021-09-27T09:02:41.000Z</time>
      </trkpt>
      <trkpt lat="47.98065" lon="7.12601">
        <ele>1260.5</ele>
        <time>2021-09-27T09:02:52.000Z</time>
      </trkpt>
      <trkpt lat="47.98068" lon="7.12589">
        <ele>1261.6</ele>
        <time>2021-09-27T09:03:10.000Z</time>
      </trkpt>
      <trkpt lat="47.98064" lon="7.12577">
        <ele>1260.9</ele>
        <time>2021-09-27T09:03:29.000Z</time>
      </trkpt>
      <trkpt lat="47.98062" lon="7.12563">
        <ele>1259.8</ele>
        <time>2021-09-27T09:04:19.000Z</time>
      </trkpt>
      <trkpt lat="47.98061" lon="7.12549">
        <ele>1258.6</ele>
        <time>2021-09-27T09:04:28.000Z</time>
      </trkpt>
      <trkpt lat="47.9807" lon="7.12553">
        <ele>1260.1</ele>
        <time>2021-09-27T09:05:25.000Z</time>
      </trkpt>
      <trkpt lat="47.98063" lon="7.12535">
        <ele>1257.9</ele>
        <time>2021-09-27T09:06:54.000Z</time>
      </trkpt>
      <trkpt lat="47.98054" lon="7.12538">
        <ele>1256.8</ele>
        <time>2021-09-27T09:07:24.000Z</time>
      </trkpt>
      <trkpt lat="47.98045" lon="7.12544">
        <ele>1256</ele>
        <time>2021-09-27T09:07:32.000Z</time>
      </trkpt>
      <trkpt lat="47.98037" lon="7.12536">
        <ele>1254.5</ele>
        <time>2021-09-27T09:08:28.000Z</time>
      </trkpt>
      <trkpt lat="47.98031" lon="7.12525">
        <ele>1252.9</ele>
        <time>2021-09-27T09:08:39.000Z</time>
      </trkpt>
      <trkpt lat="47.98026" lon="7.12513">
        <ele>1251.3</ele>
        <time>2021-09-27T09:08:48.000Z</time>
      </trkpt>
      <trkpt lat="47.98019" lon="7.12502">
        <ele>1249.6</ele>
        <time>2021-09-27T09:08:57.000Z</time>
      </trkpt>
      <trkpt lat="47.98012" lon="7.12492">
        <ele>1247.3</ele>
        <time>2021-09-27T09:09:08.000Z</time>
      </trkpt>
      <trkpt lat="47.98006" lon="7.12482">
        <ele>1245</ele>
        <time>2021-09-27T09:09:18.000Z</time>
      </trkpt>
      <trkpt lat="47.98" lon="7.1247">
        <ele>1242.4</ele>
        <time>2021-09-27T09:09:29.000Z</time>
      </trkpt>
      <trkpt lat="47.97994" lon="7.1246">
        <ele>1239.3</ele>
        <time>2021-09-27T09:09:38.000Z</time>
      </trkpt>
      <trkpt lat="47.97988" lon="7.12448">
        <ele>1236.4</ele>
        <time>2021-09-27T09:09:47.000Z</time>
      </trkpt>
      <trkpt lat="47.97982" lon="7.12436">
        <ele>1233.9</ele>
        <time>2021-09-27T09:09:56.000Z</time>
      </trkpt>
      <trkpt lat="47.97976" lon="7.12426">
        <ele>1231.6</ele>
        <time>2021-09-27T09:10:04.000Z</time>
      </trkpt>
      <trkpt lat="47.97969" lon="7.12417">
        <ele>1229.5</ele>
        <time>2021-09-27T09:10:12.000Z</time>
      </trkpt>
      <trkpt lat="47.97962" lon="7.12406">
        <ele>1227.4</ele>
        <time>2021-09-27T09:10:20.000Z</time>
      </trkpt>
      <trkpt lat="47.97955" lon="7.12396">
        <ele>1225.5</ele>
        <time>2021-09-27T09:10:27.000Z</time>
      </trkpt>
      <trkpt lat="47.97949" lon="7.12386">
        <ele>1223.9</ele>
        <time>2021-09-27T09:10:36.000Z</time>
      </trkpt>
      <trkpt lat="47.97943" lon="7.12373">
        <ele>1222.4</ele>
        <time>2021-09-27T09:10:43.000Z</time>
      </trkpt>
      <trkpt lat="47.97939" lon="7.1236">
        <ele>1221.2</ele>
        <time>2021-09-27T09:10:50.000Z</time>
      </trkpt>
      <trkpt lat="47.97932" lon="7.12349">
        <ele>1220.1</ele>
        <time>2021-09-27T09:10:58.000Z</time>
      </trkpt>
      <trkpt lat="47.97926" lon="7.12339">
        <ele>1219.4</ele>
        <time>2021-09-27T09:11:05.000Z</time>
      </trkpt>
      <trkpt lat="47.97919" lon="7.12328">
        <ele>1218.8</ele>
        <time>2021-09-27T09:11:13.000Z</time>
      </trkpt>
      <trkpt lat="47.97913" lon="7.12317">
        <ele>1218.1</ele>
        <time>2021-09-27T09:11:21.000Z</time>
      </trkpt>
      <trkpt lat="47.97907" lon="7.12307">
        <ele>1217.5</ele>
        <time>2021-09-27T09:11:28.000Z</time>
      </trkpt>
      <trkpt lat="47.97899" lon="7.12295">
        <ele>1217.1</ele>
        <time>2021-09-27T09:11:35.000Z</time>
      </trkpt>
      <trkpt lat="47.9789" lon="7.12287">
        <ele>1217</ele>
        <time>2021-09-27T09:11:45.000Z</time>
      </trkpt>
      <trkpt lat="47.97885" lon="7.12274">
        <ele>1217</ele>
        <time>2021-09-27T09:11:51.000Z</time>
      </trkpt>
      <trkpt lat="47.9788" lon="7.12262">
        <ele>1217.1</ele>
        <time>2021-09-27T09:11:58.000Z</time>
      </trkpt>
      <trkpt lat="47.97873" lon="7.12252">
        <ele>1217.6</ele>
        <time>2021-09-27T09:12:06.000Z</time>
      </trkpt>
      <trkpt lat="47.97866" lon="7.12244">
        <ele>1217.9</ele>
        <time>2021-09-27T09:12:17.000Z</time>
      </trkpt>
      <trkpt lat="47.97859" lon="7.12232">
        <ele>1218</ele>
        <time>2021-09-27T09:12:25.000Z</time>
      </trkpt>
      <trkpt lat="47.97851" lon="7.12223">
        <ele>1218.5</ele>
        <time>2021-09-27T09:12:34.000Z</time>
      </trkpt>
      <trkpt lat="47.97845" lon="7.12213">
        <ele>1218.9</ele>
        <time>2021-09-27T09:12:41.000Z</time>
      </trkpt>
      <trkpt lat="47.97838" lon="7.12203">
        <ele>1219.5</ele>
        <time>2021-09-27T09:12:51.000Z</time>
      </trkpt>
      <trkpt lat="47.97831" lon="7.12192">
        <ele>1220</ele>
        <time>2021-09-27T09:12:59.000Z</time>
      </trkpt>
      <trkpt lat="47.97824" lon="7.12182">
        <ele>1219.9</ele>
        <time>2021-09-27T09:13:09.000Z</time>
      </trkpt>
      <trkpt lat="47.97821" lon="7.12168">
        <ele>1220</ele>
        <time>2021-09-27T09:13:18.000Z</time>
      </trkpt>
      <trkpt lat="47.97816" lon="7.12155">
        <ele>1219.6</ele>
        <time>2021-09-27T09:13:26.000Z</time>
      </trkpt>
      <trkpt lat="47.97812" lon="7.12142">
        <ele>1219.1</ele>
        <time>2021-09-27T09:13:33.000Z</time>
      </trkpt>
      <trkpt lat="47.9781" lon="7.12128">
        <ele>1218.5</ele>
        <time>2021-09-27T09:13:41.000Z</time>
      </trkpt>
      <trkpt lat="47.97807" lon="7.12114">
        <ele>1218</ele>
        <time>2021-09-27T09:13:48.000Z</time>
      </trkpt>
      <trkpt lat="47.97805" lon="7.121">
        <ele>1217.3</ele>
        <time>2021-09-27T09:13:56.000Z</time>
      </trkpt>
      <trkpt lat="47.97805" lon="7.12085">
        <ele>1216.7</ele>
        <time>2021-09-27T09:14:06.000Z</time>
      </trkpt>
      <trkpt lat="47.97806" lon="7.12071">
        <ele>1215.4</ele>
        <time>2021-09-27T09:14:14.000Z</time>
      </trkpt>
      <trkpt lat="47.97804" lon="7.12058">
        <ele>1213.9</ele>
        <time>2021-09-27T09:14:21.000Z</time>
      </trkpt>
      <trkpt lat="47.97804" lon="7.12043">
        <ele>1212.4</ele>
        <time>2021-09-27T09:14:41.000Z</time>
      </trkpt>
      <trkpt lat="47.97805" lon="7.12029">
        <ele>1211</ele>
        <time>2021-09-27T09:14:49.000Z</time>
      </trkpt>
      <trkpt lat="47.97804" lon="7.12014">
        <ele>1209.4</ele>
        <time>2021-09-27T09:14:58.000Z</time>
      </trkpt>
      <trkpt lat="47.97801" lon="7.12001">
        <ele>1207.7</ele>
        <time>2021-09-27T09:15:05.000Z</time>
      </trkpt>
      <trkpt lat="47.97796" lon="7.11988">
        <ele>1207</ele>
        <time>2021-09-27T09:15:17.000Z</time>
      </trkpt>
      <trkpt lat="47.97801" lon="7.11976">
        <ele>1206.9</ele>
        <time>2021-09-27T09:15:23.000Z</time>
      </trkpt>
      <trkpt lat="47.97806" lon="7.11965">
        <ele>1206.9</ele>
        <time>2021-09-27T09:15:28.000Z</time>
      </trkpt>
      <trkpt lat="47.97805" lon="7.1195">
        <ele>1206.3</ele>
        <time>2021-09-27T09:15:36.000Z</time>
      </trkpt>
      <trkpt lat="47.97801" lon="7.11936">
        <ele>1205.7</ele>
        <time>2021-09-27T09:15:45.000Z</time>
      </trkpt>
      <trkpt lat="47.97799" lon="7.11923">
        <ele>1205.1</ele>
        <time>2021-09-27T09:15:52.000Z</time>
      </trkpt>
      <trkpt lat="47.97795" lon="7.11909">
        <ele>1204.7</ele>
        <time>2021-09-27T09:16:00.000Z</time>
      </trkpt>
      <trkpt lat="47.97793" lon="7.11895">
        <ele>1204.7</ele>
        <time>2021-09-27T09:16:06.000Z</time>
      </trkpt>
      <trkpt lat="47.97789" lon="7.11882">
        <ele>1204.7</ele>
        <time>2021-09-27T09:16:17.000Z</time>
      </trkpt>
      <trkpt lat="47.97787" lon="7.11869">
        <ele>1204.9</ele>
        <time>2021-09-27T09:16:33.000Z</time>
      </trkpt>
      <trkpt lat="47.97793" lon="7.11857">
        <ele>1204.8</ele>
        <time>2021-09-27T09:16:43.000Z</time>
      </trkpt>
      <trkpt lat="47.97788" lon="7.11845">
        <ele>1205.2</ele>
        <time>2021-09-27T09:16:55.000Z</time>
      </trkpt>
      <trkpt lat="47.97788" lon="7.1183">
        <ele>1205.8</ele>
        <time>2021-09-27T09:17:04.000Z</time>
      </trkpt>
      <trkpt lat="47.9779" lon="7.11816">
        <ele>1207.3</ele>
        <time>2021-09-27T09:17:12.000Z</time>
      </trkpt>
      <trkpt lat="47.97791" lon="7.11802">
        <ele>1209</ele>
        <time>2021-09-27T09:17:23.000Z</time>
      </trkpt>
      <trkpt lat="47.97792" lon="7.11789">
        <ele>1210.7</ele>
        <time>2021-09-27T09:17:34.000Z</time>
      </trkpt>
      <trkpt lat="47.97784" lon="7.11781">
        <ele>1213.2</ele>
        <time>2021-09-27T09:17:43.000Z</time>
      </trkpt>
      <trkpt lat="47.97782" lon="7.11768">
        <ele>1215.5</ele>
        <time>2021-09-27T09:17:52.000Z</time>
      </trkpt>
      <trkpt lat="47.97777" lon="7.11755">
        <ele>1218.4</ele>
        <time>2021-09-27T09:18:09.000Z</time>
      </trkpt>
      <trkpt lat="47.97774" lon="7.11742">
        <ele>1220.9</ele>
        <time>2021-09-27T09:18:20.000Z</time>
      </trkpt>
      <trkpt lat="47.97768" lon="7.11731">
        <ele>1223.5</ele>
        <time>2021-09-27T09:18:34.000Z</time>
      </trkpt>
      <trkpt lat="47.97761" lon="7.11721">
        <ele>1226.4</ele>
        <time>2021-09-27T09:18:44.000Z</time>
      </trkpt>
      <trkpt lat="47.97753" lon="7.11712">
        <ele>1229.3</ele>
        <time>2021-09-27T09:18:55.000Z</time>
      </trkpt>
      <trkpt lat="47.97747" lon="7.11702">
        <ele>1231</ele>
        <time>2021-09-27T09:19:07.000Z</time>
      </trkpt>
      <trkpt lat="47.9774" lon="7.11693">
        <ele>1231.8</ele>
        <time>2021-09-27T09:19:23.000Z</time>
      </trkpt>
      <trkpt lat="47.97733" lon="7.11683">
        <ele>1232.8</ele>
        <time>2021-09-27T09:19:35.000Z</time>
      </trkpt>
      <trkpt lat="47.97728" lon="7.11671">
        <ele>1234.2</ele>
        <time>2021-09-27T09:19:46.000Z</time>
      </trkpt>
      <trkpt lat="47.97724" lon="7.11658">
        <ele>1235.3</ele>
        <time>2021-09-27T09:19:56.000Z</time>
      </trkpt>
      <trkpt lat="47.97717" lon="7.1165">
        <ele>1235.9</ele>
        <time>2021-09-27T09:20:13.000Z</time>
      </trkpt>
      <trkpt lat="47.9771" lon="7.1164">
        <ele>1236.6</ele>
        <time>2021-09-27T09:20:25.000Z</time>
      </trkpt>
      <trkpt lat="47.97707" lon="7.11627">
        <ele>1237.6</ele>
        <time>2021-09-27T09:20:36.000Z</time>
      </trkpt>
      <trkpt lat="47.97703" lon="7.11614">
        <ele>1238.7</ele>
        <time>2021-09-27T09:20:48.000Z</time>
      </trkpt>
      <trkpt lat="47.97699" lon="7.11601">
        <ele>1239.8</ele>
        <time>2021-09-27T09:20:57.000Z</time>
      </trkpt>
      <trkpt lat="47.97698" lon="7.11588">
        <ele>1240.9</ele>
        <time>2021-09-27T09:21:05.000Z</time>
      </trkpt>
      <trkpt lat="47.97694" lon="7.11575">
        <ele>1241.7</ele>
        <time>2021-09-27T09:21:13.000Z</time>
      </trkpt>
      <trkpt lat="47.97688" lon="7.11562">
        <ele>1242.5</ele>
        <time>2021-09-27T09:21:22.000Z</time>
      </trkpt>
      <trkpt lat="47.97682" lon="7.1155">
        <ele>1243.5</ele>
        <time>2021-09-27T09:21:30.000Z</time>
      </trkpt>
      <trkpt lat="47.97675" lon="7.11538">
        <ele>1244.6</ele>
        <time>2021-09-27T09:21:39.000Z</time>
      </trkpt>
      <trkpt lat="47.97671" lon="7.11525">
        <ele>1245.8</ele>
        <time>2021-09-27T09:21:48.000Z</time>
      </trkpt>
      <trkpt lat="47.97667" lon="7.11513">
        <ele>1247</ele>
        <time>2021-09-27T09:21:56.000Z</time>
      </trkpt>
      <trkpt lat="47.97661" lon="7.11502">
        <ele>1246.5</ele>
        <time>2021-09-27T09:22:04.000Z</time>
      </trkpt>
      <trkpt lat="47.97656" lon="7.1149">
        <ele>1245.3</ele>
        <time>2021-09-27T09:22:12.000Z</time>
      </trkpt>
      <trkpt lat="47.9765" lon="7.11478">
        <ele>1243.9</ele>
        <time>2021-09-27T09:22:22.000Z</time>
      </trkpt>
      <trkpt lat="47.97645" lon="7.11466">
        <ele>1242.6</ele>
        <time>2021-09-27T09:22:31.000Z</time>
      </trkpt>
      <trkpt lat="47.97641" lon="7.11454">
        <ele>1241.8</ele>
        <time>2021-09-27T09:22:41.000Z</time>
      </trkpt>
      <trkpt lat="47.97639" lon="7.11439">
        <ele>1241.3</ele>
        <time>2021-09-27T09:22:51.000Z</time>
      </trkpt>
      <trkpt lat="47.97637" lon="7.11426">
        <ele>1241</ele>
        <time>2021-09-27T09:23:01.000Z</time>
      </trkpt>
      <trkpt lat="47.97637" lon="7.11412">
        <ele>1240.8</ele>
        <time>2021-09-27T09:23:12.000Z</time>
      </trkpt>
      <trkpt lat="47.97635" lon="7.11398">
        <ele>1240.2</ele>
        <time>2021-09-27T09:23:21.000Z</time>
      </trkpt>
      <trkpt lat="47.97634" lon="7.11384">
        <ele>1239.7</ele>
        <time>2021-09-27T09:23:30.000Z</time>
      </trkpt>
      <trkpt lat="47.97632" lon="7.1137">
        <ele>1239</ele>
        <time>2021-09-27T09:23:39.000Z</time>
      </trkpt>
      <trkpt lat="47.97631" lon="7.11356">
        <ele>1238.5</ele>
        <time>2021-09-27T09:23:46.000Z</time>
      </trkpt>
      <trkpt lat="47.97629" lon="7.11342">
        <ele>1237.9</ele>
        <time>2021-09-27T09:23:56.000Z</time>
      </trkpt>
      <trkpt lat="47.97628" lon="7.11328">
        <ele>1237.4</ele>
        <time>2021-09-27T09:24:05.000Z</time>
      </trkpt>
      <trkpt lat="47.97626" lon="7.11315">
        <ele>1236.9</ele>
        <time>2021-09-27T09:24:44.000Z</time>
      </trkpt>
      <trkpt lat="47.97625" lon="7.11302">
        <ele>1236.3</ele>
        <time>2021-09-27T09:24:54.000Z</time>
      </trkpt>
      <trkpt lat="47.97623" lon="7.11288">
        <ele>1235.8</ele>
        <time>2021-09-27T09:25:04.000Z</time>
      </trkpt>
      <trkpt lat="47.97624" lon="7.11274">
        <ele>1235.8</ele>
        <time>2021-09-27T09:25:12.000Z</time>
      </trkpt>
      <trkpt lat="47.97624" lon="7.1126">
        <ele>1235.5</ele>
        <time>2021-09-27T09:25:21.000Z</time>
      </trkpt>
      <trkpt lat="47.97625" lon="7.11246">
        <ele>1235.3</ele>
        <time>2021-09-27T09:25:29.000Z</time>
      </trkpt>
      <trkpt lat="47.9762" lon="7.11234">
        <ele>1233.5</ele>
        <time>2021-09-27T09:25:37.000Z</time>
      </trkpt>
      <trkpt lat="47.97615" lon="7.11221">
        <ele>1232.1</ele>
        <time>2021-09-27T09:25:44.000Z</time>
      </trkpt>
      <trkpt lat="47.97612" lon="7.11207">
        <ele>1230.8</ele>
        <time>2021-09-27T09:25:52.000Z</time>
      </trkpt>
      <trkpt lat="47.97608" lon="7.11196">
        <ele>1229.5</ele>
        <time>2021-09-27T09:26:11.000Z</time>
      </trkpt>
      <trkpt lat="47.97606" lon="7.11182">
        <ele>1228.4</ele>
        <time>2021-09-27T09:26:19.000Z</time>
      </trkpt>
      <trkpt lat="47.97602" lon="7.11168">
        <ele>1227.3</ele>
        <time>2021-09-27T09:26:28.000Z</time>
      </trkpt>
      <trkpt lat="47.976" lon="7.11155">
        <ele>1226.2</ele>
        <time>2021-09-27T09:26:37.000Z</time>
      </trkpt>
      <trkpt lat="47.97597" lon="7.11142">
        <ele>1225.1</ele>
        <time>2021-09-27T09:26:46.000Z</time>
      </trkpt>
      <trkpt lat="47.97594" lon="7.11127">
        <ele>1223.9</ele>
        <time>2021-09-27T09:26:55.000Z</time>
      </trkpt>
      <trkpt lat="47.97596" lon="7.11114">
        <ele>1223.3</ele>
        <time>2021-09-27T09:27:05.000Z</time>
      </trkpt>
      <trkpt lat="47.97597" lon="7.11099">
        <ele>1222.4</ele>
        <time>2021-09-27T09:27:13.000Z</time>
      </trkpt>
      <trkpt lat="47.97599" lon="7.11084">
        <ele>1221.6</ele>
        <time>2021-09-27T09:27:22.000Z</time>
      </trkpt>
      <trkpt lat="47.97598" lon="7.11064">
        <ele>1220.2</ele>
        <time>2021-09-27T09:27:27.000Z</time>
      </trkpt>
      <trkpt lat="47.97601" lon="7.1105">
        <ele>1219.2</ele>
        <time>2021-09-27T09:27:38.000Z</time>
      </trkpt>
      <trkpt lat="47.97602" lon="7.11035">
        <ele>1218.2</ele>
        <time>2021-09-27T09:27:48.000Z</time>
      </trkpt>
      <trkpt lat="47.97598" lon="7.11022">
        <ele>1217.4</ele>
        <time>2021-09-27T09:27:56.000Z</time>
      </trkpt>
      <trkpt lat="47.97592" lon="7.1101">
        <ele>1217</ele>
        <time>2021-09-27T09:28:05.000Z</time>
      </trkpt>
      <trkpt lat="47.97587" lon="7.10999">
        <ele>1216.7</ele>
        <time>2021-09-27T09:28:13.000Z</time>
      </trkpt>
      <trkpt lat="47.97581" lon="7.10988">
        <ele>1216.8</ele>
        <time>2021-09-27T09:28:32.000Z</time>
      </trkpt>
      <trkpt lat="47.9758" lon="7.10975">
        <ele>1216.6</ele>
        <time>2021-09-27T09:28:57.000Z</time>
      </trkpt>
      <trkpt lat="47.97577" lon="7.10961">
        <ele>1216.5</ele>
        <time>2021-09-27T09:29:05.000Z</time>
      </trkpt>
      <trkpt lat="47.97574" lon="7.10947">
        <ele>1216.4</ele>
        <time>2021-09-27T09:29:14.000Z</time>
      </trkpt>
      <trkpt lat="47.97572" lon="7.10934">
        <ele>1216.4</ele>
        <time>2021-09-27T09:29:22.000Z</time>
      </trkpt>
      <trkpt lat="47.9757" lon="7.1092">
        <ele>1216.5</ele>
        <time>2021-09-27T09:29:31.000Z</time>
      </trkpt>
      <trkpt lat="47.97564" lon="7.1091">
        <ele>1217</ele>
        <time>2021-09-27T09:29:44.000Z</time>
      </trkpt>
      <trkpt lat="47.97558" lon="7.10898">
        <ele>1217.9</ele>
        <time>2021-09-27T09:29:55.000Z</time>
      </trkpt>
      <trkpt lat="47.97555" lon="7.10884">
        <ele>1218.7</ele>
        <time>2021-09-27T09:30:06.000Z</time>
      </trkpt>
      <trkpt lat="47.9755" lon="7.10871">
        <ele>1219.7</ele>
        <time>2021-09-27T09:30:16.000Z</time>
      </trkpt>
      <trkpt lat="47.97544" lon="7.10859">
        <ele>1220.8</ele>
        <time>2021-09-27T09:30:27.000Z</time>
      </trkpt>
      <trkpt lat="47.97538" lon="7.10848">
        <ele>1221.9</ele>
        <time>2021-09-27T09:30:37.000Z</time>
      </trkpt>
      <trkpt lat="47.97532" lon="7.10837">
        <ele>1223.1</ele>
        <time>2021-09-27T09:30:46.000Z</time>
      </trkpt>
      <trkpt lat="47.97527" lon="7.10825">
        <ele>1223.6</ele>
        <time>2021-09-27T09:30:55.000Z</time>
      </trkpt>
      <trkpt lat="47.97521" lon="7.10814">
        <ele>1223.8</ele>
        <time>2021-09-27T09:31:03.000Z</time>
      </trkpt>
      <trkpt lat="47.97515" lon="7.10804">
        <ele>1224</ele>
        <time>2021-09-27T09:31:11.000Z</time>
      </trkpt>
      <trkpt lat="47.97508" lon="7.10795">
        <ele>1224.2</ele>
        <time>2021-09-27T09:31:18.000Z</time>
      </trkpt>
      <trkpt lat="47.975" lon="7.10787">
        <ele>1224.3</ele>
        <time>2021-09-27T09:31:26.000Z</time>
      </trkpt>
      <trkpt lat="47.97492" lon="7.10778">
        <ele>1223.7</ele>
        <time>2021-09-27T09:31:35.000Z</time>
      </trkpt>
      <trkpt lat="47.97486" lon="7.10767">
        <ele>1223.2</ele>
        <time>2021-09-27T09:31:44.000Z</time>
      </trkpt>
      <trkpt lat="47.97491" lon="7.10754">
        <ele>1222.9</ele>
        <time>2021-09-27T09:32:01.000Z</time>
      </trkpt>
      <trkpt lat="47.97497" lon="7.10744">
        <ele>1222.6</ele>
        <time>2021-09-27T09:32:09.000Z</time>
      </trkpt>
      <trkpt lat="47.97489" lon="7.10735">
        <ele>1222.1</ele>
        <time>2021-09-27T09:34:31.000Z</time>
      </trkpt>
      <trkpt lat="47.9749" lon="7.10752">
        <ele>1222.8</ele>
        <time>2021-09-27T09:34:41.000Z</time>
      </trkpt>
      <trkpt lat="47.9749" lon="7.10737">
        <ele>1222.2</ele>
        <time>2021-09-27T09:34:51.000Z</time>
      </trkpt>
      <trkpt lat="47.97484" lon="7.10728">
        <ele>1221.8</ele>
        <time>2021-09-27T09:36:05.000Z</time>
      </trkpt>
      <trkpt lat="47.97475" lon="7.10722">
        <ele>1221.6</ele>
        <time>2021-09-27T09:36:13.000Z</time>
      </trkpt>
      <trkpt lat="47.97467" lon="7.10715">
        <ele>1221.4</ele>
        <time>2021-09-27T09:36:22.000Z</time>
      </trkpt>
      <trkpt lat="47.97458" lon="7.1071">
        <ele>1221.3</ele>
        <time>2021-09-27T09:36:30.000Z</time>
      </trkpt>
      <trkpt lat="47.9745" lon="7.10704">
        <ele>1221.2</ele>
        <time>2021-09-27T09:36:38.000Z</time>
      </trkpt>
      <trkpt lat="47.97442" lon="7.10696">
        <ele>1221.3</ele>
        <time>2021-09-27T09:36:47.000Z</time>
      </trkpt>
      <trkpt lat="47.97434" lon="7.10686">
        <ele>1221.4</ele>
        <time>2021-09-27T09:36:55.000Z</time>
      </trkpt>
      <trkpt lat="47.97427" lon="7.10677">
        <ele>1221.6</ele>
        <time>2021-09-27T09:37:03.000Z</time>
      </trkpt>
      <trkpt lat="47.9742" lon="7.10669">
        <ele>1221.9</ele>
        <time>2021-09-27T09:37:24.000Z</time>
      </trkpt>
      <trkpt lat="47.97413" lon="7.1066">
        <ele>1221.4</ele>
        <time>2021-09-27T09:37:32.000Z</time>
      </trkpt>
      <trkpt lat="47.97406" lon="7.10651">
        <ele>1220.6</ele>
        <time>2021-09-27T09:37:39.000Z</time>
      </trkpt>
      <trkpt lat="47.97397" lon="7.10642">
        <ele>1220</ele>
        <time>2021-09-27T09:37:46.000Z</time>
      </trkpt>
      <trkpt lat="47.97389" lon="7.10637">
        <ele>1219.7</ele>
        <time>2021-09-27T09:37:53.000Z</time>
      </trkpt>
      <trkpt lat="47.97381" lon="7.10631">
        <ele>1219.3</ele>
        <time>2021-09-27T09:38:00.000Z</time>
      </trkpt>
      <trkpt lat="47.97373" lon="7.10623">
        <ele>1218.8</ele>
        <time>2021-09-27T09:38:08.000Z</time>
      </trkpt>
      <trkpt lat="47.97365" lon="7.10617">
        <ele>1218.6</ele>
        <time>2021-09-27T09:38:15.000Z</time>
      </trkpt>
      <trkpt lat="47.97355" lon="7.10616">
        <ele>1218.8</ele>
        <time>2021-09-27T09:38:22.000Z</time>
      </trkpt>
      <trkpt lat="47.97348" lon="7.10608">
        <ele>1218.4</ele>
        <time>2021-09-27T09:38:31.000Z</time>
      </trkpt>
      <trkpt lat="47.97341" lon="7.10598">
        <ele>1217.8</ele>
        <time>2021-09-27T09:38:39.000Z</time>
      </trkpt>
      <trkpt lat="47.97333" lon="7.10591">
        <ele>1217.5</ele>
        <time>2021-09-27T09:38:48.000Z</time>
      </trkpt>
      <trkpt lat="47.97327" lon="7.10581">
        <ele>1215.8</ele>
        <time>2021-09-27T09:38:56.000Z</time>
      </trkpt>
      <trkpt lat="47.9732" lon="7.10571">
        <ele>1213.8</ele>
        <time>2021-09-27T09:39:05.000Z</time>
      </trkpt>
      <trkpt lat="47.97313" lon="7.1056">
        <ele>1211.9</ele>
        <time>2021-09-27T09:39:14.000Z</time>
      </trkpt>
      <trkpt lat="47.97306" lon="7.1055">
        <ele>1209.8</ele>
        <time>2021-09-27T09:39:23.000Z</time>
      </trkpt>
      <trkpt lat="47.973" lon="7.1054">
        <ele>1207.9</ele>
        <time>2021-09-27T09:39:35.000Z</time>
      </trkpt>
      <trkpt lat="47.97294" lon="7.10529">
        <ele>1206</ele>
        <time>2021-09-27T09:39:43.000Z</time>
      </trkpt>
      <trkpt lat="47.97299" lon="7.10517">
        <ele>1205.3</ele>
        <time>2021-09-27T09:39:56.000Z</time>
      </trkpt>
      <trkpt lat="47.97295" lon="7.10505">
        <ele>1203.5</ele>
        <time>2021-09-27T09:40:08.000Z</time>
      </trkpt>
      <trkpt lat="47.973" lon="7.10492">
        <ele>1202.3</ele>
        <time>2021-09-27T09:40:18.000Z</time>
      </trkpt>
      <trkpt lat="47.97297" lon="7.10478">
        <ele>1199.8</ele>
        <time>2021-09-27T09:40:33.000Z</time>
      </trkpt>
      <trkpt lat="47.9729" lon="7.1047">
        <ele>1197.5</ele>
        <time>2021-09-27T09:40:48.000Z</time>
      </trkpt>
      <trkpt lat="47.97287" lon="7.10457">
        <ele>1195.1</ele>
        <time>2021-09-27T09:41:14.000Z</time>
      </trkpt>
      <trkpt lat="47.97295" lon="7.1045">
        <ele>1195.1</ele>
        <time>2021-09-27T09:41:32.000Z</time>
      </trkpt>
      <trkpt lat="47.97294" lon="7.10436">
        <ele>1192.8</ele>
        <time>2021-09-27T09:41:49.000Z</time>
      </trkpt>
      <trkpt lat="47.97285" lon="7.10432">
        <ele>1191</ele>
        <time>2021-09-27T09:42:13.000Z</time>
      </trkpt>
      <trkpt lat="47.97276" lon="7.10433">
        <ele>1190</ele>
        <time>2021-09-27T09:42:22.000Z</time>
      </trkpt>
      <trkpt lat="47.97266" lon="7.10434">
        <ele>1188.8</ele>
        <time>2021-09-27T09:42:33.000Z</time>
      </trkpt>
      <trkpt lat="47.97257" lon="7.10439">
        <ele>1188.3</ele>
        <time>2021-09-27T09:42:49.000Z</time>
      </trkpt>
      <trkpt lat="47.97247" lon="7.10437">
        <ele>1186.4</ele>
        <time>2021-09-27T09:43:00.000Z</time>
      </trkpt>
      <trkpt lat="47.97237" lon="7.1044">
        <ele>1184.3</ele>
        <time>2021-09-27T09:43:11.000Z</time>
      </trkpt>
      <trkpt lat="47.97228" lon="7.10443">
        <ele>1182.3</ele>
        <time>2021-09-27T09:43:19.000Z</time>
      </trkpt>
      <trkpt lat="47.97219" lon="7.10444">
        <ele>1180</ele>
        <time>2021-09-27T09:43:32.000Z</time>
      </trkpt>
      <trkpt lat="47.97212" lon="7.10433">
        <ele>1176.9</ele>
        <time>2021-09-27T09:43:56.000Z</time>
      </trkpt>
      <trkpt lat="47.97211" lon="7.10418">
        <ele>1174.7</ele>
        <time>2021-09-27T09:44:07.000Z</time>
      </trkpt>
      <trkpt lat="47.9721" lon="7.10404">
        <ele>1172.4</ele>
        <time>2021-09-27T09:44:20.000Z</time>
      </trkpt>
      <trkpt lat="47.97211" lon="7.10389">
        <ele>1170.3</ele>
        <time>2021-09-27T09:44:29.000Z</time>
      </trkpt>
      <trkpt lat="47.97211" lon="7.10374">
        <ele>1168</ele>
        <time>2021-09-27T09:44:40.000Z</time>
      </trkpt>
      <trkpt lat="47.97213" lon="7.10361">
        <ele>1166.3</ele>
        <time>2021-09-27T09:44:48.000Z</time>
      </trkpt>
      <trkpt lat="47.97213" lon="7.10346">
        <ele>1164</ele>
        <time>2021-09-27T09:44:58.000Z</time>
      </trkpt>
      <trkpt lat="47.97206" lon="7.10337">
        <ele>1161.8</ele>
        <time>2021-09-27T09:45:07.000Z</time>
      </trkpt>
      <trkpt lat="47.972" lon="7.10324">
        <ele>1159.4</ele>
        <time>2021-09-27T09:45:15.000Z</time>
      </trkpt>
      <trkpt lat="47.97193" lon="7.10313">
        <ele>1157.5</ele>
        <time>2021-09-27T09:45:23.000Z</time>
      </trkpt>
      <trkpt lat="47.97185" lon="7.10307">
        <ele>1156.2</ele>
        <time>2021-09-27T09:45:30.000Z</time>
      </trkpt>
      <trkpt lat="47.97178" lon="7.10296">
        <ele>1154.6</ele>
        <time>2021-09-27T09:45:38.000Z</time>
      </trkpt>
      <trkpt lat="47.97171" lon="7.10286">
        <ele>1153.3</ele>
        <time>2021-09-27T09:45:49.000Z</time>
      </trkpt>
      <trkpt lat="47.97167" lon="7.10273">
        <ele>1151.9</ele>
        <time>2021-09-27T09:46:00.000Z</time>
      </trkpt>
      <trkpt lat="47.97165" lon="7.10259">
        <ele>1150.4</ele>
        <time>2021-09-27T09:46:07.000Z</time>
      </trkpt>
      <trkpt lat="47.97158" lon="7.10249">
        <ele>1148.4</ele>
        <time>2021-09-27T09:46:14.000Z</time>
      </trkpt>
      <trkpt lat="47.97153" lon="7.10237">
        <ele>1146.7</ele>
        <time>2021-09-27T09:46:21.000Z</time>
      </trkpt>
      <trkpt lat="47.97148" lon="7.10225">
        <ele>1145.2</ele>
        <time>2021-09-27T09:46:28.000Z</time>
      </trkpt>
      <trkpt lat="47.97142" lon="7.10213">
        <ele>1143.8</ele>
        <time>2021-09-27T09:46:35.000Z</time>
      </trkpt>
      <trkpt lat="47.97135" lon="7.10204">
        <ele>1142.5</ele>
        <time>2021-09-27T09:46:42.000Z</time>
      </trkpt>
      <trkpt lat="47.97131" lon="7.10192">
        <ele>1141.5</ele>
        <time>2021-09-27T09:46:49.000Z</time>
      </trkpt>
      <trkpt lat="47.97126" lon="7.10181">
        <ele>1140.5</ele>
        <time>2021-09-27T09:46:56.000Z</time>
      </trkpt>
      <trkpt lat="47.9712" lon="7.1017">
        <ele>1139.6</ele>
        <time>2021-09-27T09:47:04.000Z</time>
      </trkpt>
      <trkpt lat="47.97115" lon="7.10159">
        <ele>1138.6</ele>
        <time>2021-09-27T09:47:11.000Z</time>
      </trkpt>
      <trkpt lat="47.9711" lon="7.10148">
        <ele>1137.6</ele>
        <time>2021-09-27T09:47:18.000Z</time>
      </trkpt>
      <trkpt lat="47.97103" lon="7.10138">
        <ele>1136.7</ele>
        <time>2021-09-27T09:47:25.000Z</time>
      </trkpt>
      <trkpt lat="47.97098" lon="7.10126">
        <ele>1135.9</ele>
        <time>2021-09-27T09:47:34.000Z</time>
      </trkpt>
      <trkpt lat="47.97094" lon="7.10112">
        <ele>1135.2</ele>
        <time>2021-09-27T09:47:41.000Z</time>
      </trkpt>
      <trkpt lat="47.97088" lon="7.101">
        <ele>1134.6</ele>
        <time>2021-09-27T09:47:49.000Z</time>
      </trkpt>
      <trkpt lat="47.97083" lon="7.10088">
        <ele>1134</ele>
        <time>2021-09-27T09:47:55.000Z</time>
      </trkpt>
      <trkpt lat="47.97078" lon="7.10076">
        <ele>1132.5</ele>
        <time>2021-09-27T09:48:03.000Z</time>
      </trkpt>
      <trkpt lat="47.97074" lon="7.10063">
        <ele>1130.7</ele>
        <time>2021-09-27T09:48:11.000Z</time>
      </trkpt>
      <trkpt lat="47.97068" lon="7.10051">
        <ele>1129</ele>
        <time>2021-09-27T09:48:18.000Z</time>
      </trkpt>
      <trkpt lat="47.97062" lon="7.10039">
        <ele>1127.4</ele>
        <time>2021-09-27T09:48:25.000Z</time>
      </trkpt>
      <trkpt lat="47.97056" lon="7.10028">
        <ele>1126</ele>
        <time>2021-09-27T09:48:33.000Z</time>
      </trkpt>
      <trkpt lat="47.97049" lon="7.10018">
        <ele>1124.8</ele>
        <time>2021-09-27T09:48:40.000Z</time>
      </trkpt>
      <trkpt lat="47.97045" lon="7.10005">
        <ele>1123.9</ele>
        <time>2021-09-27T09:48:48.000Z</time>
      </trkpt>
      <trkpt lat="47.97039" lon="7.09993">
        <ele>1123.2</ele>
        <time>2021-09-27T09:48:55.000Z</time>
      </trkpt>
      <trkpt lat="47.97034" lon="7.09981">
        <ele>1122.8</ele>
        <time>2021-09-27T09:49:02.000Z</time>
      </trkpt>
      <trkpt lat="47.97029" lon="7.0997">
        <ele>1122.5</ele>
        <time>2021-09-27T09:49:09.000Z</time>
      </trkpt>
      <trkpt lat="47.97024" lon="7.09958">
        <ele>1122.3</ele>
        <time>2021-09-27T09:49:16.000Z</time>
      </trkpt>
      <trkpt lat="47.9702" lon="7.09945">
        <ele>1122.3</ele>
        <time>2021-09-27T09:49:24.000Z</time>
      </trkpt>
      <trkpt lat="47.97016" lon="7.09932">
        <ele>1122.3</ele>
        <time>2021-09-27T09:49:32.000Z</time>
      </trkpt>
      <trkpt lat="47.97011" lon="7.0992">
        <ele>1122.6</ele>
        <time>2021-09-27T09:49:41.000Z</time>
      </trkpt>
      <trkpt lat="47.97005" lon="7.09908">
        <ele>1122.5</ele>
        <time>2021-09-27T09:49:48.000Z</time>
      </trkpt>
      <trkpt lat="47.97" lon="7.09896">
        <ele>1122.2</ele>
        <time>2021-09-27T09:49:56.000Z</time>
      </trkpt>
      <trkpt lat="47.96993" lon="7.09887">
        <ele>1121.5</ele>
        <time>2021-09-27T09:50:03.000Z</time>
      </trkpt>
      <trkpt lat="47.96987" lon="7.09875">
        <ele>1120.9</ele>
        <time>2021-09-27T09:50:11.000Z</time>
      </trkpt>
      <trkpt lat="47.96982" lon="7.09862">
        <ele>1120.4</ele>
        <time>2021-09-27T09:50:18.000Z</time>
      </trkpt>
      <trkpt lat="47.96977" lon="7.09852">
        <ele>1120.2</ele>
        <time>2021-09-27T09:50:26.000Z</time>
      </trkpt>
      <trkpt lat="47.9697" lon="7.0984">
        <ele>1120</ele>
        <time>2021-09-27T09:50:34.000Z</time>
      </trkpt>
      <trkpt lat="47.96964" lon="7.0983">
        <ele>1120</ele>
        <time>2021-09-27T09:50:42.000Z</time>
      </trkpt>
      <trkpt lat="47.96959" lon="7.09818">
        <ele>1119.9</ele>
        <time>2021-09-27T09:50:49.000Z</time>
      </trkpt>
      <trkpt lat="47.96953" lon="7.09806">
        <ele>1119.9</ele>
        <time>2021-09-27T09:50:56.000Z</time>
      </trkpt>
      <trkpt lat="47.96948" lon="7.09793">
        <ele>1120.1</ele>
        <time>2021-09-27T09:51:05.000Z</time>
      </trkpt>
      <trkpt lat="47.96942" lon="7.09781">
        <ele>1120.3</ele>
        <time>2021-09-27T09:51:34.000Z</time>
      </trkpt>
      <trkpt lat="47.96934" lon="7.09775">
        <ele>1120.7</ele>
        <time>2021-09-27T09:51:41.000Z</time>
      </trkpt>
      <trkpt lat="47.96928" lon="7.09786">
        <ele>1120.8</ele>
        <time>2021-09-27T09:51:50.000Z</time>
      </trkpt>
      <trkpt lat="47.9693" lon="7.09772">
        <ele>1120.9</ele>
        <time>2021-09-27T09:52:34.000Z</time>
      </trkpt>
      <trkpt lat="47.9693" lon="7.09758">
        <ele>1121.1</ele>
        <time>2021-09-27T09:52:43.000Z</time>
      </trkpt>
      <trkpt lat="47.96924" lon="7.09747">
        <ele>1121.6</ele>
        <time>2021-09-27T09:52:54.000Z</time>
      </trkpt>
      <trkpt lat="47.96918" lon="7.09738">
        <ele>1122.4</ele>
        <time>2021-09-27T09:53:00.000Z</time>
      </trkpt>
      <trkpt lat="47.96914" lon="7.09725">
        <ele>1122.9</ele>
        <time>2021-09-27T09:53:10.000Z</time>
      </trkpt>
      <trkpt lat="47.96908" lon="7.09714">
        <ele>1123.5</ele>
        <time>2021-09-27T09:53:19.000Z</time>
      </trkpt>
      <trkpt lat="47.96902" lon="7.09703">
        <ele>1124.2</ele>
        <time>2021-09-27T09:53:27.000Z</time>
      </trkpt>
      <trkpt lat="47.96895" lon="7.09693">
        <ele>1125.2</ele>
        <time>2021-09-27T09:53:37.000Z</time>
      </trkpt>
      <trkpt lat="47.9689" lon="7.09681">
        <ele>1126.3</ele>
        <time>2021-09-27T09:53:45.000Z</time>
      </trkpt>
      <trkpt lat="47.96884" lon="7.09668">
        <ele>1127.6</ele>
        <time>2021-09-27T09:53:58.000Z</time>
      </trkpt>
      <trkpt lat="47.96877" lon="7.09659">
        <ele>1129</ele>
        <time>2021-09-27T09:54:44.000Z</time>
      </trkpt>
      <trkpt lat="47.96871" lon="7.09649">
        <ele>1130.4</ele>
        <time>2021-09-27T09:54:57.000Z</time>
      </trkpt>
      <trkpt lat="47.96867" lon="7.09636">
        <ele>1131.8</ele>
        <time>2021-09-27T09:55:17.000Z</time>
      </trkpt>
      <trkpt lat="47.96863" lon="7.09625">
        <ele>1133.4</ele>
        <time>2021-09-27T09:55:29.000Z</time>
      </trkpt>
      <trkpt lat="47.9686" lon="7.09611">
        <ele>1135</ele>
        <time>2021-09-27T09:55:41.000Z</time>
      </trkpt>
      <trkpt lat="47.96856" lon="7.09599">
        <ele>1136.6</ele>
        <time>2021-09-27T09:55:59.000Z</time>
      </trkpt>
      <trkpt lat="47.96852" lon="7.09586">
        <ele>1138.3</ele>
        <time>2021-09-27T09:56:12.000Z</time>
      </trkpt>
      <trkpt lat="47.96844" lon="7.09577">
        <ele>1140.2</ele>
        <time>2021-09-27T09:56:21.000Z</time>
      </trkpt>
      <trkpt lat="47.96841" lon="7.09563">
        <ele>1142.1</ele>
        <time>2021-09-27T09:56:33.000Z</time>
      </trkpt>
      <trkpt lat="47.96834" lon="7.09553">
        <ele>1144.6</ele>
        <time>2021-09-27T09:56:45.000Z</time>
      </trkpt>
      <trkpt lat="47.96827" lon="7.09543">
        <ele>1145.7</ele>
        <time>2021-09-27T09:56:57.000Z</time>
      </trkpt>
      <trkpt lat="47.96819" lon="7.09535">
        <ele>1146.6</ele>
        <time>2021-09-27T09:57:07.000Z</time>
      </trkpt>
      <trkpt lat="47.96813" lon="7.09526">
        <ele>1147.9</ele>
        <time>2021-09-27T09:57:17.000Z</time>
      </trkpt>
      <trkpt lat="47.96808" lon="7.09514">
        <ele>1149.5</ele>
        <time>2021-09-27T09:57:27.000Z</time>
      </trkpt>
      <trkpt lat="47.96801" lon="7.09503">
        <ele>1151.3</ele>
        <time>2021-09-27T09:57:35.000Z</time>
      </trkpt>
      <trkpt lat="47.96794" lon="7.09493">
        <ele>1152.3</ele>
        <time>2021-09-27T09:57:45.000Z</time>
      </trkpt>
      <trkpt lat="47.96786" lon="7.09485">
        <ele>1152.9</ele>
        <time>2021-09-27T09:57:53.000Z</time>
      </trkpt>
      <trkpt lat="47.96779" lon="7.09476">
        <ele>1153.7</ele>
        <time>2021-09-27T09:58:02.000Z</time>
      </trkpt>
      <trkpt lat="47.96772" lon="7.09465">
        <ele>1154.7</ele>
        <time>2021-09-27T09:58:10.000Z</time>
      </trkpt>
      <trkpt lat="47.96764" lon="7.09457">
        <ele>1155.7</ele>
        <time>2021-09-27T09:58:17.000Z</time>
      </trkpt>
      <trkpt lat="47.96759" lon="7.09446">
        <ele>1156.9</ele>
        <time>2021-09-27T09:58:27.000Z</time>
      </trkpt>
      <trkpt lat="47.96752" lon="7.09435">
        <ele>1158.3</ele>
        <time>2021-09-27T09:58:37.000Z</time>
      </trkpt>
      <trkpt lat="47.96745" lon="7.09427">
        <ele>1159.1</ele>
        <time>2021-09-27T09:58:45.000Z</time>
      </trkpt>
      <trkpt lat="47.96738" lon="7.09418">
        <ele>1160</ele>
        <time>2021-09-27T09:58:53.000Z</time>
      </trkpt>
      <trkpt lat="47.96731" lon="7.09408">
        <ele>1160.8</ele>
        <time>2021-09-27T09:59:04.000Z</time>
      </trkpt>
      <trkpt lat="47.96724" lon="7.09398">
        <ele>1161.7</ele>
        <time>2021-09-27T09:59:14.000Z</time>
      </trkpt>
      <trkpt lat="47.96716" lon="7.09389">
        <ele>1162.7</ele>
        <time>2021-09-27T09:59:27.000Z</time>
      </trkpt>
      <trkpt lat="47.9671" lon="7.09379">
        <ele>1163.8</ele>
        <time>2021-09-27T09:59:39.000Z</time>
      </trkpt>
      <trkpt lat="47.96703" lon="7.0937">
        <ele>1165</ele>
        <time>2021-09-27T09:59:54.000Z</time>
      </trkpt>
      <trkpt lat="47.96697" lon="7.09359">
        <ele>1166.5</ele>
        <time>2021-09-27T10:00:06.000Z</time>
      </trkpt>
      <trkpt lat="47.96691" lon="7.09348">
        <ele>1168.1</ele>
        <time>2021-09-27T10:00:17.000Z</time>
      </trkpt>
      <trkpt lat="47.96686" lon="7.09337">
        <ele>1169.8</ele>
        <time>2021-09-27T10:00:39.000Z</time>
      </trkpt>
      <trkpt lat="47.96686" lon="7.09323">
        <ele>1170.6</ele>
        <time>2021-09-27T10:00:47.000Z</time>
      </trkpt>
      <trkpt lat="47.96679" lon="7.09314">
        <ele>1171.7</ele>
        <time>2021-09-27T10:00:56.000Z</time>
      </trkpt>
      <trkpt lat="47.96671" lon="7.09307">
        <ele>1173</ele>
        <time>2021-09-27T10:01:05.000Z</time>
      </trkpt>
      <trkpt lat="47.96669" lon="7.09294">
        <ele>1174</ele>
        <time>2021-09-27T10:01:14.000Z</time>
      </trkpt>
      <trkpt lat="47.96666" lon="7.09281">
        <ele>1175.1</ele>
        <time>2021-09-27T10:01:22.000Z</time>
      </trkpt>
      <trkpt lat="47.96661" lon="7.09269">
        <ele>1175.9</ele>
        <time>2021-09-27T10:01:33.000Z</time>
      </trkpt>
      <trkpt lat="47.96656" lon="7.09257">
        <ele>1177</ele>
        <time>2021-09-27T10:01:44.000Z</time>
      </trkpt>
      <trkpt lat="47.96655" lon="7.09243">
        <ele>1178.3</ele>
        <time>2021-09-27T10:01:53.000Z</time>
      </trkpt>
      <trkpt lat="47.96654" lon="7.09229">
        <ele>1179.9</ele>
        <time>2021-09-27T10:02:03.000Z</time>
      </trkpt>
      <trkpt lat="47.9665" lon="7.09216">
        <ele>1181.6</ele>
        <time>2021-09-27T10:02:14.000Z</time>
      </trkpt>
      <trkpt lat="47.96645" lon="7.09204">
        <ele>1183.3</ele>
        <time>2021-09-27T10:02:27.000Z</time>
      </trkpt>
      <trkpt lat="47.96637" lon="7.09195">
        <ele>1185.1</ele>
        <time>2021-09-27T10:02:38.000Z</time>
      </trkpt>
      <trkpt lat="47.96633" lon="7.09183">
        <ele>1187</ele>
        <time>2021-09-27T10:02:53.000Z</time>
      </trkpt>
      <trkpt lat="47.96629" lon="7.09171">
        <ele>1189</ele>
        <time>2021-09-27T10:03:05.000Z</time>
      </trkpt>
      <trkpt lat="47.96625" lon="7.09158">
        <ele>1191.1</ele>
        <time>2021-09-27T10:03:17.000Z</time>
      </trkpt>
      <trkpt lat="47.96618" lon="7.09148">
        <ele>1193.1</ele>
        <time>2021-09-27T10:03:32.000Z</time>
      </trkpt>
      <trkpt lat="47.9661" lon="7.0914">
        <ele>1195.1</ele>
        <time>2021-09-27T10:03:45.000Z</time>
      </trkpt>
      <trkpt lat="47.9661" lon="7.09126">
        <ele>1196.9</ele>
        <time>2021-09-27T10:03:54.000Z</time>
      </trkpt>
      <trkpt lat="47.96606" lon="7.09114">
        <ele>1199</ele>
        <time>2021-09-27T10:04:06.000Z</time>
      </trkpt>
      <trkpt lat="47.96605" lon="7.091">
        <ele>1200.9</ele>
        <time>2021-09-27T10:04:22.000Z</time>
      </trkpt>
      <trkpt lat="47.96599" lon="7.09089">
        <ele>1203.1</ele>
        <time>2021-09-27T10:04:32.000Z</time>
      </trkpt>
      <trkpt lat="47.96594" lon="7.09077">
        <ele>1205</ele>
        <time>2021-09-27T10:04:44.000Z</time>
      </trkpt>
      <trkpt lat="47.96589" lon="7.09066">
        <ele>1206.8</ele>
        <time>2021-09-27T10:04:53.000Z</time>
      </trkpt>
      <trkpt lat="47.96586" lon="7.09051">
        <ele>1208.6</ele>
        <time>2021-09-27T10:05:06.000Z</time>
      </trkpt>
      <trkpt lat="47.96583" lon="7.09037">
        <ele>1210.4</ele>
        <time>2021-09-27T10:05:17.000Z</time>
      </trkpt>
      <trkpt lat="47.96577" lon="7.09028">
        <ele>1211.3</ele>
        <time>2021-09-27T10:05:28.000Z</time>
      </trkpt>
      <trkpt lat="47.96573" lon="7.09014">
        <ele>1212.7</ele>
        <time>2021-09-27T10:05:40.000Z</time>
      </trkpt>
      <trkpt lat="47.9657" lon="7.09001">
        <ele>1214.2</ele>
        <time>2021-09-27T10:05:51.000Z</time>
      </trkpt>
      <trkpt lat="47.96567" lon="7.08988">
        <ele>1215.2</ele>
        <time>2021-09-27T10:06:00.000Z</time>
      </trkpt>
      <trkpt lat="47.96566" lon="7.08974">
        <ele>1216.3</ele>
        <time>2021-09-27T10:06:09.000Z</time>
      </trkpt>
      <trkpt lat="47.96561" lon="7.08963">
        <ele>1217.4</ele>
        <time>2021-09-27T10:06:18.000Z</time>
      </trkpt>
      <trkpt lat="47.96558" lon="7.0895">
        <ele>1218.6</ele>
        <time>2021-09-27T10:06:26.000Z</time>
      </trkpt>
      <trkpt lat="47.96552" lon="7.08939">
        <ele>1219.8</ele>
        <time>2021-09-27T10:06:36.000Z</time>
      </trkpt>
      <trkpt lat="47.96544" lon="7.08931">
        <ele>1221.1</ele>
        <time>2021-09-27T10:06:47.000Z</time>
      </trkpt>
      <trkpt lat="47.96539" lon="7.08919">
        <ele>1222.6</ele>
        <time>2021-09-27T10:07:00.000Z</time>
      </trkpt>
      <trkpt lat="47.96531" lon="7.0891">
        <ele>1224.4</ele>
        <time>2021-09-27T10:07:10.000Z</time>
      </trkpt>
      <trkpt lat="47.96522" lon="7.08906">
        <ele>1225.9</ele>
        <time>2021-09-27T10:07:18.000Z</time>
      </trkpt>
      <trkpt lat="47.96513" lon="7.089">
        <ele>1227.8</ele>
        <time>2021-09-27T10:07:26.000Z</time>
      </trkpt>
      <trkpt lat="47.96503" lon="7.08899">
        <ele>1228.9</ele>
        <time>2021-09-27T10:07:36.000Z</time>
      </trkpt>
      <trkpt lat="47.96494" lon="7.08895">
        <ele>1229.6</ele>
        <time>2021-09-27T10:07:47.000Z</time>
      </trkpt>
      <trkpt lat="47.96485" lon="7.08889">
        <ele>1230.1</ele>
        <time>2021-09-27T10:07:54.000Z</time>
      </trkpt>
      <trkpt lat="47.96476" lon="7.08885">
        <ele>1230.5</ele>
        <time>2021-09-27T10:08:07.000Z</time>
      </trkpt>
      <trkpt lat="47.96476" lon="7.0887">
        <ele>1233.2</ele>
        <time>2021-09-27T10:10:20.000Z</time>
      </trkpt>
      <trkpt lat="47.96484" lon="7.08853">
        <ele>1236.8</ele>
        <time>2021-09-27T10:10:48.000Z</time>
      </trkpt>
      <trkpt lat="47.96479" lon="7.08835">
        <ele>1239.9</ele>
        <time>2021-09-27T10:11:11.000Z</time>
      </trkpt>
      <trkpt lat="47.96474" lon="7.08823">
        <ele>1241.8</ele>
        <time>2021-09-27T10:11:28.000Z</time>
      </trkpt>
      <trkpt lat="47.96474" lon="7.08809">
        <ele>1244</ele>
        <time>2021-09-27T10:11:48.000Z</time>
      </trkpt>
      <trkpt lat="47.96475" lon="7.08796">
        <ele>1246.3</ele>
        <time>2021-09-27T10:12:08.000Z</time>
      </trkpt>
      <trkpt lat="47.9647" lon="7.08782">
        <ele>1248.3</ele>
        <time>2021-09-27T10:12:26.000Z</time>
      </trkpt>
      <trkpt lat="47.9647" lon="7.08768">
        <ele>1250.5</ele>
        <time>2021-09-27T10:12:38.000Z</time>
      </trkpt>
      <trkpt lat="47.96477" lon="7.0876">
        <ele>1252.3</ele>
        <time>2021-09-27T10:12:58.000Z</time>
      </trkpt>
      <trkpt lat="47.96484" lon="7.0875">
        <ele>1254.2</ele>
        <time>2021-09-27T10:13:11.000Z</time>
      </trkpt>
      <trkpt lat="47.96481" lon="7.08737">
        <ele>1255.2</ele>
        <time>2021-09-27T10:13:24.000Z</time>
      </trkpt>
      <trkpt lat="47.96474" lon="7.08726">
        <ele>1255.9</ele>
        <time>2021-09-27T10:13:34.000Z</time>
      </trkpt>
      <trkpt lat="47.96469" lon="7.08715">
        <ele>1256.8</ele>
        <time>2021-09-27T10:13:49.000Z</time>
      </trkpt>
      <trkpt lat="47.96467" lon="7.08701">
        <ele>1258.1</ele>
        <time>2021-09-27T10:14:00.000Z</time>
      </trkpt>
      <trkpt lat="47.96462" lon="7.08689">
        <ele>1259.3</ele>
        <time>2021-09-27T10:14:12.000Z</time>
      </trkpt>
      <trkpt lat="47.96456" lon="7.08679">
        <ele>1260.3</ele>
        <time>2021-09-27T10:14:23.000Z</time>
      </trkpt>
      <trkpt lat="47.96453" lon="7.08666">
        <ele>1261.6</ele>
        <time>2021-09-27T10:14:32.000Z</time>
      </trkpt>
      <trkpt lat="47.96451" lon="7.08652">
        <ele>1262.2</ele>
        <time>2021-09-27T10:14:42.000Z</time>
      </trkpt>
      <trkpt lat="47.96455" lon="7.08639">
        <ele>1262.7</ele>
        <time>2021-09-27T10:14:57.000Z</time>
      </trkpt>
      <trkpt lat="47.96458" lon="7.08626">
        <ele>1263.2</ele>
        <time>2021-09-27T10:15:08.000Z</time>
      </trkpt>
      <trkpt lat="47.96456" lon="7.08612">
        <ele>1263.8</ele>
        <time>2021-09-27T10:15:16.000Z</time>
      </trkpt>
      <trkpt lat="47.96447" lon="7.08608">
        <ele>1264</ele>
        <time>2021-09-27T10:15:23.000Z</time>
      </trkpt>
      <trkpt lat="47.9644" lon="7.08599">
        <ele>1264.4</ele>
        <time>2021-09-27T10:15:35.000Z</time>
      </trkpt>
      <trkpt lat="47.96434" lon="7.08588">
        <ele>1264.8</ele>
        <time>2021-09-27T10:15:45.000Z</time>
      </trkpt>
      <trkpt lat="47.96425" lon="7.08583">
        <ele>1265</ele>
        <time>2021-09-27T10:15:54.000Z</time>
      </trkpt>
      <trkpt lat="47.9643" lon="7.08568">
        <ele>1265.2</ele>
        <time>2021-09-27T10:17:51.000Z</time>
      </trkpt>
      <trkpt lat="47.96426" lon="7.08582">
        <ele>1265</ele>
        <time>2021-09-27T10:18:18.000Z</time>
      </trkpt>
      <trkpt lat="47.96417" lon="7.08578">
        <ele>1265.1</ele>
        <time>2021-09-27T10:30:44.000Z</time>
      </trkpt>
      <trkpt lat="47.96415" lon="7.08565">
        <ele>1265.1</ele>
        <time>2021-09-27T10:30:54.000Z</time>
      </trkpt>
      <trkpt lat="47.96414" lon="7.0855">
        <ele>1265.3</ele>
        <time>2021-09-27T10:31:04.000Z</time>
      </trkpt>
      <trkpt lat="47.96408" lon="7.0854">
        <ele>1265.1</ele>
        <time>2021-09-27T10:31:16.000Z</time>
      </trkpt>
      <trkpt lat="47.96399" lon="7.08536">
        <ele>1264.6</ele>
        <time>2021-09-27T10:31:25.000Z</time>
      </trkpt>
      <trkpt lat="47.9639" lon="7.08533">
        <ele>1264.2</ele>
        <time>2021-09-27T10:31:54.000Z</time>
      </trkpt>
      <trkpt lat="47.96381" lon="7.08539">
        <ele>1263.6</ele>
        <time>2021-09-27T10:32:01.000Z</time>
      </trkpt>
      <trkpt lat="47.96371" lon="7.08536">
        <ele>1263.2</ele>
        <time>2021-09-27T10:32:10.000Z</time>
      </trkpt>
      <trkpt lat="47.96362" lon="7.0854">
        <ele>1262.6</ele>
        <time>2021-09-27T10:32:18.000Z</time>
      </trkpt>
      <trkpt lat="47.96353" lon="7.08541">
        <ele>1262.1</ele>
        <time>2021-09-27T10:32:25.000Z</time>
      </trkpt>
      <trkpt lat="47.96344" lon="7.08541">
        <ele>1261.6</ele>
        <time>2021-09-27T10:32:32.000Z</time>
      </trkpt>
      <trkpt lat="47.96334" lon="7.0854">
        <ele>1261.1</ele>
        <time>2021-09-27T10:32:40.000Z</time>
      </trkpt>
      <trkpt lat="47.96325" lon="7.08537">
        <ele>1260</ele>
        <time>2021-09-27T10:32:48.000Z</time>
      </trkpt>
      <trkpt lat="47.96316" lon="7.08533">
        <ele>1259</ele>
        <time>2021-09-27T10:32:57.000Z</time>
      </trkpt>
      <trkpt lat="47.96309" lon="7.08524">
        <ele>1258.2</ele>
        <time>2021-09-27T10:33:05.000Z</time>
      </trkpt>
      <trkpt lat="47.96308" lon="7.0851">
        <ele>1258.5</ele>
        <time>2021-09-27T10:33:13.000Z</time>
      </trkpt>
      <trkpt lat="47.96304" lon="7.08497">
        <ele>1258</ele>
        <time>2021-09-27T10:33:21.000Z</time>
      </trkpt>
      <trkpt lat="47.96298" lon="7.08485">
        <ele>1256.9</ele>
        <time>2021-09-27T10:33:28.000Z</time>
      </trkpt>
      <trkpt lat="47.9629" lon="7.08478">
        <ele>1255.7</ele>
        <time>2021-09-27T10:33:38.000Z</time>
      </trkpt>
      <trkpt lat="47.96282" lon="7.0847">
        <ele>1254.5</ele>
        <time>2021-09-27T10:33:46.000Z</time>
      </trkpt>
      <trkpt lat="47.96273" lon="7.08464">
        <ele>1253.3</ele>
        <time>2021-09-27T10:33:55.000Z</time>
      </trkpt>
      <trkpt lat="47.96264" lon="7.08465">
        <ele>1252.2</ele>
        <time>2021-09-27T10:34:04.000Z</time>
      </trkpt>
      <trkpt lat="47.96257" lon="7.08472">
        <ele>1251.5</ele>
        <time>2021-09-27T10:34:11.000Z</time>
      </trkpt>
      <trkpt lat="47.96247" lon="7.08471">
        <ele>1250.4</ele>
        <time>2021-09-27T10:34:44.000Z</time>
      </trkpt>
      <trkpt lat="47.96239" lon="7.08463">
        <ele>1249.5</ele>
        <time>2021-09-27T10:34:53.000Z</time>
      </trkpt>
      <trkpt lat="47.96229" lon="7.08462">
        <ele>1248.5</ele>
        <time>2021-09-27T10:35:00.000Z</time>
      </trkpt>
      <trkpt lat="47.96222" lon="7.08452">
        <ele>1247.9</ele>
        <time>2021-09-27T10:35:09.000Z</time>
      </trkpt>
      <trkpt lat="47.96213" lon="7.08446">
        <ele>1247.2</ele>
        <time>2021-09-27T10:35:16.000Z</time>
      </trkpt>
      <trkpt lat="47.96204" lon="7.08445">
        <ele>1246.4</ele>
        <time>2021-09-27T10:35:24.000Z</time>
      </trkpt>
      <trkpt lat="47.96196" lon="7.08437">
        <ele>1246</ele>
        <time>2021-09-27T10:35:31.000Z</time>
      </trkpt>
      <trkpt lat="47.96187" lon="7.08428">
        <ele>1245.7</ele>
        <time>2021-09-27T10:35:36.000Z</time>
      </trkpt>
      <trkpt lat="47.96181" lon="7.08419">
        <ele>1245.7</ele>
        <time>2021-09-27T10:35:46.000Z</time>
      </trkpt>
      <trkpt lat="47.96174" lon="7.0841">
        <ele>1245.2</ele>
        <time>2021-09-27T10:35:53.000Z</time>
      </trkpt>
      <trkpt lat="47.96166" lon="7.08401">
        <ele>1244.6</ele>
        <time>2021-09-27T10:36:00.000Z</time>
      </trkpt>
      <trkpt lat="47.96158" lon="7.08392">
        <ele>1244.4</ele>
        <time>2021-09-27T10:36:08.000Z</time>
      </trkpt>
      <trkpt lat="47.9615" lon="7.08384">
        <ele>1244.4</ele>
        <time>2021-09-27T10:36:15.000Z</time>
      </trkpt>
      <trkpt lat="47.96142" lon="7.08374">
        <ele>1244.6</ele>
        <time>2021-09-27T10:36:23.000Z</time>
      </trkpt>
      <trkpt lat="47.96134" lon="7.08366">
        <ele>1245</ele>
        <time>2021-09-27T10:36:30.000Z</time>
      </trkpt>
      <trkpt lat="47.96125" lon="7.08359">
        <ele>1245.6</ele>
        <time>2021-09-27T10:36:39.000Z</time>
      </trkpt>
      <trkpt lat="47.96115" lon="7.0835">
        <ele>1246.5</ele>
        <time>2021-09-27T10:37:42.000Z</time>
      </trkpt>
      <trkpt lat="47.96106" lon="7.08354">
        <ele>1246.8</ele>
        <time>2021-09-27T10:38:07.000Z</time>
      </trkpt>
      <trkpt lat="47.96096" lon="7.08349">
        <ele>1247.7</ele>
        <time>2021-09-27T10:38:14.000Z</time>
      </trkpt>
      <trkpt lat="47.96087" lon="7.08344">
        <ele>1248.7</ele>
        <time>2021-09-27T10:38:23.000Z</time>
      </trkpt>
      <trkpt lat="47.96077" lon="7.08342">
        <ele>1249</ele>
        <time>2021-09-27T10:38:31.000Z</time>
      </trkpt>
      <trkpt lat="47.96067" lon="7.08342">
        <ele>1248.8</ele>
        <time>2021-09-27T10:38:39.000Z</time>
      </trkpt>
      <trkpt lat="47.96058" lon="7.08339">
        <ele>1248.8</ele>
        <time>2021-09-27T10:38:47.000Z</time>
      </trkpt>
      <trkpt lat="47.96048" lon="7.08339">
        <ele>1248.6</ele>
        <time>2021-09-27T10:38:56.000Z</time>
      </trkpt>
      <trkpt lat="47.96038" lon="7.08335">
        <ele>1248.8</ele>
        <time>2021-09-27T10:39:04.000Z</time>
      </trkpt>
      <trkpt lat="47.96029" lon="7.08329">
        <ele>1248.7</ele>
        <time>2021-09-27T10:39:11.000Z</time>
      </trkpt>
      <trkpt lat="47.96019" lon="7.08328">
        <ele>1248.5</ele>
        <time>2021-09-27T10:39:19.000Z</time>
      </trkpt>
      <trkpt lat="47.9601" lon="7.08324">
        <ele>1248.5</ele>
        <time>2021-09-27T10:39:26.000Z</time>
      </trkpt>
      <trkpt lat="47.96001" lon="7.0832">
        <ele>1248.5</ele>
        <time>2021-09-27T10:39:32.000Z</time>
      </trkpt>
      <trkpt lat="47.95991" lon="7.08317">
        <ele>1248.6</ele>
        <time>2021-09-27T10:39:40.000Z</time>
      </trkpt>
      <trkpt lat="47.95982" lon="7.08316">
        <ele>1248.7</ele>
        <time>2021-09-27T10:39:49.000Z</time>
      </trkpt>
      <trkpt lat="47.95973" lon="7.08314">
        <ele>1248.9</ele>
        <time>2021-09-27T10:39:56.000Z</time>
      </trkpt>
      <trkpt lat="47.95964" lon="7.08309">
        <ele>1249.3</ele>
        <time>2021-09-27T10:40:04.000Z</time>
      </trkpt>
      <trkpt lat="47.95954" lon="7.08307">
        <ele>1249.6</ele>
        <time>2021-09-27T10:40:12.000Z</time>
      </trkpt>
      <trkpt lat="47.95945" lon="7.08303">
        <ele>1250.1</ele>
        <time>2021-09-27T10:40:21.000Z</time>
      </trkpt>
      <trkpt lat="47.95935" lon="7.08299">
        <ele>1250.7</ele>
        <time>2021-09-27T10:40:30.000Z</time>
      </trkpt>
      <trkpt lat="47.95926" lon="7.08294">
        <ele>1251.4</ele>
        <time>2021-09-27T10:40:36.000Z</time>
      </trkpt>
      <trkpt lat="47.95918" lon="7.0829">
        <ele>1252.2</ele>
        <time>2021-09-27T10:40:44.000Z</time>
      </trkpt>
      <trkpt lat="47.95909" lon="7.08287">
        <ele>1253</ele>
        <time>2021-09-27T10:40:52.000Z</time>
      </trkpt>
      <trkpt lat="47.95899" lon="7.08286">
        <ele>1253.7</ele>
        <time>2021-09-27T10:41:00.000Z</time>
      </trkpt>
      <trkpt lat="47.9589" lon="7.08284">
        <ele>1254.5</ele>
        <time>2021-09-27T10:41:10.000Z</time>
      </trkpt>
      <trkpt lat="47.95881" lon="7.08281">
        <ele>1255.3</ele>
        <time>2021-09-27T10:41:18.000Z</time>
      </trkpt>
      <trkpt lat="47.95872" lon="7.08276">
        <ele>1256.3</ele>
        <time>2021-09-27T10:41:27.000Z</time>
      </trkpt>
      <trkpt lat="47.95863" lon="7.08272">
        <ele>1257.3</ele>
        <time>2021-09-27T10:41:35.000Z</time>
      </trkpt>
      <trkpt lat="47.95854" lon="7.08267">
        <ele>1258.3</ele>
        <time>2021-09-27T10:41:44.000Z</time>
      </trkpt>
      <trkpt lat="47.95844" lon="7.08271">
        <ele>1258.4</ele>
        <time>2021-09-27T10:41:51.000Z</time>
      </trkpt>
      <trkpt lat="47.95834" lon="7.08268">
        <ele>1259.2</ele>
        <time>2021-09-27T10:41:57.000Z</time>
      </trkpt>
      <trkpt lat="47.95824" lon="7.08265">
        <ele>1259.9</ele>
        <time>2021-09-27T10:42:05.000Z</time>
      </trkpt>
      <trkpt lat="47.95815" lon="7.08264">
        <ele>1260.5</ele>
        <time>2021-09-27T10:42:13.000Z</time>
      </trkpt>
      <trkpt lat="47.95806" lon="7.08261">
        <ele>1261.2</ele>
        <time>2021-09-27T10:42:19.000Z</time>
      </trkpt>
      <trkpt lat="47.95797" lon="7.08261">
        <ele>1261.6</ele>
        <time>2021-09-27T10:42:25.000Z</time>
      </trkpt>
      <trkpt lat="47.95788" lon="7.08262">
        <ele>1261.9</ele>
        <time>2021-09-27T10:42:35.000Z</time>
      </trkpt>
      <trkpt lat="47.95778" lon="7.08261">
        <ele>1262.4</ele>
        <time>2021-09-27T10:42:42.000Z</time>
      </trkpt>
      <trkpt lat="47.95769" lon="7.08261">
        <ele>1262.8</ele>
        <time>2021-09-27T10:42:50.000Z</time>
      </trkpt>
      <trkpt lat="47.95759" lon="7.08262">
        <ele>1263.2</ele>
        <time>2021-09-27T10:42:57.000Z</time>
      </trkpt>
      <trkpt lat="47.9575" lon="7.08262">
        <ele>1263.6</ele>
        <time>2021-09-27T10:43:06.000Z</time>
      </trkpt>
      <trkpt lat="47.95741" lon="7.08268">
        <ele>1263.2</ele>
        <time>2021-09-27T10:43:14.000Z</time>
      </trkpt>
      <trkpt lat="47.9573" lon="7.08267">
        <ele>1263.6</ele>
        <time>2021-09-27T10:43:21.000Z</time>
      </trkpt>
      <trkpt lat="47.95721" lon="7.08264">
        <ele>1264.2</ele>
        <time>2021-09-27T10:43:28.000Z</time>
      </trkpt>
      <trkpt lat="47.95711" lon="7.08262">
        <ele>1264.8</ele>
        <time>2021-09-27T10:43:37.000Z</time>
      </trkpt>
      <trkpt lat="47.95702" lon="7.08258">
        <ele>1265.6</ele>
        <time>2021-09-27T10:43:44.000Z</time>
      </trkpt>
      <trkpt lat="47.95693" lon="7.0826">
        <ele>1265.8</ele>
        <time>2021-09-27T10:43:52.000Z</time>
      </trkpt>
      <trkpt lat="47.95684" lon="7.08262">
        <ele>1265.8</ele>
        <time>2021-09-27T10:43:59.000Z</time>
      </trkpt>
      <trkpt lat="47.95673" lon="7.08261">
        <ele>1266.2</ele>
        <time>2021-09-27T10:44:06.000Z</time>
      </trkpt>
      <trkpt lat="47.95664" lon="7.08263">
        <ele>1266.2</ele>
        <time>2021-09-27T10:44:13.000Z</time>
      </trkpt>
      <trkpt lat="47.95655" lon="7.08264">
        <ele>1266.5</ele>
        <time>2021-09-27T10:44:22.000Z</time>
      </trkpt>
      <trkpt lat="47.95642" lon="7.08274">
        <ele>1265.5</ele>
        <time>2021-09-27T10:44:29.000Z</time>
      </trkpt>
      <trkpt lat="47.95634" lon="7.08282">
        <ele>1264.7</ele>
        <time>2021-09-27T10:44:38.000Z</time>
      </trkpt>
      <trkpt lat="47.95625" lon="7.08282">
        <ele>1265.1</ele>
        <time>2021-09-27T10:44:48.000Z</time>
      </trkpt>
      <trkpt lat="47.95615" lon="7.08281">
        <ele>1265.7</ele>
        <time>2021-09-27T10:44:55.000Z</time>
      </trkpt>
      <trkpt lat="47.95605" lon="7.08284">
        <ele>1265.7</ele>
        <time>2021-09-27T10:45:03.000Z</time>
      </trkpt>
      <trkpt lat="47.95595" lon="7.08287">
        <ele>1265.7</ele>
        <time>2021-09-27T10:45:11.000Z</time>
      </trkpt>
      <trkpt lat="47.95586" lon="7.08292">
        <ele>1265.4</ele>
        <time>2021-09-27T10:45:18.000Z</time>
      </trkpt>
      <trkpt lat="47.95576" lon="7.08297">
        <ele>1265.3</ele>
        <time>2021-09-27T10:45:26.000Z</time>
      </trkpt>
      <trkpt lat="47.95568" lon="7.08302">
        <ele>1265.2</ele>
        <time>2021-09-27T10:45:32.000Z</time>
      </trkpt>
      <trkpt lat="47.95559" lon="7.08309">
        <ele>1265</ele>
        <time>2021-09-27T10:45:38.000Z</time>
      </trkpt>
      <trkpt lat="47.95552" lon="7.08318">
        <ele>1264.3</ele>
        <time>2021-09-27T10:45:44.000Z</time>
      </trkpt>
      <trkpt lat="47.95546" lon="7.08329">
        <ele>1263.3</ele>
        <time>2021-09-27T10:45:52.000Z</time>
      </trkpt>
      <trkpt lat="47.95539" lon="7.0834">
        <ele>1262.4</ele>
        <time>2021-09-27T10:46:00.000Z</time>
      </trkpt>
      <trkpt lat="47.95535" lon="7.08354">
        <ele>1260.9</ele>
        <time>2021-09-27T10:46:09.000Z</time>
      </trkpt>
      <trkpt lat="47.9553" lon="7.08367">
        <ele>1259.4</ele>
        <time>2021-09-27T10:46:16.000Z</time>
      </trkpt>
      <trkpt lat="47.95525" lon="7.08378">
        <ele>1258.2</ele>
        <time>2021-09-27T10:46:22.000Z</time>
      </trkpt>
      <trkpt lat="47.95517" lon="7.08386">
        <ele>1257.5</ele>
        <time>2021-09-27T10:46:29.000Z</time>
      </trkpt>
      <trkpt lat="47.9551" lon="7.08394">
        <ele>1256.8</ele>
        <time>2021-09-27T10:46:38.000Z</time>
      </trkpt>
      <trkpt lat="47.95501" lon="7.08397">
        <ele>1256.9</ele>
        <time>2021-09-27T10:46:48.000Z</time>
      </trkpt>
      <trkpt lat="47.95491" lon="7.084">
        <ele>1255.9</ele>
        <time>2021-09-27T10:46:56.000Z</time>
      </trkpt>
      <trkpt lat="47.95482" lon="7.08404">
        <ele>1254.8</ele>
        <time>2021-09-27T10:47:05.000Z</time>
      </trkpt>
      <trkpt lat="47.95473" lon="7.08405">
        <ele>1254.1</ele>
        <time>2021-09-27T10:47:11.000Z</time>
      </trkpt>
      <trkpt lat="47.95464" lon="7.08405">
        <ele>1253.5</ele>
        <time>2021-09-27T10:47:18.000Z</time>
      </trkpt>
      <trkpt lat="47.95455" lon="7.08404">
        <ele>1253.1</ele>
        <time>2021-09-27T10:47:26.000Z</time>
      </trkpt>
      <trkpt lat="47.95448" lon="7.08393">
        <ele>1253.7</ele>
        <time>2021-09-27T10:47:33.000Z</time>
      </trkpt>
      <trkpt lat="47.95442" lon="7.08381">
        <ele>1254.2</ele>
        <time>2021-09-27T10:47:43.000Z</time>
      </trkpt>
      <trkpt lat="47.95438" lon="7.08367">
        <ele>1255</ele>
        <time>2021-09-27T10:47:53.000Z</time>
      </trkpt>
      <trkpt lat="47.95433" lon="7.08355">
        <ele>1255.5</ele>
        <time>2021-09-27T10:48:01.000Z</time>
      </trkpt>
      <trkpt lat="47.95429" lon="7.08343">
        <ele>1255.9</ele>
        <time>2021-09-27T10:48:11.000Z</time>
      </trkpt>
      <trkpt lat="47.95422" lon="7.08332">
        <ele>1255.8</ele>
        <time>2021-09-27T10:48:19.000Z</time>
      </trkpt>
      <trkpt lat="47.95418" lon="7.0832">
        <ele>1256.3</ele>
        <time>2021-09-27T10:48:25.000Z</time>
      </trkpt>
      <trkpt lat="47.95416" lon="7.08304">
        <ele>1257.2</ele>
        <time>2021-09-27T10:48:35.000Z</time>
      </trkpt>
      <trkpt lat="47.95414" lon="7.08291">
        <ele>1257.7</ele>
        <time>2021-09-27T10:48:42.000Z</time>
      </trkpt>
      <trkpt lat="47.95413" lon="7.08277">
        <ele>1258.3</ele>
        <time>2021-09-27T10:48:50.000Z</time>
      </trkpt>
      <trkpt lat="47.95413" lon="7.08263">
        <ele>1259.6</ele>
        <time>2021-09-27T10:48:59.000Z</time>
      </trkpt>
      <trkpt lat="47.95414" lon="7.08248">
        <ele>1260.8</ele>
        <time>2021-09-27T10:49:07.000Z</time>
      </trkpt>
      <trkpt lat="47.95412" lon="7.08233">
        <ele>1260.7</ele>
        <time>2021-09-27T10:49:14.000Z</time>
      </trkpt>
      <trkpt lat="47.95411" lon="7.0822">
        <ele>1260.7</ele>
        <time>2021-09-27T10:49:23.000Z</time>
      </trkpt>
      <trkpt lat="47.95408" lon="7.08204">
        <ele>1259.9</ele>
        <time>2021-09-27T10:49:30.000Z</time>
      </trkpt>
      <trkpt lat="47.95406" lon="7.08191">
        <ele>1259.5</ele>
        <time>2021-09-27T10:49:36.000Z</time>
      </trkpt>
      <trkpt lat="47.95404" lon="7.08177">
        <ele>1259.2</ele>
        <time>2021-09-27T10:49:43.000Z</time>
      </trkpt>
      <trkpt lat="47.95402" lon="7.08162">
        <ele>1259.1</ele>
        <time>2021-09-27T10:49:53.000Z</time>
      </trkpt>
      <trkpt lat="47.95403" lon="7.08148">
        <ele>1259.6</ele>
        <time>2021-09-27T10:50:02.000Z</time>
      </trkpt>
      <trkpt lat="47.95404" lon="7.08135">
        <ele>1260.3</ele>
        <time>2021-09-27T10:50:11.000Z</time>
      </trkpt>
      <trkpt lat="47.95401" lon="7.08122">
        <ele>1259.5</ele>
        <time>2021-09-27T10:50:16.000Z</time>
      </trkpt>
      <trkpt lat="47.95396" lon="7.0811">
        <ele>1257.8</ele>
        <time>2021-09-27T10:50:21.000Z</time>
      </trkpt>
      <trkpt lat="47.95393" lon="7.08097">
        <ele>1257.1</ele>
        <time>2021-09-27T10:50:28.000Z</time>
      </trkpt>
      <trkpt lat="47.95388" lon="7.08086">
        <ele>1255.1</ele>
        <time>2021-09-27T10:50:34.000Z</time>
      </trkpt>
      <trkpt lat="47.95382" lon="7.08074">
        <ele>1252.6</ele>
        <time>2021-09-27T10:50:40.000Z</time>
      </trkpt>
      <trkpt lat="47.95378" lon="7.08061">
        <ele>1250.8</ele>
        <time>2021-09-27T10:50:47.000Z</time>
      </trkpt>
      <trkpt lat="47.95372" lon="7.0805">
        <ele>1248.7</ele>
        <time>2021-09-27T10:50:59.000Z</time>
      </trkpt>
      <trkpt lat="47.95367" lon="7.08037">
        <ele>1246.9</ele>
        <time>2021-09-27T10:51:06.000Z</time>
      </trkpt>
      <trkpt lat="47.95359" lon="7.08026">
        <ele>1244.5</ele>
        <time>2021-09-27T10:51:13.000Z</time>
      </trkpt>
      <trkpt lat="47.95353" lon="7.08013">
        <ele>1243.1</ele>
        <time>2021-09-27T10:51:20.000Z</time>
      </trkpt>
      <trkpt lat="47.95348" lon="7.08">
        <ele>1242</ele>
        <time>2021-09-27T10:51:28.000Z</time>
      </trkpt>
      <trkpt lat="47.95342" lon="7.07989">
        <ele>1241.1</ele>
        <time>2021-09-27T10:51:38.000Z</time>
      </trkpt>
      <trkpt lat="47.95335" lon="7.07981">
        <ele>1240</ele>
        <time>2021-09-27T10:51:46.000Z</time>
      </trkpt>
      <trkpt lat="47.95329" lon="7.07969">
        <ele>1239</ele>
        <time>2021-09-27T10:51:53.000Z</time>
      </trkpt>
      <trkpt lat="47.9532" lon="7.07963">
        <ele>1236.6</ele>
        <time>2021-09-27T10:52:02.000Z</time>
      </trkpt>
      <trkpt lat="47.95311" lon="7.07959">
        <ele>1233.7</ele>
        <time>2021-09-27T10:52:09.000Z</time>
      </trkpt>
      <trkpt lat="47.95303" lon="7.07949">
        <ele>1232</ele>
        <time>2021-09-27T10:52:16.000Z</time>
      </trkpt>
      <trkpt lat="47.95296" lon="7.0794">
        <ele>1230.6</ele>
        <time>2021-09-27T10:52:23.000Z</time>
      </trkpt>
      <trkpt lat="47.95288" lon="7.07931">
        <ele>1229.1</ele>
        <time>2021-09-27T10:52:32.000Z</time>
      </trkpt>
      <trkpt lat="47.95279" lon="7.07923">
        <ele>1227.4</ele>
        <time>2021-09-27T10:52:40.000Z</time>
      </trkpt>
      <trkpt lat="47.95271" lon="7.07916">
        <ele>1225.8</ele>
        <time>2021-09-27T10:52:48.000Z</time>
      </trkpt>
      <trkpt lat="47.95263" lon="7.07909">
        <ele>1224.3</ele>
        <time>2021-09-27T10:52:55.000Z</time>
      </trkpt>
      <trkpt lat="47.95254" lon="7.07903">
        <ele>1222.4</ele>
        <time>2021-09-27T10:53:04.000Z</time>
      </trkpt>
      <trkpt lat="47.95247" lon="7.07893">
        <ele>1221.6</ele>
        <time>2021-09-27T10:53:15.000Z</time>
      </trkpt>
      <trkpt lat="47.95239" lon="7.07884">
        <ele>1219.8</ele>
        <time>2021-09-27T10:53:23.000Z</time>
      </trkpt>
      <trkpt lat="47.95232" lon="7.07874">
        <ele>1218.4</ele>
        <time>2021-09-27T10:53:32.000Z</time>
      </trkpt>
      <trkpt lat="47.95227" lon="7.07863">
        <ele>1217.8</ele>
        <time>2021-09-27T10:53:39.000Z</time>
      </trkpt>
      <trkpt lat="47.95221" lon="7.07851">
        <ele>1217.1</ele>
        <time>2021-09-27T10:53:45.000Z</time>
      </trkpt>
      <trkpt lat="47.95217" lon="7.07838">
        <ele>1217.2</ele>
        <time>2021-09-27T10:53:52.000Z</time>
      </trkpt>
      <trkpt lat="47.95217" lon="7.07823">
        <ele>1218.3</ele>
        <time>2021-09-27T10:53:59.000Z</time>
      </trkpt>
      <trkpt lat="47.95217" lon="7.0781">
        <ele>1219.2</ele>
        <time>2021-09-27T10:54:05.000Z</time>
      </trkpt>
      <trkpt lat="47.95217" lon="7.07794">
        <ele>1219.7</ele>
        <time>2021-09-27T10:54:12.000Z</time>
      </trkpt>
      <trkpt lat="47.95216" lon="7.0778">
        <ele>1220.2</ele>
        <time>2021-09-27T10:54:19.000Z</time>
      </trkpt>
      <trkpt lat="47.95215" lon="7.07766">
        <ele>1220.5</ele>
        <time>2021-09-27T10:54:27.000Z</time>
      </trkpt>
      <trkpt lat="47.95213" lon="7.07752">
        <ele>1220.1</ele>
        <time>2021-09-27T10:54:36.000Z</time>
      </trkpt>
      <trkpt lat="47.95213" lon="7.07738">
        <ele>1220.5</ele>
        <time>2021-09-27T10:54:45.000Z</time>
      </trkpt>
      <trkpt lat="47.95213" lon="7.07724">
        <ele>1220.7</ele>
        <time>2021-09-27T10:54:52.000Z</time>
      </trkpt>
      <trkpt lat="47.95214" lon="7.0771">
        <ele>1221.4</ele>
        <time>2021-09-27T10:55:00.000Z</time>
      </trkpt>
      <trkpt lat="47.95215" lon="7.07695">
        <ele>1222.5</ele>
        <time>2021-09-27T10:55:09.000Z</time>
      </trkpt>
      <trkpt lat="47.95216" lon="7.07681">
        <ele>1223.2</ele>
        <time>2021-09-27T10:55:15.000Z</time>
      </trkpt>
      <trkpt lat="47.95214" lon="7.07668">
        <ele>1222.4</ele>
        <time>2021-09-27T10:55:24.000Z</time>
      </trkpt>
      <trkpt lat="47.95216" lon="7.07654">
        <ele>1224</ele>
        <time>2021-09-27T10:55:33.000Z</time>
      </trkpt>
      <trkpt lat="47.95216" lon="7.0764">
        <ele>1225.1</ele>
        <time>2021-09-27T10:55:40.000Z</time>
      </trkpt>
      <trkpt lat="47.95218" lon="7.07625">
        <ele>1226.7</ele>
        <time>2021-09-27T10:55:47.000Z</time>
      </trkpt>
      <trkpt lat="47.95218" lon="7.0761">
        <ele>1227.5</ele>
        <time>2021-09-27T10:55:57.000Z</time>
      </trkpt>
      <trkpt lat="47.95216" lon="7.07596">
        <ele>1227.3</ele>
        <time>2021-09-27T10:56:06.000Z</time>
      </trkpt>
      <trkpt lat="47.95215" lon="7.07582">
        <ele>1227.4</ele>
        <time>2021-09-27T10:56:12.000Z</time>
      </trkpt>
      <trkpt lat="47.9521" lon="7.0757">
        <ele>1226.2</ele>
        <time>2021-09-27T10:56:18.000Z</time>
      </trkpt>
      <trkpt lat="47.95208" lon="7.07555">
        <ele>1226.1</ele>
        <time>2021-09-27T10:56:26.000Z</time>
      </trkpt>
      <trkpt lat="47.95208" lon="7.0754">
        <ele>1226.8</ele>
        <time>2021-09-27T10:56:35.000Z</time>
      </trkpt>
      <trkpt lat="47.95208" lon="7.07526">
        <ele>1227.5</ele>
        <time>2021-09-27T10:56:45.000Z</time>
      </trkpt>
      <trkpt lat="47.95204" lon="7.07512">
        <ele>1227.2</ele>
        <time>2021-09-27T10:56:53.000Z</time>
      </trkpt>
      <trkpt lat="47.95197" lon="7.075">
        <ele>1225.7</ele>
        <time>2021-09-27T10:57:01.000Z</time>
      </trkpt>
      <trkpt lat="47.95191" lon="7.07488">
        <ele>1225.1</ele>
        <time>2021-09-27T10:57:07.000Z</time>
      </trkpt>
      <trkpt lat="47.9519" lon="7.07474">
        <ele>1226.2</ele>
        <time>2021-09-27T10:57:16.000Z</time>
      </trkpt>
      <trkpt lat="47.95188" lon="7.0746">
        <ele>1227.2</ele>
        <time>2021-09-27T10:57:24.000Z</time>
      </trkpt>
      <trkpt lat="47.95185" lon="7.07445">
        <ele>1228.1</ele>
        <time>2021-09-27T10:57:32.000Z</time>
      </trkpt>
      <trkpt lat="47.95179" lon="7.07433">
        <ele>1228</ele>
        <time>2021-09-27T10:57:40.000Z</time>
      </trkpt>
      <trkpt lat="47.95174" lon="7.07421">
        <ele>1228.1</ele>
        <time>2021-09-27T10:57:46.000Z</time>
      </trkpt>
      <trkpt lat="47.95169" lon="7.07408">
        <ele>1229.6</ele>
        <time>2021-09-27T10:57:54.000Z</time>
      </trkpt>
      <trkpt lat="47.95163" lon="7.07397">
        <ele>1230.3</ele>
        <time>2021-09-27T10:58:01.000Z</time>
      </trkpt>
      <trkpt lat="47.95158" lon="7.07385">
        <ele>1231.8</ele>
        <time>2021-09-27T10:58:11.000Z</time>
      </trkpt>
      <trkpt lat="47.95151" lon="7.07374">
        <ele>1232.3</ele>
        <time>2021-09-27T10:58:18.000Z</time>
      </trkpt>
      <trkpt lat="47.95144" lon="7.07364">
        <ele>1233.1</ele>
        <time>2021-09-27T10:58:25.000Z</time>
      </trkpt>
      <trkpt lat="47.9514" lon="7.07352">
        <ele>1234.7</ele>
        <time>2021-09-27T10:58:32.000Z</time>
      </trkpt>
      <trkpt lat="47.95132" lon="7.07344">
        <ele>1235</ele>
        <time>2021-09-27T10:58:38.000Z</time>
      </trkpt>
      <trkpt lat="47.95124" lon="7.07336">
        <ele>1235.2</ele>
        <time>2021-09-27T10:58:46.000Z</time>
      </trkpt>
      <trkpt lat="47.95115" lon="7.07331">
        <ele>1234</ele>
        <time>2021-09-27T10:58:53.000Z</time>
      </trkpt>
      <trkpt lat="47.95105" lon="7.07326">
        <ele>1233</ele>
        <time>2021-09-27T10:59:02.000Z</time>
      </trkpt>
      <trkpt lat="47.95095" lon="7.07321">
        <ele>1231.9</ele>
        <time>2021-09-27T10:59:09.000Z</time>
      </trkpt>
      <trkpt lat="47.95086" lon="7.07317">
        <ele>1231</ele>
        <time>2021-09-27T10:59:17.000Z</time>
      </trkpt>
      <trkpt lat="47.95077" lon="7.07313">
        <ele>1229.8</ele>
        <time>2021-09-27T10:59:25.000Z</time>
      </trkpt>
      <trkpt lat="47.95068" lon="7.07308">
        <ele>1228.9</ele>
        <time>2021-09-27T10:59:33.000Z</time>
      </trkpt>
      <trkpt lat="47.95059" lon="7.07302">
        <ele>1228.4</ele>
        <time>2021-09-27T10:59:42.000Z</time>
      </trkpt>
      <trkpt lat="47.95049" lon="7.073">
        <ele>1226.5</ele>
        <time>2021-09-27T10:59:49.000Z</time>
      </trkpt>
      <trkpt lat="47.9504" lon="7.07295">
        <ele>1225.5</ele>
        <time>2021-09-27T10:59:57.000Z</time>
      </trkpt>
      <trkpt lat="47.95031" lon="7.07289">
        <ele>1224.6</ele>
        <time>2021-09-27T11:00:04.000Z</time>
      </trkpt>
      <trkpt lat="47.95022" lon="7.07282">
        <ele>1224.2</ele>
        <time>2021-09-27T11:00:11.000Z</time>
      </trkpt>
      <trkpt lat="47.95014" lon="7.07275">
        <ele>1223.7</ele>
        <time>2021-09-27T11:00:19.000Z</time>
      </trkpt>
      <trkpt lat="47.95006" lon="7.07265">
        <ele>1224</ele>
        <time>2021-09-27T11:00:28.000Z</time>
      </trkpt>
      <trkpt lat="47.94997" lon="7.07258">
        <ele>1223.2</ele>
        <time>2021-09-27T11:00:37.000Z</time>
      </trkpt>
      <trkpt lat="47.94989" lon="7.0725">
        <ele>1222.2</ele>
        <time>2021-09-27T11:00:45.000Z</time>
      </trkpt>
      <trkpt lat="47.94983" lon="7.07238">
        <ele>1221.5</ele>
        <time>2021-09-27T11:00:53.000Z</time>
      </trkpt>
      <trkpt lat="47.94976" lon="7.07228">
        <ele>1220.1</ele>
        <time>2021-09-27T11:00:59.000Z</time>
      </trkpt>
      <trkpt lat="47.94968" lon="7.07222">
        <ele>1218</ele>
        <time>2021-09-27T11:01:04.000Z</time>
      </trkpt>
      <trkpt lat="47.94965" lon="7.0721">
        <ele>1218.5</ele>
        <time>2021-09-27T11:01:15.000Z</time>
      </trkpt>
      <trkpt lat="47.94958" lon="7.07198">
        <ele>1217.5</ele>
        <time>2021-09-27T11:01:22.000Z</time>
      </trkpt>
      <trkpt lat="47.94951" lon="7.07186">
        <ele>1216.7</ele>
        <time>2021-09-27T11:01:29.000Z</time>
      </trkpt>
      <trkpt lat="47.94945" lon="7.07176">
        <ele>1216</ele>
        <time>2021-09-27T11:01:35.000Z</time>
      </trkpt>
      <trkpt lat="47.9494" lon="7.07163">
        <ele>1215.7</ele>
        <time>2021-09-27T11:01:41.000Z</time>
      </trkpt>
      <trkpt lat="47.94933" lon="7.07153">
        <ele>1214.5</ele>
        <time>2021-09-27T11:01:49.000Z</time>
      </trkpt>
      <trkpt lat="47.94925" lon="7.07145">
        <ele>1212.7</ele>
        <time>2021-09-27T11:01:56.000Z</time>
      </trkpt>
      <trkpt lat="47.94921" lon="7.07132">
        <ele>1212.6</ele>
        <time>2021-09-27T11:02:05.000Z</time>
      </trkpt>
      <trkpt lat="47.94917" lon="7.07119">
        <ele>1212.6</ele>
        <time>2021-09-27T11:02:13.000Z</time>
      </trkpt>
      <trkpt lat="47.94916" lon="7.07105">
        <ele>1213.5</ele>
        <time>2021-09-27T11:02:21.000Z</time>
      </trkpt>
      <trkpt lat="47.94914" lon="7.07091">
        <ele>1214.1</ele>
        <time>2021-09-27T11:02:29.000Z</time>
      </trkpt>
      <trkpt lat="47.94912" lon="7.07078">
        <ele>1213.9</ele>
        <time>2021-09-27T11:02:38.000Z</time>
      </trkpt>
      <trkpt lat="47.94911" lon="7.07063">
        <ele>1213.5</ele>
        <time>2021-09-27T11:02:46.000Z</time>
      </trkpt>
      <trkpt lat="47.94911" lon="7.07048">
        <ele>1213.2</ele>
        <time>2021-09-27T11:02:54.000Z</time>
      </trkpt>
      <trkpt lat="47.94913" lon="7.07034">
        <ele>1213.5</ele>
        <time>2021-09-27T11:03:02.000Z</time>
      </trkpt>
      <trkpt lat="47.94914" lon="7.07019">
        <ele>1214</ele>
        <time>2021-09-27T11:03:11.000Z</time>
      </trkpt>
      <trkpt lat="47.94916" lon="7.07005">
        <ele>1214.9</ele>
        <time>2021-09-27T11:03:18.000Z</time>
      </trkpt>
      <trkpt lat="47.9492" lon="7.06992">
        <ele>1215</ele>
        <time>2021-09-27T11:03:25.000Z</time>
      </trkpt>
      <trkpt lat="47.94925" lon="7.06979">
        <ele>1214.6</ele>
        <time>2021-09-27T11:03:32.000Z</time>
      </trkpt>
      <trkpt lat="47.9493" lon="7.06966">
        <ele>1214.4</ele>
        <time>2021-09-27T11:03:40.000Z</time>
      </trkpt>
      <trkpt lat="47.94936" lon="7.06955">
        <ele>1214.9</ele>
        <time>2021-09-27T11:03:47.000Z</time>
      </trkpt>
      <trkpt lat="47.94938" lon="7.06941">
        <ele>1213.8</ele>
        <time>2021-09-27T11:03:54.000Z</time>
      </trkpt>
      <trkpt lat="47.94943" lon="7.06929">
        <ele>1213.9</ele>
        <time>2021-09-27T11:04:03.000Z</time>
      </trkpt>
      <trkpt lat="47.94947" lon="7.06917">
        <ele>1213.8</ele>
        <time>2021-09-27T11:04:11.000Z</time>
      </trkpt>
      <trkpt lat="47.9495" lon="7.06904">
        <ele>1213.4</ele>
        <time>2021-09-27T11:04:18.000Z</time>
      </trkpt>
      <trkpt lat="47.94953" lon="7.06891">
        <ele>1212.8</ele>
        <time>2021-09-27T11:04:25.000Z</time>
      </trkpt>
      <trkpt lat="47.94959" lon="7.06879">
        <ele>1213.5</ele>
        <time>2021-09-27T11:04:33.000Z</time>
      </trkpt>
      <trkpt lat="47.94964" lon="7.06867">
        <ele>1213.8</ele>
        <time>2021-09-27T11:04:40.000Z</time>
      </trkpt>
      <trkpt lat="47.94967" lon="7.06853">
        <ele>1213.1</ele>
        <time>2021-09-27T11:04:48.000Z</time>
      </trkpt>
      <trkpt lat="47.94972" lon="7.06839">
        <ele>1213.2</ele>
        <time>2021-09-27T11:04:56.000Z</time>
      </trkpt>
      <trkpt lat="47.94972" lon="7.06823">
        <ele>1211.3</ele>
        <time>2021-09-27T11:05:01.000Z</time>
      </trkpt>
      <trkpt lat="47.94977" lon="7.06812">
        <ele>1211.6</ele>
        <time>2021-09-27T11:05:08.000Z</time>
      </trkpt>
      <trkpt lat="47.94984" lon="7.06801">
        <ele>1212.5</ele>
        <time>2021-09-27T11:05:15.000Z</time>
      </trkpt>
      <trkpt lat="47.94991" lon="7.0679">
        <ele>1213.5</ele>
        <time>2021-09-27T11:05:21.000Z</time>
      </trkpt>
      <trkpt lat="47.94996" lon="7.06777">
        <ele>1213.4</ele>
        <time>2021-09-27T11:05:29.000Z</time>
      </trkpt>
      <trkpt lat="47.94998" lon="7.06763">
        <ele>1212.1</ele>
        <time>2021-09-27T11:05:37.000Z</time>
      </trkpt>
      <trkpt lat="47.94997" lon="7.0675">
        <ele>1209.9</ele>
        <time>2021-09-27T11:05:44.000Z</time>
      </trkpt>
      <trkpt lat="47.94998" lon="7.06736">
        <ele>1208.9</ele>
        <time>2021-09-27T11:05:53.000Z</time>
      </trkpt>
      <trkpt lat="47.95" lon="7.06722">
        <ele>1207.9</ele>
        <time>2021-09-27T11:06:00.000Z</time>
      </trkpt>
      <trkpt lat="47.95002" lon="7.06707">
        <ele>1206.4</ele>
        <time>2021-09-27T11:06:07.000Z</time>
      </trkpt>
      <trkpt lat="47.95005" lon="7.06694">
        <ele>1205</ele>
        <time>2021-09-27T11:06:14.000Z</time>
      </trkpt>
      <trkpt lat="47.95006" lon="7.0668">
        <ele>1203.4</ele>
        <time>2021-09-27T11:06:23.000Z</time>
      </trkpt>
      <trkpt lat="47.95009" lon="7.06667">
        <ele>1202</ele>
        <time>2021-09-27T11:06:30.000Z</time>
      </trkpt>
      <trkpt lat="47.95015" lon="7.06654">
        <ele>1201</ele>
        <time>2021-09-27T11:06:37.000Z</time>
      </trkpt>
      <trkpt lat="47.95017" lon="7.0664">
        <ele>1199.9</ele>
        <time>2021-09-27T11:06:44.000Z</time>
      </trkpt>
      <trkpt lat="47.95019" lon="7.06627">
        <ele>1198.8</ele>
        <time>2021-09-27T11:06:52.000Z</time>
      </trkpt>
      <trkpt lat="47.95023" lon="7.06614">
        <ele>1197.5</ele>
        <time>2021-09-27T11:06:59.000Z</time>
      </trkpt>
      <trkpt lat="47.95024" lon="7.066">
        <ele>1196.1</ele>
        <time>2021-09-27T11:07:06.000Z</time>
      </trkpt>
      <trkpt lat="47.95027" lon="7.06586">
        <ele>1194.6</ele>
        <time>2021-09-27T11:07:15.000Z</time>
      </trkpt>
      <trkpt lat="47.95027" lon="7.06571">
        <ele>1194</ele>
        <time>2021-09-27T11:07:22.000Z</time>
      </trkpt>
      <trkpt lat="47.95028" lon="7.06557">
        <ele>1193.4</ele>
        <time>2021-09-27T11:07:31.000Z</time>
      </trkpt>
      <trkpt lat="47.9503" lon="7.06541">
        <ele>1192.6</ele>
        <time>2021-09-27T11:07:36.000Z</time>
      </trkpt>
      <trkpt lat="47.95029" lon="7.06527">
        <ele>1192.2</ele>
        <time>2021-09-27T11:07:42.000Z</time>
      </trkpt>
      <trkpt lat="47.95026" lon="7.06513">
        <ele>1192</ele>
        <time>2021-09-27T11:07:48.000Z</time>
      </trkpt>
      <trkpt lat="47.9503" lon="7.065">
        <ele>1191</ele>
        <time>2021-09-27T11:07:57.000Z</time>
      </trkpt>
      <trkpt lat="47.95035" lon="7.06488">
        <ele>1191.5</ele>
        <time>2021-09-27T11:08:04.000Z</time>
      </trkpt>
      <trkpt lat="47.95036" lon="7.06475">
        <ele>1192.7</ele>
        <time>2021-09-27T11:08:34.000Z</time>
      </trkpt>
      <trkpt lat="47.95026" lon="7.06472">
        <ele>1194.8</ele>
        <time>2021-09-27T11:09:10.000Z</time>
      </trkpt>
      <trkpt lat="47.9502" lon="7.06461">
        <ele>1197.1</ele>
        <time>2021-09-27T11:09:15.000Z</time>
      </trkpt>
      <trkpt lat="47.95029" lon="7.06465">
        <ele>1195.2</ele>
        <time>2021-09-27T11:09:20.000Z</time>
      </trkpt>
      <trkpt lat="47.9504" lon="7.06466">
        <ele>1193.1</ele>
        <time>2021-09-27T11:09:29.000Z</time>
      </trkpt>
      <trkpt lat="47.95041" lon="7.06482">
        <ele>1191.1</ele>
        <time>2021-09-27T11:09:35.000Z</time>
      </trkpt>
      <trkpt lat="47.95032" lon="7.06487">
        <ele>1192.1</ele>
        <time>2021-09-27T11:09:40.000Z</time>
      </trkpt>
      <trkpt lat="47.95035" lon="7.06501">
        <ele>1190.1</ele>
        <time>2021-09-27T11:09:48.000Z</time>
      </trkpt>
      <trkpt lat="47.95044" lon="7.06493">
        <ele>1189.4</ele>
        <time>2021-09-27T11:10:01.000Z</time>
      </trkpt>
      <trkpt lat="47.9505" lon="7.06483">
        <ele>1189.4</ele>
        <time>2021-09-27T11:10:07.000Z</time>
      </trkpt>
      <trkpt lat="47.95052" lon="7.06469">
        <ele>1190.4</ele>
        <time>2021-09-27T11:10:15.000Z</time>
      </trkpt>
      <trkpt lat="47.95055" lon="7.06455">
        <ele>1191.6</ele>
        <time>2021-09-27T11:10:24.000Z</time>
      </trkpt>
      <trkpt lat="47.95055" lon="7.0644">
        <ele>1193</ele>
        <time>2021-09-27T11:10:35.000Z</time>
      </trkpt>
      <trkpt lat="47.95052" lon="7.06426">
        <ele>1195</ele>
        <time>2021-09-27T11:10:44.000Z</time>
      </trkpt>
      <trkpt lat="47.95048" lon="7.06414">
        <ele>1197.4</ele>
        <time>2021-09-27T11:10:57.000Z</time>
      </trkpt>
      <trkpt lat="47.95047" lon="7.064">
        <ele>1200.2</ele>
        <time>2021-09-27T11:11:12.000Z</time>
      </trkpt>
      <trkpt lat="47.95044" lon="7.06387">
        <ele>1203.2</ele>
        <time>2021-09-27T11:11:23.000Z</time>
      </trkpt>
      <trkpt lat="47.9504" lon="7.06374">
        <ele>1206.5</ele>
        <time>2021-09-27T11:11:35.000Z</time>
      </trkpt>
      <trkpt lat="47.95035" lon="7.06362">
        <ele>1210</ele>
        <time>2021-09-27T11:11:45.000Z</time>
      </trkpt>
      <trkpt lat="47.95027" lon="7.06357">
        <ele>1213.1</ele>
        <time>2021-09-27T11:12:01.000Z</time>
      </trkpt>
      <trkpt lat="47.9502" lon="7.06346">
        <ele>1217.1</ele>
        <time>2021-09-27T11:12:09.000Z</time>
      </trkpt>
      <trkpt lat="47.95013" lon="7.06335">
        <ele>1221.3</ele>
        <time>2021-09-27T11:12:17.000Z</time>
      </trkpt>
      <trkpt lat="47.95009" lon="7.06322">
        <ele>1225.5</ele>
        <time>2021-09-27T11:12:31.000Z</time>
      </trkpt>
      <trkpt lat="47.95003" lon="7.06311">
        <ele>1229.8</ele>
        <time>2021-09-27T11:12:43.000Z</time>
      </trkpt>
      <trkpt lat="47.94996" lon="7.06301">
        <ele>1232.5</ele>
        <time>2021-09-27T11:12:53.000Z</time>
      </trkpt>
      <trkpt lat="47.94991" lon="7.06289">
        <ele>1234.5</ele>
        <time>2021-09-27T11:13:03.000Z</time>
      </trkpt>
      <trkpt lat="47.94984" lon="7.06279">
        <ele>1235.7</ele>
        <time>2021-09-27T11:13:17.000Z</time>
      </trkpt>
      <trkpt lat="47.94976" lon="7.06272">
        <ele>1235.8</ele>
        <time>2021-09-27T11:13:29.000Z</time>
      </trkpt>
      <trkpt lat="47.94968" lon="7.06266">
        <ele>1235.8</ele>
        <time>2021-09-27T11:13:41.000Z</time>
      </trkpt>
      <trkpt lat="47.94962" lon="7.06255">
        <ele>1237.4</ele>
        <time>2021-09-27T11:13:50.000Z</time>
      </trkpt>
      <trkpt lat="47.94959" lon="7.06243">
        <ele>1239.7</ele>
        <time>2021-09-27T11:14:01.000Z</time>
      </trkpt>
      <trkpt lat="47.94951" lon="7.06233">
        <ele>1240.4</ele>
        <time>2021-09-27T11:14:10.000Z</time>
      </trkpt>
      <trkpt lat="47.94944" lon="7.06225">
        <ele>1240.7</ele>
        <time>2021-09-27T11:14:20.000Z</time>
      </trkpt>
      <trkpt lat="47.94939" lon="7.06214">
        <ele>1242.4</ele>
        <time>2021-09-27T11:14:33.000Z</time>
      </trkpt>
      <trkpt lat="47.94934" lon="7.06201">
        <ele>1244.3</ele>
        <time>2021-09-27T11:14:44.000Z</time>
      </trkpt>
      <trkpt lat="47.94931" lon="7.06188">
        <ele>1246.7</ele>
        <time>2021-09-27T11:14:57.000Z</time>
      </trkpt>
      <trkpt lat="47.94926" lon="7.06176">
        <ele>1248.7</ele>
        <time>2021-09-27T11:15:07.000Z</time>
      </trkpt>
      <trkpt lat="47.94923" lon="7.06163">
        <ele>1250.6</ele>
        <time>2021-09-27T11:15:22.000Z</time>
      </trkpt>
      <trkpt lat="47.94919" lon="7.06151">
        <ele>1251.9</ele>
        <time>2021-09-27T11:15:34.000Z</time>
      </trkpt>
      <trkpt lat="47.94914" lon="7.06139">
        <ele>1252.4</ele>
        <time>2021-09-27T11:15:45.000Z</time>
      </trkpt>
      <trkpt lat="47.94914" lon="7.06124">
        <ele>1254.6</ele>
        <time>2021-09-27T11:15:54.000Z</time>
      </trkpt>
      <trkpt lat="47.94912" lon="7.0611">
        <ele>1256</ele>
        <time>2021-09-27T11:16:06.000Z</time>
      </trkpt>
      <trkpt lat="47.94908" lon="7.06097">
        <ele>1256.4</ele>
        <time>2021-09-27T11:16:15.000Z</time>
      </trkpt>
      <trkpt lat="47.94904" lon="7.06084">
        <ele>1257.1</ele>
        <time>2021-09-27T11:16:28.000Z</time>
      </trkpt>
      <trkpt lat="47.94905" lon="7.0607">
        <ele>1258.7</ele>
        <time>2021-09-27T11:16:40.000Z</time>
      </trkpt>
      <trkpt lat="47.94904" lon="7.06056">
        <ele>1260.1</ele>
        <time>2021-09-27T11:16:50.000Z</time>
      </trkpt>
      <trkpt lat="47.94904" lon="7.06041">
        <ele>1261.6</ele>
        <time>2021-09-27T11:17:02.000Z</time>
      </trkpt>
      <trkpt lat="47.94903" lon="7.06028">
        <ele>1262.3</ele>
        <time>2021-09-27T11:17:13.000Z</time>
      </trkpt>
      <trkpt lat="47.94903" lon="7.06014">
        <ele>1263.9</ele>
        <time>2021-09-27T11:17:25.000Z</time>
      </trkpt>
      <trkpt lat="47.94907" lon="7.06001">
        <ele>1267.1</ele>
        <time>2021-09-27T11:17:35.000Z</time>
      </trkpt>
      <trkpt lat="47.94906" lon="7.05988">
        <ele>1267.8</ele>
        <time>2021-09-27T11:17:47.000Z</time>
      </trkpt>
      <trkpt lat="47.94909" lon="7.05974">
        <ele>1270.3</ele>
        <time>2021-09-27T11:17:58.000Z</time>
      </trkpt>
      <trkpt lat="47.9491" lon="7.05988">
        <ele>1269.5</ele>
        <time>2021-09-27T11:18:38.000Z</time>
      </trkpt>
      <trkpt lat="47.94913" lon="7.06002">
        <ele>1269.9</ele>
        <time>2021-09-27T11:18:49.000Z</time>
      </trkpt>
      <trkpt lat="47.94918" lon="7.06012">
        <ele>1270.8</ele>
        <time>2021-09-27T11:18:59.000Z</time>
      </trkpt>
      <trkpt lat="47.94926" lon="7.0602">
        <ele>1271.4</ele>
        <time>2021-09-27T11:19:12.000Z</time>
      </trkpt>
      <trkpt lat="47.94931" lon="7.06008">
        <ele>1273.9</ele>
        <time>2021-09-27T11:19:22.000Z</time>
      </trkpt>
      <trkpt lat="47.94933" lon="7.05995">
        <ele>1275.9</ele>
        <time>2021-09-27T11:19:33.000Z</time>
      </trkpt>
      <trkpt lat="47.94934" lon="7.05981">
        <ele>1277.3</ele>
        <time>2021-09-27T11:19:41.000Z</time>
      </trkpt>
      <trkpt lat="47.94936" lon="7.05968">
        <ele>1279</ele>
        <time>2021-09-27T11:19:50.000Z</time>
      </trkpt>
      <trkpt lat="47.94938" lon="7.05954">
        <ele>1280.7</ele>
        <time>2021-09-27T11:20:04.000Z</time>
      </trkpt>
      <trkpt lat="47.94938" lon="7.0594">
        <ele>1282.2</ele>
        <time>2021-09-27T11:20:13.000Z</time>
      </trkpt>
      <trkpt lat="47.94936" lon="7.05925">
        <ele>1283</ele>
        <time>2021-09-27T11:20:26.000Z</time>
      </trkpt>
      <trkpt lat="47.94936" lon="7.05912">
        <ele>1284.4</ele>
        <time>2021-09-27T11:20:35.000Z</time>
      </trkpt>
      <trkpt lat="47.94936" lon="7.05897">
        <ele>1285.8</ele>
        <time>2021-09-27T11:20:46.000Z</time>
      </trkpt>
      <trkpt lat="47.94937" lon="7.05884">
        <ele>1287.6</ele>
        <time>2021-09-27T11:20:57.000Z</time>
      </trkpt>
      <trkpt lat="47.94938" lon="7.05871">
        <ele>1289.2</ele>
        <time>2021-09-27T11:21:06.000Z</time>
      </trkpt>
      <trkpt lat="47.94938" lon="7.05857">
        <ele>1290.8</ele>
        <time>2021-09-27T11:21:17.000Z</time>
      </trkpt>
      <trkpt lat="47.9494" lon="7.05843">
        <ele>1292.8</ele>
        <time>2021-09-27T11:21:27.000Z</time>
      </trkpt>
      <trkpt lat="47.94935" lon="7.05831">
        <ele>1292.5</ele>
        <time>2021-09-27T11:21:34.000Z</time>
      </trkpt>
      <trkpt lat="47.94932" lon="7.05818">
        <ele>1292.6</ele>
        <time>2021-09-27T11:21:48.000Z</time>
      </trkpt>
      <trkpt lat="47.94937" lon="7.0583">
        <ele>1293</ele>
        <time>2021-09-27T11:22:10.000Z</time>
      </trkpt>
      <trkpt lat="47.94942" lon="7.05841">
        <ele>1293.6</ele>
        <time>2021-09-27T11:22:22.000Z</time>
      </trkpt>
      <trkpt lat="47.94948" lon="7.05852">
        <ele>1294</ele>
        <time>2021-09-27T11:22:35.000Z</time>
      </trkpt>
      <trkpt lat="47.94958" lon="7.05846">
        <ele>1297.3</ele>
        <time>2021-09-27T11:22:46.000Z</time>
      </trkpt>
      <trkpt lat="47.94963" lon="7.05835">
        <ele>1300.1</ele>
        <time>2021-09-27T11:22:56.000Z</time>
      </trkpt>
      <trkpt lat="47.94966" lon="7.05822">
        <ele>1301.8</ele>
        <time>2021-09-27T11:23:11.000Z</time>
      </trkpt>
      <trkpt lat="47.94967" lon="7.05808">
        <ele>1302.9</ele>
        <time>2021-09-27T11:23:21.000Z</time>
      </trkpt>
      <trkpt lat="47.9497" lon="7.05795">
        <ele>1304.5</ele>
        <time>2021-09-27T11:23:32.000Z</time>
      </trkpt>
      <trkpt lat="47.94978" lon="7.05788">
        <ele>1307</ele>
        <time>2021-09-27T11:23:58.000Z</time>
      </trkpt>
      <trkpt lat="47.94987" lon="7.05783">
        <ele>1309.5</ele>
        <time>2021-09-27T11:24:12.000Z</time>
      </trkpt>
      <trkpt lat="47.94996" lon="7.05782">
        <ele>1311.9</ele>
        <time>2021-09-27T11:24:25.000Z</time>
      </trkpt>
      <trkpt lat="47.95" lon="7.05768">
        <ele>1313.3</ele>
        <time>2021-09-27T11:24:33.000Z</time>
      </trkpt>
      <trkpt lat="47.94998" lon="7.05754">
        <ele>1313.3</ele>
        <time>2021-09-27T11:24:39.000Z</time>
      </trkpt>
      <trkpt lat="47.94994" lon="7.0574">
        <ele>1312.6</ele>
        <time>2021-09-27T11:24:48.000Z</time>
      </trkpt>
      <trkpt lat="47.94992" lon="7.05726">
        <ele>1312.1</ele>
        <time>2021-09-27T11:24:56.000Z</time>
      </trkpt>
      <trkpt lat="47.94988" lon="7.05714">
        <ele>1311.4</ele>
        <time>2021-09-27T11:25:07.000Z</time>
      </trkpt>
      <trkpt lat="47.94984" lon="7.05702">
        <ele>1310.8</ele>
        <time>2021-09-27T11:25:13.000Z</time>
      </trkpt>
      <trkpt lat="47.94981" lon="7.05689">
        <ele>1310.6</ele>
        <time>2021-09-27T11:25:24.000Z</time>
      </trkpt>
      <trkpt lat="47.94977" lon="7.05676">
        <ele>1310.3</ele>
        <time>2021-09-27T11:25:37.000Z</time>
      </trkpt>
      <trkpt lat="47.94972" lon="7.05664">
        <ele>1310.1</ele>
        <time>2021-09-27T11:25:49.000Z</time>
      </trkpt>
      <trkpt lat="47.94966" lon="7.05653">
        <ele>1310</ele>
        <time>2021-09-27T11:26:02.000Z</time>
      </trkpt>
      <trkpt lat="47.94961" lon="7.05642">
        <ele>1310.2</ele>
        <time>2021-09-27T11:26:10.000Z</time>
      </trkpt>
      <trkpt lat="47.9496" lon="7.05628">
        <ele>1310.9</ele>
        <time>2021-09-27T11:26:22.000Z</time>
      </trkpt>
      <trkpt lat="47.9496" lon="7.05614">
        <ele>1311.8</ele>
        <time>2021-09-27T11:26:32.000Z</time>
      </trkpt>
      <trkpt lat="47.94957" lon="7.056">
        <ele>1312.4</ele>
        <time>2021-09-27T11:26:43.000Z</time>
      </trkpt>
      <trkpt lat="47.94948" lon="7.05597">
        <ele>1312.4</ele>
        <time>2021-09-27T11:26:52.000Z</time>
      </trkpt>
      <trkpt lat="47.94939" lon="7.05593">
        <ele>1312.5</ele>
        <time>2021-09-27T11:27:03.000Z</time>
      </trkpt>
      <trkpt lat="47.9493" lon="7.05597">
        <ele>1311.9</ele>
        <time>2021-09-27T11:31:45.000Z</time>
      </trkpt>
      <trkpt lat="47.94927" lon="7.0561">
        <ele>1310.5</ele>
        <time>2021-09-27T11:32:20.000Z</time>
      </trkpt>
      <trkpt lat="47.94931" lon="7.05598">
        <ele>1311.8</ele>
        <time>2021-09-27T11:32:26.000Z</time>
      </trkpt>
      <trkpt lat="47.94935" lon="7.05585">
        <ele>1313</ele>
        <time>2021-09-27T11:56:24.000Z</time>
      </trkpt>
      <trkpt lat="47.94943" lon="7.05591">
        <ele>1312.7</ele>
        <time>2021-09-27T11:58:38.000Z</time>
      </trkpt>
      <trkpt lat="47.94934" lon="7.05587">
        <ele>1312.9</ele>
        <time>2021-09-27T11:59:52.000Z</time>
      </trkpt>
      <trkpt lat="47.94932" lon="7.05601">
        <ele>1311.6</ele>
        <time>2021-09-27T12:05:50.000Z</time>
      </trkpt>
      <trkpt lat="47.94919" lon="7.05653">
        <ele>1305.7</ele>
        <time>2021-09-27T12:05:55.000Z</time>
      </trkpt>
      <trkpt lat="47.94927" lon="7.05664">
        <ele>1305.3</ele>
        <time>2021-09-27T12:06:00.000Z</time>
      </trkpt>
      <trkpt lat="47.94935" lon="7.05639">
        <ele>1308.3</ele>
        <time>2021-09-27T12:06:05.000Z</time>
      </trkpt>
      <trkpt lat="47.94935" lon="7.05622">
        <ele>1309.9</ele>
        <time>2021-09-27T12:06:10.000Z</time>
      </trkpt>
      <trkpt lat="47.94935" lon="7.056">
        <ele>1311.7</ele>
        <time>2021-09-27T12:06:17.000Z</time>
      </trkpt>
      <trkpt lat="47.94937" lon="7.05587">
        <ele>1312.9</ele>
        <time>2021-09-27T12:11:44.000Z</time>
      </trkpt>
      <trkpt lat="47.94945" lon="7.05582">
        <ele>1313.2</ele>
        <time>2021-09-27T12:17:30.000Z</time>
      </trkpt>
      <trkpt lat="47.94944" lon="7.05568">
        <ele>1312.4</ele>
        <time>2021-09-27T12:17:44.000Z</time>
      </trkpt>
      <trkpt lat="47.94939" lon="7.05555">
        <ele>1311.8</ele>
        <time>2021-09-27T12:17:54.000Z</time>
      </trkpt>
      <trkpt lat="47.94933" lon="7.05544">
        <ele>1311.3</ele>
        <time>2021-09-27T12:18:05.000Z</time>
      </trkpt>
      <trkpt lat="47.94925" lon="7.05538">
        <ele>1311.2</ele>
        <time>2021-09-27T12:18:14.000Z</time>
      </trkpt>
      <trkpt lat="47.9492" lon="7.05526">
        <ele>1310.9</ele>
        <time>2021-09-27T12:18:22.000Z</time>
      </trkpt>
      <trkpt lat="47.94915" lon="7.05513">
        <ele>1310.2</ele>
        <time>2021-09-27T12:18:30.000Z</time>
      </trkpt>
      <trkpt lat="47.94909" lon="7.05502">
        <ele>1308.9</ele>
        <time>2021-09-27T12:18:37.000Z</time>
      </trkpt>
      <trkpt lat="47.94902" lon="7.05492">
        <ele>1307.3</ele>
        <time>2021-09-27T12:18:44.000Z</time>
      </trkpt>
      <trkpt lat="47.94895" lon="7.05482">
        <ele>1305.9</ele>
        <time>2021-09-27T12:18:51.000Z</time>
      </trkpt>
      <trkpt lat="47.94889" lon="7.05472">
        <ele>1304.8</ele>
        <time>2021-09-27T12:18:58.000Z</time>
      </trkpt>
      <trkpt lat="47.94882" lon="7.05462">
        <ele>1303.8</ele>
        <time>2021-09-27T12:19:06.000Z</time>
      </trkpt>
      <trkpt lat="47.94875" lon="7.05451">
        <ele>1303.1</ele>
        <time>2021-09-27T12:19:14.000Z</time>
      </trkpt>
      <trkpt lat="47.94868" lon="7.05441">
        <ele>1302.7</ele>
        <time>2021-09-27T12:19:23.000Z</time>
      </trkpt>
      <trkpt lat="47.9486" lon="7.05431">
        <ele>1302.5</ele>
        <time>2021-09-27T12:19:31.000Z</time>
      </trkpt>
      <trkpt lat="47.94853" lon="7.05421">
        <ele>1302.7</ele>
        <time>2021-09-27T12:19:38.000Z</time>
      </trkpt>
      <trkpt lat="47.94846" lon="7.05412">
        <ele>1302.6</ele>
        <time>2021-09-27T12:19:45.000Z</time>
      </trkpt>
      <trkpt lat="47.9484" lon="7.054">
        <ele>1302.2</ele>
        <time>2021-09-27T12:19:52.000Z</time>
      </trkpt>
      <trkpt lat="47.94834" lon="7.0539">
        <ele>1302</ele>
        <time>2021-09-27T12:20:00.000Z</time>
      </trkpt>
      <trkpt lat="47.94826" lon="7.05382">
        <ele>1301.6</ele>
        <time>2021-09-27T12:20:08.000Z</time>
      </trkpt>
      <trkpt lat="47.94818" lon="7.05373">
        <ele>1301.1</ele>
        <time>2021-09-27T12:20:17.000Z</time>
      </trkpt>
      <trkpt lat="47.94813" lon="7.05361">
        <ele>1300.6</ele>
        <time>2021-09-27T12:20:27.000Z</time>
      </trkpt>
      <trkpt lat="47.94807" lon="7.0535">
        <ele>1300.2</ele>
        <time>2021-09-27T12:20:35.000Z</time>
      </trkpt>
      <trkpt lat="47.94799" lon="7.05341">
        <ele>1299.8</ele>
        <time>2021-09-27T12:20:42.000Z</time>
      </trkpt>
      <trkpt lat="47.94793" lon="7.05329">
        <ele>1299.2</ele>
        <time>2021-09-27T12:20:49.000Z</time>
      </trkpt>
      <trkpt lat="47.94787" lon="7.05318">
        <ele>1298.2</ele>
        <time>2021-09-27T12:20:58.000Z</time>
      </trkpt>
      <trkpt lat="47.94786" lon="7.05304">
        <ele>1297</ele>
        <time>2021-09-27T12:21:07.000Z</time>
      </trkpt>
      <trkpt lat="47.94784" lon="7.0529">
        <ele>1295.9</ele>
        <time>2021-09-27T12:21:16.000Z</time>
      </trkpt>
      <trkpt lat="47.94783" lon="7.05274">
        <ele>1294.6</ele>
        <time>2021-09-27T12:21:25.000Z</time>
      </trkpt>
      <trkpt lat="47.94781" lon="7.05261">
        <ele>1293.5</ele>
        <time>2021-09-27T12:21:31.000Z</time>
      </trkpt>
      <trkpt lat="47.9478" lon="7.05247">
        <ele>1292.4</ele>
        <time>2021-09-27T12:21:38.000Z</time>
      </trkpt>
      <trkpt lat="47.9478" lon="7.05232">
        <ele>1291.1</ele>
        <time>2021-09-27T12:21:47.000Z</time>
      </trkpt>
      <trkpt lat="47.94774" lon="7.05221">
        <ele>1290.3</ele>
        <time>2021-09-27T12:21:57.000Z</time>
      </trkpt>
      <trkpt lat="47.94777" lon="7.05208">
        <ele>1289.1</ele>
        <time>2021-09-27T12:22:05.000Z</time>
      </trkpt>
      <trkpt lat="47.94776" lon="7.05194">
        <ele>1288</ele>
        <time>2021-09-27T12:22:14.000Z</time>
      </trkpt>
      <trkpt lat="47.94776" lon="7.05178">
        <ele>1286.6</ele>
        <time>2021-09-27T12:22:23.000Z</time>
      </trkpt>
      <trkpt lat="47.94777" lon="7.05164">
        <ele>1285.4</ele>
        <time>2021-09-27T12:22:30.000Z</time>
      </trkpt>
      <trkpt lat="47.94778" lon="7.0515">
        <ele>1284</ele>
        <time>2021-09-27T12:22:38.000Z</time>
      </trkpt>
      <trkpt lat="47.9478" lon="7.05137">
        <ele>1282.6</ele>
        <time>2021-09-27T12:22:46.000Z</time>
      </trkpt>
      <trkpt lat="47.94781" lon="7.05123">
        <ele>1281.1</ele>
        <time>2021-09-27T12:22:55.000Z</time>
      </trkpt>
      <trkpt lat="47.94778" lon="7.0511">
        <ele>1279.7</ele>
        <time>2021-09-27T12:23:03.000Z</time>
      </trkpt>
      <trkpt lat="47.94775" lon="7.05097">
        <ele>1278.5</ele>
        <time>2021-09-27T12:23:09.000Z</time>
      </trkpt>
      <trkpt lat="47.94775" lon="7.05083">
        <ele>1277</ele>
        <time>2021-09-27T12:23:18.000Z</time>
      </trkpt>
      <trkpt lat="47.94779" lon="7.0507">
        <ele>1275.8</ele>
        <time>2021-09-27T12:23:25.000Z</time>
      </trkpt>
      <trkpt lat="47.94778" lon="7.05056">
        <ele>1274.6</ele>
        <time>2021-09-27T12:23:35.000Z</time>
      </trkpt>
      <trkpt lat="47.94779" lon="7.05041">
        <ele>1273.2</ele>
        <time>2021-09-27T12:23:42.000Z</time>
      </trkpt>
      <trkpt lat="47.94779" lon="7.05027">
        <ele>1272</ele>
        <time>2021-09-27T12:23:51.000Z</time>
      </trkpt>
      <trkpt lat="47.94781" lon="7.05014">
        <ele>1270.7</ele>
        <time>2021-09-27T12:23:58.000Z</time>
      </trkpt>
      <trkpt lat="47.94784" lon="7.05">
        <ele>1269.4</ele>
        <time>2021-09-27T12:24:06.000Z</time>
      </trkpt>
      <trkpt lat="47.94783" lon="7.04985">
        <ele>1267.7</ele>
        <time>2021-09-27T12:24:19.000Z</time>
      </trkpt>
      <trkpt lat="47.94787" lon="7.04972">
        <ele>1266</ele>
        <time>2021-09-27T12:24:28.000Z</time>
      </trkpt>
      <trkpt lat="47.94791" lon="7.04958">
        <ele>1264.3</ele>
        <time>2021-09-27T12:24:36.000Z</time>
      </trkpt>
      <trkpt lat="47.94794" lon="7.04945">
        <ele>1262.6</ele>
        <time>2021-09-27T12:24:45.000Z</time>
      </trkpt>
      <trkpt lat="47.94798" lon="7.04932">
        <ele>1260.9</ele>
        <time>2021-09-27T12:24:53.000Z</time>
      </trkpt>
      <trkpt lat="47.94804" lon="7.04921">
        <ele>1259.3</ele>
        <time>2021-09-27T12:25:02.000Z</time>
      </trkpt>
      <trkpt lat="47.94803" lon="7.04907">
        <ele>1256.5</ele>
        <time>2021-09-27T12:25:13.000Z</time>
      </trkpt>
      <trkpt lat="47.94804" lon="7.04893">
        <ele>1253</ele>
        <time>2021-09-27T12:25:23.000Z</time>
      </trkpt>
      <trkpt lat="47.94804" lon="7.04879">
        <ele>1249.8</ele>
        <time>2021-09-27T12:25:33.000Z</time>
      </trkpt>
      <trkpt lat="47.94801" lon="7.04866">
        <ele>1247</ele>
        <time>2021-09-27T12:25:43.000Z</time>
      </trkpt>
      <trkpt lat="47.94797" lon="7.04852">
        <ele>1244.1</ele>
        <time>2021-09-27T12:25:55.000Z</time>
      </trkpt>
      <trkpt lat="47.94797" lon="7.04838">
        <ele>1241</ele>
        <time>2021-09-27T12:26:04.000Z</time>
      </trkpt>
      <trkpt lat="47.94793" lon="7.04826">
        <ele>1238.7</ele>
        <time>2021-09-27T12:26:16.000Z</time>
      </trkpt>
      <trkpt lat="47.94793" lon="7.04811">
        <ele>1235.8</ele>
        <time>2021-09-27T12:26:26.000Z</time>
      </trkpt>
      <trkpt lat="47.94786" lon="7.04799">
        <ele>1234.4</ele>
        <time>2021-09-27T12:26:38.000Z</time>
      </trkpt>
      <trkpt lat="47.94782" lon="7.04787">
        <ele>1232.7</ele>
        <time>2021-09-27T12:26:48.000Z</time>
      </trkpt>
      <trkpt lat="47.9478" lon="7.04774">
        <ele>1230.5</ele>
        <time>2021-09-27T12:26:58.000Z</time>
      </trkpt>
      <trkpt lat="47.94784" lon="7.04761">
        <ele>1227.2</ele>
        <time>2021-09-27T12:27:11.000Z</time>
      </trkpt>
      <trkpt lat="47.94785" lon="7.04747">
        <ele>1224.4</ele>
        <time>2021-09-27T12:27:20.000Z</time>
      </trkpt>
      <trkpt lat="47.94785" lon="7.04733">
        <ele>1222.1</ele>
        <time>2021-09-27T12:27:30.000Z</time>
      </trkpt>
      <trkpt lat="47.94794" lon="7.04731">
        <ele>1220</ele>
        <time>2021-09-27T12:27:43.000Z</time>
      </trkpt>
      <trkpt lat="47.94804" lon="7.04731">
        <ele>1218.2</ele>
        <time>2021-09-27T12:28:03.000Z</time>
      </trkpt>
      <trkpt lat="47.9482" lon="7.04723">
        <ele>1214.3</ele>
        <time>2021-09-27T12:28:46.000Z</time>
      </trkpt>
      <trkpt lat="47.94813" lon="7.04681">
        <ele>1209.6</ele>
        <time>2021-09-27T12:28:51.000Z</time>
      </trkpt>
      <trkpt lat="47.94818" lon="7.04655">
        <ele>1206.6</ele>
        <time>2021-09-27T12:28:56.000Z</time>
      </trkpt>
      <trkpt lat="47.94819" lon="7.04671">
        <ele>1207.5</ele>
        <time>2021-09-27T12:29:02.000Z</time>
      </trkpt>
      <trkpt lat="47.94817" lon="7.04685">
        <ele>1209.6</ele>
        <time>2021-09-27T12:29:07.000Z</time>
      </trkpt>
      <trkpt lat="47.94814" lon="7.04712">
        <ele>1213.8</ele>
        <time>2021-09-27T12:29:12.000Z</time>
      </trkpt>
      <trkpt lat="47.94804" lon="7.04708">
        <ele>1214.8</ele>
        <time>2021-09-27T12:30:03.000Z</time>
      </trkpt>
      <trkpt lat="47.94796" lon="7.04701">
        <ele>1215.1</ele>
        <time>2021-09-27T12:30:11.000Z</time>
      </trkpt>
      <trkpt lat="47.9479" lon="7.04689">
        <ele>1214.3</ele>
        <time>2021-09-27T12:30:19.000Z</time>
      </trkpt>
      <trkpt lat="47.94793" lon="7.04676">
        <ele>1211.9</ele>
        <time>2021-09-27T12:30:27.000Z</time>
      </trkpt>
      <trkpt lat="47.94794" lon="7.04662">
        <ele>1209.8</ele>
        <time>2021-09-27T12:30:33.000Z</time>
      </trkpt>
      <trkpt lat="47.94796" lon="7.04648">
        <ele>1208.7</ele>
        <time>2021-09-27T12:30:40.000Z</time>
      </trkpt>
      <trkpt lat="47.94796" lon="7.04633">
        <ele>1207.7</ele>
        <time>2021-09-27T12:30:48.000Z</time>
      </trkpt>
      <trkpt lat="47.94799" lon="7.0462">
        <ele>1206.7</ele>
        <time>2021-09-27T12:30:55.000Z</time>
      </trkpt>
      <trkpt lat="47.94803" lon="7.04608">
        <ele>1205.7</ele>
        <time>2021-09-27T12:31:05.000Z</time>
      </trkpt>
      <trkpt lat="47.94805" lon="7.04594">
        <ele>1204.9</ele>
        <time>2021-09-27T12:31:11.000Z</time>
      </trkpt>
      <trkpt lat="47.9481" lon="7.04583">
        <ele>1204.3</ele>
        <time>2021-09-27T12:31:18.000Z</time>
      </trkpt>
      <trkpt lat="47.94815" lon="7.04571">
        <ele>1204.4</ele>
        <time>2021-09-27T12:31:37.000Z</time>
      </trkpt>
      <trkpt lat="47.94808" lon="7.0456">
        <ele>1204.5</ele>
        <time>2021-09-27T12:31:45.000Z</time>
      </trkpt>
      <trkpt lat="47.94801" lon="7.04551">
        <ele>1204.3</ele>
        <time>2021-09-27T12:32:21.000Z</time>
      </trkpt>
      <trkpt lat="47.94794" lon="7.04542">
        <ele>1204.1</ele>
        <time>2021-09-27T12:32:27.000Z</time>
      </trkpt>
      <trkpt lat="47.94788" lon="7.04532">
        <ele>1203.7</ele>
        <time>2021-09-27T12:32:35.000Z</time>
      </trkpt>
      <trkpt lat="47.94794" lon="7.04521">
        <ele>1203.9</ele>
        <time>2021-09-27T12:32:53.000Z</time>
      </trkpt>
      <trkpt lat="47.94799" lon="7.04509">
        <ele>1204.1</ele>
        <time>2021-09-27T12:33:01.000Z</time>
      </trkpt>
      <trkpt lat="47.94805" lon="7.04498">
        <ele>1204.7</ele>
        <time>2021-09-27T12:33:11.000Z</time>
      </trkpt>
      <trkpt lat="47.94811" lon="7.04487">
        <ele>1205.8</ele>
        <time>2021-09-27T12:33:19.000Z</time>
      </trkpt>
      <trkpt lat="47.94817" lon="7.04476">
        <ele>1207</ele>
        <time>2021-09-27T12:33:26.000Z</time>
      </trkpt>
      <trkpt lat="47.9482" lon="7.04462">
        <ele>1208.1</ele>
        <time>2021-09-27T12:33:35.000Z</time>
      </trkpt>
      <trkpt lat="47.94824" lon="7.0445">
        <ele>1209.4</ele>
        <time>2021-09-27T12:33:42.000Z</time>
      </trkpt>
      <trkpt lat="47.94827" lon="7.04437">
        <ele>1210.7</ele>
        <time>2021-09-27T12:33:50.000Z</time>
      </trkpt>
      <trkpt lat="47.9483" lon="7.04424">
        <ele>1212</ele>
        <time>2021-09-27T12:33:59.000Z</time>
      </trkpt>
      <trkpt lat="47.94832" lon="7.0441">
        <ele>1213.1</ele>
        <time>2021-09-27T12:34:07.000Z</time>
      </trkpt>
      <trkpt lat="47.94835" lon="7.04398">
        <ele>1213.6</ele>
        <time>2021-09-27T12:34:14.000Z</time>
      </trkpt>
      <trkpt lat="47.94838" lon="7.04385">
        <ele>1213.7</ele>
        <time>2021-09-27T12:34:22.000Z</time>
      </trkpt>
      <trkpt lat="47.94841" lon="7.04371">
        <ele>1214.1</ele>
        <time>2021-09-27T12:34:30.000Z</time>
      </trkpt>
      <trkpt lat="47.94845" lon="7.04358">
        <ele>1214.4</ele>
        <time>2021-09-27T12:34:39.000Z</time>
      </trkpt>
      <trkpt lat="47.94849" lon="7.04345">
        <ele>1214.7</ele>
        <time>2021-09-27T12:34:47.000Z</time>
      </trkpt>
      <trkpt lat="47.94852" lon="7.04331">
        <ele>1215.4</ele>
        <time>2021-09-27T12:34:56.000Z</time>
      </trkpt>
      <trkpt lat="47.94856" lon="7.04318">
        <ele>1215.6</ele>
        <time>2021-09-27T12:35:05.000Z</time>
      </trkpt>
      <trkpt lat="47.94858" lon="7.04304">
        <ele>1216.2</ele>
        <time>2021-09-27T12:35:14.000Z</time>
      </trkpt>
      <trkpt lat="47.94861" lon="7.04291">
        <ele>1216.9</ele>
        <time>2021-09-27T12:35:22.000Z</time>
      </trkpt>
      <trkpt lat="47.94864" lon="7.04277">
        <ele>1217.8</ele>
        <time>2021-09-27T12:35:31.000Z</time>
      </trkpt>
      <trkpt lat="47.94869" lon="7.04265">
        <ele>1218.9</ele>
        <time>2021-09-27T12:35:38.000Z</time>
      </trkpt>
      <trkpt lat="47.94873" lon="7.0425">
        <ele>1220.3</ele>
        <time>2021-09-27T12:35:47.000Z</time>
      </trkpt>
      <trkpt lat="47.94876" lon="7.04237">
        <ele>1221</ele>
        <time>2021-09-27T12:35:56.000Z</time>
      </trkpt>
      <trkpt lat="47.94879" lon="7.04225">
        <ele>1221.8</ele>
        <time>2021-09-27T12:36:07.000Z</time>
      </trkpt>
      <trkpt lat="47.94882" lon="7.04212">
        <ele>1222.7</ele>
        <time>2021-09-27T12:36:16.000Z</time>
      </trkpt>
      <trkpt lat="47.94885" lon="7.04198">
        <ele>1223.6</ele>
        <time>2021-09-27T12:36:23.000Z</time>
      </trkpt>
      <trkpt lat="47.94889" lon="7.04184">
        <ele>1224.7</ele>
        <time>2021-09-27T12:36:31.000Z</time>
      </trkpt>
      <trkpt lat="47.9489" lon="7.04169">
        <ele>1225.7</ele>
        <time>2021-09-27T12:36:40.000Z</time>
      </trkpt>
      <trkpt lat="47.94893" lon="7.04155">
        <ele>1226.6</ele>
        <time>2021-09-27T12:36:48.000Z</time>
      </trkpt>
      <trkpt lat="47.94898" lon="7.04142">
        <ele>1227.9</ele>
        <time>2021-09-27T12:36:56.000Z</time>
      </trkpt>
      <trkpt lat="47.94901" lon="7.0413">
        <ele>1229.1</ele>
        <time>2021-09-27T12:37:04.000Z</time>
      </trkpt>
      <trkpt lat="47.94905" lon="7.04117">
        <ele>1230.2</ele>
        <time>2021-09-27T12:37:11.000Z</time>
      </trkpt>
      <trkpt lat="47.94909" lon="7.04104">
        <ele>1231.5</ele>
        <time>2021-09-27T12:37:20.000Z</time>
      </trkpt>
      <trkpt lat="47.94912" lon="7.04091">
        <ele>1232.6</ele>
        <time>2021-09-27T12:37:28.000Z</time>
      </trkpt>
      <trkpt lat="47.94914" lon="7.04077">
        <ele>1233.3</ele>
        <time>2021-09-27T12:37:36.000Z</time>
      </trkpt>
      <trkpt lat="47.94917" lon="7.04063">
        <ele>1233.5</ele>
        <time>2021-09-27T12:37:44.000Z</time>
      </trkpt>
      <trkpt lat="47.94921" lon="7.0405">
        <ele>1233.8</ele>
        <time>2021-09-27T12:37:52.000Z</time>
      </trkpt>
      <trkpt lat="47.94924" lon="7.04036">
        <ele>1233.9</ele>
        <time>2021-09-27T12:38:01.000Z</time>
      </trkpt>
      <trkpt lat="47.94928" lon="7.04023">
        <ele>1234.2</ele>
        <time>2021-09-27T12:38:09.000Z</time>
      </trkpt>
      <trkpt lat="47.94933" lon="7.04011">
        <ele>1234.8</ele>
        <time>2021-09-27T12:38:18.000Z</time>
      </trkpt>
      <trkpt lat="47.94938" lon="7.03998">
        <ele>1235.6</ele>
        <time>2021-09-27T12:38:27.000Z</time>
      </trkpt>
      <trkpt lat="47.94945" lon="7.03989">
        <ele>1236.8</ele>
        <time>2021-09-27T12:38:36.000Z</time>
      </trkpt>
      <trkpt lat="47.9495" lon="7.03977">
        <ele>1237.7</ele>
        <time>2021-09-27T12:38:43.000Z</time>
      </trkpt>
      <trkpt lat="47.94956" lon="7.03965">
        <ele>1238.8</ele>
        <time>2021-09-27T12:38:51.000Z</time>
      </trkpt>
      <trkpt lat="47.9496" lon="7.03952">
        <ele>1239.6</ele>
        <time>2021-09-27T12:39:02.000Z</time>
      </trkpt>
      <trkpt lat="47.94966" lon="7.03939">
        <ele>1240.8</ele>
        <time>2021-09-27T12:39:10.000Z</time>
      </trkpt>
      <trkpt lat="47.94973" lon="7.03928">
        <ele>1242</ele>
        <time>2021-09-27T12:39:17.000Z</time>
      </trkpt>
      <trkpt lat="47.94977" lon="7.03916">
        <ele>1242.8</ele>
        <time>2021-09-27T12:39:27.000Z</time>
      </trkpt>
      <trkpt lat="47.94983" lon="7.03904">
        <ele>1243.4</ele>
        <time>2021-09-27T12:39:38.000Z</time>
      </trkpt>
      <trkpt lat="47.9499" lon="7.03894">
        <ele>1244.2</ele>
        <time>2021-09-27T12:39:44.000Z</time>
      </trkpt>
      <trkpt lat="47.94997" lon="7.03884">
        <ele>1244.9</ele>
        <time>2021-09-27T12:39:50.000Z</time>
      </trkpt>
      <trkpt lat="47.95002" lon="7.03874">
        <ele>1245.2</ele>
        <time>2021-09-27T12:39:58.000Z</time>
      </trkpt>
      <trkpt lat="47.95008" lon="7.03863">
        <ele>1245.4</ele>
        <time>2021-09-27T12:40:05.000Z</time>
      </trkpt>
      <trkpt lat="47.95013" lon="7.03852">
        <ele>1245.5</ele>
        <time>2021-09-27T12:40:11.000Z</time>
      </trkpt>
      <trkpt lat="47.9502" lon="7.03841">
        <ele>1246</ele>
        <time>2021-09-27T12:40:20.000Z</time>
      </trkpt>
      <trkpt lat="47.95026" lon="7.03829">
        <ele>1246.2</ele>
        <time>2021-09-27T12:40:27.000Z</time>
      </trkpt>
      <trkpt lat="47.95032" lon="7.03818">
        <ele>1246.3</ele>
        <time>2021-09-27T12:40:35.000Z</time>
      </trkpt>
      <trkpt lat="47.95035" lon="7.03805">
        <ele>1246.1</ele>
        <time>2021-09-27T12:40:45.000Z</time>
      </trkpt>
      <trkpt lat="47.95042" lon="7.03795">
        <ele>1246.5</ele>
        <time>2021-09-27T12:40:52.000Z</time>
      </trkpt>
      <trkpt lat="47.95049" lon="7.03786">
        <ele>1247</ele>
        <time>2021-09-27T12:40:58.000Z</time>
      </trkpt>
      <trkpt lat="47.95053" lon="7.03774">
        <ele>1246.9</ele>
        <time>2021-09-27T12:41:08.000Z</time>
      </trkpt>
      <trkpt lat="47.95059" lon="7.03762">
        <ele>1247</ele>
        <time>2021-09-27T12:41:17.000Z</time>
      </trkpt>
      <trkpt lat="47.95064" lon="7.03749">
        <ele>1247.1</ele>
        <time>2021-09-27T12:41:25.000Z</time>
      </trkpt>
      <trkpt lat="47.95069" lon="7.03738">
        <ele>1246.7</ele>
        <time>2021-09-27T12:41:32.000Z</time>
      </trkpt>
      <trkpt lat="47.95074" lon="7.03726">
        <ele>1246.4</ele>
        <time>2021-09-27T12:41:40.000Z</time>
      </trkpt>
      <trkpt lat="47.95079" lon="7.03713">
        <ele>1245.8</ele>
        <time>2021-09-27T12:41:49.000Z</time>
      </trkpt>
      <trkpt lat="47.95085" lon="7.03702">
        <ele>1245.7</ele>
        <time>2021-09-27T12:41:59.000Z</time>
      </trkpt>
      <trkpt lat="47.95091" lon="7.03691">
        <ele>1245.5</ele>
        <time>2021-09-27T12:42:07.000Z</time>
      </trkpt>
      <trkpt lat="47.95095" lon="7.0368">
        <ele>1245.2</ele>
        <time>2021-09-27T12:42:14.000Z</time>
      </trkpt>
      <trkpt lat="47.95102" lon="7.03669">
        <ele>1245.3</ele>
        <time>2021-09-27T12:42:20.000Z</time>
      </trkpt>
      <trkpt lat="47.95107" lon="7.03658">
        <ele>1245.6</ele>
        <time>2021-09-27T12:42:27.000Z</time>
      </trkpt>
      <trkpt lat="47.95113" lon="7.03646">
        <ele>1246.2</ele>
        <time>2021-09-27T12:42:38.000Z</time>
      </trkpt>
      <trkpt lat="47.9512" lon="7.03635">
        <ele>1246.9</ele>
        <time>2021-09-27T12:42:46.000Z</time>
      </trkpt>
      <trkpt lat="47.95123" lon="7.03621">
        <ele>1246.9</ele>
        <time>2021-09-27T12:42:55.000Z</time>
      </trkpt>
      <trkpt lat="47.95128" lon="7.03608">
        <ele>1247.4</ele>
        <time>2021-09-27T12:43:03.000Z</time>
      </trkpt>
      <trkpt lat="47.95133" lon="7.03597">
        <ele>1248</ele>
        <time>2021-09-27T12:43:11.000Z</time>
      </trkpt>
      <trkpt lat="47.95141" lon="7.03587">
        <ele>1249.2</ele>
        <time>2021-09-27T12:43:18.000Z</time>
      </trkpt>
      <trkpt lat="47.95146" lon="7.03575">
        <ele>1249.6</ele>
        <time>2021-09-27T12:43:27.000Z</time>
      </trkpt>
      <trkpt lat="47.95149" lon="7.03562">
        <ele>1249.4</ele>
        <time>2021-09-27T12:43:34.000Z</time>
      </trkpt>
      <trkpt lat="47.95153" lon="7.03548">
        <ele>1249.4</ele>
        <time>2021-09-27T12:43:42.000Z</time>
      </trkpt>
      <trkpt lat="47.95158" lon="7.03536">
        <ele>1249.5</ele>
        <time>2021-09-27T12:43:49.000Z</time>
      </trkpt>
      <trkpt lat="47.9516" lon="7.03521">
        <ele>1249.1</ele>
        <time>2021-09-27T12:43:58.000Z</time>
      </trkpt>
      <trkpt lat="47.95165" lon="7.03508">
        <ele>1249.1</ele>
        <time>2021-09-27T12:44:06.000Z</time>
      </trkpt>
      <trkpt lat="47.95166" lon="7.03495">
        <ele>1248.8</ele>
        <time>2021-09-27T12:44:14.000Z</time>
      </trkpt>
      <trkpt lat="47.95166" lon="7.03481">
        <ele>1248.5</ele>
        <time>2021-09-27T12:44:21.000Z</time>
      </trkpt>
      <trkpt lat="47.95168" lon="7.03468">
        <ele>1248.2</ele>
        <time>2021-09-27T12:44:29.000Z</time>
      </trkpt>
      <trkpt lat="47.95177" lon="7.03462">
        <ele>1248.2</ele>
        <time>2021-09-27T12:45:02.000Z</time>
      </trkpt>
      <trkpt lat="47.95179" lon="7.03449">
        <ele>1247.9</ele>
        <time>2021-09-27T12:45:09.000Z</time>
      </trkpt>
      <trkpt lat="47.9518" lon="7.03435">
        <ele>1247.4</ele>
        <time>2021-09-27T12:45:17.000Z</time>
      </trkpt>
      <trkpt lat="47.95179" lon="7.03421">
        <ele>1247</ele>
        <time>2021-09-27T12:45:24.000Z</time>
      </trkpt>
      <trkpt lat="47.95181" lon="7.03407">
        <ele>1247.2</ele>
        <time>2021-09-27T12:45:31.000Z</time>
      </trkpt>
      <trkpt lat="47.95184" lon="7.03394">
        <ele>1247.5</ele>
        <time>2021-09-27T12:45:39.000Z</time>
      </trkpt>
      <trkpt lat="47.95186" lon="7.0338">
        <ele>1247.8</ele>
        <time>2021-09-27T12:45:48.000Z</time>
      </trkpt>
      <trkpt lat="47.95189" lon="7.03365">
        <ele>1248.1</ele>
        <time>2021-09-27T12:45:56.000Z</time>
      </trkpt>
      <trkpt lat="47.9519" lon="7.03351">
        <ele>1248.4</ele>
        <time>2021-09-27T12:46:04.000Z</time>
      </trkpt>
      <trkpt lat="47.95184" lon="7.03338">
        <ele>1249.2</ele>
        <time>2021-09-27T12:46:13.000Z</time>
      </trkpt>
      <trkpt lat="47.95178" lon="7.03327">
        <ele>1249.9</ele>
        <time>2021-09-27T12:46:23.000Z</time>
      </trkpt>
      <trkpt lat="47.95173" lon="7.03316">
        <ele>1250.5</ele>
        <time>2021-09-27T12:46:31.000Z</time>
      </trkpt>
      <trkpt lat="47.95168" lon="7.03304">
        <ele>1251.2</ele>
        <time>2021-09-27T12:46:48.000Z</time>
      </trkpt>
      <trkpt lat="47.95168" lon="7.03289">
        <ele>1251.4</ele>
        <time>2021-09-27T12:46:58.000Z</time>
      </trkpt>
      <trkpt lat="47.95167" lon="7.03275">
        <ele>1251.7</ele>
        <time>2021-09-27T12:47:06.000Z</time>
      </trkpt>
      <trkpt lat="47.95165" lon="7.03261">
        <ele>1252</ele>
        <time>2021-09-27T12:47:14.000Z</time>
      </trkpt>
      <trkpt lat="47.95162" lon="7.03248">
        <ele>1252.4</ele>
        <time>2021-09-27T12:47:23.000Z</time>
      </trkpt>
      <trkpt lat="47.9516" lon="7.03234">
        <ele>1252.3</ele>
        <time>2021-09-27T12:47:31.000Z</time>
      </trkpt>
      <trkpt lat="47.95161" lon="7.0322">
        <ele>1251.9</ele>
        <time>2021-09-27T12:47:39.000Z</time>
      </trkpt>
      <trkpt lat="47.95161" lon="7.03206">
        <ele>1251.6</ele>
        <time>2021-09-27T12:47:47.000Z</time>
      </trkpt>
      <trkpt lat="47.95159" lon="7.0319">
        <ele>1251.5</ele>
        <time>2021-09-27T12:47:55.000Z</time>
      </trkpt>
      <trkpt lat="47.95156" lon="7.03177">
        <ele>1251.7</ele>
        <time>2021-09-27T12:48:03.000Z</time>
      </trkpt>
      <trkpt lat="47.95152" lon="7.03163">
        <ele>1251.8</ele>
        <time>2021-09-27T12:48:10.000Z</time>
      </trkpt>
      <trkpt lat="47.95154" lon="7.03148">
        <ele>1251.2</ele>
        <time>2021-09-27T12:48:19.000Z</time>
      </trkpt>
      <trkpt lat="47.95156" lon="7.03135">
        <ele>1250.4</ele>
        <time>2021-09-27T12:48:25.000Z</time>
      </trkpt>
      <trkpt lat="47.95156" lon="7.0312">
        <ele>1250</ele>
        <time>2021-09-27T12:48:33.000Z</time>
      </trkpt>
      <trkpt lat="47.95155" lon="7.03107">
        <ele>1249.8</ele>
        <time>2021-09-27T12:48:41.000Z</time>
      </trkpt>
      <trkpt lat="47.95154" lon="7.03092">
        <ele>1249.5</ele>
        <time>2021-09-27T12:48:49.000Z</time>
      </trkpt>
      <trkpt lat="47.95153" lon="7.03078">
        <ele>1249.4</ele>
        <time>2021-09-27T12:48:57.000Z</time>
      </trkpt>
      <trkpt lat="47.95152" lon="7.03063">
        <ele>1249.2</ele>
        <time>2021-09-27T12:49:05.000Z</time>
      </trkpt>
      <trkpt lat="47.95152" lon="7.03048">
        <ele>1248.9</ele>
        <time>2021-09-27T12:49:13.000Z</time>
      </trkpt>
      <trkpt lat="47.95151" lon="7.03034">
        <ele>1248.9</ele>
        <time>2021-09-27T12:49:20.000Z</time>
      </trkpt>
      <trkpt lat="47.95148" lon="7.0302">
        <ele>1249.1</ele>
        <time>2021-09-27T12:49:29.000Z</time>
      </trkpt>
      <trkpt lat="47.95146" lon="7.03006">
        <ele>1249.3</ele>
        <time>2021-09-27T12:49:36.000Z</time>
      </trkpt>
      <trkpt lat="47.95144" lon="7.02992">
        <ele>1249.2</ele>
        <time>2021-09-27T12:49:43.000Z</time>
      </trkpt>
      <trkpt lat="47.95143" lon="7.02978">
        <ele>1248.7</ele>
        <time>2021-09-27T12:49:50.000Z</time>
      </trkpt>
      <trkpt lat="47.95143" lon="7.02964">
        <ele>1248.1</ele>
        <time>2021-09-27T12:49:57.000Z</time>
      </trkpt>
      <trkpt lat="47.95143" lon="7.02951">
        <ele>1247.6</ele>
        <time>2021-09-27T12:50:03.000Z</time>
      </trkpt>
      <trkpt lat="47.95142" lon="7.02936">
        <ele>1247.2</ele>
        <time>2021-09-27T12:50:11.000Z</time>
      </trkpt>
      <trkpt lat="47.95141" lon="7.02922">
        <ele>1246.7</ele>
        <time>2021-09-27T12:50:19.000Z</time>
      </trkpt>
      <trkpt lat="47.9514" lon="7.02906">
        <ele>1246</ele>
        <time>2021-09-27T12:50:26.000Z</time>
      </trkpt>
      <trkpt lat="47.95138" lon="7.02893">
        <ele>1245.8</ele>
        <time>2021-09-27T12:50:34.000Z</time>
      </trkpt>
      <trkpt lat="47.95138" lon="7.02879">
        <ele>1244.9</ele>
        <time>2021-09-27T12:50:42.000Z</time>
      </trkpt>
      <trkpt lat="47.95134" lon="7.02864">
        <ele>1244.9</ele>
        <time>2021-09-27T12:50:50.000Z</time>
      </trkpt>
      <trkpt lat="47.95132" lon="7.0285">
        <ele>1244.6</ele>
        <time>2021-09-27T12:50:58.000Z</time>
      </trkpt>
      <trkpt lat="47.95132" lon="7.02837">
        <ele>1243.6</ele>
        <time>2021-09-27T12:51:04.000Z</time>
      </trkpt>
      <trkpt lat="47.95133" lon="7.02822">
        <ele>1243.1</ele>
        <time>2021-09-27T12:51:13.000Z</time>
      </trkpt>
      <trkpt lat="47.95129" lon="7.02809">
        <ele>1243.7</ele>
        <time>2021-09-27T12:51:21.000Z</time>
      </trkpt>
      <trkpt lat="47.95129" lon="7.02796">
        <ele>1243.6</ele>
        <time>2021-09-27T12:51:28.000Z</time>
      </trkpt>
      <trkpt lat="47.95131" lon="7.02782">
        <ele>1242.9</ele>
        <time>2021-09-27T12:51:37.000Z</time>
      </trkpt>
      <trkpt lat="47.95131" lon="7.02768">
        <ele>1242.7</ele>
        <time>2021-09-27T12:51:45.000Z</time>
      </trkpt>
      <trkpt lat="47.95132" lon="7.02755">
        <ele>1242.4</ele>
        <time>2021-09-27T12:51:51.000Z</time>
      </trkpt>
      <trkpt lat="47.95133" lon="7.02741">
        <ele>1241.9</ele>
        <time>2021-09-27T12:51:59.000Z</time>
      </trkpt>
      <trkpt lat="47.95135" lon="7.02727">
        <ele>1241.3</ele>
        <time>2021-09-27T12:52:09.000Z</time>
      </trkpt>
      <trkpt lat="47.95138" lon="7.02712">
        <ele>1240.5</ele>
        <time>2021-09-27T12:52:17.000Z</time>
      </trkpt>
      <trkpt lat="47.95141" lon="7.02698">
        <ele>1239.6</ele>
        <time>2021-09-27T12:52:24.000Z</time>
      </trkpt>
      <trkpt lat="47.95141" lon="7.02683">
        <ele>1239.3</ele>
        <time>2021-09-27T12:52:32.000Z</time>
      </trkpt>
      <trkpt lat="47.95144" lon="7.0267">
        <ele>1238.4</ele>
        <time>2021-09-27T12:52:37.000Z</time>
      </trkpt>
      <trkpt lat="47.95149" lon="7.02657">
        <ele>1236.7</ele>
        <time>2021-09-27T12:52:43.000Z</time>
      </trkpt>
      <trkpt lat="47.95153" lon="7.02644">
        <ele>1235.3</ele>
        <time>2021-09-27T12:52:51.000Z</time>
      </trkpt>
      <trkpt lat="47.95154" lon="7.0263">
        <ele>1234.5</ele>
        <time>2021-09-27T12:53:00.000Z</time>
      </trkpt>
      <trkpt lat="47.95154" lon="7.02616">
        <ele>1233.9</ele>
        <time>2021-09-27T12:53:09.000Z</time>
      </trkpt>
      <trkpt lat="47.95155" lon="7.02602">
        <ele>1233.2</ele>
        <time>2021-09-27T12:53:17.000Z</time>
      </trkpt>
      <trkpt lat="47.95155" lon="7.02586">
        <ele>1232.6</ele>
        <time>2021-09-27T12:53:23.000Z</time>
      </trkpt>
      <trkpt lat="47.95158" lon="7.02571">
        <ele>1231.2</ele>
        <time>2021-09-27T12:53:30.000Z</time>
      </trkpt>
      <trkpt lat="47.95161" lon="7.02557">
        <ele>1229.8</ele>
        <time>2021-09-27T12:53:38.000Z</time>
      </trkpt>
      <trkpt lat="47.95165" lon="7.02544">
        <ele>1228.5</ele>
        <time>2021-09-27T12:53:47.000Z</time>
      </trkpt>
      <trkpt lat="47.9516" lon="7.02532">
        <ele>1228.8</ele>
        <time>2021-09-27T12:54:40.000Z</time>
      </trkpt>
      <trkpt lat="47.9516" lon="7.02517">
        <ele>1228.1</ele>
        <time>2021-09-27T12:54:47.000Z</time>
      </trkpt>
      <trkpt lat="47.95161" lon="7.02504">
        <ele>1227.1</ele>
        <time>2021-09-27T12:54:54.000Z</time>
      </trkpt>
      <trkpt lat="47.95164" lon="7.02489">
        <ele>1225.2</ele>
        <time>2021-09-27T12:55:01.000Z</time>
      </trkpt>
      <trkpt lat="47.95168" lon="7.02475">
        <ele>1223</ele>
        <time>2021-09-27T12:55:09.000Z</time>
      </trkpt>
      <trkpt lat="47.95171" lon="7.02461">
        <ele>1220.8</ele>
        <time>2021-09-27T12:55:17.000Z</time>
      </trkpt>
      <trkpt lat="47.95173" lon="7.02447">
        <ele>1218.9</ele>
        <time>2021-09-27T12:55:24.000Z</time>
      </trkpt>
      <trkpt lat="47.95175" lon="7.02432">
        <ele>1217</ele>
        <time>2021-09-27T12:55:31.000Z</time>
      </trkpt>
      <trkpt lat="47.95177" lon="7.02419">
        <ele>1215.3</ele>
        <time>2021-09-27T12:55:38.000Z</time>
      </trkpt>
      <trkpt lat="47.95176" lon="7.02404">
        <ele>1214.1</ele>
        <time>2021-09-27T12:55:44.000Z</time>
      </trkpt>
      <trkpt lat="47.95175" lon="7.02389">
        <ele>1212.9</ele>
        <time>2021-09-27T12:55:51.000Z</time>
      </trkpt>
      <trkpt lat="47.95176" lon="7.02376">
        <ele>1211.5</ele>
        <time>2021-09-27T12:55:58.000Z</time>
      </trkpt>
      <trkpt lat="47.95176" lon="7.0236">
        <ele>1210.1</ele>
        <time>2021-09-27T12:56:06.000Z</time>
      </trkpt>
      <trkpt lat="47.95178" lon="7.02345">
        <ele>1208.5</ele>
        <time>2021-09-27T12:56:14.000Z</time>
      </trkpt>
      <trkpt lat="47.95178" lon="7.0233">
        <ele>1207.3</ele>
        <time>2021-09-27T12:56:22.000Z</time>
      </trkpt>
      <trkpt lat="47.9518" lon="7.02317">
        <ele>1206.2</ele>
        <time>2021-09-27T12:56:28.000Z</time>
      </trkpt>
      <trkpt lat="47.95184" lon="7.02303">
        <ele>1205</ele>
        <time>2021-09-27T12:56:35.000Z</time>
      </trkpt>
      <trkpt lat="47.95187" lon="7.0229">
        <ele>1203.9</ele>
        <time>2021-09-27T12:56:42.000Z</time>
      </trkpt>
      <trkpt lat="47.9519" lon="7.02277">
        <ele>1202.8</ele>
        <time>2021-09-27T12:56:49.000Z</time>
      </trkpt>
      <trkpt lat="47.95193" lon="7.02264">
        <ele>1201.6</ele>
        <time>2021-09-27T12:56:56.000Z</time>
      </trkpt>
      <trkpt lat="47.95197" lon="7.0225">
        <ele>1200.3</ele>
        <time>2021-09-27T12:57:04.000Z</time>
      </trkpt>
      <trkpt lat="47.95199" lon="7.02235">
        <ele>1198.7</ele>
        <time>2021-09-27T12:57:12.000Z</time>
      </trkpt>
      <trkpt lat="47.95201" lon="7.02221">
        <ele>1197.2</ele>
        <time>2021-09-27T12:57:19.000Z</time>
      </trkpt>
      <trkpt lat="47.95203" lon="7.02205">
        <ele>1195.6</ele>
        <time>2021-09-27T12:57:27.000Z</time>
      </trkpt>
      <trkpt lat="47.95205" lon="7.0219">
        <ele>1194</ele>
        <time>2021-09-27T12:57:35.000Z</time>
      </trkpt>
      <trkpt lat="47.95206" lon="7.02175">
        <ele>1192.5</ele>
        <time>2021-09-27T12:57:43.000Z</time>
      </trkpt>
      <trkpt lat="47.95207" lon="7.02162">
        <ele>1191.4</ele>
        <time>2021-09-27T12:57:50.000Z</time>
      </trkpt>
      <trkpt lat="47.95209" lon="7.02149">
        <ele>1190.6</ele>
        <time>2021-09-27T12:57:57.000Z</time>
      </trkpt>
      <trkpt lat="47.9521" lon="7.02134">
        <ele>1189.7</ele>
        <time>2021-09-27T12:58:05.000Z</time>
      </trkpt>
      <trkpt lat="47.95209" lon="7.0212">
        <ele>1189.2</ele>
        <time>2021-09-27T12:58:12.000Z</time>
      </trkpt>
      <trkpt lat="47.95208" lon="7.02106">
        <ele>1188.7</ele>
        <time>2021-09-27T12:58:19.000Z</time>
      </trkpt>
      <trkpt lat="47.95206" lon="7.02092">
        <ele>1188.3</ele>
        <time>2021-09-27T12:58:27.000Z</time>
      </trkpt>
      <trkpt lat="47.95204" lon="7.02079">
        <ele>1187.9</ele>
        <time>2021-09-27T12:58:34.000Z</time>
      </trkpt>
      <trkpt lat="47.95201" lon="7.02065">
        <ele>1187.4</ele>
        <time>2021-09-27T12:58:41.000Z</time>
      </trkpt>
      <trkpt lat="47.95197" lon="7.02052">
        <ele>1187.2</ele>
        <time>2021-09-27T12:58:48.000Z</time>
      </trkpt>
      <trkpt lat="47.95193" lon="7.02039">
        <ele>1186.9</ele>
        <time>2021-09-27T12:58:55.000Z</time>
      </trkpt>
      <trkpt lat="47.95189" lon="7.02025">
        <ele>1186.5</ele>
        <time>2021-09-27T12:59:03.000Z</time>
      </trkpt>
      <trkpt lat="47.95186" lon="7.02011">
        <ele>1185.9</ele>
        <time>2021-09-27T12:59:11.000Z</time>
      </trkpt>
      <trkpt lat="47.95187" lon="7.01995">
        <ele>1184.8</ele>
        <time>2021-09-27T12:59:20.000Z</time>
      </trkpt>
      <trkpt lat="47.95191" lon="7.01983">
        <ele>1183.4</ele>
        <time>2021-09-27T12:59:30.000Z</time>
      </trkpt>
      <trkpt lat="47.952" lon="7.01983">
        <ele>1182.2</ele>
        <time>2021-09-27T12:59:37.000Z</time>
      </trkpt>
      <trkpt lat="47.9521" lon="7.0198">
        <ele>1180.8</ele>
        <time>2021-09-27T12:59:46.000Z</time>
      </trkpt>
      <trkpt lat="47.95216" lon="7.0197">
        <ele>1179.4</ele>
        <time>2021-09-27T12:59:53.000Z</time>
      </trkpt>
      <trkpt lat="47.95224" lon="7.01961">
        <ele>1178.1</ele>
        <time>2021-09-27T13:00:02.000Z</time>
      </trkpt>
      <trkpt lat="47.95231" lon="7.0195">
        <ele>1176.8</ele>
        <time>2021-09-27T13:00:10.000Z</time>
      </trkpt>
      <trkpt lat="47.9524" lon="7.01944">
        <ele>1175.7</ele>
        <time>2021-09-27T13:00:18.000Z</time>
      </trkpt>
      <trkpt lat="47.95247" lon="7.01935">
        <ele>1174.7</ele>
        <time>2021-09-27T13:04:11.000Z</time>
      </trkpt>
      <trkpt lat="47.95246" lon="7.01921">
        <ele>1174.5</ele>
        <time>2021-09-27T13:09:01.000Z</time>
      </trkpt>
      <trkpt lat="47.95245" lon="7.01935">
        <ele>1174.9</ele>
        <time>2021-09-27T13:12:16.000Z</time>
      </trkpt>
      <trkpt lat="47.95247" lon="7.01921">
        <ele>1174.3</ele>
        <time>2021-09-27T13:13:23.000Z</time>
      </trkpt>
      <trkpt lat="47.95241" lon="7.01931">
        <ele>1175.2</ele>
        <time>2021-09-27T13:17:36.000Z</time>
      </trkpt>
      <trkpt lat="47.95234" lon="7.01941">
        <ele>1176.2</ele>
        <time>2021-09-27T13:17:44.000Z</time>
      </trkpt>
      <trkpt lat="47.95229" lon="7.01963">
        <ele>1177.6</ele>
        <time>2021-09-27T13:17:55.000Z</time>
      </trkpt>
      <trkpt lat="47.95219" lon="7.01962">
        <ele>1178.8</ele>
        <time>2021-09-27T13:18:05.000Z</time>
      </trkpt>
      <trkpt lat="47.9521" lon="7.01967">
        <ele>1180</ele>
        <time>2021-09-27T13:18:12.000Z</time>
      </trkpt>
      <trkpt lat="47.95206" lon="7.0198">
        <ele>1181.3</ele>
        <time>2021-09-27T13:18:21.000Z</time>
      </trkpt>
      <trkpt lat="47.95197" lon="7.01986">
        <ele>1182.8</ele>
        <time>2021-09-27T13:18:31.000Z</time>
      </trkpt>
      <trkpt lat="47.95188" lon="7.01986">
        <ele>1184</ele>
        <time>2021-09-27T13:18:41.000Z</time>
      </trkpt>
      <trkpt lat="47.95184" lon="7.01999">
        <ele>1185.4</ele>
        <time>2021-09-27T13:19:08.000Z</time>
      </trkpt>
      <trkpt lat="47.95179" lon="7.02011">
        <ele>1187</ele>
        <time>2021-09-27T13:19:22.000Z</time>
      </trkpt>
      <trkpt lat="47.95171" lon="7.02018">
        <ele>1188.6</ele>
        <time>2021-09-27T13:19:31.000Z</time>
      </trkpt>
      <trkpt lat="47.95169" lon="7.02032">
        <ele>1190</ele>
        <time>2021-09-27T13:19:41.000Z</time>
      </trkpt>
      <trkpt lat="47.95165" lon="7.02046">
        <ele>1191.4</ele>
        <time>2021-09-27T13:19:50.000Z</time>
      </trkpt>
      <trkpt lat="47.95159" lon="7.02057">
        <ele>1192.6</ele>
        <time>2021-09-27T13:20:00.000Z</time>
      </trkpt>
      <trkpt lat="47.95153" lon="7.02068">
        <ele>1193.8</ele>
        <time>2021-09-27T13:20:10.000Z</time>
      </trkpt>
      <trkpt lat="47.95146" lon="7.02078">
        <ele>1195.1</ele>
        <time>2021-09-27T13:20:20.000Z</time>
      </trkpt>
      <trkpt lat="47.95141" lon="7.02089">
        <ele>1196</ele>
        <time>2021-09-27T13:20:29.000Z</time>
      </trkpt>
      <trkpt lat="47.95139" lon="7.02103">
        <ele>1196.7</ele>
        <time>2021-09-27T13:20:42.000Z</time>
      </trkpt>
      <trkpt lat="47.95139" lon="7.02117">
        <ele>1197.3</ele>
        <time>2021-09-27T13:20:53.000Z</time>
      </trkpt>
      <trkpt lat="47.95137" lon="7.02132">
        <ele>1198</ele>
        <time>2021-09-27T13:21:04.000Z</time>
      </trkpt>
      <trkpt lat="47.95136" lon="7.02145">
        <ele>1198.6</ele>
        <time>2021-09-27T13:21:15.000Z</time>
      </trkpt>
      <trkpt lat="47.95135" lon="7.02159">
        <ele>1199.2</ele>
        <time>2021-09-27T13:21:26.000Z</time>
      </trkpt>
      <trkpt lat="47.95133" lon="7.02172">
        <ele>1200.5</ele>
        <time>2021-09-27T13:21:36.000Z</time>
      </trkpt>
      <trkpt lat="47.95127" lon="7.02182">
        <ele>1202.7</ele>
        <time>2021-09-27T13:21:48.000Z</time>
      </trkpt>
      <trkpt lat="47.95122" lon="7.02195">
        <ele>1205.1</ele>
        <time>2021-09-27T13:22:00.000Z</time>
      </trkpt>
      <trkpt lat="47.95116" lon="7.02205">
        <ele>1207.3</ele>
        <time>2021-09-27T13:22:12.000Z</time>
      </trkpt>
      <trkpt lat="47.9511" lon="7.02216">
        <ele>1209.7</ele>
        <time>2021-09-27T13:22:23.000Z</time>
      </trkpt>
      <trkpt lat="47.95105" lon="7.02228">
        <ele>1212.1</ele>
        <time>2021-09-27T13:22:35.000Z</time>
      </trkpt>
      <trkpt lat="47.95099" lon="7.02239">
        <ele>1214.6</ele>
        <time>2021-09-27T13:22:47.000Z</time>
      </trkpt>
      <trkpt lat="47.95094" lon="7.0225">
        <ele>1217</ele>
        <time>2021-09-27T13:22:57.000Z</time>
      </trkpt>
      <trkpt lat="47.9509" lon="7.02262">
        <ele>1219</ele>
        <time>2021-09-27T13:23:08.000Z</time>
      </trkpt>
      <trkpt lat="47.95086" lon="7.02276">
        <ele>1221</ele>
        <time>2021-09-27T13:23:20.000Z</time>
      </trkpt>
      <trkpt lat="47.95083" lon="7.02289">
        <ele>1222.8</ele>
        <time>2021-09-27T13:23:31.000Z</time>
      </trkpt>
      <trkpt lat="47.9508" lon="7.02301">
        <ele>1224.5</ele>
        <time>2021-09-27T13:23:42.000Z</time>
      </trkpt>
      <trkpt lat="47.95075" lon="7.02313">
        <ele>1226.3</ele>
        <time>2021-09-27T13:23:54.000Z</time>
      </trkpt>
      <trkpt lat="47.9507" lon="7.02325">
        <ele>1228.3</ele>
        <time>2021-09-27T13:24:08.000Z</time>
      </trkpt>
      <trkpt lat="47.95061" lon="7.02331">
        <ele>1230.3</ele>
        <time>2021-09-27T13:24:26.000Z</time>
      </trkpt>
      <trkpt lat="47.95052" lon="7.02332">
        <ele>1231.7</ele>
        <time>2021-09-27T13:24:35.000Z</time>
      </trkpt>
      <trkpt lat="47.95043" lon="7.02331">
        <ele>1233</ele>
        <time>2021-09-27T13:24:47.000Z</time>
      </trkpt>
      <trkpt lat="47.95036" lon="7.0234">
        <ele>1234.8</ele>
        <time>2021-09-27T13:24:58.000Z</time>
      </trkpt>
      <trkpt lat="47.95028" lon="7.02348">
        <ele>1236.4</ele>
        <time>2021-09-27T13:25:08.000Z</time>
      </trkpt>
      <trkpt lat="47.95021" lon="7.02357">
        <ele>1238</ele>
        <time>2021-09-27T13:25:20.000Z</time>
      </trkpt>
      <trkpt lat="47.95017" lon="7.02369">
        <ele>1239.3</ele>
        <time>2021-09-27T13:25:29.000Z</time>
      </trkpt>
      <trkpt lat="47.95011" lon="7.02381">
        <ele>1240.7</ele>
        <time>2021-09-27T13:25:40.000Z</time>
      </trkpt>
      <trkpt lat="47.95005" lon="7.02392">
        <ele>1242.2</ele>
        <time>2021-09-27T13:25:52.000Z</time>
      </trkpt>
      <trkpt lat="47.95" lon="7.02404">
        <ele>1243.4</ele>
        <time>2021-09-27T13:26:04.000Z</time>
      </trkpt>
      <trkpt lat="47.94996" lon="7.02417">
        <ele>1244.7</ele>
        <time>2021-09-27T13:26:16.000Z</time>
      </trkpt>
      <trkpt lat="47.94991" lon="7.02428">
        <ele>1246</ele>
        <time>2021-09-27T13:26:28.000Z</time>
      </trkpt>
      <trkpt lat="47.94985" lon="7.02439">
        <ele>1247.5</ele>
        <time>2021-09-27T13:26:41.000Z</time>
      </trkpt>
      <trkpt lat="47.94979" lon="7.0245">
        <ele>1249</ele>
        <time>2021-09-27T13:26:52.000Z</time>
      </trkpt>
      <trkpt lat="47.94973" lon="7.02462">
        <ele>1250.5</ele>
        <time>2021-09-27T13:27:04.000Z</time>
      </trkpt>
      <trkpt lat="47.94969" lon="7.02474">
        <ele>1251.9</ele>
        <time>2021-09-27T13:27:13.000Z</time>
      </trkpt>
      <trkpt lat="47.94964" lon="7.02486">
        <ele>1253.3</ele>
        <time>2021-09-27T13:27:24.000Z</time>
      </trkpt>
      <trkpt lat="47.94958" lon="7.02496">
        <ele>1254.9</ele>
        <time>2021-09-27T13:27:37.000Z</time>
      </trkpt>
      <trkpt lat="47.9495" lon="7.02505">
        <ele>1256.7</ele>
        <time>2021-09-27T13:27:50.000Z</time>
      </trkpt>
      <trkpt lat="47.94941" lon="7.02511">
        <ele>1258.2</ele>
        <time>2021-09-27T13:28:00.000Z</time>
      </trkpt>
      <trkpt lat="47.94932" lon="7.02517">
        <ele>1259.8</ele>
        <time>2021-09-27T13:28:14.000Z</time>
      </trkpt>
      <trkpt lat="47.94923" lon="7.02522">
        <ele>1261.3</ele>
        <time>2021-09-27T13:28:25.000Z</time>
      </trkpt>
      <trkpt lat="47.94916" lon="7.0253">
        <ele>1262.4</ele>
        <time>2021-09-27T13:28:35.000Z</time>
      </trkpt>
      <trkpt lat="47.94907" lon="7.02528">
        <ele>1263.4</ele>
        <time>2021-09-27T13:28:47.000Z</time>
      </trkpt>
      <trkpt lat="47.94898" lon="7.02524">
        <ele>1264.4</ele>
        <time>2021-09-27T13:28:56.000Z</time>
      </trkpt>
      <trkpt lat="47.9489" lon="7.02518">
        <ele>1265.2</ele>
        <time>2021-09-27T13:29:06.000Z</time>
      </trkpt>
      <trkpt lat="47.9488" lon="7.02515">
        <ele>1266.2</ele>
        <time>2021-09-27T13:29:16.000Z</time>
      </trkpt>
      <trkpt lat="47.9487" lon="7.02514">
        <ele>1267.3</ele>
        <time>2021-09-27T13:29:26.000Z</time>
      </trkpt>
      <trkpt lat="47.9486" lon="7.02515">
        <ele>1268.4</ele>
        <time>2021-09-27T13:29:36.000Z</time>
      </trkpt>
      <trkpt lat="47.94851" lon="7.02519">
        <ele>1269.5</ele>
        <time>2021-09-27T13:29:46.000Z</time>
      </trkpt>
      <trkpt lat="47.94842" lon="7.0252">
        <ele>1270.5</ele>
        <time>2021-09-27T13:29:57.000Z</time>
      </trkpt>
      <trkpt lat="47.94833" lon="7.02521">
        <ele>1271.5</ele>
        <time>2021-09-27T13:30:06.000Z</time>
      </trkpt>
      <trkpt lat="47.94825" lon="7.02528">
        <ele>1272.2</ele>
        <time>2021-09-27T13:30:17.000Z</time>
      </trkpt>
      <trkpt lat="47.94821" lon="7.02543">
        <ele>1272.8</ele>
        <time>2021-09-27T13:30:44.000Z</time>
      </trkpt>
      <trkpt lat="47.94833" lon="7.02526">
        <ele>1271.7</ele>
        <time>2021-09-27T13:30:51.000Z</time>
      </trkpt>
      <trkpt lat="47.94869" lon="7.02456">
        <ele>1265.1</ele>
        <time>2021-09-27T13:30:56.000Z</time>
      </trkpt>
      <trkpt lat="47.94861" lon="7.02421">
        <ele>1264.5</ele>
        <time>2021-09-27T13:31:01.000Z</time>
      </trkpt>
      <trkpt lat="47.94852" lon="7.02422">
        <ele>1265.8</ele>
        <time>2021-09-27T13:31:06.000Z</time>
      </trkpt>
      <trkpt lat="47.94841" lon="7.02437">
        <ele>1267.7</ele>
        <time>2021-09-27T13:31:11.000Z</time>
      </trkpt>
      <trkpt lat="47.94827" lon="7.0246">
        <ele>1270</ele>
        <time>2021-09-27T13:31:16.000Z</time>
      </trkpt>
      <trkpt lat="47.94816" lon="7.02475">
        <ele>1271.3</ele>
        <time>2021-09-27T13:31:21.000Z</time>
      </trkpt>
      <trkpt lat="47.94806" lon="7.02479">
        <ele>1272.1</ele>
        <time>2021-09-27T13:31:29.000Z</time>
      </trkpt>
      <trkpt lat="47.94798" lon="7.02472">
        <ele>1272.4</ele>
        <time>2021-09-27T13:31:41.000Z</time>
      </trkpt>
      <trkpt lat="47.94787" lon="7.02465">
        <ele>1272.8</ele>
        <time>2021-09-27T13:31:46.000Z</time>
      </trkpt>
      <trkpt lat="47.94782" lon="7.02453">
        <ele>1272.7</ele>
        <time>2021-09-27T13:31:54.000Z</time>
      </trkpt>
      <trkpt lat="47.94775" lon="7.02442">
        <ele>1272.6</ele>
        <time>2021-09-27T13:32:04.000Z</time>
      </trkpt>
      <trkpt lat="47.94769" lon="7.02431">
        <ele>1272.5</ele>
        <time>2021-09-27T13:32:09.000Z</time>
      </trkpt>
      <trkpt lat="47.94761" lon="7.02422">
        <ele>1272.6</ele>
        <time>2021-09-27T13:32:17.000Z</time>
      </trkpt>
      <trkpt lat="47.94752" lon="7.02416">
        <ele>1272.8</ele>
        <time>2021-09-27T13:32:25.000Z</time>
      </trkpt>
      <trkpt lat="47.94745" lon="7.02408">
        <ele>1272.3</ele>
        <time>2021-09-27T13:32:32.000Z</time>
      </trkpt>
      <trkpt lat="47.94736" lon="7.02402">
        <ele>1271.6</ele>
        <time>2021-09-27T13:32:38.000Z</time>
      </trkpt>
      <trkpt lat="47.94727" lon="7.02399">
        <ele>1271.1</ele>
        <time>2021-09-27T13:32:45.000Z</time>
      </trkpt>
      <trkpt lat="47.94718" lon="7.02396">
        <ele>1270.5</ele>
        <time>2021-09-27T13:32:54.000Z</time>
      </trkpt>
      <trkpt lat="47.94708" lon="7.02393">
        <ele>1269.9</ele>
        <time>2021-09-27T13:33:01.000Z</time>
      </trkpt>
      <trkpt lat="47.94699" lon="7.02388">
        <ele>1269.2</ele>
        <time>2021-09-27T13:33:09.000Z</time>
      </trkpt>
      <trkpt lat="47.9469" lon="7.02383">
        <ele>1268.5</ele>
        <time>2021-09-27T13:33:15.000Z</time>
      </trkpt>
      <trkpt lat="47.94682" lon="7.02376">
        <ele>1267.8</ele>
        <time>2021-09-27T13:33:22.000Z</time>
      </trkpt>
      <trkpt lat="47.94672" lon="7.02371">
        <ele>1267.1</ele>
        <time>2021-09-27T13:33:30.000Z</time>
      </trkpt>
      <trkpt lat="47.94664" lon="7.02367">
        <ele>1266.5</ele>
        <time>2021-09-27T13:33:37.000Z</time>
      </trkpt>
      <trkpt lat="47.94653" lon="7.02363">
        <ele>1265.8</ele>
        <time>2021-09-27T13:33:45.000Z</time>
      </trkpt>
      <trkpt lat="47.94644" lon="7.0236">
        <ele>1265.3</ele>
        <time>2021-09-27T13:33:53.000Z</time>
      </trkpt>
      <trkpt lat="47.94635" lon="7.02356">
        <ele>1264.7</ele>
        <time>2021-09-27T13:34:00.000Z</time>
      </trkpt>
      <trkpt lat="47.94626" lon="7.02351">
        <ele>1264.2</ele>
        <time>2021-09-27T13:34:07.000Z</time>
      </trkpt>
      <trkpt lat="47.94617" lon="7.02347">
        <ele>1263.7</ele>
        <time>2021-09-27T13:34:14.000Z</time>
      </trkpt>
      <trkpt lat="47.94608" lon="7.02343">
        <ele>1263.2</ele>
        <time>2021-09-27T13:34:21.000Z</time>
      </trkpt>
      <trkpt lat="47.94599" lon="7.02339">
        <ele>1262.7</ele>
        <time>2021-09-27T13:34:29.000Z</time>
      </trkpt>
      <trkpt lat="47.94592" lon="7.02329">
        <ele>1262</ele>
        <time>2021-09-27T13:34:39.000Z</time>
      </trkpt>
      <trkpt lat="47.94583" lon="7.02325">
        <ele>1261.5</ele>
        <time>2021-09-27T13:34:51.000Z</time>
      </trkpt>
      <trkpt lat="47.94576" lon="7.02316">
        <ele>1260.8</ele>
        <time>2021-09-27T13:36:18.000Z</time>
      </trkpt>
      <trkpt lat="47.94567" lon="7.02315">
        <ele>1260.5</ele>
        <time>2021-09-27T13:36:39.000Z</time>
      </trkpt>
      <trkpt lat="47.94558" lon="7.02313">
        <ele>1260.2</ele>
        <time>2021-09-27T13:36:50.000Z</time>
      </trkpt>
      <trkpt lat="47.94549" lon="7.0231">
        <ele>1259.8</ele>
        <time>2021-09-27T13:36:58.000Z</time>
      </trkpt>
      <trkpt lat="47.94539" lon="7.02308">
        <ele>1259.5</ele>
        <time>2021-09-27T13:37:06.000Z</time>
      </trkpt>
      <trkpt lat="47.94529" lon="7.02309">
        <ele>1259.3</ele>
        <time>2021-09-27T13:37:14.000Z</time>
      </trkpt>
      <trkpt lat="47.9452" lon="7.02314">
        <ele>1259.3</ele>
        <time>2021-09-27T13:37:21.000Z</time>
      </trkpt>
      <trkpt lat="47.94512" lon="7.0232">
        <ele>1259.2</ele>
        <time>2021-09-27T13:37:30.000Z</time>
      </trkpt>
      <trkpt lat="47.94503" lon="7.02324">
        <ele>1259</ele>
        <time>2021-09-27T13:37:38.000Z</time>
      </trkpt>
      <trkpt lat="47.94493" lon="7.02327">
        <ele>1258.3</ele>
        <time>2021-09-27T13:37:45.000Z</time>
      </trkpt>
      <trkpt lat="47.94484" lon="7.02321">
        <ele>1257.6</ele>
        <time>2021-09-27T13:37:54.000Z</time>
      </trkpt>
      <trkpt lat="47.94475" lon="7.02314">
        <ele>1256.9</ele>
        <time>2021-09-27T13:38:01.000Z</time>
      </trkpt>
      <trkpt lat="47.94466" lon="7.02316">
        <ele>1256.2</ele>
        <time>2021-09-27T13:38:09.000Z</time>
      </trkpt>
      <trkpt lat="47.94457" lon="7.02319">
        <ele>1255.5</ele>
        <time>2021-09-27T13:38:17.000Z</time>
      </trkpt>
      <trkpt lat="47.9445" lon="7.02328">
        <ele>1254.8</ele>
        <time>2021-09-27T13:38:25.000Z</time>
      </trkpt>
      <trkpt lat="47.94441" lon="7.02331">
        <ele>1254.1</ele>
        <time>2021-09-27T13:38:31.000Z</time>
      </trkpt>
      <trkpt lat="47.94431" lon="7.02333">
        <ele>1253.2</ele>
        <time>2021-09-27T13:38:36.000Z</time>
      </trkpt>
      <trkpt lat="47.94421" lon="7.02336">
        <ele>1252.2</ele>
        <time>2021-09-27T13:38:43.000Z</time>
      </trkpt>
      <trkpt lat="47.94412" lon="7.02342">
        <ele>1251.2</ele>
        <time>2021-09-27T13:38:51.000Z</time>
      </trkpt>
      <trkpt lat="47.94395" lon="7.02353">
        <ele>1248.9</ele>
        <time>2021-09-27T13:38:56.000Z</time>
      </trkpt>
      <trkpt lat="47.94391" lon="7.02339">
        <ele>1249</ele>
        <time>2021-09-27T13:39:04.000Z</time>
      </trkpt>
      <trkpt lat="47.94383" lon="7.02332">
        <ele>1248.4</ele>
        <time>2021-09-27T13:39:42.000Z</time>
      </trkpt>
      <trkpt lat="47.94373" lon="7.02333">
        <ele>1247.3</ele>
        <time>2021-09-27T13:39:55.000Z</time>
      </trkpt>
      <trkpt lat="47.94365" lon="7.02328">
        <ele>1246.5</ele>
        <time>2021-09-27T13:40:00.000Z</time>
      </trkpt>
      <trkpt lat="47.94355" lon="7.02327">
        <ele>1245.4</ele>
        <time>2021-09-27T13:40:06.000Z</time>
      </trkpt>
      <trkpt lat="47.94346" lon="7.02321">
        <ele>1244.5</ele>
        <time>2021-09-27T13:40:14.000Z</time>
      </trkpt>
      <trkpt lat="47.94337" lon="7.02317">
        <ele>1243.6</ele>
        <time>2021-09-27T13:40:20.000Z</time>
      </trkpt>
      <trkpt lat="47.94329" lon="7.02324">
        <ele>1242.2</ele>
        <time>2021-09-27T13:40:29.000Z</time>
      </trkpt>
      <trkpt lat="47.94319" lon="7.02326">
        <ele>1240.3</ele>
        <time>2021-09-27T13:40:38.000Z</time>
      </trkpt>
      <trkpt lat="47.9431" lon="7.02329">
        <ele>1238.5</ele>
        <time>2021-09-27T13:40:46.000Z</time>
      </trkpt>
      <trkpt lat="47.94301" lon="7.02336">
        <ele>1236.7</ele>
        <time>2021-09-27T13:40:53.000Z</time>
      </trkpt>
      <trkpt lat="47.94297" lon="7.02349">
        <ele>1235.6</ele>
        <time>2021-09-27T13:41:01.000Z</time>
      </trkpt>
      <trkpt lat="47.94289" lon="7.02357">
        <ele>1233.8</ele>
        <time>2021-09-27T13:41:12.000Z</time>
      </trkpt>
      <trkpt lat="47.94285" lon="7.02369">
        <ele>1232.7</ele>
        <time>2021-09-27T13:41:19.000Z</time>
      </trkpt>
      <trkpt lat="47.94281" lon="7.02384">
        <ele>1231.7</ele>
        <time>2021-09-27T13:41:27.000Z</time>
      </trkpt>
      <trkpt lat="47.94275" lon="7.02396">
        <ele>1230.4</ele>
        <time>2021-09-27T13:41:35.000Z</time>
      </trkpt>
      <trkpt lat="47.94278" lon="7.02409">
        <ele>1230.6</ele>
        <time>2021-09-27T13:41:44.000Z</time>
      </trkpt>
      <trkpt lat="47.94281" lon="7.02423">
        <ele>1230.5</ele>
        <time>2021-09-27T13:41:51.000Z</time>
      </trkpt>
      <trkpt lat="47.94272" lon="7.02419">
        <ele>1229.4</ele>
        <time>2021-09-27T13:52:10.000Z</time>
      </trkpt>
      <trkpt lat="47.94266" lon="7.02405">
        <ele>1228.7</ele>
        <time>2021-09-27T13:53:55.000Z</time>
      </trkpt>
      <trkpt lat="47.94261" lon="7.02389">
        <ele>1228.1</ele>
        <time>2021-09-27T13:54:00.000Z</time>
      </trkpt>
      <trkpt lat="47.94256" lon="7.02371">
        <ele>1227.6</ele>
        <time>2021-09-27T13:54:05.000Z</time>
      </trkpt>
      <trkpt lat="47.94247" lon="7.02366">
        <ele>1226.2</ele>
        <time>2021-09-27T13:54:20.000Z</time>
      </trkpt>
      <trkpt lat="47.94242" lon="7.02354">
        <ele>1225.7</ele>
        <time>2021-09-27T13:54:28.000Z</time>
      </trkpt>
      <trkpt lat="47.94236" lon="7.02343">
        <ele>1224.9</ele>
        <time>2021-09-27T13:54:36.000Z</time>
      </trkpt>
      <trkpt lat="47.94226" lon="7.02341">
        <ele>1223.5</ele>
        <time>2021-09-27T13:54:42.000Z</time>
      </trkpt>
      <trkpt lat="47.94217" lon="7.02342">
        <ele>1222.1</ele>
        <time>2021-09-27T13:54:49.000Z</time>
      </trkpt>
      <trkpt lat="47.94206" lon="7.02343">
        <ele>1220.7</ele>
        <time>2021-09-27T13:54:57.000Z</time>
      </trkpt>
      <trkpt lat="47.94197" lon="7.02343">
        <ele>1219.3</ele>
        <time>2021-09-27T13:55:05.000Z</time>
      </trkpt>
      <trkpt lat="47.94187" lon="7.02343">
        <ele>1217.9</ele>
        <time>2021-09-27T13:55:12.000Z</time>
      </trkpt>
      <trkpt lat="47.94178" lon="7.02344">
        <ele>1216.6</ele>
        <time>2021-09-27T13:55:20.000Z</time>
      </trkpt>
      <trkpt lat="47.94168" lon="7.02343">
        <ele>1215.2</ele>
        <time>2021-09-27T13:55:27.000Z</time>
      </trkpt>
      <trkpt lat="47.94159" lon="7.02342">
        <ele>1215.1</ele>
        <time>2021-09-27T13:55:34.000Z</time>
      </trkpt>
      <trkpt lat="47.9415" lon="7.02342">
        <ele>1215.1</ele>
        <time>2021-09-27T13:55:41.000Z</time>
      </trkpt>
      <trkpt lat="47.9414" lon="7.02343">
        <ele>1215.2</ele>
        <time>2021-09-27T13:55:47.000Z</time>
      </trkpt>
      <trkpt lat="47.94131" lon="7.02341">
        <ele>1215.3</ele>
        <time>2021-09-27T13:55:55.000Z</time>
      </trkpt>
      <trkpt lat="47.94121" lon="7.02339">
        <ele>1215.4</ele>
        <time>2021-09-27T13:56:03.000Z</time>
      </trkpt>
      <trkpt lat="47.94111" lon="7.02336">
        <ele>1215.6</ele>
        <time>2021-09-27T13:56:12.000Z</time>
      </trkpt>
      <trkpt lat="47.94102" lon="7.02335">
        <ele>1215.7</ele>
        <time>2021-09-27T13:56:20.000Z</time>
      </trkpt>
      <trkpt lat="47.94092" lon="7.02333">
        <ele>1215.9</ele>
        <time>2021-09-27T13:56:28.000Z</time>
      </trkpt>
      <trkpt lat="47.94083" lon="7.02333">
        <ele>1216</ele>
        <time>2021-09-27T13:56:37.000Z</time>
      </trkpt>
      <trkpt lat="47.94073" lon="7.02332">
        <ele>1216.3</ele>
        <time>2021-09-27T13:56:46.000Z</time>
      </trkpt>
      <trkpt lat="47.94063" lon="7.0233">
        <ele>1216.6</ele>
        <time>2021-09-27T13:56:56.000Z</time>
      </trkpt>
      <trkpt lat="47.94054" lon="7.02329">
        <ele>1216.9</ele>
        <time>2021-09-27T13:57:04.000Z</time>
      </trkpt>
      <trkpt lat="47.94045" lon="7.02326">
        <ele>1217.2</ele>
        <time>2021-09-27T13:57:12.000Z</time>
      </trkpt>
      <trkpt lat="47.94035" lon="7.02325">
        <ele>1217.5</ele>
        <time>2021-09-27T13:57:21.000Z</time>
      </trkpt>
      <trkpt lat="47.94025" lon="7.02327">
        <ele>1218</ele>
        <time>2021-09-27T13:57:30.000Z</time>
      </trkpt>
      <trkpt lat="47.94015" lon="7.02327">
        <ele>1218.4</ele>
        <time>2021-09-27T13:57:38.000Z</time>
      </trkpt>
      <trkpt lat="47.94005" lon="7.02326">
        <ele>1218.8</ele>
        <time>2021-09-27T13:57:46.000Z</time>
      </trkpt>
      <trkpt lat="47.93996" lon="7.02323">
        <ele>1218.7</ele>
        <time>2021-09-27T13:57:54.000Z</time>
      </trkpt>
      <trkpt lat="47.93987" lon="7.02322">
        <ele>1218.1</ele>
        <time>2021-09-27T13:58:01.000Z</time>
      </trkpt>
      <trkpt lat="47.93978" lon="7.02322">
        <ele>1217.5</ele>
        <time>2021-09-27T13:58:09.000Z</time>
      </trkpt>
      <trkpt lat="47.93968" lon="7.0232">
        <ele>1216.9</ele>
        <time>2021-09-27T13:58:16.000Z</time>
      </trkpt>
      <trkpt lat="47.93959" lon="7.02314">
        <ele>1216.4</ele>
        <time>2021-09-27T13:58:24.000Z</time>
      </trkpt>
      <trkpt lat="47.93952" lon="7.02305">
        <ele>1216.1</ele>
        <time>2021-09-27T13:58:39.000Z</time>
      </trkpt>
      <trkpt lat="47.93945" lon="7.02295">
        <ele>1215.9</ele>
        <time>2021-09-27T13:58:44.000Z</time>
      </trkpt>
      <trkpt lat="47.93934" lon="7.02291">
        <ele>1215.5</ele>
        <time>2021-09-27T14:00:14.000Z</time>
      </trkpt>
      <trkpt lat="47.93926" lon="7.02299">
        <ele>1214.7</ele>
        <time>2021-09-27T14:00:19.000Z</time>
      </trkpt>
      <trkpt lat="47.93919" lon="7.02311">
        <ele>1214</ele>
        <time>2021-09-27T14:00:27.000Z</time>
      </trkpt>
      <trkpt lat="47.93913" lon="7.02295">
        <ele>1214.1</ele>
        <time>2021-09-27T14:00:32.000Z</time>
      </trkpt>
      <trkpt lat="47.93905" lon="7.02286">
        <ele>1213.9</ele>
        <time>2021-09-27T14:00:37.000Z</time>
      </trkpt>
      <trkpt lat="47.93896" lon="7.02285">
        <ele>1213.3</ele>
        <time>2021-09-27T14:00:43.000Z</time>
      </trkpt>
      <trkpt lat="47.93886" lon="7.02283">
        <ele>1212.7</ele>
        <time>2021-09-27T14:00:51.000Z</time>
      </trkpt>
      <trkpt lat="47.93877" lon="7.02281">
        <ele>1212.1</ele>
        <time>2021-09-27T14:00:58.000Z</time>
      </trkpt>
      <trkpt lat="47.93868" lon="7.02281">
        <ele>1211.4</ele>
        <time>2021-09-27T14:01:06.000Z</time>
      </trkpt>
      <trkpt lat="47.93857" lon="7.02279">
        <ele>1210.7</ele>
        <time>2021-09-27T14:01:14.000Z</time>
      </trkpt>
      <trkpt lat="47.93848" lon="7.02276">
        <ele>1210.1</ele>
        <time>2021-09-27T14:01:21.000Z</time>
      </trkpt>
      <trkpt lat="47.93839" lon="7.02271">
        <ele>1209.4</ele>
        <time>2021-09-27T14:01:28.000Z</time>
      </trkpt>
      <trkpt lat="47.9383" lon="7.02268">
        <ele>1208.9</ele>
        <time>2021-09-27T14:01:35.000Z</time>
      </trkpt>
      <trkpt lat="47.93821" lon="7.02266">
        <ele>1208.6</ele>
        <time>2021-09-27T14:01:42.000Z</time>
      </trkpt>
      <trkpt lat="47.93812" lon="7.02259">
        <ele>1208.3</ele>
        <time>2021-09-27T14:01:50.000Z</time>
      </trkpt>
      <trkpt lat="47.93803" lon="7.02256">
        <ele>1208</ele>
        <time>2021-09-27T14:01:57.000Z</time>
      </trkpt>
      <trkpt lat="47.93793" lon="7.02252">
        <ele>1207.6</ele>
        <time>2021-09-27T14:02:05.000Z</time>
      </trkpt>
      <trkpt lat="47.93783" lon="7.02247">
        <ele>1207.1</ele>
        <time>2021-09-27T14:02:13.000Z</time>
      </trkpt>
      <trkpt lat="47.93773" lon="7.02242">
        <ele>1206.6</ele>
        <time>2021-09-27T14:02:21.000Z</time>
      </trkpt>
      <trkpt lat="47.93764" lon="7.02239">
        <ele>1206.2</ele>
        <time>2021-09-27T14:02:28.000Z</time>
      </trkpt>
      <trkpt lat="47.93754" lon="7.02236">
        <ele>1205.9</ele>
        <time>2021-09-27T14:02:35.000Z</time>
      </trkpt>
      <trkpt lat="47.93746" lon="7.02231">
        <ele>1206</ele>
        <time>2021-09-27T14:02:43.000Z</time>
      </trkpt>
      <trkpt lat="47.93736" lon="7.02227">
        <ele>1206.5</ele>
        <time>2021-09-27T14:02:51.000Z</time>
      </trkpt>
      <trkpt lat="47.93728" lon="7.02222">
        <ele>1206.9</ele>
        <time>2021-09-27T14:03:00.000Z</time>
      </trkpt>
      <trkpt lat="47.93718" lon="7.02218">
        <ele>1207.4</ele>
        <time>2021-09-27T14:03:07.000Z</time>
      </trkpt>
      <trkpt lat="47.93709" lon="7.02213">
        <ele>1207.9</ele>
        <time>2021-09-27T14:03:17.000Z</time>
      </trkpt>
      <trkpt lat="47.93701" lon="7.02209">
        <ele>1208.5</ele>
        <time>2021-09-27T14:03:25.000Z</time>
      </trkpt>
      <trkpt lat="47.93691" lon="7.02207">
        <ele>1209</ele>
        <time>2021-09-27T14:03:33.000Z</time>
      </trkpt>
      <trkpt lat="47.93683" lon="7.02202">
        <ele>1209.6</ele>
        <time>2021-09-27T14:03:41.000Z</time>
      </trkpt>
      <trkpt lat="47.93673" lon="7.02198">
        <ele>1210.2</ele>
        <time>2021-09-27T14:03:50.000Z</time>
      </trkpt>
      <trkpt lat="47.93664" lon="7.02193">
        <ele>1210.7</ele>
        <time>2021-09-27T14:03:57.000Z</time>
      </trkpt>
      <trkpt lat="47.93655" lon="7.02189">
        <ele>1210.6</ele>
        <time>2021-09-27T14:04:05.000Z</time>
      </trkpt>
      <trkpt lat="47.93646" lon="7.02183">
        <ele>1210.6</ele>
        <time>2021-09-27T14:04:13.000Z</time>
      </trkpt>
      <trkpt lat="47.93638" lon="7.02176">
        <ele>1210.6</ele>
        <time>2021-09-27T14:04:20.000Z</time>
      </trkpt>
      <trkpt lat="47.9363" lon="7.02169">
        <ele>1210.5</ele>
        <time>2021-09-27T14:04:28.000Z</time>
      </trkpt>
      <trkpt lat="47.93621" lon="7.0216">
        <ele>1210.3</ele>
        <time>2021-09-27T14:04:35.000Z</time>
      </trkpt>
      <trkpt lat="47.93615" lon="7.0215">
        <ele>1209.9</ele>
        <time>2021-09-27T14:04:43.000Z</time>
      </trkpt>
      <trkpt lat="47.93608" lon="7.0214">
        <ele>1209.6</ele>
        <time>2021-09-27T14:04:50.000Z</time>
      </trkpt>
      <trkpt lat="47.936" lon="7.0213">
        <ele>1209.2</ele>
        <time>2021-09-27T14:04:58.000Z</time>
      </trkpt>
      <trkpt lat="47.93594" lon="7.0212">
        <ele>1208.9</ele>
        <time>2021-09-27T14:05:05.000Z</time>
      </trkpt>
      <trkpt lat="47.93586" lon="7.02112">
        <ele>1208.7</ele>
        <time>2021-09-27T14:05:12.000Z</time>
      </trkpt>
      <trkpt lat="47.93577" lon="7.02104">
        <ele>1208.6</ele>
        <time>2021-09-27T14:05:20.000Z</time>
      </trkpt>
      <trkpt lat="47.93569" lon="7.02096">
        <ele>1208.7</ele>
        <time>2021-09-27T14:05:29.000Z</time>
      </trkpt>
      <trkpt lat="47.93561" lon="7.02088">
        <ele>1208.9</ele>
        <time>2021-09-27T14:05:36.000Z</time>
      </trkpt>
      <trkpt lat="47.93553" lon="7.02079">
        <ele>1208.9</ele>
        <time>2021-09-27T14:05:45.000Z</time>
      </trkpt>
      <trkpt lat="47.93544" lon="7.02072">
        <ele>1208.9</ele>
        <time>2021-09-27T14:05:52.000Z</time>
      </trkpt>
      <trkpt lat="47.93537" lon="7.02063">
        <ele>1208.9</ele>
        <time>2021-09-27T14:06:01.000Z</time>
      </trkpt>
      <trkpt lat="47.9353" lon="7.02054">
        <ele>1208.8</ele>
        <time>2021-09-27T14:06:09.000Z</time>
      </trkpt>
      <trkpt lat="47.9352" lon="7.02052">
        <ele>1209.2</ele>
        <time>2021-09-27T14:06:37.000Z</time>
      </trkpt>
      <trkpt lat="47.93511" lon="7.02055">
        <ele>1209.8</ele>
        <time>2021-09-27T14:06:45.000Z</time>
      </trkpt>
      <trkpt lat="47.93503" lon="7.02064">
        <ele>1210.4</ele>
        <time>2021-09-27T14:06:53.000Z</time>
      </trkpt>
      <trkpt lat="47.93493" lon="7.02065">
        <ele>1210.8</ele>
        <time>2021-09-27T14:07:02.000Z</time>
      </trkpt>
      <trkpt lat="47.93485" lon="7.02056">
        <ele>1211</ele>
        <time>2021-09-27T14:07:11.000Z</time>
      </trkpt>
      <trkpt lat="47.93476" lon="7.02051">
        <ele>1211.3</ele>
        <time>2021-09-27T14:07:19.000Z</time>
      </trkpt>
      <trkpt lat="47.93468" lon="7.02043">
        <ele>1211.5</ele>
        <time>2021-09-27T14:07:26.000Z</time>
      </trkpt>
      <trkpt lat="47.93461" lon="7.02035">
        <ele>1211.8</ele>
        <time>2021-09-27T14:07:33.000Z</time>
      </trkpt>
      <trkpt lat="47.93454" lon="7.02026">
        <ele>1212</ele>
        <time>2021-09-27T14:07:41.000Z</time>
      </trkpt>
      <trkpt lat="47.93446" lon="7.02016">
        <ele>1212.4</ele>
        <time>2021-09-27T14:07:49.000Z</time>
      </trkpt>
      <trkpt lat="47.93439" lon="7.02007">
        <ele>1212.7</ele>
        <time>2021-09-27T14:07:58.000Z</time>
      </trkpt>
      <trkpt lat="47.93428" lon="7.02004">
        <ele>1213.3</ele>
        <time>2021-09-27T14:08:06.000Z</time>
      </trkpt>
      <trkpt lat="47.93418" lon="7.02002">
        <ele>1213.9</ele>
        <time>2021-09-27T14:08:15.000Z</time>
      </trkpt>
      <trkpt lat="47.93409" lon="7.01999">
        <ele>1213.7</ele>
        <time>2021-09-27T14:08:22.000Z</time>
      </trkpt>
      <trkpt lat="47.934" lon="7.01997">
        <ele>1213.4</ele>
        <time>2021-09-27T14:08:29.000Z</time>
      </trkpt>
      <trkpt lat="47.93391" lon="7.01993">
        <ele>1212.9</ele>
        <time>2021-09-27T14:08:36.000Z</time>
      </trkpt>
      <trkpt lat="47.93382" lon="7.01989">
        <ele>1212.4</ele>
        <time>2021-09-27T14:08:44.000Z</time>
      </trkpt>
      <trkpt lat="47.93372" lon="7.01987">
        <ele>1212.1</ele>
        <time>2021-09-27T14:08:52.000Z</time>
      </trkpt>
      <trkpt lat="47.93362" lon="7.01986">
        <ele>1211.8</ele>
        <time>2021-09-27T14:09:00.000Z</time>
      </trkpt>
      <trkpt lat="47.93352" lon="7.01982">
        <ele>1211.3</ele>
        <time>2021-09-27T14:09:08.000Z</time>
      </trkpt>
      <trkpt lat="47.93343" lon="7.01978">
        <ele>1210.9</ele>
        <time>2021-09-27T14:09:17.000Z</time>
      </trkpt>
      <trkpt lat="47.93333" lon="7.01975">
        <ele>1210.5</ele>
        <time>2021-09-27T14:09:25.000Z</time>
      </trkpt>
      <trkpt lat="47.93323" lon="7.01975">
        <ele>1210.1</ele>
        <time>2021-09-27T14:09:33.000Z</time>
      </trkpt>
      <trkpt lat="47.93314" lon="7.01975">
        <ele>1209.8</ele>
        <time>2021-09-27T14:09:40.000Z</time>
      </trkpt>
      <trkpt lat="47.93305" lon="7.01975">
        <ele>1209.5</ele>
        <time>2021-09-27T14:09:47.000Z</time>
      </trkpt>
      <trkpt lat="47.93296" lon="7.01974">
        <ele>1209.1</ele>
        <time>2021-09-27T14:09:54.000Z</time>
      </trkpt>
      <trkpt lat="47.93287" lon="7.01969">
        <ele>1208.5</ele>
        <time>2021-09-27T14:10:01.000Z</time>
      </trkpt>
      <trkpt lat="47.93277" lon="7.01969">
        <ele>1208.2</ele>
        <time>2021-09-27T14:10:09.000Z</time>
      </trkpt>
      <trkpt lat="47.93267" lon="7.01969">
        <ele>1207.8</ele>
        <time>2021-09-27T14:10:17.000Z</time>
      </trkpt>
      <trkpt lat="47.93258" lon="7.01969">
        <ele>1207.5</ele>
        <time>2021-09-27T14:10:24.000Z</time>
      </trkpt>
      <trkpt lat="47.93249" lon="7.01969">
        <ele>1207.3</ele>
        <time>2021-09-27T14:10:31.000Z</time>
      </trkpt>
      <trkpt lat="47.93239" lon="7.01969">
        <ele>1207.4</ele>
        <time>2021-09-27T14:10:38.000Z</time>
      </trkpt>
      <trkpt lat="47.9323" lon="7.01967">
        <ele>1207.5</ele>
        <time>2021-09-27T14:10:46.000Z</time>
      </trkpt>
      <trkpt lat="47.9322" lon="7.01967">
        <ele>1207.6</ele>
        <time>2021-09-27T14:10:54.000Z</time>
      </trkpt>
      <trkpt lat="47.93211" lon="7.01969">
        <ele>1207.7</ele>
        <time>2021-09-27T14:11:16.000Z</time>
      </trkpt>
      <trkpt lat="47.93202" lon="7.0197">
        <ele>1207.9</ele>
        <time>2021-09-27T14:11:24.000Z</time>
      </trkpt>
      <trkpt lat="47.93192" lon="7.01966">
        <ele>1207.9</ele>
        <time>2021-09-27T14:11:43.000Z</time>
      </trkpt>
      <trkpt lat="47.93184" lon="7.0196">
        <ele>1207.8</ele>
        <time>2021-09-27T14:11:52.000Z</time>
      </trkpt>
      <trkpt lat="47.93174" lon="7.01955">
        <ele>1207.8</ele>
        <time>2021-09-27T14:12:10.000Z</time>
      </trkpt>
      <trkpt lat="47.93165" lon="7.01951">
        <ele>1207.9</ele>
        <time>2021-09-27T14:12:19.000Z</time>
      </trkpt>
      <trkpt lat="47.93155" lon="7.01952">
        <ele>1208.5</ele>
        <time>2021-09-27T14:12:26.000Z</time>
      </trkpt>
      <trkpt lat="47.93147" lon="7.01946">
        <ele>1209</ele>
        <time>2021-09-27T14:12:36.000Z</time>
      </trkpt>
      <trkpt lat="47.93137" lon="7.01946">
        <ele>1209.7</ele>
        <time>2021-09-27T14:12:45.000Z</time>
      </trkpt>
      <trkpt lat="47.93128" lon="7.01943">
        <ele>1210.3</ele>
        <time>2021-09-27T14:12:54.000Z</time>
      </trkpt>
      <trkpt lat="47.93118" lon="7.01942">
        <ele>1211</ele>
        <time>2021-09-27T14:13:03.000Z</time>
      </trkpt>
      <trkpt lat="47.93109" lon="7.01942">
        <ele>1211.7</ele>
        <time>2021-09-27T14:13:11.000Z</time>
      </trkpt>
      <trkpt lat="47.93099" lon="7.01941">
        <ele>1212.4</ele>
        <time>2021-09-27T14:13:20.000Z</time>
      </trkpt>
      <trkpt lat="47.9309" lon="7.01942">
        <ele>1213</ele>
        <time>2021-09-27T14:13:29.000Z</time>
      </trkpt>
      <trkpt lat="47.93081" lon="7.01941">
        <ele>1213.7</ele>
        <time>2021-09-27T14:13:37.000Z</time>
      </trkpt>
      <trkpt lat="47.93071" lon="7.0194">
        <ele>1214.3</ele>
        <time>2021-09-27T14:13:47.000Z</time>
      </trkpt>
      <trkpt lat="47.93061" lon="7.0194">
        <ele>1214.8</ele>
        <time>2021-09-27T14:13:57.000Z</time>
      </trkpt>
      <trkpt lat="47.93052" lon="7.0194">
        <ele>1215.3</ele>
        <time>2021-09-27T14:14:05.000Z</time>
      </trkpt>
      <trkpt lat="47.93042" lon="7.0194">
        <ele>1215.8</ele>
        <time>2021-09-27T14:14:13.000Z</time>
      </trkpt>
      <trkpt lat="47.93033" lon="7.0194">
        <ele>1216.3</ele>
        <time>2021-09-27T14:14:22.000Z</time>
      </trkpt>
      <trkpt lat="47.93024" lon="7.01942">
        <ele>1216.6</ele>
        <time>2021-09-27T14:14:30.000Z</time>
      </trkpt>
      <trkpt lat="47.93014" lon="7.01942">
        <ele>1217.1</ele>
        <time>2021-09-27T14:14:39.000Z</time>
      </trkpt>
      <trkpt lat="47.93004" lon="7.01944">
        <ele>1217.5</ele>
        <time>2021-09-27T14:14:48.000Z</time>
      </trkpt>
      <trkpt lat="47.92994" lon="7.01945">
        <ele>1218</ele>
        <time>2021-09-27T14:14:57.000Z</time>
      </trkpt>
      <trkpt lat="47.92985" lon="7.01945">
        <ele>1218.6</ele>
        <time>2021-09-27T14:15:06.000Z</time>
      </trkpt>
      <trkpt lat="47.92975" lon="7.01946">
        <ele>1219.1</ele>
        <time>2021-09-27T14:15:15.000Z</time>
      </trkpt>
      <trkpt lat="47.92966" lon="7.01946">
        <ele>1219.6</ele>
        <time>2021-09-27T14:15:23.000Z</time>
      </trkpt>
      <trkpt lat="47.92956" lon="7.01949">
        <ele>1220</ele>
        <time>2021-09-27T14:15:32.000Z</time>
      </trkpt>
      <trkpt lat="47.92947" lon="7.01953">
        <ele>1220</ele>
        <time>2021-09-27T14:15:41.000Z</time>
      </trkpt>
      <trkpt lat="47.92939" lon="7.01959">
        <ele>1219.7</ele>
        <time>2021-09-27T14:15:49.000Z</time>
      </trkpt>
      <trkpt lat="47.9293" lon="7.01962">
        <ele>1219.9</ele>
        <time>2021-09-27T14:15:58.000Z</time>
      </trkpt>
      <trkpt lat="47.92922" lon="7.01955">
        <ele>1221.2</ele>
        <time>2021-09-27T14:16:12.000Z</time>
      </trkpt>
      <trkpt lat="47.92912" lon="7.01954">
        <ele>1221.7</ele>
        <time>2021-09-27T14:16:20.000Z</time>
      </trkpt>
      <trkpt lat="47.92902" lon="7.01951">
        <ele>1222</ele>
        <time>2021-09-27T14:16:28.000Z</time>
      </trkpt>
      <trkpt lat="47.92894" lon="7.01947">
        <ele>1222.7</ele>
        <time>2021-09-27T14:16:35.000Z</time>
      </trkpt>
      <trkpt lat="47.92884" lon="7.01944">
        <ele>1223.2</ele>
        <time>2021-09-27T14:16:43.000Z</time>
      </trkpt>
      <trkpt lat="47.92875" lon="7.0194">
        <ele>1224</ele>
        <time>2021-09-27T14:16:50.000Z</time>
      </trkpt>
      <trkpt lat="47.92866" lon="7.01934">
        <ele>1225.1</ele>
        <time>2021-09-27T14:16:58.000Z</time>
      </trkpt>
      <trkpt lat="47.92857" lon="7.01934">
        <ele>1225.2</ele>
        <time>2021-09-27T14:17:06.000Z</time>
      </trkpt>
      <trkpt lat="47.92847" lon="7.01936">
        <ele>1224.9</ele>
        <time>2021-09-27T14:17:13.000Z</time>
      </trkpt>
      <trkpt lat="47.92838" lon="7.01939">
        <ele>1224.3</ele>
        <time>2021-09-27T14:17:20.000Z</time>
      </trkpt>
      <trkpt lat="47.92828" lon="7.01942">
        <ele>1224.5</ele>
        <time>2021-09-27T14:17:28.000Z</time>
      </trkpt>
      <trkpt lat="47.92818" lon="7.01943">
        <ele>1225.8</ele>
        <time>2021-09-27T14:17:36.000Z</time>
      </trkpt>
      <trkpt lat="47.92807" lon="7.01945">
        <ele>1227</ele>
        <time>2021-09-27T14:17:44.000Z</time>
      </trkpt>
      <trkpt lat="47.92798" lon="7.01947">
        <ele>1228</ele>
        <time>2021-09-27T14:17:52.000Z</time>
      </trkpt>
      <trkpt lat="47.92787" lon="7.01949">
        <ele>1229.2</ele>
        <time>2021-09-27T14:18:00.000Z</time>
      </trkpt>
      <trkpt lat="47.92778" lon="7.01952">
        <ele>1230.2</ele>
        <time>2021-09-27T14:18:07.000Z</time>
      </trkpt>
      <trkpt lat="47.9277" lon="7.01957">
        <ele>1231</ele>
        <time>2021-09-27T14:18:14.000Z</time>
      </trkpt>
      <trkpt lat="47.92764" lon="7.01967">
        <ele>1231</ele>
        <time>2021-09-27T14:18:21.000Z</time>
      </trkpt>
      <trkpt lat="47.92763" lon="7.01981">
        <ele>1229.7</ele>
        <time>2021-09-27T14:18:29.000Z</time>
      </trkpt>
      <trkpt lat="47.92763" lon="7.01995">
        <ele>1228.5</ele>
        <time>2021-09-27T14:18:37.000Z</time>
      </trkpt>
      <trkpt lat="47.92767" lon="7.02007">
        <ele>1226.7</ele>
        <time>2021-09-27T14:18:44.000Z</time>
      </trkpt>
      <trkpt lat="47.92773" lon="7.02019">
        <ele>1224.8</ele>
        <time>2021-09-27T14:18:52.000Z</time>
      </trkpt>
      <trkpt lat="47.92777" lon="7.02033">
        <ele>1223.1</ele>
        <time>2021-09-27T14:19:00.000Z</time>
      </trkpt>
      <trkpt lat="47.92782" lon="7.02046">
        <ele>1221.4</ele>
        <time>2021-09-27T14:19:09.000Z</time>
      </trkpt>
      <trkpt lat="47.92786" lon="7.0206">
        <ele>1219.8</ele>
        <time>2021-09-27T14:19:17.000Z</time>
      </trkpt>
      <trkpt lat="47.9279" lon="7.02073">
        <ele>1218.3</ele>
        <time>2021-09-27T14:19:24.000Z</time>
      </trkpt>
      <trkpt lat="47.92792" lon="7.02086">
        <ele>1217.5</ele>
        <time>2021-09-27T14:19:31.000Z</time>
      </trkpt>
      <trkpt lat="47.92795" lon="7.02099">
        <ele>1217</ele>
        <time>2021-09-27T14:19:38.000Z</time>
      </trkpt>
      <trkpt lat="47.92798" lon="7.02113">
        <ele>1216.7</ele>
        <time>2021-09-27T14:19:46.000Z</time>
      </trkpt>
      <trkpt lat="47.92801" lon="7.02126">
        <ele>1216.4</ele>
        <time>2021-09-27T14:19:54.000Z</time>
      </trkpt>
      <trkpt lat="47.92804" lon="7.02139">
        <ele>1216</ele>
        <time>2021-09-27T14:20:02.000Z</time>
      </trkpt>
      <trkpt lat="47.92802" lon="7.02153">
        <ele>1216.5</ele>
        <time>2021-09-27T14:20:10.000Z</time>
      </trkpt>
      <trkpt lat="47.92799" lon="7.02167">
        <ele>1217.4</ele>
        <time>2021-09-27T14:20:20.000Z</time>
      </trkpt>
      <trkpt lat="47.92796" lon="7.0218">
        <ele>1218.7</ele>
        <time>2021-09-27T14:20:29.000Z</time>
      </trkpt>
      <trkpt lat="47.92793" lon="7.02195">
        <ele>1220.4</ele>
        <time>2021-09-27T14:20:37.000Z</time>
      </trkpt>
      <trkpt lat="47.92796" lon="7.02209">
        <ele>1220.4</ele>
        <time>2021-09-27T14:20:46.000Z</time>
      </trkpt>
      <trkpt lat="47.92803" lon="7.02218">
        <ele>1219.1</ele>
        <time>2021-09-27T14:20:53.000Z</time>
      </trkpt>
      <trkpt lat="47.92809" lon="7.02228">
        <ele>1218.2</ele>
        <time>2021-09-27T14:21:01.000Z</time>
      </trkpt>
      <trkpt lat="47.9281" lon="7.02242">
        <ele>1218.6</ele>
        <time>2021-09-27T14:21:09.000Z</time>
      </trkpt>
      <trkpt lat="47.92811" lon="7.02257">
        <ele>1218.7</ele>
        <time>2021-09-27T14:21:17.000Z</time>
      </trkpt>
      <trkpt lat="47.9281" lon="7.02273">
        <ele>1219</ele>
        <time>2021-09-27T14:21:26.000Z</time>
      </trkpt>
      <trkpt lat="47.9281" lon="7.02288">
        <ele>1219.4</ele>
        <time>2021-09-27T14:21:34.000Z</time>
      </trkpt>
      <trkpt lat="47.92809" lon="7.02302">
        <ele>1219.8</ele>
        <time>2021-09-27T14:21:41.000Z</time>
      </trkpt>
      <trkpt lat="47.92808" lon="7.02316">
        <ele>1219.9</ele>
        <time>2021-09-27T14:21:48.000Z</time>
      </trkpt>
      <trkpt lat="47.92808" lon="7.02331">
        <ele>1220.1</ele>
        <time>2021-09-27T14:21:56.000Z</time>
      </trkpt>
      <trkpt lat="47.9281" lon="7.02344">
        <ele>1219.6</ele>
        <time>2021-09-27T14:22:03.000Z</time>
      </trkpt>
      <trkpt lat="47.92809" lon="7.02358">
        <ele>1219.5</ele>
        <time>2021-09-27T14:22:10.000Z</time>
      </trkpt>
      <trkpt lat="47.92806" lon="7.02373">
        <ele>1219.8</ele>
        <time>2021-09-27T14:22:19.000Z</time>
      </trkpt>
      <trkpt lat="47.92805" lon="7.02387">
        <ele>1219.8</ele>
        <time>2021-09-27T14:22:27.000Z</time>
      </trkpt>
      <trkpt lat="47.92804" lon="7.02401">
        <ele>1219.7</ele>
        <time>2021-09-27T14:22:34.000Z</time>
      </trkpt>
      <trkpt lat="47.92804" lon="7.02415">
        <ele>1219.4</ele>
        <time>2021-09-27T14:22:41.000Z</time>
      </trkpt>
      <trkpt lat="47.92803" lon="7.02431">
        <ele>1219</ele>
        <time>2021-09-27T14:22:49.000Z</time>
      </trkpt>
      <trkpt lat="47.928" lon="7.02444">
        <ele>1219</ele>
        <time>2021-09-27T14:22:57.000Z</time>
      </trkpt>
      <trkpt lat="47.92796" lon="7.02459">
        <ele>1219.1</ele>
        <time>2021-09-27T14:23:05.000Z</time>
      </trkpt>
      <trkpt lat="47.92793" lon="7.02473">
        <ele>1219.2</ele>
        <time>2021-09-27T14:23:12.000Z</time>
      </trkpt>
      <trkpt lat="47.92789" lon="7.02485">
        <ele>1219.4</ele>
        <time>2021-09-27T14:23:20.000Z</time>
      </trkpt>
      <trkpt lat="47.92786" lon="7.02499">
        <ele>1219.4</ele>
        <time>2021-09-27T14:23:27.000Z</time>
      </trkpt>
      <trkpt lat="47.92783" lon="7.02512">
        <ele>1218.7</ele>
        <time>2021-09-27T14:23:34.000Z</time>
      </trkpt>
      <trkpt lat="47.92779" lon="7.02524">
        <ele>1218.3</ele>
        <time>2021-09-27T14:23:42.000Z</time>
      </trkpt>
      <trkpt lat="47.92774" lon="7.02536">
        <ele>1218.3</ele>
        <time>2021-09-27T14:23:51.000Z</time>
      </trkpt>
      <trkpt lat="47.92769" lon="7.02548">
        <ele>1218</ele>
        <time>2021-09-27T14:23:58.000Z</time>
      </trkpt>
      <trkpt lat="47.92766" lon="7.02563">
        <ele>1217.2</ele>
        <time>2021-09-27T14:24:07.000Z</time>
      </trkpt>
      <trkpt lat="47.92762" lon="7.02576">
        <ele>1217</ele>
        <time>2021-09-27T14:24:15.000Z</time>
      </trkpt>
      <trkpt lat="47.92755" lon="7.02586">
        <ele>1217.3</ele>
        <time>2021-09-27T14:24:23.000Z</time>
      </trkpt>
      <trkpt lat="47.92747" lon="7.02595">
        <ele>1217.9</ele>
        <time>2021-09-27T14:24:33.000Z</time>
      </trkpt>
      <trkpt lat="47.92739" lon="7.02602">
        <ele>1218.3</ele>
        <time>2021-09-27T14:24:41.000Z</time>
      </trkpt>
      <trkpt lat="47.92733" lon="7.02613">
        <ele>1217.7</ele>
        <time>2021-09-27T14:24:50.000Z</time>
      </trkpt>
      <trkpt lat="47.92729" lon="7.02626">
        <ele>1216.6</ele>
        <time>2021-09-27T14:24:59.000Z</time>
      </trkpt>
      <trkpt lat="47.92723" lon="7.02646">
        <ele>1214.8</ele>
        <time>2021-09-27T14:25:13.000Z</time>
      </trkpt>
      <trkpt lat="47.92723" lon="7.02661">
        <ele>1212.7</ele>
        <time>2021-09-27T14:25:18.000Z</time>
      </trkpt>
      <trkpt lat="47.9272" lon="7.02676">
        <ele>1211.9</ele>
        <time>2021-09-27T14:25:23.000Z</time>
      </trkpt>
      <trkpt lat="47.92712" lon="7.02685">
        <ele>1213</ele>
        <time>2021-09-27T14:25:28.000Z</time>
      </trkpt>
      <trkpt lat="47.92704" lon="7.02677">
        <ele>1214.8</ele>
        <time>2021-09-27T14:25:33.000Z</time>
      </trkpt>
      <trkpt lat="47.92697" lon="7.02685">
        <ele>1215.8</ele>
        <time>2021-09-27T14:25:54.000Z</time>
      </trkpt>
      <trkpt lat="47.92691" lon="7.02697">
        <ele>1216.1</ele>
        <time>2021-09-27T14:26:01.000Z</time>
      </trkpt>
      <trkpt lat="47.92687" lon="7.02709">
        <ele>1216.3</ele>
        <time>2021-09-27T14:26:09.000Z</time>
      </trkpt>
      <trkpt lat="47.92684" lon="7.02722">
        <ele>1216.2</ele>
        <time>2021-09-27T14:26:17.000Z</time>
      </trkpt>
      <trkpt lat="47.92679" lon="7.02736">
        <ele>1216.5</ele>
        <time>2021-09-27T14:26:25.000Z</time>
      </trkpt>
      <trkpt lat="47.92676" lon="7.02748">
        <ele>1216.5</ele>
        <time>2021-09-27T14:26:33.000Z</time>
      </trkpt>
      <trkpt lat="47.9267" lon="7.02761">
        <ele>1216.6</ele>
        <time>2021-09-27T14:26:41.000Z</time>
      </trkpt>
      <trkpt lat="47.92666" lon="7.02774">
        <ele>1216.3</ele>
        <time>2021-09-27T14:26:48.000Z</time>
      </trkpt>
      <trkpt lat="47.92662" lon="7.02787">
        <ele>1215.6</ele>
        <time>2021-09-27T14:26:56.000Z</time>
      </trkpt>
      <trkpt lat="47.92656" lon="7.02797">
        <ele>1215.2</ele>
        <time>2021-09-27T14:27:04.000Z</time>
      </trkpt>
      <trkpt lat="47.92649" lon="7.02806">
        <ele>1214.9</ele>
        <time>2021-09-27T14:27:11.000Z</time>
      </trkpt>
      <trkpt lat="47.92641" lon="7.02816">
        <ele>1214.4</ele>
        <time>2021-09-27T14:27:20.000Z</time>
      </trkpt>
      <trkpt lat="47.92633" lon="7.02824">
        <ele>1214</ele>
        <time>2021-09-27T14:27:28.000Z</time>
      </trkpt>
      <trkpt lat="47.92625" lon="7.02831">
        <ele>1213.7</ele>
        <time>2021-09-27T14:27:36.000Z</time>
      </trkpt>
      <trkpt lat="47.92616" lon="7.02838">
        <ele>1213.1</ele>
        <time>2021-09-27T14:27:43.000Z</time>
      </trkpt>
      <trkpt lat="47.92608" lon="7.02845">
        <ele>1212.3</ele>
        <time>2021-09-27T14:27:52.000Z</time>
      </trkpt>
      <trkpt lat="47.926" lon="7.02853">
        <ele>1211.4</ele>
        <time>2021-09-27T14:28:00.000Z</time>
      </trkpt>
      <trkpt lat="47.92592" lon="7.02859">
        <ele>1210.7</ele>
        <time>2021-09-27T14:28:07.000Z</time>
      </trkpt>
      <trkpt lat="47.92583" lon="7.02866">
        <ele>1209.9</ele>
        <time>2021-09-27T14:28:15.000Z</time>
      </trkpt>
      <trkpt lat="47.92575" lon="7.02872">
        <ele>1208.9</ele>
        <time>2021-09-27T14:28:23.000Z</time>
      </trkpt>
      <trkpt lat="47.92568" lon="7.0288">
        <ele>1207.6</ele>
        <time>2021-09-27T14:28:30.000Z</time>
      </trkpt>
      <trkpt lat="47.92559" lon="7.02887">
        <ele>1206.5</ele>
        <time>2021-09-27T14:28:37.000Z</time>
      </trkpt>
      <trkpt lat="47.92551" lon="7.02893">
        <ele>1205.4</ele>
        <time>2021-09-27T14:28:45.000Z</time>
      </trkpt>
      <trkpt lat="47.92542" lon="7.02899">
        <ele>1204.6</ele>
        <time>2021-09-27T14:28:53.000Z</time>
      </trkpt>
      <trkpt lat="47.92534" lon="7.02906">
        <ele>1203.6</ele>
        <time>2021-09-27T14:29:00.000Z</time>
      </trkpt>
      <trkpt lat="47.92525" lon="7.02911">
        <ele>1202.8</ele>
        <time>2021-09-27T14:29:07.000Z</time>
      </trkpt>
      <trkpt lat="47.92516" lon="7.02915">
        <ele>1202.2</ele>
        <time>2021-09-27T14:29:16.000Z</time>
      </trkpt>
      <trkpt lat="47.92506" lon="7.02919">
        <ele>1201.6</ele>
        <time>2021-09-27T14:29:24.000Z</time>
      </trkpt>
      <trkpt lat="47.92497" lon="7.02923">
        <ele>1200.8</ele>
        <time>2021-09-27T14:29:31.000Z</time>
      </trkpt>
      <trkpt lat="47.92488" lon="7.02924">
        <ele>1200</ele>
        <time>2021-09-27T14:29:39.000Z</time>
      </trkpt>
      <trkpt lat="47.92479" lon="7.02927">
        <ele>1199.1</ele>
        <time>2021-09-27T14:29:46.000Z</time>
      </trkpt>
      <trkpt lat="47.92469" lon="7.02929">
        <ele>1198.3</ele>
        <time>2021-09-27T14:29:54.000Z</time>
      </trkpt>
      <trkpt lat="47.9246" lon="7.02931">
        <ele>1197.5</ele>
        <time>2021-09-27T14:30:03.000Z</time>
      </trkpt>
      <trkpt lat="47.92451" lon="7.02934">
        <ele>1196.6</ele>
        <time>2021-09-27T14:30:13.000Z</time>
      </trkpt>
      <trkpt lat="47.92442" lon="7.02937">
        <ele>1195.8</ele>
        <time>2021-09-27T14:30:21.000Z</time>
      </trkpt>
      <trkpt lat="47.92433" lon="7.02944">
        <ele>1194.8</ele>
        <time>2021-09-27T14:30:29.000Z</time>
      </trkpt>
      <trkpt lat="47.92425" lon="7.02952">
        <ele>1193.8</ele>
        <time>2021-09-27T14:30:37.000Z</time>
      </trkpt>
      <trkpt lat="47.92417" lon="7.02959">
        <ele>1192.9</ele>
        <time>2021-09-27T14:30:44.000Z</time>
      </trkpt>
      <trkpt lat="47.92409" lon="7.02965">
        <ele>1192.2</ele>
        <time>2021-09-27T14:30:52.000Z</time>
      </trkpt>
      <trkpt lat="47.92401" lon="7.02972">
        <ele>1191.6</ele>
        <time>2021-09-27T14:31:00.000Z</time>
      </trkpt>
      <trkpt lat="47.92393" lon="7.02982">
        <ele>1190.8</ele>
        <time>2021-09-27T14:31:08.000Z</time>
      </trkpt>
      <trkpt lat="47.92384" lon="7.02989">
        <ele>1190.2</ele>
        <time>2021-09-27T14:31:18.000Z</time>
      </trkpt>
      <trkpt lat="47.92375" lon="7.02989">
        <ele>1190</ele>
        <time>2021-09-27T14:31:26.000Z</time>
      </trkpt>
      <trkpt lat="47.92365" lon="7.02987">
        <ele>1189.9</ele>
        <time>2021-09-27T14:31:35.000Z</time>
      </trkpt>
      <trkpt lat="47.92355" lon="7.02987">
        <ele>1189.7</ele>
        <time>2021-09-27T14:31:43.000Z</time>
      </trkpt>
      <trkpt lat="47.92346" lon="7.02987">
        <ele>1189.6</ele>
        <time>2021-09-27T14:31:50.000Z</time>
      </trkpt>
      <trkpt lat="47.92336" lon="7.02986">
        <ele>1189.4</ele>
        <time>2021-09-27T14:31:59.000Z</time>
      </trkpt>
      <trkpt lat="47.92328" lon="7.02981">
        <ele>1189.2</ele>
        <time>2021-09-27T14:32:07.000Z</time>
      </trkpt>
      <trkpt lat="47.92319" lon="7.02975">
        <ele>1188.8</ele>
        <time>2021-09-27T14:32:15.000Z</time>
      </trkpt>
      <trkpt lat="47.92312" lon="7.02965">
        <ele>1188.6</ele>
        <time>2021-09-27T14:32:23.000Z</time>
      </trkpt>
      <trkpt lat="47.92307" lon="7.02955">
        <ele>1188.3</ele>
        <time>2021-09-27T14:32:30.000Z</time>
      </trkpt>
      <trkpt lat="47.92299" lon="7.02946">
        <ele>1187.7</ele>
        <time>2021-09-27T14:32:40.000Z</time>
      </trkpt>
      <trkpt lat="47.92292" lon="7.02937">
        <ele>1187.1</ele>
        <time>2021-09-27T14:32:48.000Z</time>
      </trkpt>
      <trkpt lat="47.92283" lon="7.02937">
        <ele>1186.4</ele>
        <time>2021-09-27T14:32:57.000Z</time>
      </trkpt>
      <trkpt lat="47.92275" lon="7.02944">
        <ele>1185.9</ele>
        <time>2021-09-27T14:33:05.000Z</time>
      </trkpt>
      <trkpt lat="47.92267" lon="7.02953">
        <ele>1185.5</ele>
        <time>2021-09-27T14:33:13.000Z</time>
      </trkpt>
      <trkpt lat="47.92258" lon="7.02962">
        <ele>1185.1</ele>
        <time>2021-09-27T14:33:21.000Z</time>
      </trkpt>
      <trkpt lat="47.92249" lon="7.02965">
        <ele>1184.4</ele>
        <time>2021-09-27T14:33:43.000Z</time>
      </trkpt>
      <trkpt lat="47.92247" lon="7.0298">
        <ele>1184.7</ele>
        <time>2021-09-27T14:33:51.000Z</time>
      </trkpt>
      <trkpt lat="47.92249" lon="7.02995">
        <ele>1185.6</ele>
        <time>2021-09-27T14:33:58.000Z</time>
      </trkpt>
      <trkpt lat="47.92259" lon="7.03012">
        <ele>1186.4</ele>
        <time>2021-09-27T14:34:03.000Z</time>
      </trkpt>
      <trkpt lat="47.92252" lon="7.03023">
        <ele>1186.3</ele>
        <time>2021-09-27T14:34:13.000Z</time>
      </trkpt>
      <trkpt lat="47.92251" lon="7.03036">
        <ele>1186.5</ele>
        <time>2021-09-27T14:34:21.000Z</time>
      </trkpt>
      <trkpt lat="47.92251" lon="7.03052">
        <ele>1186.6</ele>
        <time>2021-09-27T14:34:30.000Z</time>
      </trkpt>
      <trkpt lat="47.92253" lon="7.03065">
        <ele>1186.8</ele>
        <time>2021-09-27T14:34:37.000Z</time>
      </trkpt>
      <trkpt lat="47.92254" lon="7.0308">
        <ele>1186.9</ele>
        <time>2021-09-27T14:34:45.000Z</time>
      </trkpt>
      <trkpt lat="47.92256" lon="7.03094">
        <ele>1186.7</ele>
        <time>2021-09-27T14:34:53.000Z</time>
      </trkpt>
      <trkpt lat="47.92257" lon="7.03109">
        <ele>1186.2</ele>
        <time>2021-09-27T14:35:01.000Z</time>
      </trkpt>
      <trkpt lat="47.92259" lon="7.03122">
        <ele>1185.9</ele>
        <time>2021-09-27T14:35:08.000Z</time>
      </trkpt>
      <trkpt lat="47.9226" lon="7.03137">
        <ele>1185.5</ele>
        <time>2021-09-27T14:35:15.000Z</time>
      </trkpt>
      <trkpt lat="47.92262" lon="7.03151">
        <ele>1185</ele>
        <time>2021-09-27T14:35:23.000Z</time>
      </trkpt>
      <trkpt lat="47.92262" lon="7.03165">
        <ele>1184.6</ele>
        <time>2021-09-27T14:35:31.000Z</time>
      </trkpt>
      <trkpt lat="47.92262" lon="7.03181">
        <ele>1183.9</ele>
        <time>2021-09-27T14:35:39.000Z</time>
      </trkpt>
      <trkpt lat="47.92264" lon="7.03195">
        <ele>1183.3</ele>
        <time>2021-09-27T14:35:47.000Z</time>
      </trkpt>
      <trkpt lat="47.92265" lon="7.0321">
        <ele>1182.6</ele>
        <time>2021-09-27T14:35:55.000Z</time>
      </trkpt>
      <trkpt lat="47.92266" lon="7.03224">
        <ele>1181.9</ele>
        <time>2021-09-27T14:36:03.000Z</time>
      </trkpt>
      <trkpt lat="47.92269" lon="7.03239">
        <ele>1181.3</ele>
        <time>2021-09-27T14:36:11.000Z</time>
      </trkpt>
      <trkpt lat="47.92271" lon="7.03253">
        <ele>1180.6</ele>
        <time>2021-09-27T14:36:20.000Z</time>
      </trkpt>
      <trkpt lat="47.92273" lon="7.03267">
        <ele>1180</ele>
        <time>2021-09-27T14:36:28.000Z</time>
      </trkpt>
      <trkpt lat="47.92275" lon="7.03281">
        <ele>1179.4</ele>
        <time>2021-09-27T14:36:37.000Z</time>
      </trkpt>
      <trkpt lat="47.92277" lon="7.03295">
        <ele>1178.9</ele>
        <time>2021-09-27T14:36:47.000Z</time>
      </trkpt>
      <trkpt lat="47.92282" lon="7.03306">
        <ele>1178.5</ele>
        <time>2021-09-27T14:37:49.000Z</time>
      </trkpt>
      <trkpt lat="47.92286" lon="7.0332">
        <ele>1178.2</ele>
        <time>2021-09-27T14:37:57.000Z</time>
      </trkpt>
      <trkpt lat="47.92288" lon="7.03334">
        <ele>1177.8</ele>
        <time>2021-09-27T14:38:05.000Z</time>
      </trkpt>
      <trkpt lat="47.92285" lon="7.03347">
        <ele>1176.8</ele>
        <time>2021-09-27T14:38:12.000Z</time>
      </trkpt>
      <trkpt lat="47.92283" lon="7.03362">
        <ele>1175.8</ele>
        <time>2021-09-27T14:38:21.000Z</time>
      </trkpt>
      <trkpt lat="47.92288" lon="7.03375">
        <ele>1175.3</ele>
        <time>2021-09-27T14:38:30.000Z</time>
      </trkpt>
      <trkpt lat="47.92294" lon="7.03386">
        <ele>1175</ele>
        <time>2021-09-27T14:38:38.000Z</time>
      </trkpt>
      <trkpt lat="47.92302" lon="7.03396">
        <ele>1174.9</ele>
        <time>2021-09-27T14:38:46.000Z</time>
      </trkpt>
      <trkpt lat="47.92306" lon="7.03408">
        <ele>1174.6</ele>
        <time>2021-09-27T14:38:53.000Z</time>
      </trkpt>
      <trkpt lat="47.92313" lon="7.03417">
        <ele>1174.5</ele>
        <time>2021-09-27T14:39:00.000Z</time>
      </trkpt>
      <trkpt lat="47.9232" lon="7.03429">
        <ele>1174.3</ele>
        <time>2021-09-27T14:39:09.000Z</time>
      </trkpt>
      <trkpt lat="47.92326" lon="7.03441">
        <ele>1174.2</ele>
        <time>2021-09-27T14:39:18.000Z</time>
      </trkpt>
      <trkpt lat="47.92331" lon="7.03454">
        <ele>1174</ele>
        <time>2021-09-27T14:39:26.000Z</time>
      </trkpt>
      <trkpt lat="47.92336" lon="7.03465">
        <ele>1173.7</ele>
        <time>2021-09-27T14:39:34.000Z</time>
      </trkpt>
      <trkpt lat="47.92343" lon="7.03475">
        <ele>1173.4</ele>
        <time>2021-09-27T14:39:41.000Z</time>
      </trkpt>
      <trkpt lat="47.92347" lon="7.03487">
        <ele>1173.1</ele>
        <time>2021-09-27T14:39:50.000Z</time>
      </trkpt>
      <trkpt lat="47.92353" lon="7.03497">
        <ele>1173</ele>
        <time>2021-09-27T14:39:57.000Z</time>
      </trkpt>
      <trkpt lat="47.92357" lon="7.0351">
        <ele>1173.7</ele>
        <time>2021-09-27T14:40:04.000Z</time>
      </trkpt>
      <trkpt lat="47.92357" lon="7.03524">
        <ele>1174.4</ele>
        <time>2021-09-27T14:41:00.000Z</time>
      </trkpt>
      <trkpt lat="47.92353" lon="7.03539">
        <ele>1174.9</ele>
        <time>2021-09-27T14:41:08.000Z</time>
      </trkpt>
      <trkpt lat="47.92349" lon="7.03552">
        <ele>1175.2</ele>
        <time>2021-09-27T14:41:16.000Z</time>
      </trkpt>
      <trkpt lat="47.92347" lon="7.03566">
        <ele>1175.6</ele>
        <time>2021-09-27T14:41:23.000Z</time>
      </trkpt>
      <trkpt lat="47.92345" lon="7.03579">
        <ele>1176</ele>
        <time>2021-09-27T14:41:32.000Z</time>
      </trkpt>
      <trkpt lat="47.92345" lon="7.03593">
        <ele>1177.1</ele>
        <time>2021-09-27T14:41:40.000Z</time>
      </trkpt>
      <trkpt lat="47.92345" lon="7.03607">
        <ele>1178.5</ele>
        <time>2021-09-27T14:41:48.000Z</time>
      </trkpt>
      <trkpt lat="47.92347" lon="7.0362">
        <ele>1180</ele>
        <time>2021-09-27T14:41:57.000Z</time>
      </trkpt>
      <trkpt lat="47.92351" lon="7.03633">
        <ele>1181.6</ele>
        <time>2021-09-27T14:42:06.000Z</time>
      </trkpt>
      <trkpt lat="47.92355" lon="7.03646">
        <ele>1183.3</ele>
        <time>2021-09-27T14:42:17.000Z</time>
      </trkpt>
      <trkpt lat="47.92358" lon="7.03659">
        <ele>1184.9</ele>
        <time>2021-09-27T14:42:28.000Z</time>
      </trkpt>
      <trkpt lat="47.92363" lon="7.03671">
        <ele>1186.6</ele>
        <time>2021-09-27T14:42:41.000Z</time>
      </trkpt>
      <trkpt lat="47.92367" lon="7.03683">
        <ele>1188.2</ele>
        <time>2021-09-27T14:42:51.000Z</time>
      </trkpt>
      <trkpt lat="47.92367" lon="7.03696">
        <ele>1189.6</ele>
        <time>2021-09-27T14:43:02.000Z</time>
      </trkpt>
      <trkpt lat="47.92369" lon="7.03709">
        <ele>1191.1</ele>
        <time>2021-09-27T14:43:13.000Z</time>
      </trkpt>
      <trkpt lat="47.92374" lon="7.03721">
        <ele>1192.7</ele>
        <time>2021-09-27T14:43:24.000Z</time>
      </trkpt>
      <trkpt lat="47.92379" lon="7.03734">
        <ele>1194.2</ele>
        <time>2021-09-27T14:43:34.000Z</time>
      </trkpt>
      <trkpt lat="47.92383" lon="7.03746">
        <ele>1195.6</ele>
        <time>2021-09-27T14:43:44.000Z</time>
      </trkpt>
      <trkpt lat="47.9239" lon="7.03756">
        <ele>1196.8</ele>
        <time>2021-09-27T14:43:53.000Z</time>
      </trkpt>
      <trkpt lat="47.92398" lon="7.03749">
        <ele>1196.8</ele>
        <time>2021-09-27T14:44:05.000Z</time>
      </trkpt>
      <trkpt lat="47.92404" lon="7.03738">
        <ele>1196.3</ele>
        <time>2021-09-27T14:44:15.000Z</time>
      </trkpt>
      <trkpt lat="47.92404" lon="7.03734">
        <ele>1196</ele>
        <time>2021-09-27T14:44:41.000Z</time>
      </trkpt>
      <trkpt lat="47.92403" lon="7.03768">
        <ele>1198.3</ele>
        <time>2021-09-27T14:57:37.000Z</time>
      </trkpt>
      <trkpt lat="47.92398" lon="7.0378">
        <ele>1198.9</ele>
        <time>2021-09-27T14:57:47.000Z</time>
      </trkpt>
      <trkpt lat="47.92394" lon="7.03792">
        <ele>1199.6</ele>
        <time>2021-09-27T14:57:57.000Z</time>
      </trkpt>
      <trkpt lat="47.92388" lon="7.03803">
        <ele>1200.4</ele>
        <time>2021-09-27T14:58:05.000Z</time>
      </trkpt>
      <trkpt lat="47.92384" lon="7.03817">
        <ele>1201.4</ele>
        <time>2021-09-27T14:58:14.000Z</time>
      </trkpt>
      <trkpt lat="47.92383" lon="7.03833">
        <ele>1202.8</ele>
        <time>2021-09-27T14:58:38.000Z</time>
      </trkpt>
      <trkpt lat="47.92378" lon="7.03845">
        <ele>1203.4</ele>
        <time>2021-09-27T14:58:48.000Z</time>
      </trkpt>
      <trkpt lat="47.92375" lon="7.03858">
        <ele>1204</ele>
        <time>2021-09-27T14:58:56.000Z</time>
      </trkpt>
      <trkpt lat="47.92373" lon="7.03872">
        <ele>1204.7</ele>
        <time>2021-09-27T14:59:08.000Z</time>
      </trkpt>
      <trkpt lat="47.92369" lon="7.03884">
        <ele>1205.3</ele>
        <time>2021-09-27T14:59:16.000Z</time>
      </trkpt>
      <trkpt lat="47.92366" lon="7.03899">
        <ele>1206</ele>
        <time>2021-09-27T14:59:26.000Z</time>
      </trkpt>
      <trkpt lat="47.92369" lon="7.03912">
        <ele>1206.5</ele>
        <time>2021-09-27T14:59:34.000Z</time>
      </trkpt>
      <trkpt lat="47.92373" lon="7.03925">
        <ele>1207.5</ele>
        <time>2021-09-27T14:59:44.000Z</time>
      </trkpt>
      <trkpt lat="47.92376" lon="7.0394">
        <ele>1209.1</ele>
        <time>2021-09-27T14:59:55.000Z</time>
      </trkpt>
      <trkpt lat="47.92379" lon="7.03953">
        <ele>1210.5</ele>
        <time>2021-09-27T15:00:04.000Z</time>
      </trkpt>
      <trkpt lat="47.92383" lon="7.03966">
        <ele>1211.9</ele>
        <time>2021-09-27T15:00:14.000Z</time>
      </trkpt>
      <trkpt lat="47.92386" lon="7.03979">
        <ele>1213.3</ele>
        <time>2021-09-27T15:00:23.000Z</time>
      </trkpt>
      <trkpt lat="47.92392" lon="7.03991">
        <ele>1214.6</ele>
        <time>2021-09-27T15:00:31.000Z</time>
      </trkpt>
      <trkpt lat="47.92397" lon="7.04003">
        <ele>1215.6</ele>
        <time>2021-09-27T15:00:40.000Z</time>
      </trkpt>
      <trkpt lat="47.92402" lon="7.04015">
        <ele>1215.9</ele>
        <time>2021-09-27T15:00:48.000Z</time>
      </trkpt>
      <trkpt lat="47.92406" lon="7.04029">
        <ele>1216.3</ele>
        <time>2021-09-27T15:00:57.000Z</time>
      </trkpt>
      <trkpt lat="47.92412" lon="7.0404">
        <ele>1216.5</ele>
        <time>2021-09-27T15:01:05.000Z</time>
      </trkpt>
      <trkpt lat="47.92416" lon="7.04052">
        <ele>1216.9</ele>
        <time>2021-09-27T15:01:13.000Z</time>
      </trkpt>
      <trkpt lat="47.92422" lon="7.04065">
        <ele>1216.8</ele>
        <time>2021-09-27T15:01:21.000Z</time>
      </trkpt>
      <trkpt lat="47.92426" lon="7.04078">
        <ele>1216.9</ele>
        <time>2021-09-27T15:01:29.000Z</time>
      </trkpt>
      <trkpt lat="47.9243" lon="7.04091">
        <ele>1216.4</ele>
        <time>2021-09-27T15:01:37.000Z</time>
      </trkpt>
      <trkpt lat="47.92435" lon="7.04103">
        <ele>1215.6</ele>
        <time>2021-09-27T15:01:48.000Z</time>
      </trkpt>
      <trkpt lat="47.92438" lon="7.04117">
        <ele>1214.9</ele>
        <time>2021-09-27T15:01:56.000Z</time>
      </trkpt>
      <trkpt lat="47.92439" lon="7.0413">
        <ele>1214.5</ele>
        <time>2021-09-27T15:02:06.000Z</time>
      </trkpt>
      <trkpt lat="47.92437" lon="7.04143">
        <ele>1214.4</ele>
        <time>2021-09-27T15:02:14.000Z</time>
      </trkpt>
      <trkpt lat="47.92434" lon="7.04157">
        <ele>1214.2</ele>
        <time>2021-09-27T15:02:23.000Z</time>
      </trkpt>
      <trkpt lat="47.9243" lon="7.04169">
        <ele>1214.2</ele>
        <time>2021-09-27T15:02:31.000Z</time>
      </trkpt>
      <trkpt lat="47.92426" lon="7.04183">
        <ele>1214.3</ele>
        <time>2021-09-27T15:02:39.000Z</time>
      </trkpt>
      <trkpt lat="47.92425" lon="7.04184">
        <ele>1214.4</ele>
        <time>2021-09-27T15:03:13.000Z</time>
      </trkpt>
    </trkseg>
  </trk>
</gpx>